<<back to data home page
Ready for summer? Stay in touch!! - DONATE ANY AMOUNT BY CLICKING THIS LINK!!!


    Month/Day/Year       Maximum   Minimum    Rel    Dew       Rainfall  Seasonal  Soil     Soil      Baro       Wind    Wind        Peak    Peak Gust  Evap     Leaf     Net
    and                  Air Temp  Air Temp   Hum    Point     Inches    Rainfall  Temp     Moisture  Pressure   Speed   Direction   Gust    Direction  Pan      Wetness  Radiation
    Local Time           Deg F     Deg F      %      Deg F               Inches    Deg F    dS/m      mbar       knots   comp deg    knots   comp deg   Inches   mV       W_m2
----------------------------------------------------------------------------------------------------------------------------------------------------------------------------------
   08/19/2017 00:20      66.5      66.2       76     58.4      0.00      0.00      85.3     0.32      1014.0     1        87         2        90        8.89     271      -64.7
   08/19/2017 00:10      67.0      66.5       75     58.5      0.00      0.00      85.2     0.32      1014.0     2        71         3        85        8.89     271      -64.7
   08/19/2017 00:00      67.3      67.0       74     58.5      0.00      0.00      85.4     0.32      1014.0     2        68         3        68        8.89     271      -65.3
   08/18/2017 23:50      67.4      67.1       73     58.5      0.00      0.00      85.4     0.32      1014.0     1        53         2        89        8.89     271      -65.7
   08/18/2017 23:40      67.7      67.3       73     58.6      0.00      0.00      85.2     0.32      1014.0     1        50         2        66        8.89     271      -66.3
   08/18/2017 23:30      67.8      67.6       73     58.6      0.00      0.00      85.3     0.32      1014.0     1        61         2        40        8.89     271      -66.6
   08/18/2017 23:20      68.0      67.7       73     58.7      0.00      0.00      85.6     0.32      1014.0     1        57         2        40        8.89     271      -67.1
   08/18/2017 23:10      68.2      67.9       72     58.8      0.00      0.00      85.4     0.32      1014.0     1        76         2        67        8.89     270      -67.8
   08/18/2017 23:00      68.8      68.3       71     58.6      0.00      0.00      85.3     0.32      1014.0     1        99         2       100        8.89     270      -68.5
   08/18/2017 22:50      69.1      68.8       69     58.5      0.00      0.00      85.5     0.32      1014.0     2        60         3        72        8.89     270      -68.3
   08/18/2017 22:40      69.3      69.1       68     58.2      0.00      0.00      85.4     0.32      1014.0     1        77         2        73        8.89     270      -68.5
   08/18/2017 22:30      70.0      69.4       66     58.1      0.00      0.00      85.3     0.32      1014.0     1        87         2        84        8.90     270      -68.8
   08/18/2017 22:20      70.5      70.2       65     58.2      0.00      0.00      85.0     0.32      1014.0     1        55         2        85        8.90     270      -69.5
   08/18/2017 22:10      71.0      70.6       64     58.1      0.00      0.00      85.4     0.32      1014.0     1        42         2        33        8.90     270      -70.2
   08/18/2017 22:00      71.5      71.0       63     58.2      0.00      0.00      85.3     0.32      1014.0     2        63         2        83        8.90     270      -71.3
   08/18/2017 21:50      72.0      71.5       62     57.9      0.00      0.00      85.1     0.32      1014.0     1        64         2        97        8.90     270      -71.5
   08/18/2017 21:40      72.5      71.9       51     53.2      0.00      0.00      85.4     0.32      1014.0     1        74         2       111        8.90     269      -72.0
   08/18/2017 21:30      72.8      72.3       50     52.6      0.00      0.00      85.5     0.32      1014.0     1       250         3       213        8.90     269      -72.6
   08/18/2017 21:20      73.2      72.7       49     52.8      0.00      0.00      85.5     0.32      1014.0     1        80         2        44        8.90     269      -73.8
   08/18/2017 21:10      74.0      73.2       48     52.9      0.00      0.00      85.4     0.32      1014.0     1        82         1        54        8.90     269      -74.9
   08/18/2017 21:00      74.3      74.1       47     52.9      0.00      0.00      85.3     0.32      1014.0     2       218         3       244        8.91     269      -76.4
   08/18/2017 20:50      74.5      74.4       47     53.0      0.00      0.00      85.2     0.32      1014.0     1       216         2       209        8.91     269      -77.5
   08/18/2017 20:40      75.2      74.6       46     53.0      0.00      0.00      85.4     0.32      1013.0     3       202         5       188        8.91     269      -78.2
   08/18/2017 20:30      75.8      75.2       45     52.9      0.00      0.00      85.6     0.32      1013.0     2       211         3       215        8.92     269      -79.3
   08/18/2017 20:20      76.0      75.7       45     52.9      0.00      0.00      85.4     0.32      1013.0     3       237         6       234        8.92     269      -80.4
   08/18/2017 20:10      76.7      76.1       44     53.0      0.00      0.00      85.2     0.32      1013.0     3       230         5       250        8.92     269      -81.7
   08/18/2017 20:00      77.8      76.8       42     52.5      0.00      0.00      85.2     0.32      1013.0     2       219         4       199        8.93     268      -82.7
   08/18/2017 19:50      78.7      77.9       40     51.9      0.00      0.00      85.3     0.32      1013.0     2       245         4       221        8.93     269      -82.6
   08/18/2017 19:40      79.9      78.8       39     52.1      0.00      0.00      85.3     0.32      1013.0     2       240         3       231        8.94     268      -80.7
   08/18/2017 19:30      80.5      79.9       37     51.8      0.00      0.00      85.1     0.32      1013.0     2       249         3       254        8.94     268      -77.0
   08/18/2017 19:20      80.9      80.5       36     51.6      0.00      0.00      85.2     0.32      1013.0     2       265         4       304        8.95     268      -72.8
   08/18/2017 19:10      81.9      81.1       36     52.2      0.00      0.00      85.2     0.32      1013.0     4       312         6       297        8.96     268      -61.3
   08/18/2017 19:00      82.2      81.7       37     52.8      0.00      0.00      85.1     0.32      1013.0     3       324         6       330        8.96     268      -46.3
   08/18/2017 18:50      83.3      82.4       36     53.1      0.00      0.00      85.0     0.32      1012.0     5       321         8       330        8.97     268      -28.4
   08/18/2017 18:40      84.3      83.3       35     53.3      0.00      0.00      85.1     0.32      1012.0     4       294         6       302        8.97     268       -8.2
   08/18/2017 18:30      84.4      83.8       35     53.6      0.00      0.00      84.9     0.32      1012.0     4       318         8       297        8.97     268       14.7
   08/18/2017 18:20      84.7      84.3       35     53.7      0.00      0.00      84.9     0.32      1012.0     5       310         8       327        8.97     268       36.9
   08/18/2017 18:10      85.7      84.7       34     53.8      0.00      0.00      84.9     0.32      1012.0     6       300         7       287        9.02     268       59.3
   08/18/2017 18:00      86.4      85.5       33     53.5      0.00      0.00      84.9     0.31      1012.0     4       303         7       308        9.05     268       82.3
   08/18/2017 17:50      86.8      86.3       31     52.8      0.00      0.00      84.9     0.31      1012.0     4       321         6       332        9.05     268      104.4
   08/18/2017 17:40      87.3      86.3       31     52.6      0.00      0.00      84.7     0.31      1012.0     6       348         9       345        9.08     268      127.5
   08/18/2017 17:30      87.7      87.3       31     53.3      0.00      0.00      84.7     0.31      1012.0     5       330         7       327        9.09     268      151.8
   08/18/2017 17:20      87.9      87.2       32     53.9      0.00      0.00      84.5     0.31      1012.0     6       326        10       320        9.09     268      176.2
   08/18/2017 17:10      88.1      87.6       31     53.9      0.00      0.00      84.6     0.31      1012.0     5       327         8       307        9.09     268      199.3
   08/18/2017 17:00      89.0      88.5       30     53.5      0.00      0.00      84.5     0.31      1012.0     5       301         7       325        9.09     268      222.2
   08/18/2017 16:50      89.6      89.2       30     53.7      0.00      0.00      84.4     0.31      1012.0     5       315         9       359        9.10     268      243.3
   08/18/2017 16:40      89.8      89.0       30     53.7      0.00      0.00      84.4     0.31      1012.0     4       294         7       319        9.10     268      267.9
   08/18/2017 16:30      90.1      89.3       31     54.8      0.00      0.00      84.2     0.31      1013.0     5       327         9       313        9.10     268      287.3
   08/18/2017 16:20      90.1      89.3       37     59.9      0.00      0.00      84.3     0.31      1013.0     3       342         4       337        9.10     269      308.2
   08/18/2017 16:10      89.9      89.6       37     60.1      0.00      0.00      84.2     0.31      1013.0     3        33         6        57        9.10     269      329.1
   08/18/2017 16:00      90.3      89.6       38     60.6      0.00      0.00      84.2     0.31      1013.0     4        21         6         3        9.10     269      348.8
   08/18/2017 15:50      90.7      89.7       36     59.8      0.00      0.00      84.1     0.31      1013.0     4       350         4       309        9.10     269      370.6
   08/18/2017 15:40      90.2      89.7       37     60.1      0.00      0.00      84.0     0.31      1013.0     2        97         3       163        9.10     270      385.7
   08/18/2017 15:30      90.1      89.3       37     60.2      0.00      0.00      83.9     0.31      1013.0     3        42         4       314        9.10     269      402.1
   08/18/2017 15:20      89.9      89.1       38     60.5      0.00      0.00      83.9     0.31      1013.0     4        14         5       342        9.10     270      416.3
   08/18/2017 15:10      90.6      89.2       37     60.3      0.00      0.00      83.8     0.31      1013.0     4        34         5        77        9.11     269      432.4
   08/18/2017 15:00      90.5      89.5       37     60.0      0.00      0.00      83.6     0.31      1013.0     3        42         4        61        9.11     270      448.7
   08/18/2017 14:50      89.9      88.5       37     59.9      0.00      0.00      83.6     0.31      1013.0     4        47         6        20        9.11     270      462.8
   08/18/2017 14:40      89.7      88.7       37     59.7      0.00      0.00      83.6     0.31      1013.0     5        47         7        61        9.11     270      473.9
   08/18/2017 14:30      90.1      89.4       36     59.4      0.00      0.00      83.5     0.31      1014.0     4        47         8        80        9.11     270      485.5
   08/18/2017 14:20      89.9      89.3       36     59.4      0.00      0.00      83.5     0.31      1014.0     4        57         5       116        9.11     270      496.4
   08/18/2017 14:10      90.1      88.0       37     59.1      0.00      0.00      83.4     0.31      1014.0     4        48         5        21        9.11     270      506.2
   08/18/2017 14:00      89.3      88.6       37     59.4      0.00      0.00      83.3     0.31      1014.0     4        68         6       105        9.11     270      513.6
   08/18/2017 13:50      90.2      88.4       36     59.4      0.00      0.00      83.4     0.31      1014.0     4        59         8        71        9.11     270      517.7
   08/18/2017 13:40      89.6      88.5       34     57.3      0.00      0.00      83.2     0.31      1014.0     4       346         7       347        9.11     270      524.0
   08/18/2017 13:30      89.2      88.1       35     57.6      0.00      0.00      83.3     0.31      1014.0     3        40         7        32        9.11     270      529.3
   08/18/2017 13:20      88.4      87.5       36     57.6      0.00      0.00      83.1     0.31      1014.0     3        19         5         2        9.11     270      534.5
   08/18/2017 13:10      87.9      87.6       37     58.2      0.00      0.00      83.1     0.31      1014.0     3        12         5       115        9.11     271      538.8
   08/18/2017 13:00      87.6      84.6       39     58.2      0.00      0.00      83.1     0.31      1014.0     3        60         5        20        9.11     271      543.3
   08/18/2017 12:50      85.3      84.6       39     57.4      0.00      0.00      82.8     0.31      1014.0     4       143         7       161        9.11     271      545.5
   08/18/2017 12:40      85.3      84.1       39     57.4      0.00      0.00      83.0     0.31      1015.0     3       136         5       151        9.11     271      543.1
   08/18/2017 12:30      85.6      84.9       39     57.5      0.00      0.00      83.0     0.31      1015.0     3        57         6       131        9.11     271      538.4
   08/18/2017 12:20      85.5      84.4       39     57.1      0.00      0.00      83.0     0.31      1015.0     3        30         6        80        9.11     271      535.1
   08/18/2017 12:10      84.7      84.2       39     56.9      0.00      0.00      83.0     0.31      1015.0     2       346         5         8        9.11     271      534.6
   08/18/2017 12:00      84.6      83.6       39     57.0      0.00      0.00      83.0     0.31      1015.0     3        64         5        74        9.11     271      527.7
   08/18/2017 11:50      83.6      82.5       40     56.4      0.00      0.00      82.9     0.31      1015.0     3       334         6       355        9.12     271      523.6
   08/18/2017 11:40      82.8      81.9       41     56.1      0.00      0.00      83.0     0.31      1015.0     2        25         3         4        9.12     271      514.0
   08/18/2017 11:30      81.8      80.7       43     56.4      0.00      0.00      83.0     0.31      1015.0     2        25         4       318        9.12     272      505.2
   08/18/2017 11:20      81.5      80.7       43     56.5      0.00      0.00      83.1     0.31      1015.0     2        20         4         6        9.12     272      497.3
   08/18/2017 11:10      81.5      80.3       44     57.0      0.00      0.00      83.2     0.31      1016.0     3       105         4       128        9.12     272      485.2
   08/18/2017 11:00      79.8      78.8       47     57.1      0.00      0.00      82.9     0.31      1016.0     3       344         5         0        9.12     272      474.1
   08/18/2017 10:50      78.9      77.8       49     57.6      0.00      0.00      83.3     0.31      1016.0     3       328         4         0        9.12     272      460.9
   08/18/2017 10:40      78.5      77.9       50     58.2      0.00      0.00      82.9     0.31      1016.0     3        11         4        22        9.12     272      447.1
   08/18/2017 10:30      78.3      76.9       52     58.5      0.00      0.00      83.1     0.31      1016.0     2        10         4        57        9.12     273      433.8
   08/18/2017 10:20      76.9      76.3       53     58.4      0.00      0.00      83.1     0.31      1016.0     3         3         4       321        9.12     274      416.5
   08/18/2017 10:10      77.3      76.2       53     58.4      0.00      0.00      83.5     0.31      1016.0     2        52         3        30        9.12     274      401.4
   08/18/2017 10:00      76.4      74.2       55     58.2      0.00      0.00      83.3     0.31      1016.0     3        44         5        77        9.12     274      385.3
   08/18/2017 09:50      74.9      74.1       58     58.6      0.00      0.00      83.2     0.31      1016.0     3        40         4        67        9.12     275      365.9
   08/18/2017 09:40      74.8      73.2       59     58.5      0.00      0.00      83.3     0.31      1016.0     2        70         5        61        9.12     274      348.4
   08/18/2017 09:30      73.3      72.5       61     58.7      0.00      0.00      83.2     0.31      1016.0     2        18         4        79        9.12     274      329.1
   08/18/2017 09:20      72.8      71.7       62     58.6      0.00      0.00      83.4     0.31      1016.0     2        78         4        64        9.12     274      310.1
   08/18/2017 09:10      71.8      71.0       64     58.4      0.00      0.00      83.5     0.31      1016.0     2        55         3        84        9.12     275      289.2
   08/18/2017 09:00      71.9      70.2       64     58.3      0.00      0.00      83.4     0.31      1016.0     2        50         5        78        9.12     275      268.5
   08/18/2017 08:50      70.2      69.0       66     57.7      0.00      0.00      83.3     0.31      1016.0     2        77         3        92        9.12     275      250.0
   08/18/2017 08:40      68.9      67.8       68     57.5      0.00      0.00      83.5     0.31      1016.0     2        86         3        35        9.12     275      229.9
   08/18/2017 08:30      67.9      67.4       70     57.4      0.00      0.00      83.5     0.31      1016.0     2        24         4         6        9.12     275      206.6
   08/18/2017 08:20      67.4      66.7       71     57.2      0.00      0.00      83.6     0.32      1016.0     2        64         3        84        9.12     275      128.6
   08/18/2017 08:10      66.7      65.7       73     57.3      0.00      0.00      83.3     0.32      1016.0     2        58         4        69        9.13     275       86.3
   08/18/2017 08:00      65.8      65.3       74     57.3      0.00      0.00      83.4     0.32      1016.0     2       336         3       356        9.13     274        4.6
   08/18/2017 07:50      65.4      64.8       76     57.2      0.00      0.00      83.5     0.32      1016.0     1       142         2       117        9.13     274      -11.2
   08/18/2017 07:40      64.9      64.1       78     57.4      0.00      0.00      83.6     0.32      1016.0     2       117         3       133        9.13     274       -5.4
   08/18/2017 07:30      64.3      63.3       80     57.5      0.00      0.00      83.8     0.32      1016.0     2        99         3       131        9.13     274       -1.8
   08/18/2017 07:20      63.3      62.1       83     57.5      0.00      0.00      83.6     0.32      1016.0     1       110         2       106        9.13     274      -20.2
   08/18/2017 07:10      62.1      61.3       86     57.3      0.00      0.00      83.7     0.32      1016.0     0       172         0       182        9.13     274      -21.3
   08/18/2017 07:00      61.4      60.6       86     56.7      0.00      0.00      83.6     0.32      1016.0     1       141         1       141        9.13     274      -26.2
   08/18/2017 06:50      60.8      60.4       87     56.5      0.00      0.00      83.7     0.32      1016.0     1       144         1       130        9.13     274      -30.0
   08/18/2017 06:40      60.6      60.4       87     56.6      0.00      0.00      83.6     0.32      1016.0     1       141         2       133        9.13     274      -35.1
   08/18/2017 06:30      60.9      60.6       87     56.9      0.00      0.00      83.8     0.32      1016.0     1       152         2       158        9.13     273      -40.0
   08/18/2017 06:20      61.0      60.6       87     56.8      0.00      0.00      83.8     0.32      1015.0     1       144         2       140        9.13     273      -45.9
   08/18/2017 06:10      60.9      60.6       86     56.6      0.00      0.00      83.9     0.32      1015.0     1       160         1       176        9.13     273      -50.1
   08/18/2017 06:00      61.0      60.7       86     56.7      0.00      0.00      83.5     0.32      1015.0     2       160         2       148        9.13     273      -51.1
   08/18/2017 05:50      61.2      60.9       86     56.7      0.00      0.00      83.8     0.32      1015.0     2       154         3       166        9.13     273      -52.2
   08/18/2017 05:40      61.2      60.9       85     56.6      0.00      0.00      83.8     0.32      1015.0     1       156         2       139        9.13     273      -52.8
   08/18/2017 05:30      61.5      61.3       84     56.6      0.00      0.00      84.3     0.32      1015.0     1       158         1       150        9.13     273      -53.5
   08/18/2017 05:20      61.9      61.6       85     57.1      0.00      0.00      84.2     0.32      1015.0     1       151         2       140        9.13     273      -52.4
   08/18/2017 05:10      61.9      61.6       84     56.9      0.00      0.00      84.2     0.32      1015.0     1       129         2       112        9.13     273      -54.0
   08/18/2017 05:00      62.3      61.9       83     57.0      0.00      0.00      84.2     0.32      1015.0     1       125         1       119        9.13     273      -54.0
   08/18/2017 04:50      62.7      62.3       83     57.1      0.00      0.00      84.0     0.32      1015.0     1       108         1       117        9.13     273      -54.7
   08/18/2017 04:40      62.8      62.5       82     57.1      0.00      0.00      84.1     0.32      1015.0     0       113         1        78        9.13     273      -56.5
   08/18/2017 04:30      62.9      62.7       81     57.0      0.00      0.00      84.0     0.32      1015.0     1        72         2       100        9.13     273      -57.6
   08/18/2017 04:20      63.4      63.0       81     57.1      0.00      0.00      84.1     0.32      1015.0     1        87         1        88        9.13     273      -57.8
   08/18/2017 04:10      63.5      63.3       81     57.3      0.00      0.00      84.1     0.32      1015.0     1        74         3        68        9.13     273      -58.8
   08/18/2017 04:00      63.4      63.2       81     57.3      0.00      0.00      84.3     0.32      1015.0     2        87         3        54        9.13     273      -58.7
   08/18/2017 03:50      63.5      62.8       81     57.0      0.00      0.00      84.2     0.32      1015.0     2        80         4       100        9.13     273      -58.3
   08/18/2017 03:40      62.5      62.1       79     55.5      0.00      0.00      84.2     0.32      1015.0     2        97         2        86        9.13     273      -57.2
   08/18/2017 03:30      62.5      62.3       78     55.4      0.00      0.00      84.3     0.32      1015.0     1        53         1        69        9.13     273      -56.6
   08/18/2017 03:20      63.0      62.6       77     55.7      0.00      0.00      84.3     0.32      1015.0     1       130         1       129        9.13     273      -57.2
   08/18/2017 03:10      63.2      62.9       77     55.9      0.00      0.00      84.4     0.32      1015.0     1       154         1       155        9.13     273      -57.0
   08/18/2017 03:00      63.2      62.8       77     55.8      0.00      0.00      84.6     0.32      1015.0     1       168         1       163        9.13     272      -56.8
   08/18/2017 02:50      63.3      62.9       76     55.4      0.00      0.00      84.6     0.32      1015.0     1        82         1        93        9.13     273      -57.7
   08/18/2017 02:40      63.5      63.3       76     55.6      0.00      0.00      84.4     0.32      1015.0     1       111         1       145        9.13     273      -57.9
   08/18/2017 02:30      63.7      63.3       75     55.3      0.00      0.00      84.7     0.32      1015.0     1       154         2       130        9.13     273      -58.1
   08/18/2017 02:20      63.9      63.9       75     55.8      0.00      0.00      84.6     0.32      1015.0     1       134         2       139        9.13     272      -58.6
   08/18/2017 02:10      64.0      63.7       75     55.9      0.00      0.00      84.6     0.32      1015.0     1       174         1       175        9.13     272      -58.2
   08/18/2017 02:00      63.8      63.5       75     55.5      0.00      0.00      84.7     0.32      1015.0     1       155         2       152        9.13     272      -59.4
   08/18/2017 01:50      64.4      63.8       74     55.6      0.00      0.00      84.6     0.32      1015.0     2       150         2       140        9.13     272      -60.5
   08/18/2017 01:40      64.5      64.2       74     55.8      0.00      0.00      84.9     0.32      1015.0     1       162         1       183        9.13     272      -60.4
   08/18/2017 01:30      65.2      64.5       72     55.8      0.00      0.00      84.8     0.32      1015.0     2       152         2       148        9.13     272      -60.6
   08/18/2017 01:20      65.5      65.2       72     56.0      0.00      0.00      84.4     0.32      1015.0     1       177         1       197        9.13     272      -60.6
   08/18/2017 01:10      65.2      64.9       72     55.7      0.00      0.00      84.8     0.32      1015.0     1       186         2       189        9.13     272      -60.9
   08/18/2017 01:00      65.3      65.0       71     55.5      0.00      0.00      84.6     0.32      1015.0     1       113         1       140        9.13     272      -61.5
   08/18/2017 00:50      66.0      65.4       69     55.1      0.00      0.00      84.7     0.32      1015.0     1       146         1       127        9.13     272      -61.4
   08/18/2017 00:40      66.2      65.9       69     55.8      0.00      0.00      84.7     0.32      1015.0     1       208         1       227        9.13     272      -60.0
   08/18/2017 00:30      66.3      66.2       70     56.0      0.00      0.00      84.8     0.32      1015.0     0        95         1       157        9.13     272      -61.3
   08/18/2017 00:20      66.5      66.2       69     55.8      0.00      0.00      84.8     0.32      1015.0     1       181         1       145        9.13     272      -62.2
   08/18/2017 00:10      67.1      66.5       68     55.8      0.00      0.00      85.1     0.32      1015.0     1       146         1       184        9.13     272      -62.4
   08/18/2017 00:00      67.5      67.1       66     55.7      0.00      0.00      84.7     0.32      1015.0     1        95         1       126        9.13     272      -64.0
   08/17/2017 23:50      68.0      67.6       65     55.7      0.00      0.00      84.9     0.32      1015.0     1       143         2       165        9.13     272      -65.1
   08/17/2017 23:40      68.5      68.1       64     55.9      0.00      0.00      85.1     0.32      1015.0     2       213         3       226        9.13     272      -65.8
   08/17/2017 23:30      69.1      68.6       63     55.9      0.00      0.00      85.1     0.32      1015.0     3       233         3       212        9.13     272      -66.2
   08/17/2017 23:20      69.2      69.0       63     56.0      0.00      0.00      84.7     0.32      1015.0     2       244         3       236        9.13     272      -65.9
   08/17/2017 23:10      69.4      69.1       62     55.9      0.00      0.00      84.9     0.32      1015.0     2       236         3       241        9.13     271      -64.6
   08/17/2017 23:00      69.4      68.7       63     55.8      0.00      0.00      85.0     0.32      1015.0     2       238         2       219        9.13     271      -64.2
   08/17/2017 22:50      69.2      68.7       62     55.5      0.00      0.00      84.9     0.32      1015.0     1       207         1       320        9.13     271      -64.3
   08/17/2017 22:40      69.9      69.3       62     55.7      0.00      0.00      85.0     0.32      1015.0     1       220         1       227        9.13     271      -64.7
   08/17/2017 22:30      70.3      70.0       60     55.9      0.00      0.00      85.1     0.32      1015.0     1       196         3       192        9.13     271      -65.7
   08/17/2017 22:20      70.4      70.2       61     56.3      0.00      0.00      85.1     0.32      1015.0     1       210         2       214        9.13     271      -65.4
   08/17/2017 22:10      70.8      70.3       60     56.0      0.00      0.00      85.2     0.32      1015.0     1       187         2       208        9.13     271      -66.8
   08/17/2017 22:00      71.3      70.7       59     56.0      0.00      0.00      84.8     0.32      1015.0     2       220         2       210        9.13     271      -66.8
   08/17/2017 21:50      71.4      71.2       59     56.1      0.00      0.00      85.0     0.32      1015.0     1       220         2       238        9.13     271      -68.6
   08/17/2017 21:40      71.8      71.5       57     55.9      0.00      0.00      84.9     0.32      1015.0     1       224         1       269        9.13     271      -69.5
   08/17/2017 21:30      72.2      71.8       57     56.0      0.00      0.00      85.1     0.32      1015.0     2       235         3       233        9.13     271      -69.9
   08/17/2017 21:20      72.7      72.2       56     55.8      0.00      0.00      85.0     0.32      1015.0     3       233         4       213        9.13     270      -70.5
   08/17/2017 21:10      73.2      72.7       55     55.8      0.00      0.00      84.8     0.32      1015.0     3       237         4       242        9.13     270      -71.1
   08/17/2017 21:00      73.9      73.3       54     55.8      0.00      0.00      84.9     0.32      1015.0     3       235         4       254        9.13     270      -71.8
   08/17/2017 20:50      74.5      73.8       52     55.7      0.00      0.00      84.9     0.32      1015.0     2       246         3       264        9.13     270      -72.6
   08/17/2017 20:40      75.1      74.7       51     55.8      0.00      0.00      84.7     0.32      1015.0     2       255         3       215        9.14     270      -73.4
   08/17/2017 20:30      75.7      75.0       50     55.7      0.00      0.00      85.1     0.32      1015.0     2       241         3       265        9.14     270      -74.2
   08/17/2017 20:20      76.4      75.8       49     55.8      0.00      0.00      84.8     0.32      1015.0     2       289         4       218        9.14     270      -75.3
   08/17/2017 20:10      76.9      76.4       48     55.7      0.00      0.00      85.0     0.32      1014.0     2       299         4       311        9.14     270      -76.5
   08/17/2017 20:00      77.4      77.0       47     55.5      0.00      0.00      84.7     0.32      1014.0     2       278         3       257        9.14     270      -77.8
   08/17/2017 19:50      77.8      77.2       46     55.3      0.00      0.00      84.9     0.32      1014.0     3       286         4       272        9.14     270      -77.9
   08/17/2017 19:40      78.4      77.9       45     55.0      0.00      0.00      84.7     0.32      1014.0     3       293         6       278        9.14     270      -76.5
   08/17/2017 19:30      79.1      78.5       44     55.0      0.00      0.00      84.8     0.32      1014.0     4       298         6       301        9.14     270      -73.2
   08/17/2017 19:20      79.6      79.3       43     55.3      0.00      0.00      84.7     0.32      1014.0     3       290         5       307        9.14     270      -68.8
   08/17/2017 19:10      80.3      79.6       43     55.2      0.00      0.00      84.8     0.32      1014.0     4       312         5       323        9.14     270      -55.1
   08/17/2017 19:00      80.5      80.3       42     55.3      0.00      0.00      84.5     0.32      1014.0     4       308         7       323        9.14     270      -39.6
   08/17/2017 18:50      81.2      80.4       41     55.2      0.00      0.00      84.7     0.32      1014.0     4       309         7       299        9.15     269      -21.8
   08/17/2017 18:40      82.0      81.1       40     55.2      0.00      0.00      84.6     0.32      1013.0     4       304         6       269        9.15     270       -0.5
   08/17/2017 18:30      81.9      81.5       40     55.3      0.00      0.00      84.7     0.32      1013.0     4       318         7       346        9.15     270       22.0
   08/17/2017 18:20      82.0      81.6       40     55.2      0.00      0.00      84.6     0.32      1013.0     6       311         7       348        9.15     270       45.0
   08/17/2017 18:10      82.8      82.1       39     55.1      0.00      0.00      84.5     0.31      1013.0     6       307         8       306        9.15     269       68.5
   08/17/2017 18:00      83.4      82.9       39     55.7      0.00      0.00      84.4     0.32      1013.0     6       310         8       318        9.16     270       92.5
   08/17/2017 17:50      84.3      83.3       39     56.5      0.00      0.00      84.3     0.31      1013.0     6       326        10       334        9.16     269      116.3
   08/17/2017 17:40      84.4      83.7       40     56.8      0.00      0.00      84.3     0.31      1013.0     5       325         8       319        9.16     270      139.8
   08/17/2017 17:30      85.3      84.4       39     57.2      0.00      0.00      84.3     0.31      1013.0     6       312         8       333        9.16     270      162.3
   08/17/2017 17:20      85.4      84.8       39     57.6      0.00      0.00      84.2     0.31      1013.0     5       283         9       266        9.16     270      187.4
   08/17/2017 17:10      85.5      84.8       40     58.1      0.00      0.00      84.2     0.31      1013.0     5       216         7       232        9.17     269      212.3
   08/17/2017 17:00      85.7      84.7       39     57.5      0.00      0.00      84.1     0.31      1013.0     4       172         7       153        9.17     269      234.8
   08/17/2017 16:50      85.0      84.5       38     56.6      0.00      0.00      84.1     0.31      1013.0     6       154        10       168        9.17     269      259.0
   08/17/2017 16:40      85.5      83.8       39     56.8      0.00      0.00      84.1     0.31      1013.0     5       168         7       158        9.17     269      280.6
   08/17/2017 16:30      84.7      84.2       39     56.9      0.00      0.00      84.2     0.31      1013.0     7       169         9       159        9.17     269      303.8
   08/17/2017 16:20      85.6      85.0       38     56.9      0.00      0.00      83.9     0.31      1013.0     6       164         8       174        9.18     269      322.7
   08/17/2017 16:10      85.8      84.7       38     56.9      0.00      0.00      83.8     0.31      1013.0     6       161        11       138        9.18     269      344.1
   08/17/2017 16:00      85.5      84.8       39     57.4      0.00      0.00      83.7     0.31      1013.0     7       167        10       163        9.18     269      365.1
   08/17/2017 15:50      86.1      85.2       38     57.6      0.00      0.00      83.7     0.31      1013.0     7       182         8       174        9.18     270      381.5
   08/17/2017 15:40      86.1      85.2       36     56.0      0.00      0.00      83.6     0.31      1013.0     5       168         9       173        9.18     270      397.1
   08/17/2017 15:30      86.8      85.8       34     54.9      0.00      0.00      83.4     0.31      1014.0     6       185         8       137        9.18     270      414.0
   08/17/2017 15:20      88.0      87.0       31     53.3      0.00      0.00      83.5     0.31      1014.0     4       154         7       138        9.18     270      424.5
   08/17/2017 15:10      87.7      86.8       32     53.7      0.00      0.00      83.4     0.31      1014.0     4       141         8       128        9.18     270      439.7
   08/17/2017 15:00      89.4      87.3       30     52.5      0.00      0.00      83.4     0.31      1014.0     4       103         7       129        9.18     270      452.5
   08/17/2017 14:50      88.9      86.8       31     53.6      0.00      0.00      83.3     0.31      1014.0     3       137         6       128        9.18     271      468.0
   08/17/2017 14:40      88.6      87.5       31     53.2      0.00      0.00      83.2     0.31      1014.0     3        48         5        24        9.18     271      476.4
   08/17/2017 14:30      88.6      87.8       31     53.5      0.00      0.00      83.2     0.31      1014.0     3        54         7        66        9.18     271      490.6
   08/17/2017 14:20      88.6      87.1       31     53.7      0.00      0.00      83.1     0.31      1014.0     4        75         6        94        9.18     271      498.5
   08/17/2017 14:10      87.5      86.2       34     54.8      0.00      0.00      83.0     0.31      1014.0     3        59         5        67        9.18     271      510.8
   08/17/2017 14:00      87.4      86.4       34     55.0      0.00      0.00      83.1     0.31      1014.0     5        93         8        94        9.18     271      519.3
   08/17/2017 13:50      86.7      85.7       35     55.9      0.00      0.00      82.9     0.31      1014.0     3        42         6        78        9.18     272      526.4
   08/17/2017 13:40      86.4      85.0       37     56.5      0.00      0.00      83.0     0.31      1014.0     2        26         4        32        9.18     272      536.1
   08/17/2017 13:30      85.3      83.6       39     56.4      0.00      0.00      82.8     0.31      1015.0     4       100         9       127        9.18     272      544.4
   08/17/2017 13:20      85.4      84.3       38     56.7      0.00      0.00      82.7     0.31      1015.0     4       116         7        77        9.18     272      545.9
   08/17/2017 13:10      85.2      83.9       40     57.3      0.00      0.00      82.8     0.31      1015.0     3        90         6        87        9.18     273      546.9
   08/17/2017 13:00      84.6      84.1       40     57.4      0.00      0.00      82.9     0.31      1015.0     3        99         4        83        9.18     273      548.5
   08/17/2017 12:50      85.5      84.6       40     58.1      0.00      0.00      82.7     0.31      1015.0     3         6         5        67        9.18     274      545.2
   08/17/2017 12:40      84.5      83.5       42     58.0      0.00      0.00      82.6     0.31      1015.0     3       360         6       298        9.18     274      544.9
   08/17/2017 12:30      83.5      82.3       43     58.1      0.00      0.00      82.5     0.31      1015.0     3         2         8        68        9.18     274      541.6
   08/17/2017 12:20      82.7      81.6       44     58.1      0.00      0.00      82.7     0.31      1015.0     3       341         5         8        9.18     274      539.1
   08/17/2017 12:10      81.5      80.8       45     58.1      0.00      0.00      82.5     0.31      1016.0     3       355         4        23        9.18     274      536.4
   08/17/2017 12:00      82.1      80.9       45     58.2      0.00      0.00      82.6     0.31      1016.0     4        48         5        88        9.18     275      529.7
   08/17/2017 11:50      81.7      81.2       45     58.1      0.00      0.00      82.9     0.31      1016.0     3        24         6       351        9.18     275      524.8
   08/17/2017 11:40      81.0      79.5       47     58.2      0.00      0.00      82.5     0.31      1016.0     3        22         8         7        9.18     275      518.2
   08/17/2017 11:30      79.6      78.3       49     58.4      0.00      0.00      82.7     0.31      1016.0     3         9         4        41        9.18     276      508.8
   08/17/2017 11:20      79.1      78.0       50     58.3      0.00      0.00      82.6     0.31      1016.0     3       342         5       344        9.18     276      499.6
   08/17/2017 11:10      79.1      77.6       51     58.5      0.00      0.00      82.6     0.31      1016.0     2        32         6       358        9.18     276      486.5
   08/17/2017 11:00      78.6      77.1       52     58.6      0.00      0.00      82.7     0.31      1016.0     3         9         6        11        9.18     276      477.5
   08/17/2017 10:50      78.7      76.5       52     58.6      0.00      0.00      82.7     0.31      1016.0     2        11         6       332        9.18     277      465.9
   08/17/2017 10:40      76.8      76.0       54     58.6      0.00      0.00      82.6     0.31      1016.0     3       312         5       343        9.18     277      451.5
   08/17/2017 10:30      76.3      74.9       56     58.5      0.00      0.00      82.9     0.31      1016.0     3       352         4         0        9.18     277      432.9
   08/17/2017 10:20      75.0      74.2       57     58.2      0.00      0.00      82.7     0.31      1016.0     3        50         5        17        9.18     278      420.6
   08/17/2017 10:10      74.5      73.8       57     58.1      0.00      0.00      82.8     0.31      1016.0     3         4         4        65        9.18     278      402.9
   08/17/2017 10:00      73.8      72.8       59     57.9      0.00      0.00      82.7     0.31      1016.0     3        25         4         2        9.18     280      385.0
   08/17/2017 09:50      73.3      72.5       59     57.8      0.00      0.00      83.0     0.31      1016.0     2        36         4        35        9.18     280      366.8
   08/17/2017 09:40      72.4      71.7       60     57.5      0.00      0.00      82.9     0.31      1016.0     2        12         4         4        9.18     280      349.3
   08/17/2017 09:30      72.8      71.8       59     57.2      0.00      0.00      83.1     0.31      1017.0     3         6         4        34        9.18     281      331.8
   08/17/2017 09:20      72.4      70.2       61     57.1      0.00      0.00      82.9     0.31      1016.0     2       111         3        80        9.18     281      312.9
   08/17/2017 09:10      70.2      69.6       64     57.3      0.00      0.00      82.8     0.31      1016.0     2       148         4       137        9.18     281      288.6
   08/17/2017 09:00      70.0      69.6       65     57.4      0.00      0.00      83.3     0.31      1016.0     2        17         4       355        9.18     281      265.9
   08/17/2017 08:50      69.5      67.8       67     57.4      0.00      0.00      83.0     0.31      1016.0     2        55         3        50        9.18     281      250.3
   08/17/2017 08:40      67.7      66.3       71     57.1      0.00      0.00      83.4     0.31      1016.0     1       329         3        17        9.18     281      218.8
   08/17/2017 08:30      66.4      65.9       72     56.9      0.00      0.00      83.1     0.31      1016.0     2        10         3        25        9.18     281      203.0
   08/17/2017 08:20      66.3      65.8       73     57.0      0.00      0.00      83.3     0.31      1016.0     2        18         3         6        9.18     281        7.6
   08/17/2017 08:10      65.8      64.9       74     57.0      0.00      0.00      83.5     0.32      1016.0     1       269         1       327        9.18     281       80.1
   08/17/2017 08:00      65.0      64.3       75     56.7      0.00      0.00      83.3     0.32      1016.0     1       335         2       324        9.18     281       -3.6
   08/17/2017 07:50      64.5      64.0       76     56.4      0.00      0.00      83.1     0.32      1016.0     1        76         2       348        9.19     282       -1.7
   08/17/2017 07:40      63.9      63.0       78     56.4      0.00      0.00      83.5     0.32      1016.0     1       140         2       126        9.18     281        5.6
   08/17/2017 07:30      63.0      62.0       80     56.2      0.00      0.00      83.3     0.32      1016.0     0       154         1       141        9.18     281       12.2
   08/17/2017 07:20      62.0      61.1       82     56.1      0.00      0.00      83.1     0.32      1016.0     1       122         1       131        9.18     282       -5.7
   08/17/2017 07:10      61.0      59.9       85     55.9      0.00      0.00      83.3     0.32      1016.0     1       153         2       154        9.18     282       -8.8
   08/17/2017 07:00      60.0      59.2       87     55.5      0.00      0.00      83.5     0.32      1016.0     1       147         2       139        9.19     282      -12.7
   08/17/2017 06:50      59.3      59.0       87     55.3      0.00      0.00      83.2     0.32      1016.0     1       165         1       166        9.18     282      -17.0
   08/17/2017 06:40      59.2      58.8       88     55.3      0.00      0.00      83.4     0.32      1016.0     1       173         1       143        9.18     282      -21.8
   08/17/2017 06:30      58.9      58.7       88     55.2      0.00      0.00      83.5     0.32      1016.0     1       167         2       164        9.18     282      -28.9
   08/17/2017 06:20      58.9      58.7       87     55.0      0.00      0.00      83.7     0.32      1016.0     1       173         2       162        9.18     282      -34.1
   08/17/2017 06:10      58.9      58.7       87     54.8      0.00      0.00      84.0     0.32      1016.0     1       167         2       160        9.18     282      -37.3
   08/17/2017 06:00      59.3      58.8       87     55.1      0.00      0.00      84.1     0.32      1015.0     1       161         2       130        9.18     282      -37.8
   08/17/2017 05:50      59.5      59.1       87     55.4      0.00      0.00      83.7     0.32      1015.0     1       173         1       135        9.18     282      -38.6
   08/17/2017 05:40      59.5      59.0       87     55.2      0.00      0.00      83.4     0.32      1015.0     1       165         1       164        9.18     282      -40.9
   08/17/2017 05:30      59.3      58.9       86     55.0      0.00      0.00      84.0     0.32      1015.0     1       178         1       147        9.18     282      -42.3
   08/17/2017 05:20      59.3      59.0       86     55.0      0.00      0.00      83.9     0.32      1015.0     1       156         1       181        9.18     282      -44.7
   08/17/2017 05:10      59.3      59.0       86     54.8      0.00      0.00      83.6     0.32      1015.0     1       157         2       143        9.18     282      -46.0
   08/17/2017 05:00      59.5      59.2       86     55.1      0.00      0.00      84.0     0.32      1015.0     1       173         2       176        9.18     282      -46.1
   08/17/2017 04:50      59.4      59.3       85     54.9      0.00      0.00      84.2     0.32      1015.0     1       153         2       146        9.18     282      -48.2
   08/17/2017 04:40      59.6      59.4       85     55.0      0.00      0.00      84.0     0.32      1015.0     1       171         1       111        9.18     282      -49.0
   08/17/2017 04:30      59.5      59.3       85     55.0      0.00      0.00      84.0     0.32      1015.0     1       174         1       157        9.18     282      -51.3
   08/17/2017 04:20      59.5      59.4       85     54.8      0.00      0.00      84.3     0.32      1015.0     1       168         2       154        9.18     282      -52.8
   08/17/2017 04:10      59.6      59.3       84     54.8      0.00      0.00      84.0     0.32      1015.0     1       159         2       153        9.18     282      -54.7
   08/17/2017 04:00      59.5      59.3       84     54.6      0.00      0.00      84.4     0.32      1015.0     1       178         2       160        9.18     282      -55.8
   08/17/2017 03:50      60.0      59.5       83     54.6      0.00      0.00      84.1     0.32      1015.0     1       125         1       165        9.18     282      -55.9
   08/17/2017 03:40      60.1      59.9       83     54.7      0.00      0.00      84.3     0.32      1015.0     1       178         1       144        9.18     282      -56.2
   08/17/2017 03:30      60.3      60.0       82     54.7      0.00      0.00      84.1     0.32      1015.0     1       163         1       177        9.18     282      -58.0
   08/17/2017 03:20      60.4      60.1       82     54.9      0.00      0.00      84.4     0.32      1015.0     1       165         1       137        9.18     282      -57.4
   08/17/2017 03:10      60.5      60.1       81     54.6      0.00      0.00      84.4     0.32      1015.0     1       143         2       130        9.18     282      -58.4
   08/17/2017 03:00      60.6      60.4       82     54.8      0.00      0.00      84.4     0.32      1015.0     1       173         1       145        9.18     282      -58.1
   08/17/2017 02:50      60.6      60.4       82     54.8      0.00      0.00      84.5     0.32      1015.0     1       185         1       182        9.18     282      -59.1
   08/17/2017 02:40      60.6      60.3       82     54.8      0.00      0.00      84.7     0.32      1015.0     1       182         2       140        9.18     282      -59.6
   08/17/2017 02:30      60.7      60.5       81     54.7      0.00      0.00      84.4     0.32      1015.0     2       154         2       153        9.18     282      -59.3
   08/17/2017 02:20      60.9      60.6       81     54.9      0.00      0.00      84.4     0.32      1015.0     1       165         1       183        9.18     282      -59.9
   08/17/2017 02:10      61.0      60.5       80     54.6      0.00      0.00      84.5     0.32      1015.0     1       149         2       141        9.18     282      -60.7
   08/17/2017 02:00      61.2      60.9       80     54.9      0.00      0.00      84.5     0.32      1015.0     1       151         1       147        9.18     282      -60.4
   08/17/2017 01:50      61.3      61.0       79     54.7      0.00      0.00      84.4     0.32      1015.0     1       159         1       143        9.18     282      -61.4
   08/17/2017 01:40      61.6      61.0       78     54.2      0.00      0.00      84.6     0.32      1015.0     1       165         1       155        9.18     282      -61.9
   08/17/2017 01:30      61.8      61.6       78     54.7      0.00      0.00      84.8     0.32      1015.0     1       173         1       165        9.18     282      -62.0
   08/17/2017 01:20      62.1      61.7       77     54.5      0.00      0.00      84.8     0.32      1015.0     1       163         1       186        9.18     282      -62.6
   08/17/2017 01:10      62.5      62.1       75     54.2      0.00      0.00      85.0     0.32      1015.0     1       211         1       231        9.18     282      -62.6
   08/17/2017 01:00      63.2      62.8       74     54.5      0.00      0.00      84.6     0.32      1015.0     2       209         2       202        9.18     282      -63.0
   08/17/2017 00:50      63.4      63.3       73     54.6      0.00      0.00      84.9     0.32      1015.0     1       220         1       223        9.18     282      -63.6
   08/17/2017 00:40      63.5      63.1       73     54.6      0.00      0.00      84.6     0.32      1015.0     2       225         2       215        9.18     282      -64.3
   08/17/2017 00:30      64.2      63.1       72     54.3      0.00      0.00      84.8     0.32      1015.0     1       230         2       254        9.18     282      -64.9
   08/17/2017 00:20      64.2      63.7       72     54.9      0.00      0.00      84.9     0.32      1015.0     2       301         2       313        9.18     282      -65.4
   08/17/2017 00:10      64.0      63.6       72     54.6      0.00      0.00      84.8     0.32      1015.0     1       303         2       346        9.18     282      -65.2
   08/17/2017 00:00      64.7      64.0       70     54.5      0.00      0.00      84.8     0.32      1014.0     1       207         1       218        9.18     282      -66.1
   08/16/2017 23:50      65.0      64.7       70     54.9      0.00      0.00      84.8     0.32      1014.0     1       229         2       238        9.18     282      -67.3
   08/16/2017 23:40      65.0      64.7       70     55.0      0.00      0.00      85.2     0.32      1015.0     2       276         3       265        9.18     282      -68.1
   08/16/2017 23:30      64.9      64.8       70     54.9      0.00      0.00      85.0     0.32      1014.0     1       255         2       244        9.18     282      -69.3
   08/16/2017 23:20      65.3      65.0       70     54.9      0.00      0.00      85.2     0.32      1014.0     2       219         3       223        9.18     282      -69.7
   08/16/2017 23:10      65.4      65.1       69     55.0      0.00      0.00      84.8     0.32      1014.0     3       248         4       243        9.18     283      -70.1
   08/16/2017 23:00      65.4      65.2       69     54.9      0.00      0.00      85.1     0.32      1014.0     3       229         7       245        9.18     282      -70.5
   08/16/2017 22:50      65.8      65.4       69     55.0      0.00      0.00      84.8     0.32      1014.0     2       231         3       236        9.18     282      -70.8
   08/16/2017 22:40      65.9      65.7       68     55.1      0.00      0.00      85.2     0.32      1014.0     4       228         6       200        9.18     283      -71.2
   08/16/2017 22:30      66.2      65.9       68     55.2      0.00      0.00      85.1     0.32      1014.0     3       218         6       199        9.18     282      -71.5
   08/16/2017 22:20      66.3      66.1       68     55.3      0.00      0.00      85.0     0.32      1014.0     5       205         8       204        9.18     282      -71.7
   08/16/2017 22:10      66.7      66.3       67     55.2      0.00      0.00      85.2     0.32      1014.0     3       212         5       217        9.18     282      -72.4
   08/16/2017 22:00      67.1      66.8       66     55.3      0.00      0.00      85.2     0.32      1014.0     3       207         4       208        9.18     282      -72.8
   08/16/2017 21:50      67.4      67.0       65     55.2      0.00      0.00      85.2     0.32      1014.0     2       210         4       253        9.18     283      -73.0
   08/16/2017 21:40      67.6      67.2       65     55.3      0.00      0.00      85.2     0.32      1014.0     2       235         4       220        9.18     283      -73.0
   08/16/2017 21:30      68.0      67.7       64     55.3      0.00      0.00      85.0     0.32      1014.0     4       241         7       241        9.18     283      -73.5
   08/16/2017 21:20      68.3      67.9       63     55.3      0.00      0.00      85.2     0.32      1014.0     3       228         4       249        9.18     283      -73.5
   08/16/2017 21:10      68.7      68.3       63     55.3      0.00      0.00      85.2     0.32      1014.0     3       223         5       227        9.18     283      -73.9
   08/16/2017 21:00      69.2      68.7       62     55.4      0.00      0.00      85.3     0.32      1014.0     3       219         5       189        9.18     283      -74.6
   08/16/2017 20:50      69.7      69.3       61     55.5      0.00      0.00      85.1     0.32      1014.0     3       225         4       219        9.18     283      -75.3
   08/16/2017 20:40      70.2      69.7       60     55.6      0.00      0.00      84.9     0.32      1014.0     4       229         5       241        9.18     283      -75.7
   08/16/2017 20:30      70.5      70.2       60     55.6      0.00      0.00      85.1     0.32      1014.0     3       224         4       206        9.18     283      -76.4
   08/16/2017 20:20      71.0      70.6       59     55.7      0.00      0.00      85.2     0.32      1014.0     4       241         5       236        9.18     283      -77.0
   08/16/2017 20:10      71.5      71.1       58     55.8      0.00      0.00      85.2     0.32      1013.0     4       233         6       246        9.18     283      -78.0
   08/16/2017 20:00      72.2      71.5       57     55.9      0.00      0.00      85.2     0.32      1013.0     4       226         5       232        9.18     283      -78.8
   08/16/2017 19:50      72.7      72.2       56     56.0      0.00      0.00      85.2     0.32      1013.0     3       231         4       234        9.18     283      -78.9
   08/16/2017 19:40      73.4      72.9       55     56.1      0.00      0.00      85.1     0.32      1013.0     4       243         6       282        9.18     282      -76.6
   08/16/2017 19:30      74.1      73.6       54     56.3      0.00      0.00      85.3     0.32      1013.0     5       279         6       256        9.18     282      -73.5
   08/16/2017 19:20      75.0      74.4       53     56.3      0.00      0.00      85.2     0.32      1013.0     4       299         6       304        9.18     282      -68.2
   08/16/2017 19:10      75.9      75.2       52     56.6      0.00      0.00      85.2     0.32      1013.0     5       285         7       295        9.18     282      -52.9
   08/16/2017 19:00      76.7      75.6       51     56.8      0.00      0.00      84.9     0.32      1013.0     5       311         7       314        9.18     282      -37.2
   08/16/2017 18:50      77.3      76.6       50     57.0      0.00      0.00      85.1     0.32      1013.0     5       306         7       308        9.18     283      -17.4
   08/16/2017 18:40      78.1      77.3       49     57.3      0.00      0.00      85.0     0.32      1013.0     5       291         6       310        9.18     283        3.8
   08/16/2017 18:30      78.4      78.0       49     57.6      0.00      0.00      85.1     0.32      1013.0     5       244         8       244        9.18     284       27.9
   08/16/2017 18:20      78.3      77.7       49     57.6      0.00      0.00      84.9     0.32      1013.0     4       234         6       222        9.18     285       52.8
   08/16/2017 18:10      78.5      78.1       50     58.1      0.00      0.00      85.1     0.32      1012.0     5       191         6       238        9.18     285       76.7
   08/16/2017 18:00      78.8      78.3       50     58.2      0.00      0.00      85.1     0.32      1012.0     5       159         7       156        9.18     286      101.8
   08/16/2017 17:50      78.9      78.6       49     58.3      0.00      0.00      84.9     0.32      1013.0     4       167         8       156        9.18     288      125.9
   08/16/2017 17:40      79.1      78.3       50     58.3      0.00      0.00      84.9     0.32      1013.0     5       178         6       187        9.18     289      149.2
   08/16/2017 17:30      80.0      79.2       48     58.3      0.00      0.00      84.8     0.32      1013.0     5       166         9       142        9.18     291      172.7
   08/16/2017 17:20      80.8      79.9       47     58.3      0.00      0.00      84.7     0.32      1013.0     4       182         7       200        9.19     292      194.5
   08/16/2017 17:10      80.1      79.1       48     58.2      0.00      0.00      84.7     0.32      1013.0     5       173         6       172        9.18     293      220.7
   08/16/2017 17:00      80.2      79.5       48     58.1      0.00      0.00      84.7     0.32      1013.0     6       177         7       200        9.18     297      242.9
   08/16/2017 16:50      80.8      80.2       46     57.9      0.00      0.00      84.7     0.32      1013.0     5       218         8       223        9.19     302      267.8
   08/16/2017 16:40      80.9      79.9       45     57.7      0.00      0.00      84.5     0.32      1013.0     4       159         8       133        9.19     307      286.5
   08/16/2017 16:30      80.5      79.5       46     57.5      0.00      0.00      84.7     0.32      1013.0     4       140         8       131        9.18     310      312.0
   08/16/2017 16:20      80.5      79.9       46     57.6      0.00      0.00      84.6     0.31      1013.0     5       163         9       174        9.18     315      331.7
   08/16/2017 16:10      81.0      79.8       46     57.6      0.00      0.00      84.6     0.32      1013.0     5       136         7       133        9.18     324      354.3
   08/16/2017 16:00      80.3      79.8       46     57.6      0.00      0.00      84.5     0.32      1013.0     4       116         7       122        9.19     336      374.4
   08/16/2017 15:50      80.7      79.8       46     57.5      0.00      0.00      84.3     0.32      1013.0     5       134         7       138        9.19     356      393.6
   08/16/2017 15:40      80.1      79.8       46     57.4      0.00      0.00      84.2     0.32      1013.0     4       152         6        79        9.19     385      412.2
   08/16/2017 15:30      80.2      79.3       47     57.4      0.00      0.00      84.0     0.31      1013.0     4       131         7       138        9.19     432      433.5
   08/16/2017 15:20      79.8      79.4       47     57.4      0.00      0.00      84.4     0.31      1013.0     6       148         9       124        9.19     469      452.6
   08/16/2017 15:10      80.3      79.3       47     57.4      0.00      0.00      84.1     0.31      1013.0     6       181         8       170        9.19     504      471.0
   08/16/2017 15:00      80.9      80.1       45     57.3      0.00      0.00      84.1     0.31      1013.0     6       180         8       185        9.19     546      486.8
   08/16/2017 14:50      81.3      80.3       44     57.1      0.00      0.00      84.1     0.31      1013.0     4       113         8       199        9.19     582      501.6
   08/16/2017 14:40      83.1      81.1       42     56.7      0.00      0.00      84.1     0.31      1013.0     3       180         6       187        9.18     641      493.7
   08/16/2017 14:30      82.2      81.4       41     56.0      0.00      0.00      83.9     0.31      1013.0     3       357         4       299        7.95     270      488.3
   08/16/2017 14:20      81.6      79.4       43     55.7      0.00      0.00      83.9     0.31      1014.0     3       277         6       294        7.96     270      505.5
   08/16/2017 14:10      80.1      78.8       44     55.5      0.00      0.00      84.0     0.31      1014.0     3       182         5       187        7.96     270      515.2
   08/16/2017 14:00      79.5      79.2       44     55.5      0.00      0.00      84.0     0.31      1014.0     4       241         7       236        7.96     271      522.1
   08/16/2017 13:50      80.6      79.8       43     55.6      0.00      0.00      83.9     0.31      1014.0     4       212         6       251        7.96     270      528.6
   08/16/2017 13:40      80.4      77.6       45     55.5      0.00      0.00      83.9     0.31      1014.0     3       349         6       265        7.96     270      534.1
   08/16/2017 13:30      78.6      78.0       45     55.3      0.00      0.00      83.9     0.31      1014.0     5       248         9       256        7.96     270      542.8
   08/16/2017 13:20      79.4      78.1       44     55.5      0.00      0.00      83.8     0.31      1014.0     3       255         5       257        7.96     270      544.2
   08/16/2017 13:10      77.7      76.4       47     55.2      0.00      0.00      83.6     0.31      1014.0     3       277         5       297        7.96     271      549.4
   08/16/2017 13:00      77.2      76.4       47     55.4      0.00      0.00      84.1     0.31      1014.0     5       279         8       244        7.96     271      553.3
   08/16/2017 12:50      77.7      77.2       47     55.5      0.00      0.00      83.6     0.31      1015.0     3       317         6       295        7.97     272      557.2
   08/16/2017 12:40      78.2      76.8       46     55.0      0.00      0.00      83.6     0.31      1015.0     3       344         5       358        7.97     271      558.2
   08/16/2017 12:30      78.3      77.4       45     54.9      0.00      0.00      84.0     0.31      1015.0     3         5         6       348        7.97     271      554.7
   08/16/2017 12:20      77.0      74.9       48     54.5      0.00      0.00      83.7     0.31      1015.0     3        43         6        97        7.97     271      564.6
   08/16/2017 12:10      76.2      74.2       48     54.4      0.00      0.00      84.2     0.31      1015.0     3        70         8       127        7.97     271      560.5
   08/16/2017 12:00      75.0      73.3       51     54.5      0.00      0.00      83.8     0.31      1015.0     3       207         6       213        7.97     271      480.2
   08/16/2017 11:50      74.8      72.8       51     54.7      0.00      0.00      83.8     0.31      1015.0     3       291         6       175        7.97     271      513.1
   08/16/2017 11:40      72.8      72.4       53     54.5      0.00      0.00      84.3     0.31      1015.0     2       115         5       133        7.98     272      470.4
   08/16/2017 11:30      72.8      71.6       54     54.5      0.00      0.00      84.0     0.31      1015.0     5       157         8       170        7.98     272      569.8
   08/16/2017 11:20      71.4      70.7       55     54.3      0.00      0.00      83.8     0.31      1015.0     5       203         7       196        7.98     272      542.5
   08/16/2017 11:10      71.3      70.8       56     54.4      0.00      0.00      84.0     0.31      1015.0     5       126         7       131        7.99     272      451.2
   08/16/2017 11:00      72.1      69.5       56     54.4      0.00      0.00      83.8     0.31      1015.0     5       145         8       159        7.99     272      509.6
   08/16/2017 10:50      70.6      69.6       58     54.6      0.00      0.00      84.0     0.31      1015.0     4       168         6       184        7.99     272      280.9
   08/16/2017 10:40      70.3      69.2       58     54.8      0.00      0.00      83.7     0.31      1015.0     5       213         7       216        7.99     272      588.2
   08/16/2017 10:30      69.7      68.8       60     54.8      0.00      0.00      84.0     0.31      1015.0     4       154         6       167        8.00     272      336.4
   08/16/2017 10:20      68.7      68.1       62     54.7      0.00      0.00      84.1     0.32      1015.0     3        97         6       119        8.00     273      228.3
   08/16/2017 10:10      68.6      68.2       61     54.5      0.00      0.00      83.6     0.32      1015.0     3        91         5        75        8.00     272      185.0
   08/16/2017 10:00      68.2      68.0       61     54.4      0.00      0.00      84.2     0.32      1015.0     3       137         5       143        8.00     272      170.1
   08/16/2017 09:50      68.3      67.7       62     54.6      0.00      0.00      84.4     0.32      1015.0     3       143         4       133        8.00     273      158.0
   08/16/2017 09:40      67.9      66.9       63     54.4      0.00      0.00      83.8     0.32      1015.0     2       127         4       159        8.01     273      160.6
   08/16/2017 09:30      66.9      66.4       66     54.8      0.00      0.00      84.0     0.32      1015.0     3        98         4        76        8.02     273       97.8
   08/16/2017 09:20      66.6      66.2       67     55.0      0.00      0.00      84.3     0.32      1015.0     3        96         6        98        8.02     273       75.9
   08/16/2017 09:10      66.3      65.9       67     54.9      0.00      0.00      84.0     0.32      1015.0     4       123         5       137        8.02     273       72.7
   08/16/2017 09:00      66.3      65.7       68     55.0      0.00      0.00      84.4     0.32      1015.0     4       121         6       129        8.02     273       77.7
   08/16/2017 08:50      66.0      65.5       68     55.0      0.00      0.00      84.0     0.32      1015.0     3       123         5       137        8.03     273       69.4
   08/16/2017 08:40      65.7      65.3       68     54.8      0.00      0.00      84.5     0.32      1015.0     4       149         6       128        8.03     273       60.1
   08/16/2017 08:30      65.9      65.4       68     54.8      0.00      0.00      84.2     0.32      1015.0     4       142         6       143        8.03     273       52.9
   08/16/2017 08:20      66.5      65.8       67     54.9      0.00      0.00      84.1     0.32      1015.0     4       124         6       121        8.03     273       72.0
   08/16/2017 08:10      66.7      66.3       67     55.2      0.00      0.00      84.1     0.32      1015.0     5       131         7       124        8.03     273      139.1
   08/16/2017 08:00      66.8      66.2       68     55.3      0.00      0.00      84.3     0.32      1015.0     6       131         8       130        8.04     273       70.1
   08/16/2017 07:50      66.8      66.2       65     54.4      0.00      0.00      84.3     0.32      1015.0     3       129         5       157        8.04     273       62.9
   08/16/2017 07:40      66.3      65.9       64     53.8      0.00      0.00      84.3     0.32      1015.0     3       130         5       133        8.04     273       27.5
   08/16/2017 07:30      66.2      65.9       63     53.3      0.00      0.00      84.5     0.32      1015.0     3       120         5       121        8.04     273        1.6
   08/16/2017 07:20      65.9      65.4       64     53.3      0.00      0.00      84.5     0.32      1015.0     3       127         5       122        8.04     273       -1.0
   08/16/2017 07:10      65.7      65.2       66     53.9      0.00      0.00      84.2     0.32      1015.0     2        98         3       136        8.04     273      -14.1
   08/16/2017 07:00      65.3      64.9       67     54.0      0.00      0.00      84.4     0.32      1014.0     3        90         5        72        8.05     273       -6.6
   08/16/2017 06:50      65.1      64.8       67     53.8      0.00      0.00      84.3     0.32      1014.0     3       114         4       143        8.05     273      -11.0
   08/16/2017 06:40      65.1      64.8       68     54.3      0.00      0.00      84.4     0.32      1014.0     2       105         4       126        8.05     273      -15.8
   08/16/2017 06:30      65.1      64.9       70     54.9      0.00      0.00      84.6     0.32      1014.0     2        86         4       107        8.05     273      -18.9
   08/16/2017 06:20      65.1      65.0       69     54.9      0.00      0.00      84.6     0.32      1014.0     2       102         3       134        8.05     273      -19.4
   08/16/2017 06:10      65.3      65.1       69     54.6      0.00      0.00      84.8     0.32      1014.0     2       107         4       144        8.05     273      -22.5
   08/16/2017 06:00      65.3      65.1       67     54.1      0.00      0.00      84.6     0.32      1014.0     2       104         4        75        8.05     273      -21.7
   08/16/2017 05:50      65.3      65.1       68     54.2      0.00      0.00      84.5     0.32      1014.0     2       122         3       104        8.05     273      -27.8
   08/16/2017 05:40      65.3      65.1       68     54.6      0.00      0.00      84.9     0.32      1014.0     2       124         3       147        8.06     273      -25.2
   08/16/2017 05:30      65.4      65.1       68     54.3      0.00      0.00      84.7     0.32      1014.0     3        90         4        80        8.06     273      -19.4
   08/16/2017 05:20      65.1      65.0       69     54.6      0.00      0.00      85.1     0.32      1014.0     3       115         5       144        8.06     273      -19.2
   08/16/2017 05:10      65.3      65.0       69     54.7      0.00      0.00      84.8     0.32      1014.0     2       101         3       135        8.06     273      -18.5
   08/16/2017 05:00      65.2      65.0       69     54.7      0.00      0.00      84.8     0.32      1014.0     3       114         3       124        8.06     273      -19.7
   08/16/2017 04:50      65.2      65.0       69     54.6      0.00      0.00      84.9     0.32      1014.0     2        84         4        92        8.06     273      -22.6
   08/16/2017 04:40      65.3      65.1       68     54.6      0.00      0.00      84.9     0.32      1014.0     2       106         3       115        8.06     273      -19.6
   08/16/2017 04:30      65.4      65.0       69     54.6      0.00      0.00      84.6     0.32      1014.0     2       146         3       141        8.06     273      -20.5
   08/16/2017 04:20      65.3      65.1       69     54.7      0.00      0.00      84.8     0.32      1014.0     3       149         4       142        8.06     273      -21.6
   08/16/2017 04:10      65.2      64.8       68     54.4      0.00      0.00      84.6     0.32      1014.0     1       130         2       145        8.06     273      -20.4
   08/16/2017 04:00      65.1      64.9       69     54.4      0.00      0.00      84.8     0.32      1013.0     3       136         4       168        8.06     273      -20.7
   08/16/2017 03:50      65.1      64.8       69     54.6      0.00      0.00      85.3     0.32      1013.0     4       112         5        94        8.06     273      -19.9
   08/16/2017 03:40      65.2      65.0       70     55.1      0.00      0.00      85.1     0.32      1013.0     2       111         3        65        8.06     273      -19.0
   08/16/2017 03:30      65.1      65.0       70     55.0      0.00      0.00      85.2     0.32      1013.0     3        85         4       124        8.06     273      -19.4
   08/16/2017 03:20      65.3      65.0       70     55.0      0.00      0.00      84.9     0.32      1013.0     2       124         4       132        8.06     273      -20.6
   08/16/2017 03:10      65.2      64.8       70     54.8      0.00      0.00      85.2     0.32      1013.0     3       124         4       126        8.06     273      -19.6
   08/16/2017 03:00      65.1      64.9       70     55.1      0.00      0.00      85.1     0.32      1013.0     4       124         5       128        8.06     273      -18.3
   08/16/2017 02:50      65.1      65.0       72     55.9      0.00      0.00      84.9     0.32      1013.0     3       123         5       134        8.06     273      -17.8
   08/16/2017 02:40      65.3      65.0       73     56.4      0.00      0.00      85.2     0.32      1013.0     3       133         4        80        8.06     273      -17.3
   08/16/2017 02:30      65.3      65.1       74     56.7      0.00      0.00      85.2     0.32      1013.0     2        94         3       173        8.07     273      -17.2
   08/16/2017 02:20      65.3      65.1       74     56.7      0.00      0.00      85.4     0.32      1013.0     3       103         4       107        8.07     273      -17.2
   08/16/2017 02:10      65.3      64.9       74     56.7      0.00      0.00      85.2     0.32      1013.0     2       117         4       125        8.07     273      -16.9
   08/16/2017 02:00      65.3      64.8       74     56.6      0.00      0.00      85.4     0.32      1013.0     3       101         5       104        8.07     273      -16.8
   08/16/2017 01:50      65.2      65.0       74     56.5      0.00      0.00      85.3     0.32      1013.0     2       102         2       112        8.07     273      -16.9
   08/16/2017 01:40      65.0      64.7       74     56.4      0.00      0.00      85.4     0.32      1013.0     2       113         3       126        8.07     273      -16.7
   08/16/2017 01:30      65.0      64.7       74     56.2      0.00      0.00      85.3     0.32      1013.0     2       160         3       174        8.07     273      -16.8
   08/16/2017 01:20      64.8      64.6       73     56.0      0.00      0.00      85.6     0.32      1013.0     2       135         2       130        8.07     273      -16.9
   08/16/2017 01:10      64.7      64.5       73     55.9      0.00      0.00      85.6     0.32      1013.0     2       156         2       140        8.07     273      -17.1
   08/16/2017 01:00      64.7      64.3       73     55.7      0.00      0.00      85.6     0.32      1013.0     1       194         1       193        8.07     273      -17.0
   08/16/2017 00:50      64.3      64.2       74     55.7      0.00      0.00      85.5     0.32      1013.0     1       198         2       197        8.07     272      -16.9
   08/16/2017 00:40      64.3      64.0       74     55.6      0.00      0.00      85.3     0.32      1013.0     1       173         2       197        8.07     273      -17.6
   08/16/2017 00:30      64.1      63.8       74     55.5      0.00      0.00      85.5     0.32      1013.0     1       191         3       176        8.07     272      -19.6
   08/16/2017 00:20      63.9      63.7       74     55.5      0.00      0.00      85.6     0.32      1013.0     2       161         3       163        8.07     272      -21.6
   08/16/2017 00:10      64.0      63.8       74     55.5      0.00      0.00      85.5     0.32      1013.0     2       180         3       201        8.07     273      -28.8
   08/16/2017 00:00      64.0      63.6       74     55.5      0.00      0.00      85.7     0.32      1013.0     2       163         3       131        8.07     272      -23.3
   08/15/2017 23:50      63.9      63.6       74     55.4      0.00      0.00      85.5     0.32      1013.0     2       153         2       161        8.07     272      -25.9
   08/15/2017 23:40      63.8      63.6       74     55.2      0.00      0.00      85.7     0.32      1013.0     1       184         1       206        8.08     272      -36.6
   08/15/2017 23:30      63.8      63.6       74     55.1      0.00      0.00      85.8     0.32      1013.0     1       175         1       178        8.08     272      -51.1
   08/15/2017 23:20      63.8      63.6       74     55.3      0.00      0.00      86.0     0.32      1013.0     1       160         2       132        8.08     272      -63.7
   08/15/2017 23:10      64.0      63.8       74     55.5      0.00      0.00      85.6     0.32      1013.0     2       160         3       164        8.08     272      -64.2
   08/15/2017 23:00      64.1      63.8       75     55.8      0.00      0.00      85.8     0.32      1013.0     2       167         4       164        8.08     272      -64.7
   08/15/2017 22:50      64.4      64.1       74     55.9      0.00      0.00      85.8     0.32      1013.0     2       163         3       164        8.08     272      -65.3
   08/15/2017 22:40      64.6      64.3       74     55.9      0.00      0.00      85.9     0.32      1013.0     2       177         3       196        8.08     272      -65.5
   08/15/2017 22:30      64.9      64.6       73     55.9      0.00      0.00      85.8     0.32      1013.0     2       170         3       162        8.08     272      -63.5
   08/15/2017 22:20      65.0      64.8       72     55.8      0.00      0.00      85.9     0.32      1013.0     2       171         3       179        8.08     272      -65.1
   08/15/2017 22:10      65.3      65.0       72     56.0      0.00      0.00      86.1     0.32      1013.0     2       190         3       217        8.08     272      -66.1
   08/15/2017 22:00      65.4      65.1       72     56.1      0.00      0.00      85.7     0.32      1013.0     2       181         3       189        8.08     272      -66.1
   08/15/2017 21:50      65.6      65.3       72     56.1      0.00      0.00      85.6     0.32      1013.0     3       166         5       154        8.08     272      -65.1
   08/15/2017 21:40      65.7      65.5       71     56.1      0.00      0.00      86.1     0.32      1013.0     2       172         3       189        8.08     271      -60.5
   08/15/2017 21:30      65.9      65.7       71     56.0      0.00      0.00      85.7     0.32      1013.0     2       197         3       207        8.09     271      -58.7
   08/15/2017 21:20      66.0      65.8       71     56.1      0.00      0.00      85.9     0.32      1013.0     2       187         3       196        8.09     271      -64.1
   08/15/2017 21:10      66.3      65.9       70     56.1      0.00      0.00      86.0     0.32      1013.0     3       179         5       174        8.09     271      -67.4
   08/15/2017 21:00      66.6      66.2       69     56.0      0.00      0.00      85.8     0.32      1012.0     4       172         4       165        8.09     271      -68.1
   08/15/2017 20:50      66.8      66.6       68     55.9      0.00      0.00      85.9     0.32      1012.0     3       184         4       184        8.10     271      -58.1
   08/15/2017 20:40      67.1      66.8       67     55.9      0.00      0.00      85.9     0.32      1012.0     3       198         4       188        8.15     271      -54.1
   08/15/2017 20:30      67.4      67.1       66     55.8      0.00      0.00      85.8     0.32      1012.0     3       171         5       168        8.15     271      -68.1
   08/15/2017 20:20      67.9      67.6       65     55.7      0.00      0.00      85.8     0.32      1012.0     3       185         4       176        8.16     271      -69.4
   08/15/2017 20:10      68.3      68.1       64     55.5      0.00      0.00      85.8     0.32      1012.0     3       202         4       214        8.16     270      -71.8
   08/15/2017 20:00      68.6      68.3       64     55.6      0.00      0.00      85.6     0.32      1012.0     3       171         4       167        8.16     270      -72.6
   08/15/2017 19:50      69.1      68.6       63     55.6      0.00      0.00      85.8     0.32      1012.0     3       172         4       168        8.17     270      -71.2
   08/15/2017 19:40      69.7      69.2       61     55.6      0.00      0.00      85.7     0.32      1012.0     4       168         5       184        8.17     270      -71.1
   08/15/2017 19:30      70.2      69.8       60     55.7      0.00      0.00      85.8     0.32      1011.0     4       157         4       154        8.17     270      -68.0
   08/15/2017 19:20      70.6      70.3       59     55.6      0.00      0.00      85.8     0.32      1011.0     4       165         5       152        8.17     270      -65.6
   08/15/2017 19:10      71.7      70.7       58     55.8      0.00      0.00      85.9     0.32      1011.0     3       181         5       188        8.17     270      -65.1
   08/15/2017 19:00      72.4      71.6       57     55.9      0.00      0.00      85.7     0.32      1011.0     4       142         6       133        8.17     270      -58.5
   08/15/2017 18:50      72.9      72.7       56     56.1      0.00      0.00      85.9     0.32      1011.0     3       147         7       157        8.18     270      -35.2
   08/15/2017 18:40      73.4      73.1       55     56.1      0.00      0.00      85.8     0.32      1011.0     3       157         5       179        8.18     270       -3.1
   08/15/2017 18:30      73.8      73.4       54     56.1      0.00      0.00      85.9     0.32      1011.0     4       149         5       131        8.18     270       51.2
   08/15/2017 18:20      73.8      73.4       54     56.0      0.00      0.00      85.7     0.32      1011.0     4       135         8       129        8.18     270       51.8
   08/15/2017 18:10      73.9      73.5       54     56.0      0.00      0.00      85.8     0.32      1011.0     4       158         6       118        8.18     270       85.9
   08/15/2017 18:00      74.8      74.2       53     56.1      0.00      0.00      85.8     0.32      1011.0     5       144         8       155        8.18     270      135.4
   08/15/2017 17:50      74.6      73.6       54     56.0      0.00      0.00      85.6     0.32      1011.0     3       158         6       145        8.18     270      136.4
   08/15/2017 17:40      73.8      73.2       54     55.9      0.00      0.00      85.6     0.32      1011.0     4       167         7       172        8.18     270       81.8
   08/15/2017 17:30      74.1      73.5       54     56.1      0.00      0.00      85.6     0.32      1011.0     5       133         6       160        8.18     270       91.3
   08/15/2017 17:20      74.4      73.5       53     56.0      0.00      0.00      85.7     0.32      1011.0     4       146         9       137        8.18     270       92.5
   08/15/2017 17:10      74.7      73.7       53     55.9      0.00      0.00      85.6     0.32      1011.0     5       131         8       129        8.18     270       92.9
   08/15/2017 17:00      74.6      74.3       53     56.0      0.00      0.00      85.6     0.32      1011.0     3       161         5       144        8.25     270      108.4
   08/15/2017 16:50      74.6      74.1       53     56.0      0.00      0.00      85.5     0.32      1011.0     3       170         7       192        8.26     270      134.8
   08/15/2017 16:40      74.6      74.1       53     56.0      0.00      0.00      85.5     0.32      1011.0     5       143         7        92        8.27     270      154.2
   08/15/2017 16:30      74.5      73.7       53     56.0      0.00      0.00      85.5     0.32      1011.0     5       161         9       187        8.27     270      184.8
   08/15/2017 16:20      74.7      73.9       53     56.1      0.00      0.00      85.4     0.32      1012.0     4       172         7       156        8.27     270      185.6
   08/15/2017 16:10      75.6      74.2       53     56.2      0.00      0.00      85.1     0.32      1012.0     5       186         8       185        8.28     270      168.6
   08/15/2017 16:00      75.4      74.4       52     56.2      0.00      0.00      85.0     0.32      1012.0     4       170         6       161        8.28     270      251.5
   08/15/2017 15:50      75.2      74.3       53     56.2      0.00      0.00      85.3     0.32      1012.0     6       146        10       148        8.28     270      238.2
   08/15/2017 15:40      75.4      74.8       52     56.3      0.00      0.00      85.1     0.32      1012.0     5       135         8       164        8.28     270      337.8
   08/15/2017 15:30      75.0      74.0       53     56.3      0.00      0.00      85.0     0.32      1012.0     5       143         7       141        8.28     270      305.9
   08/15/2017 15:20      74.5      73.9       54     56.3      0.00      0.00      85.1     0.32      1012.0     4       130         5       104        8.29     270      320.5
   08/15/2017 15:10      75.0      73.8       54     56.3      0.00      0.00      85.1     0.32      1012.0     6       119         8        98        8.29     270      243.3
   08/15/2017 15:00      75.1      74.5       52     56.1      0.00      0.00      85.0     0.32      1012.0     4       150         6       154        8.29     270      208.7
   08/15/2017 14:50      75.0      74.2       53     56.1      0.00      0.00      85.2     0.32      1012.0     4       113        10       104        8.29     270      213.4
   08/15/2017 14:40      76.3      75.2       51     56.3      0.00      0.00      85.1     0.32      1012.0     4       122         7       117        8.29     270      297.8
   08/15/2017 14:30      75.2      74.6       52     56.2      0.00      0.00      84.8     0.32      1012.0     5        96         9        92        8.30     270      509.9
   08/15/2017 14:20      75.9      74.2       52     56.3      0.00      0.00      84.7     0.32      1012.0     4       108         7        93        8.30     270      228.0
   08/15/2017 14:10      76.3      75.5       51     56.6      0.00      0.00      84.8     0.32      1012.0     6       123        10       120        8.30     270      527.8
   08/15/2017 14:00      76.8      75.3       51     56.7      0.00      0.00      85.1     0.31      1012.0     6       132         8       139        8.30     270      387.6
   08/15/2017 13:50      76.8      75.7       50     56.6      0.00      0.00      84.6     0.31      1012.0     5       140         7       148        8.30     270      376.5
   08/15/2017 13:40      76.7      75.6       51     56.5      0.00      0.00      84.9     0.31      1012.0     5       153         6       144        8.31     271      474.9
   08/15/2017 13:30      75.8      74.5       52     56.4      0.00      0.00      84.7     0.31      1012.0     5       147         9       147        8.31     271      487.6
   08/15/2017 13:20      76.7      74.9       51     56.3      0.00      0.00      84.7     0.32      1012.0     5       103         8       158        8.31     270      265.5
   08/15/2017 13:10      77.0      73.8       53     56.4      0.00      0.00      84.6     0.32      1012.0     5       113         7       126        8.32     271      524.4
   08/15/2017 13:00      74.5      74.1       53     56.0      0.00      0.00      84.6     0.32      1012.0     5       133         8       135        8.33     271      149.5
   08/15/2017 12:50      74.8      74.6       51     55.5      0.00      0.00      84.7     0.31      1012.0     4       135        13       130        8.33     271      257.5
   08/15/2017 12:40      75.7      74.4       51     55.5      0.00      0.00      84.6     0.31      1012.0     5       135         8       136        8.33     270      260.3
   08/15/2017 12:30      76.1      75.3       48     55.0      0.00      0.00      84.7     0.31      1012.0     3       176         4        73        8.33     271      395.8
   08/15/2017 12:20      76.6      75.7       47     54.8      0.00      0.00      84.7     0.31      1012.0     3       149         8       133        8.34     270      644.1
   08/15/2017 12:10      76.4      75.0       48     54.5      0.00      0.00      84.6     0.31      1012.0     4       113         7       128        8.34     270      725.7
   08/15/2017 12:00      76.6      75.5       48     55.3      0.00      0.00      84.7     0.31      1012.0     4       132         6       138        8.34     271      724.2
   08/15/2017 11:50      76.0      74.9       49     55.3      0.00      0.00      85.0     0.31      1013.0     3       125         6        63        8.35     271      736.5
   08/15/2017 11:40      75.7      74.6       49     55.0      0.00      0.00      84.6     0.31      1013.0     4       130         9       130        8.35     272      529.9
   08/15/2017 11:30      75.6      74.7       50     55.1      0.00      0.00      84.8     0.31      1013.0     4       142         5       186        8.35     272      657.3
   08/15/2017 11:20      74.6      72.7       52     54.8      0.00      0.00      84.7     0.31      1013.0     5       108         8       131        8.36     272      680.6
   08/15/2017 11:10      73.0      71.2       56     55.2      0.00      0.00      84.8     0.32      1013.0     3       141         5       125        8.36     272      353.7
   08/15/2017 11:00      73.8      72.2       54     55.0      0.00      0.00      84.9     0.32      1013.0     5       144         8       128        8.36     272      487.3
   08/15/2017 10:50      72.2      71.2       56     55.2      0.00      0.00      84.8     0.32      1013.0     5       122         7        51        8.36     272      497.2
   08/15/2017 10:40      72.1      70.1       57     55.3      0.00      0.00      84.7     0.32      1013.0     5       151         7       140        8.37     272      575.3
   08/15/2017 10:30      70.7      70.1       59     55.5      0.00      0.00      84.9     0.32      1013.0     3       138         6       143        8.37     273      203.0
   08/15/2017 10:20      71.2      69.3       60     55.6      0.00      0.00      84.9     0.32      1013.0     3       152         4       194        8.37     273      299.2
   08/15/2017 10:10      69.5      69.0       63     56.0      0.00      0.00      85.1     0.32      1013.0     4       141         6       172        8.37     273      155.6
   08/15/2017 10:00      69.1      68.6       64     56.1      0.00      0.00      85.1     0.32      1013.0     3       112         7       103        8.37     273      162.3
   08/15/2017 09:50      69.0      68.3       65     56.2      0.00      0.00      84.9     0.32      1013.0     3        80         4        75        8.37     273       97.9
   08/15/2017 09:40      68.9      68.5       65     56.2      0.00      0.00      85.0     0.32      1013.0     3        99         4        91        8.38     273      109.6
   08/15/2017 09:30      68.3      68.1       66     56.6      0.00      0.00      85.2     0.32      1013.0     2        55         5        80        8.38     273      112.5
   08/15/2017 09:20      68.2      68.1       67     56.9      0.00      0.00      85.0     0.32      1013.0     2        52         3        36        8.38     274      116.5
   08/15/2017 09:10      68.1      67.7       68     56.9      0.00      0.00      85.1     0.32      1013.0     3        55         4        34        8.38     273      143.2
   08/15/2017 09:00      67.8      67.5       69     57.0      0.00      0.00      85.3     0.32      1013.0     3        49         4        75        8.38     274      104.0
   08/15/2017 08:50      67.7      67.4       70     57.3      0.00      0.00      84.8     0.32      1013.0     2        40         3        43        8.38     274      115.5
   08/15/2017 08:40      67.7      66.7       71     57.5      0.00      0.00      85.2     0.32      1013.0     2        68         4        92        8.38     274       90.5
   08/15/2017 08:30      66.8      66.3       72     57.3      0.00      0.00      85.1     0.32      1013.0     3        84         5       127        8.38     274       76.2
   08/15/2017 08:20      66.7      66.2       73     57.5      0.00      0.00      85.1     0.32      1013.0     3        72         4        81        8.38     274       87.1
   08/15/2017 08:10      66.2      65.4       75     57.6      0.00      0.00      85.2     0.32      1013.0     2       111         3       155        8.39     274       70.3
   08/15/2017 08:00      65.6      65.2       76     57.6      0.00      0.00      85.4     0.32      1012.0     2       124         4       140        8.39     274       47.6
   08/15/2017 07:50      65.2      64.8       77     57.5      0.00      0.00      85.4     0.32      1012.0     2       141         3       134        8.39     274       31.2
   08/15/2017 07:40      64.8      64.3       79     57.8      0.00      0.00      85.6     0.32      1012.0     2       138         3       144        8.39     274       28.8
   08/15/2017 07:30      64.5      64.2       80     58.0      0.00      0.00      85.6     0.32      1012.0     1       265         3       202        8.39     274       18.4
   08/15/2017 07:20      64.3      63.6       81     58.0      0.00      0.00      85.6     0.32      1012.0     0       193         1       210        8.39     274       15.4
   08/15/2017 07:10      63.7      63.2       82     57.9      0.00      0.00      85.7     0.32      1012.0     1       205         2       189        8.39     274        5.0
   08/15/2017 07:00      63.6      63.3       82     57.9      0.00      0.00      85.3     0.32      1012.0     2       170         3       187        8.39     274       -2.9
   08/15/2017 06:50      63.6      63.3       82     58.0      0.00      0.00      85.2     0.32      1012.0     2       182         3       160        8.39     274       -9.7
   08/15/2017 06:40      63.4      63.0       83     57.9      0.00      0.00      85.3     0.32      1012.0     3       192         4       186        8.39     274      -11.6
   08/15/2017 06:30      63.3      63.0       84     58.1      0.00      0.00      85.4     0.32      1012.0     3       170         4       167        8.39     274      -14.4
   08/15/2017 06:20      63.3      62.9       84     58.3      0.00      0.00      85.4     0.32      1012.0     2       133         4       164        8.39     274      -15.5
   08/15/2017 06:10      63.3      62.9       84     58.2      0.00      0.00      86.1     0.32      1012.0     2       132         3       153        8.39     274      -15.4
   08/15/2017 06:00      63.0      62.8       85     58.2      0.00      0.00      85.5     0.32      1012.0     3       117         4       116        8.39     274      -15.7
   08/15/2017 05:50      63.0      62.7       85     58.4      0.00      0.00      85.3     0.32      1012.0     2       109         3       133        8.39     274      -16.4
   08/15/2017 05:40      63.0      62.8       85     58.4      0.00      0.00      85.8     0.32      1012.0     2       119         3       122        8.39     274      -16.4
   08/15/2017 05:30      63.0      62.8       85     58.3      0.00      0.00      86.0     0.32      1012.0     2       134         4       130        8.39     274      -15.9
   08/15/2017 05:20      63.2      63.0       85     58.3      0.00      0.00      86.1     0.32      1012.0     3       126         5       137        8.39     273      -15.9
   08/15/2017 05:10      63.3      63.0       85     58.4      0.00      0.00      85.6     0.32      1012.0     3       145         4       144        8.39     273      -16.4
   08/15/2017 05:00      63.4      63.3       83     58.1      0.00      0.00      86.2     0.32      1012.0     3       134         5       137        8.39     274      -16.0
   08/15/2017 04:50      63.5      63.3       83     58.1      0.00      0.00      86.0     0.32      1012.0     3       102         4       128        8.39     273      -16.3
   08/15/2017 04:40      63.5      63.2       83     58.0      0.00      0.00      85.6     0.32      1012.0     2       131         3       131        8.39     273      -16.3
   08/15/2017 04:30      63.7      63.4       82     57.9      0.00      0.00      86.2     0.32      1012.0     3       148         4       152        8.46     273      -16.4
   08/15/2017 04:20      63.8      63.6       81     57.8      0.00      0.00      85.9     0.32      1012.0     3       122         4       155        8.46     273      -16.3
   08/15/2017 04:10      64.3      63.7       80     57.6      0.00      0.00      86.2     0.32      1012.0     4       119         5       136        8.46     273      -16.1
   08/15/2017 04:00      64.4      64.2       78     57.1      0.00      0.00      86.3     0.32      1012.0     4        93         6        68        8.46     273      -15.8
   08/15/2017 03:50      64.7      64.3       76     56.8      0.00      0.00      86.0     0.32      1012.0     4        88         6        85        8.46     273      -16.3
   08/15/2017 03:40      64.7      64.2       76     56.9      0.00      0.00      86.1     0.32      1012.0     3        66         5        83        8.47     273      -16.5
   08/15/2017 03:30      64.3      64.0       78     57.1      0.00      0.00      86.1     0.32      1012.0     2       106         4       125        8.47     273      -16.7
   08/15/2017 03:20      64.0      63.7       79     57.2      0.00      0.00      86.2     0.32      1012.0     3        97         4       121        8.47     273      -16.3
   08/15/2017 03:10      64.0      63.9       79     57.2      0.00      0.00      86.1     0.32      1012.0     3        93         4        91        8.47     273      -16.4
   08/15/2017 03:00      64.1      63.7       79     57.1      0.00      0.00      86.1     0.32      1012.0     2        82         3       115        8.47     273      -16.3
   08/15/2017 02:50      63.7      63.4       79     57.0      0.00      0.00      86.0     0.32      1012.0     3        73         7        87        8.48     273      -16.1
   08/15/2017 02:40      63.5      63.3       81     57.3      0.00      0.00      86.3     0.32      1012.0     2       100         4       139        8.48     273      -16.6
   08/15/2017 02:30      63.4      63.1       81     57.5      0.00      0.00      86.4     0.32      1012.0     3       113         4       117        8.48     273      -16.4
   08/15/2017 02:20      63.4      63.1       82     57.5      0.00      0.00      86.8     0.32      1012.0     3       120         5       133        8.48     273      -16.6
   08/15/2017 02:10      63.4      63.1       82     57.6      0.00      0.00      86.3     0.32      1012.0     2       103         4       108        8.48     273      -16.5
   08/15/2017 02:00      63.3      62.8       82     57.5      0.00      0.00      86.7     0.32      1012.0     2        89         4       117        8.48     273      -16.2
   08/15/2017 01:50      63.0      62.5       83     57.5      0.00      0.00      86.6     0.32      1012.0     3       109         4        68        8.48     273      -16.1
   08/15/2017 01:40      62.6      62.5       84     57.6      0.00      0.00      86.6     0.32      1012.0     3       117         6        95        8.48     273      -16.1
   08/15/2017 01:30      62.6      62.4       84     57.5      0.00      0.00      86.6     0.32      1012.0     3       116         6       119        8.48     273      -15.9
   08/15/2017 01:20      62.7      62.4       84     57.5      0.00      0.00      86.4     0.32      1012.0     3       114         6        74        8.48     273      -16.2
   08/15/2017 01:10      62.5      62.4       84     57.6      0.00      0.00      86.6     0.32      1012.0     4       125         6       124        8.48     273      -16.0
   08/15/2017 01:00      62.9      62.5       84     57.6      0.00      0.00      86.5     0.32      1012.0     4       119         5       107        8.49     272      -16.3
   08/15/2017 00:50      62.7      62.5       84     57.6      0.00      0.00      86.7     0.32      1012.0     4       124         6       160        8.54     272      -16.4
   08/15/2017 00:40      62.7      62.5       84     57.7      0.00      0.00      86.6     0.32      1012.0     3       127         5       139        8.54     272      -16.2
   08/15/2017 00:30      62.8      62.5       83     57.5      0.00      0.00      86.3     0.32      1012.0     4       130         6       130        8.54     272      -16.7
   08/15/2017 00:20      62.8      62.6       83     57.4      0.00      0.00      86.6     0.32      1012.0     4       136         5       135        8.55     272      -18.4
   08/15/2017 00:10      63.0      62.6       82     57.3      0.00      0.00      86.8     0.32      1012.0     3       143         5       142        8.55     272      -22.4
   08/15/2017 00:00      63.3      63.0       82     57.5      0.00      0.00      86.8     0.32      1012.0     3       121         3       129        8.55     272      -50.5
   08/14/2017 23:50      63.4      63.3       82     57.7      0.00      0.00      86.7     0.32      1012.0     3        58         4        74        8.56     272      -62.1
   08/14/2017 23:40      63.5      63.3       81     57.6      0.00      0.00      86.8     0.32      1012.0     3        63         4        65        8.56     271      -66.0
   08/14/2017 23:30      64.0      63.8       79     57.2      0.00      0.00      86.9     0.32      1012.0     3        95         5        91        8.56     271      -66.8
   08/14/2017 23:20      64.5      64.2       79     57.7      0.00      0.00      86.9     0.32      1012.0     2        77         3        64        8.56     271      -67.3
   08/14/2017 23:10      64.8      64.5       79     57.9      0.00      0.00      86.8     0.32      1012.0     2        44         3        36        8.57     271      -68.3
   08/14/2017 23:00      64.8      64.7       78     57.9      0.00      0.00      86.9     0.32      1011.0     1        40         2        20        8.56     271      -68.8
   08/14/2017 22:50      65.1      64.8       77     57.7      0.00      0.00      86.9     0.32      1011.0     2        63         3        59        8.57     271      -69.1
   08/14/2017 22:40      65.3      65.1       76     57.6      0.00      0.00      87.0     0.32      1012.0     3        57         4        65        8.57     271      -69.8
   08/14/2017 22:30      65.4      65.3       74     57.0      0.00      0.00      86.7     0.32      1012.0     2        87         3        76        8.57     271      -70.1
   08/14/2017 22:20      65.7      65.2       71     55.7      0.00      0.00      86.9     0.32      1012.0     1       113         2       124        8.57     271      -70.1
   08/14/2017 22:10      66.2      65.8       70     55.9      0.00      0.00      86.9     0.32      1012.0     0       227         1       250        8.57     271      -70.3
   08/14/2017 22:00      66.3      66.2       70     56.0      0.00      0.00      87.0     0.32      1011.0     1       183         2       177        8.57     271      -73.7
   08/14/2017 21:50      66.6      66.3       68     55.8      0.00      0.00      86.8     0.32      1011.0     3       155         4       158        8.57     271      -75.2
   08/14/2017 21:40      67.1      66.6       67     55.8      0.00      0.00      87.0     0.32      1011.0     3       162         4       172        8.57     270      -75.6
   08/14/2017 21:30      67.6      67.3       66     55.6      0.00      0.00      87.0     0.32      1011.0     2       170         4       179        8.61     270      -76.1
   08/14/2017 21:20      68.4      67.7       64     55.4      0.00      0.00      87.1     0.32      1011.0     3       177         4       138        8.61     270      -76.3
   08/14/2017 21:10      69.0      68.6       62     55.4      0.00      0.00      87.0     0.32      1011.0     3       186         3       196        8.62     270      -75.7
   08/14/2017 21:00      69.4      69.1       61     55.4      0.00      0.00      86.9     0.32      1011.0     3       124         5       143        8.62     270      -76.4
   08/14/2017 20:50      69.5      69.3       61     55.5      0.00      0.00      87.1     0.32      1011.0     2       179         3       207        8.62     270      -76.8
   08/14/2017 20:40      69.7      69.4       61     55.5      0.00      0.00      87.0     0.32      1011.0     3       179         5       164        8.62     270      -77.0
   08/14/2017 20:30      69.8      69.6       61     55.8      0.00      0.00      87.1     0.32      1011.0     3       170         5       159        8.63     270      -77.5
   08/14/2017 20:20      70.3      69.8       60     55.8      0.00      0.00      87.1     0.32      1011.0     4       175         5       199        8.63     270      -77.7
   08/14/2017 20:10      70.7      70.4       59     55.8      0.00      0.00      87.0     0.32      1011.0     3       191         4       176        8.63     270      -78.8
   08/14/2017 20:00      71.3      70.9       58     55.8      0.00      0.00      86.9     0.32      1010.0     4       181         4       188        8.63     269      -79.9
   08/14/2017 19:50      72.3      71.5       57     55.7      0.00      0.00      86.9     0.32      1010.0     4       173         5       186        8.64     269      -79.9
   08/14/2017 19:40      72.7      72.3       55     55.6      0.00      0.00      87.0     0.32      1010.0     4       170         5       178        8.64     269      -78.1
   08/14/2017 19:30      73.3      72.8       55     55.8      0.00      0.00      87.1     0.32      1010.0     5       161         7       159        8.64     269      -74.0
   08/14/2017 19:20      74.4      73.5       54     56.4      0.00      0.00      87.0     0.32      1010.0     5       159         7       139        8.64     269      -65.5
   08/14/2017 19:10      74.8      74.3       54     56.9      0.00      0.00      86.9     0.32      1010.0     6       149         7       149        8.64     269      -51.5
   08/14/2017 19:00      75.6      74.8       53     57.0      0.00      0.00      86.7     0.32      1010.0     6       152         8       154        8.65     269      -33.6
   08/14/2017 18:50      76.5      75.8       51     57.1      0.00      0.00      86.9     0.32      1010.0     6       154         8       165        8.65     269      -15.5
   08/14/2017 18:40      77.5      76.8       51     57.5      0.00      0.00      86.7     0.32      1010.0     5       164         7       147        8.65     269        5.7
   08/14/2017 18:30      77.9      77.7       50     57.8      0.00      0.00      86.9     0.32      1010.0     5       149         8       158        8.65     269       27.8
   08/14/2017 18:20      78.6      77.8       49     57.8      0.00      0.00      86.9     0.32      1010.0     5       161         9       138        8.66     269       51.9
   08/14/2017 18:10      78.8      78.4       49     57.8      0.00      0.00      86.7     0.32      1010.0     5       166         8       162        8.66     269       77.2
   08/14/2017 18:00      79.5      78.7       48     58.0      0.00      0.00      86.9     0.32      1010.0     6       159         9       171        8.67     269      100.8
   08/14/2017 17:50      80.2      79.7       48     58.2      0.00      0.00      86.6     0.32      1010.0     5       164         7       174        8.68     269      124.4
   08/14/2017 17:40      81.0      79.8       47     58.4      0.00      0.00      86.7     0.32      1010.0     6       157         8       180        8.69     269      146.9
   08/14/2017 17:30      81.7      81.0       46     58.5      0.00      0.00      86.5     0.32      1010.0     5       168         8       165        8.69     269      172.3
   08/14/2017 17:20      81.9      81.3       45     58.5      0.00      0.00      86.5     0.32      1010.0     6       156         8       157        8.70     269      197.3
   08/14/2017 17:10      82.8      82.1       44     58.6      0.00      0.00      86.6     0.32      1010.0     6       161         7       168        8.71     269      218.6
   08/14/2017 17:00      83.4      82.2       44     58.7      0.00      0.00      86.3     0.32      1010.0     6       177         9       172        8.71     268      242.3
   08/14/2017 16:50      82.2      81.9       45     58.4      0.00      0.00      86.1     0.32      1010.0     6       151         8       139        8.72     269      268.8
   08/14/2017 16:40      82.0      81.8       45     58.2      0.00      0.00      86.2     0.32      1010.0     6       142         9       132        8.72     269      289.5
   08/14/2017 16:30      82.3      81.9       44     58.2      0.00      0.00      86.4     0.32      1010.0     5       167         8       135        8.72     269      307.0
   08/14/2017 16:20      83.2      82.5       43     58.0      0.00      0.00      86.3     0.32      1010.0     6       171         9       162        8.72     268      330.6
   08/14/2017 16:10      83.3      82.5       42     57.8      0.00      0.00      86.1     0.32      1010.0     4       190         7       219        8.72     269      349.9
   08/14/2017 16:00      84.6      82.8       41     57.3      0.00      0.00      86.3     0.32      1010.0     5       141         9       137        8.72     270      370.6
   08/14/2017 15:50      84.3      82.5       41     57.3      0.00      0.00      86.1     0.32      1010.0     3       196         5       190        8.72     270      391.6
   08/14/2017 15:40      82.8      81.8       42     57.0      0.00      0.00      86.2     0.32      1010.0     4       214         7       205        8.72     269      413.0
   08/14/2017 15:30      82.4      81.3       43     57.1      0.00      0.00      86.1     0.32      1010.0     7       197        10       223        8.81     269      426.7
   08/14/2017 15:20      83.0      82.1       42     57.4      0.00      0.00      85.9     0.32      1010.0     5       161         7       140        8.82     269      439.1
   08/14/2017 15:10      84.4      82.7       41     57.2      0.00      0.00      86.0     0.32      1011.0     5       157         7       175        8.83     269      453.6
   08/14/2017 15:00      83.8      82.1       41     56.9      0.00      0.00      85.9     0.32      1011.0     2        94         3        21        8.83     269      466.3
   08/14/2017 14:50      82.3      81.2       42     56.8      0.00      0.00      85.7     0.32      1011.0     5       126         8       110        8.83     270      483.4
   08/14/2017 14:40      83.7      82.7       41     57.2      0.00      0.00      85.8     0.32      1011.0     5       149         7       150        8.84     270      490.3
   08/14/2017 14:30      84.0      82.0       40     55.7      0.00      0.00      85.7     0.32      1011.0     4       132         7       137        8.84     270      505.0
   08/14/2017 14:20      82.2      81.8       40     55.1      0.00      0.00      85.8     0.32      1011.0     5       133         8       132        8.84     270      520.5
   08/14/2017 14:10      82.4      81.6       43     57.4      0.00      0.00      85.7     0.31      1011.0     7       147        10       157        8.85     270      533.3
   08/14/2017 14:00      82.7      81.3       44     57.9      0.00      0.00      85.6     0.31      1011.0     6       153         8       143        8.85     271      539.1
   08/14/2017 13:50      84.5      82.9       42     58.0      0.00      0.00      85.6     0.31      1011.0     6       106        11       148        8.85     271      538.5
   08/14/2017 13:40      84.6      83.6       42     58.4      0.00      0.00      85.5     0.31      1011.0     4        44         6        74        8.85     270      539.1
   08/14/2017 13:30      84.0      82.4       44     58.8      0.00      0.00      85.5     0.31      1011.0     4        61         8        98        8.85     271      548.5
   08/14/2017 13:20      82.4      81.9       45     59.1      0.00      0.00      85.4     0.31      1011.0     3        52         4        70        8.86     271      551.7
   08/14/2017 13:10      82.9      81.3       45     58.9      0.00      0.00      85.7     0.31      1011.0     4        27         6         1        8.86     271      555.9
   08/14/2017 13:00      82.8      81.1       46     58.9      0.00      0.00      85.3     0.31      1012.0     4        32         8        84        8.86     272      558.9
   08/14/2017 12:50      82.6      81.5       45     58.9      0.00      0.00      85.2     0.31      1012.0     4        23         5        13        8.86     272      558.3
   08/14/2017 12:40      82.7      80.9       46     58.9      0.00      0.00      85.5     0.31      1012.0     4        39         6       108        8.86     272      559.6
   08/14/2017 12:30      81.9      81.0       46     58.8      0.00      0.00      85.3     0.31      1012.0     4        64         5        60        8.87     272      555.0
   08/14/2017 12:20      81.7      80.3       47     58.9      0.00      0.00      85.3     0.31      1012.0     3        30         5        27        8.87     272      544.1
   08/14/2017 12:10      80.2      79.3       48     58.4      0.00      0.00      85.4     0.31      1012.0     3        54         5        29        8.87     272      543.1
   08/14/2017 12:00      80.4      79.0       48     58.4      0.00      0.00      85.3     0.31      1012.0     4        46         8        25        8.87     272      539.1
   08/14/2017 11:50      79.9      78.8       48     58.3      0.00      0.00      85.4     0.31      1012.0     3        30         7        28        8.87     273      531.1
   08/14/2017 11:40      79.6      77.5       50     58.1      0.00      0.00      85.7     0.31      1012.0     2        92         5        99        8.88     273      525.6
   08/14/2017 11:30      78.5      77.7       50     58.0      0.00      0.00      85.5     0.31      1012.0     3        82         6        70        8.88     273      515.2
   08/14/2017 11:20      78.1      76.8       51     57.9      0.00      0.00      85.6     0.31      1013.0     2        36         4        49        8.88     273      506.8
   08/14/2017 11:10      76.8      75.6       53     57.8      0.00      0.00      85.6     0.32      1013.0     2        53         3       199        8.88     273      497.1
   08/14/2017 11:00      75.6      75.2       54     57.7      0.00      0.00      85.5     0.32      1013.0     3       120         6        92        8.88     273      486.7
   08/14/2017 10:50      75.9      75.0       55     57.9      0.00      0.00      85.3     0.32      1013.0     4        53         6        18        8.89     273      473.7
   08/14/2017 10:40      74.7      73.3       57     57.8      0.00      0.00      85.2     0.32      1013.0     4       360         6       319        8.89     274      459.1
   08/14/2017 10:30      73.2      72.5       59     57.8      0.00      0.00      85.4     0.32      1013.0     3        42         5        76        8.89     274      438.0
   08/14/2017 10:20      73.3      72.5       59     57.7      0.00      0.00      85.6     0.32      1013.0     3        33         5        54        8.89     275      427.4
   08/14/2017 10:10      72.6      71.7       60     57.6      0.00      0.00      85.8     0.32      1013.0     2        35         3        27        8.89     275      374.7
   08/14/2017 10:00      72.7      71.6       60     57.6      0.00      0.00      85.7     0.32      1013.0     3        75         7        94        8.89     276      405.7
   08/14/2017 09:50      71.2      68.7       65     57.6      0.00      0.00      85.5     0.32      1013.0     2        42         3        29        8.90     277      415.9
   08/14/2017 09:40      68.8      68.3       67     57.3      0.00      0.00      85.7     0.32      1013.0     3        73         5        80        8.90     276      156.8
   08/14/2017 09:30      68.7      68.0       69     57.7      0.00      0.00      85.6     0.32      1013.0     4        78         6        77        8.90     276      185.9
   08/14/2017 09:20      68.0      67.3       71     57.8      0.00      0.00      85.9     0.32      1013.0     3        99         5       144        8.90     276      146.4
   08/14/2017 09:10      67.8      67.3       71     57.8      0.00      0.00      86.1     0.32      1013.0     4       101         5        99        8.90     277      134.4
   08/14/2017 09:00      67.5      66.9       72     57.8      0.00      0.00      86.0     0.32      1013.0     4       112         6        87        8.90     277      127.9
   08/14/2017 08:50      67.3      66.8       72     57.9      0.00      0.00      85.5     0.32      1013.0     4        96         8       125        8.90     276      130.5
   08/14/2017 08:40      66.8      66.5       73     57.9      0.00      0.00      86.0     0.32      1013.0     4       128         7       128        8.90     277      113.4
   08/14/2017 08:30      66.7      66.3       74     58.1      0.00      0.00      85.9     0.32      1013.0     4       113         6       152        9.01     277       85.7
   08/14/2017 08:20      66.8      66.4       74     58.2      0.00      0.00      85.8     0.32      1013.0     4       132         5       131        9.01     277       70.9
   08/14/2017 08:10      66.5      65.9       76     58.4      0.00      0.00      85.6     0.32      1013.0     3       122         6       149        9.01     277       57.8
   08/14/2017 08:00      66.1      65.8       77     58.5      0.00      0.00      86.1     0.32      1013.0     4       119         6       129        9.02     277       40.1
   08/14/2017 07:50      66.0      65.7       77     58.6      0.00      0.00      86.0     0.32      1013.0     4       124         7       131        9.02     277       35.6
   08/14/2017 07:40      65.9      65.6       78     58.6      0.00      0.00      85.9     0.32      1013.0     3       108         5       126        9.02     277       19.9
   08/14/2017 07:30      65.9      65.6       78     58.8      0.00      0.00      85.7     0.32      1013.0     2        86         4       132        9.02     277       10.7
   08/14/2017 07:20      65.9      65.7       78     58.8      0.00      0.00      85.8     0.32      1013.0     2       120         3        92        9.02     277        3.5
   08/14/2017 07:10      65.9      65.3       79     58.8      0.00      0.00      85.9     0.32      1013.0     2        92         4        79        9.02     277       -2.8
   08/14/2017 07:00      65.4      65.2       79     58.7      0.00      0.00      86.3     0.32      1013.0     2        76         4        69        9.02     277       -6.1
   08/14/2017 06:50      65.4      65.2       79     58.6      0.00      0.00      86.2     0.32      1012.0     2        88         5        76        9.02     277       -9.0
   08/14/2017 06:40      65.4      65.0       79     58.5      0.00      0.00      86.4     0.32      1012.0     2        89         3        61        9.02     277      -11.0
   08/14/2017 06:30      65.1      64.5       81     58.7      0.00      0.00      86.0     0.32      1012.0     1        92         3       126        9.02     277      -13.0
   08/14/2017 06:20      64.5      64.0       83     58.9      0.00      0.00      86.1     0.32      1012.0     2        95         4        90        9.02     277      -14.0
   08/14/2017 06:10      64.3      63.9       84     59.0      0.00      0.00      86.3     0.32      1012.0     2        78         3        69        9.02     277      -14.3
   08/14/2017 06:00      64.3      63.5       84     58.8      0.00      0.00      86.4     0.32      1012.0     2       107         5        77        9.03     277      -14.3
   08/14/2017 05:50      63.6      63.3       86     59.1      0.00      0.00      86.7     0.32      1012.0     2        80         4        92        9.03     277      -14.5
   08/14/2017 05:40      63.3      63.0       87     59.3      0.00      0.00      86.3     0.32      1012.0     2        90         3        76        9.03     277      -14.3
   08/14/2017 05:30      63.2      62.8       88     59.2      0.00      0.00      86.3     0.32      1012.0     3        86         4        99        9.03     277      -13.9
   08/14/2017 05:20      63.1      62.7       88     59.2      0.00      0.00      86.4     0.32      1012.0     2        61         3        63        9.03     277      -14.3
   08/14/2017 05:10      62.8      62.6       88     59.2      0.00      0.00      86.4     0.32      1012.0     3        90         4       110        9.03     277      -13.7
   08/14/2017 05:00      63.1      62.8       87     59.1      0.00      0.00      86.5     0.32      1012.0     3        81         5        77        9.03     277      -14.5
   08/14/2017 04:50      63.3      62.8       87     59.2      0.00      0.00      86.5     0.32      1012.0     2        57         4        79        9.03     277      -14.8
   08/14/2017 04:40      63.1      62.8       87     59.2      0.00      0.00      87.0     0.32      1012.0     3        61         6        69        9.03     277      -14.6
   08/14/2017 04:30      63.4      62.9       87     59.1      0.00      0.00      86.9     0.32      1012.0     2        70         5        75        9.03     277      -14.4
   08/14/2017 04:20      63.6      63.3       86     59.2      0.00      0.00      86.8     0.32      1012.0     3        59         5        74        9.03     277      -14.8
   08/14/2017 04:10      63.5      63.2       86     59.3      0.00      0.00      86.9     0.32      1012.0     2        69         4        31        9.03     277      -14.7
   08/14/2017 04:00      63.4      63.0       87     59.3      0.00      0.00      86.9     0.32      1012.0     2        69         4        73        9.04     277      -14.5
   08/14/2017 03:50      63.3      63.0       87     59.2      0.00      0.00      87.1     0.32      1012.0     3       102         4        86        9.04     277      -14.2
   08/14/2017 03:40      63.3      63.0       87     59.2      0.00      0.00      87.1     0.32      1013.0     2        64         5        85        9.04     277      -14.3
   08/14/2017 03:30      63.1      62.9       87     59.1      0.00      0.00      87.0     0.32      1013.0     2        61         3       102        9.04     277      -14.2
   08/14/2017 03:20      63.1      63.0       87     59.1      0.00      0.00      87.0     0.32      1013.0     3        76         5       100        9.04     277      -14.8
   08/14/2017 03:10      63.3      63.0       87     59.1      0.00      0.00      87.0     0.32      1013.0     3        56         4        61        9.04     277      -17.4
   08/14/2017 03:00      63.5      63.3       86     59.1      0.00      0.00      87.2     0.32      1013.0     3        76         5        85        9.04     277      -18.9
   08/14/2017 02:50      63.6      63.4       86     59.3      0.00      0.00      87.1     0.32      1013.0     2        27         3        27        9.04     277      -20.3
   08/14/2017 02:40      63.8      63.4       86     59.4      0.00      0.00      87.5     0.32      1013.0     2        30         4        32        9.04     277      -24.2
   08/14/2017 02:30      63.5      63.3       86     59.2      0.00      0.00      87.4     0.32      1013.0     2        54         4        69        9.04     277      -37.5
   08/14/2017 02:20      63.6      63.3       86     59.1      0.00      0.00      87.1     0.32      1013.0     1        53         2        44        9.04     277      -55.9
   08/14/2017 02:10      63.7      63.4       85     59.2      0.00      0.00      87.2     0.32      1013.0     2        36         3        14        9.04     277      -65.2
   08/14/2017 02:00      63.9      63.7       85     59.1      0.00      0.00      87.6     0.32      1013.0     2        47         3        81        9.04     277      -67.1
   08/14/2017 01:50      64.3      64.0       84     59.2      0.00      0.00      87.5     0.32      1013.0     2        47         3        51        9.04     277      -67.8
   08/14/2017 01:40      64.5      64.2       83     59.2      0.00      0.00      87.2     0.32      1013.0     3        28         4        61        9.04     277      -68.2
   08/14/2017 01:30      65.0      64.6       82     59.1      0.00      0.00      87.3     0.32      1013.0     2        41         3        31        9.04     277      -68.8
   08/14/2017 01:20      65.3      65.0       81     59.3      0.00      0.00      87.5     0.32      1013.0     2        44         3        49        9.04     277      -69.5
   08/14/2017 01:10      65.6      65.3       80     59.1      0.00      0.00      87.4     0.32      1013.0     2        41         3        60        9.05     277      -69.7
   08/14/2017 01:00      66.0      65.7       78     59.0      0.00      0.00      87.6     0.32      1013.0     2        44         3        27        9.05     277      -70.2
   08/14/2017 00:50      66.5      66.2       77     58.9      0.00      0.00      87.6     0.32      1013.0     2        39         3        62        9.05     277      -70.4
   08/14/2017 00:40      66.9      66.5       75     58.6      0.00      0.00      87.6     0.33      1013.0     2        42         3        15        9.05     277      -70.6
   08/14/2017 00:30      67.2      66.9       73     58.0      0.00      0.00      87.6     0.32      1013.0     2        54         3        61        9.05     277      -70.3
   08/14/2017 00:20      67.5      67.3       72     57.9      0.00      0.00      87.6     0.32      1013.0     1        52         3        77        9.05     277      -70.2
   08/14/2017 00:10      67.9      67.5       71     57.8      0.00      0.00      87.7     0.32      1013.0     1        67         3        58        9.05     277      -70.3
   08/14/2017 00:00      68.2      67.9       70     58.0      0.00      0.00      87.7     0.32      1013.0     1        61         1        49        9.05     277      -69.8
   08/13/2017 23:50      68.3      68.1       69     57.8      0.00      0.00      87.8     0.32      1012.0     1        53         2        32        9.05     277      -69.7
   08/13/2017 23:40      68.7      68.3       69     57.8      0.00      0.00      87.9     0.32      1012.0     2        90         3        73        9.05     277      -69.8
   08/13/2017 23:30      68.7      68.6       68     57.8      0.00      0.00      88.0     0.32      1012.0     2        58         2        67        9.05     277      -70.6
   08/13/2017 23:20      69.2      68.8       67     57.7      0.00      0.00      87.8     0.32      1012.0     2        82         3        66        9.05     277      -71.4
   08/13/2017 23:10      69.7      69.3       66     57.6      0.00      0.00      87.8     0.32      1012.0     2        76         4        61        9.05     277      -71.3
   08/13/2017 23:00      70.0      69.6       64     57.3      0.00      0.00      87.8     0.32      1012.0     2        77         3        75        9.06     277      -72.1
   08/13/2017 22:50      70.3      70.1       63     57.1      0.00      0.00      87.8     0.32      1012.0     2        87         3        74        9.06     277      -72.5
   08/13/2017 22:40      71.0      70.5       61     56.7      0.00      0.00      87.9     0.32      1012.0     2        93         3        87        9.06     277      -73.2
   08/13/2017 22:30      71.1      71.0       59     56.2      0.00      0.00      88.0     0.32      1012.0     2        68         3        53        9.06     277      -72.9
   08/13/2017 22:20      71.3      71.0       59     56.0      0.00      0.00      88.0     0.32      1012.0     1        65         1        61        9.06     277      -72.1
   08/13/2017 22:10      71.8      71.4       58     55.9      0.00      0.00      88.1     0.32      1012.0     1        93         1       117        9.06     277      -72.2
   08/13/2017 22:00      72.3      71.8       57     56.0      0.00      0.00      88.2     0.32      1012.0     1       112         1       121        9.06     277      -73.5
   08/13/2017 21:50      73.1      72.6       56     56.4      0.00      0.00      87.9     0.32      1012.0     1        75         2        81        9.07     277      -74.9
   08/13/2017 21:40      73.8      73.2       56     56.6      0.00      0.00      88.1     0.32      1012.0     1       102         2        83        9.07     278      -75.9
   08/13/2017 21:30      74.8      74.2       54     56.9      0.00      0.00      87.9     0.32      1012.0     1        67         2        87        9.07     278      -75.8
   08/13/2017 21:20      75.5      75.0       55     58.0      0.00      0.00      88.1     0.32      1012.0     2       292         3       285        9.07     278      -76.5
   08/13/2017 21:10      75.5      75.2       55     58.0      0.00      0.00      87.8     0.32      1012.0     3       245         4       233        9.08     278      -76.6
   08/13/2017 21:00      75.5      75.2       54     57.5      0.00      0.00      88.1     0.32      1012.0     2       208         2       246        9.08     278      -76.6
   08/13/2017 20:50      75.5      75.2       49     54.8      0.00      0.00      88.2     0.32      1012.0     2       201         3       208        9.08     278      -77.4
   08/13/2017 20:40      76.3      75.7       44     52.3      0.00      0.00      87.9     0.32      1011.0     1       179         2       221        9.09     278      -79.4
   08/13/2017 20:30      76.7      76.3       42     51.9      0.00      0.00      88.2     0.32      1011.0     2       175         4       181        9.09     278      -81.3
   08/13/2017 20:20      77.3      76.8       41     51.4      0.00      0.00      88.0     0.32      1011.0     2       173         3       172        9.09     278      -82.9
   08/13/2017 20:10      77.8      77.2       39     50.9      0.00      0.00      87.9     0.32      1011.0     3       188         5       209        9.10     279      -84.0
   08/13/2017 20:00      78.3      77.8       39     50.8      0.00      0.00      87.9     0.32      1011.0     3       176         5       169        9.10     279      -84.8
   08/13/2017 19:50      79.1      78.4       39     51.9      0.00      0.00      88.0     0.32      1011.0     4       189         5       193        9.10     280      -84.5
   08/13/2017 19:40      80.0      79.3       40     53.1      0.00      0.00      87.8     0.32      1011.0     4       201         6       216        9.10     280      -82.3
   08/13/2017 19:30      81.1      80.3       41     54.5      0.00      0.00      87.7     0.32      1011.0     3       196         5       215        9.10     281      -79.6
   08/13/2017 19:20      83.4      81.4       40     55.4      0.00      0.00      88.1     0.32      1011.0     3       188         6       180        9.10     282      -72.0
   08/13/2017 19:10      85.7      83.6       38     56.2      0.00      0.00      88.0     0.32      1011.0     3       244         4       317        9.10     282      -59.9
   08/13/2017 19:00      85.9      85.6       37     56.8      0.00      0.00      88.0     0.32      1011.0     2       315         4       288        9.10     283      -41.3
   08/13/2017 18:50      86.6      85.8       37     56.7      0.00      0.00      87.9     0.32      1011.0     4       327         5       327        9.10     283      -20.8
   08/13/2017 18:40      87.0      86.6       36     56.5      0.00      0.00      87.7     0.32      1010.0     4       301         5       303        9.10     283        0.7
   08/13/2017 18:30      87.8      87.1       35     56.5      0.00      0.00      87.7     0.32      1010.0     5       288         7       241        9.10     284       23.9
   08/13/2017 18:20      87.9      87.6       35     56.5      0.00      0.00      87.6     0.32      1010.0     4       294         6       311        9.10     285       48.1
   08/13/2017 18:10      88.9      88.0       34     56.5      0.00      0.00      87.7     0.32      1010.0     5       278         8       258        9.10     286       71.9
   08/13/2017 18:00      89.7      89.0       33     56.6      0.00      0.00      87.7     0.32      1010.0     5       286         7       301        9.10     288       95.7
   08/13/2017 17:50      89.8      89.6       33     56.5      0.00      0.00      87.6     0.32      1010.0     5       272         8       244        9.10     290      118.9
   08/13/2017 17:40      89.8      89.5       34     57.8      0.00      0.00      87.6     0.32      1010.0     5       240         8       249        9.10     293      144.8
   08/13/2017 17:30      89.7      89.0       33     56.8      0.00      0.00      87.4     0.32      1010.0     5       211         9       246        9.10     301      168.9
   08/13/2017 17:20      89.8      89.5       31     55.4      0.00      0.00      87.2     0.32      1010.0     6       162         8       146        9.10     311      194.1
   08/13/2017 17:10      89.8      89.2       29     53.1      0.00      0.00      87.4     0.32      1011.0     6       160         9       162        9.10     326      218.5
   08/13/2017 17:00      89.8      89.6       28     51.9      0.00      0.00      87.5     0.32      1011.0     4       166         6       150        9.11     351      246.1
   08/13/2017 16:50      90.1      89.7       26     50.9      0.00      0.00      87.1     0.32      1011.0     7       151         9       144        9.11     396      274.1
   08/13/2017 16:40      90.8      89.8       27     51.5      0.00      0.00      87.1     0.32      1011.0     6       170         8       161        9.11     438      299.7
   08/13/2017 16:30      90.8      89.9       28     52.5      0.00      0.00      87.1     0.32      1011.0     5       177         8       182        9.11     478      327.9
   08/13/2017 16:20      90.8      90.4       28     52.8      0.00      0.00      86.9     0.32      1011.0     7       153         9       150        9.10     555      333.2
   08/13/2017 16:10      91.2      90.5       28     53.7      0.00      0.00      86.9     0.32      1011.0     6       165         9       146        8.64     267      346.7
   08/13/2017 16:00      90.8      90.1       30     54.7      0.00      0.00      87.0     0.32      1011.0     6       193         7       195        8.29     268      365.9
   08/13/2017 15:50      92.4      90.8       30     55.7      0.00      0.00      87.0     0.32      1011.0     6       163         8       182        8.30     268      382.5
   08/13/2017 15:40      92.5      91.0       30     55.7      0.00      0.00      86.7     0.32      1011.0     5       156         9       127        8.30     268      396.2
   08/13/2017 15:30      92.8      92.2       29     55.4      0.00      0.00      86.8     0.32      1011.0     5       177         8       143        8.31     269      412.3
   08/13/2017 15:20      93.2      92.2       29     55.6      0.00      0.00      86.6     0.32      1011.0     6       188         8       213        8.31     269      428.9
   08/13/2017 15:10      93.9      92.7       29     55.9      0.00      0.00      86.6     0.32      1011.0     4       156         6       152        8.31     268      443.4
   08/13/2017 15:00      94.3      93.1       29     57.0      0.00      0.00      86.8     0.32      1011.0     4        38         6         6        8.31     269      449.0
   08/13/2017 14:50      93.4      92.7       30     57.6      0.00      0.00      86.5     0.32      1011.0     4       355         8         2        8.32     269      461.4
   08/13/2017 14:40      93.8      93.0       31     58.0      0.00      0.00      86.4     0.31      1011.0     3        15         6         2        8.32     269      477.1
   08/13/2017 14:30      93.4      92.5       32     58.5      0.00      0.00      86.4     0.31      1011.0     3        23         5        45        8.34     269      484.8
   08/13/2017 14:20      92.9      91.8       33     59.3      0.00      0.00      86.1     0.31      1011.0     5       329         7       358        8.35     269      496.7
   08/13/2017 14:10      92.8      91.8       33     59.3      0.00      0.00      86.2     0.31      1012.0     3       330         5       359        8.35     270      510.8
   08/13/2017 14:00      92.2      91.2       34     59.6      0.00      0.00      86.3     0.31      1012.0     3       324         5       332        8.36     270      519.8
   08/13/2017 13:50      91.3      89.7       36     59.6      0.00      0.00      86.1     0.31      1012.0     2       329         3        24        8.37     270      529.2
   08/13/2017 13:40      90.3      89.3       37     60.1      0.00      0.00      86.2     0.31      1012.0     3        59         5        80        8.37     270      534.6
   08/13/2017 13:30      90.3      89.1       37     60.3      0.00      0.00      86.1     0.31      1012.0     2        26         5        70        8.38     269      536.1
   08/13/2017 13:20      89.0      88.6       38     60.1      0.00      0.00      86.0     0.31      1012.0     3         5         5       323        8.38     270      541.6
   08/13/2017 13:10      89.6      88.6       38     60.0      0.00      0.00      86.1     0.31      1013.0     2       347         4       327        8.38     270      543.7
   08/13/2017 13:00      88.6      87.4       39     60.0      0.00      0.00      85.8     0.31      1013.0     3        46         5        46        8.38     270      545.8
   08/13/2017 12:50      87.8      87.2       40     60.4      0.00      0.00      85.9     0.31      1013.0     3         1         5         4        8.38     271      544.7
   08/13/2017 12:40      87.7      86.1       41     60.5      0.00      0.00      86.1     0.31      1013.0     3       350         5       332        8.38     271      554.4
   08/13/2017 12:30      87.0      85.5       42     60.4      0.00      0.00      86.1     0.31      1013.0     2       341         4       359        8.38     270      548.3
   08/13/2017 12:20      85.5      84.1       44     60.3      0.00      0.00      86.0     0.31      1013.0     2       356         3        45        8.38     270      546.2
   08/13/2017 12:10      84.5      83.9       44     60.3      0.00      0.00      86.1     0.31      1013.0     2       335         3       350        8.38     270      541.1
   08/13/2017 12:00      84.4      82.8       46     60.3      0.00      0.00      86.0     0.31      1013.0     2       355         5       334        8.38     270      534.9
   08/13/2017 11:50      83.8      81.9       47     60.3      0.00      0.00      86.0     0.31      1013.0     3        36         5       359        8.38     271      529.3
   08/13/2017 11:40      82.3      81.8       48     60.2      0.00      0.00      85.9     0.31      1013.0     3       337         5        17        8.38     271      520.5
   08/13/2017 11:30      81.7      80.1       49     60.2      0.00      0.00      85.9     0.31      1014.0     2         2         3        79        8.38     271      510.6
   08/13/2017 11:20      80.1      79.5       51     60.1      0.00      0.00      86.2     0.32      1014.0     4       350         5       323        8.38     272      503.4
   08/13/2017 11:10      79.9      78.3       52     60.1      0.00      0.00      86.0     0.32      1014.0     3       337         5         9        8.38     272      493.4
   08/13/2017 11:00      78.0      77.3       54     59.7      0.00      0.00      86.0     0.32      1014.0     2       320         3       300        8.38     272      480.5
   08/13/2017 10:50      77.8      75.9       56     59.8      0.00      0.00      86.2     0.32      1014.0     3       300         3        29        8.38     272      466.3
   08/13/2017 10:40      76.0      75.4       58     59.7      0.00      0.00      86.0     0.32      1014.0     2       311         4       317        8.38     272      452.2
   08/13/2017 10:30      75.3      74.7       59     59.8      0.00      0.00      86.2     0.32      1014.0     3       319         4        11        8.38     272      435.4
   08/13/2017 10:20      75.1      73.6       60     59.8      0.00      0.00      86.1     0.32      1014.0     2       338         3       276        8.39     273      419.7
   08/13/2017 10:10      73.4      72.5       64     59.8      0.00      0.00      86.2     0.32      1014.0     3       351         5       333        8.39     273      399.7
   08/13/2017 10:00      72.4      71.8       65     60.0      0.00      0.00      86.2     0.32      1014.0     3         9         4        30        8.39     273      383.3
   08/13/2017 09:50      71.8      71.2       67     60.0      0.00      0.00      86.7     0.32      1014.0     3       334         4       327        8.39     273      366.4
   08/13/2017 09:40      71.3      70.7       68     59.9      0.00      0.00      86.4     0.32      1014.0     3       335         4       291        8.39     273      339.3
   08/13/2017 09:30      71.5      70.4       68     59.7      0.00      0.00      86.3     0.32      1014.0     2        26         4        37        8.39     273      319.3
   08/13/2017 09:20      70.4      69.3       70     59.7      0.00      0.00      86.3     0.32      1014.0     3        81         5        73        8.45     273      309.0
   08/13/2017 09:10      69.2      67.2       75     59.9      0.00      0.00      86.3     0.32      1014.0     2       324         3       345        8.46     273      283.9
   08/13/2017 09:00      67.3      66.9       77     59.8      0.00      0.00      86.5     0.32      1014.0     3        31         3        11        8.46     273      138.6
   08/13/2017 08:50      67.1      66.7       78     59.8      0.00      0.00      86.5     0.32      1015.0     2       126         3       131        8.46     273      123.6
   08/13/2017 08:40      66.7      65.9       80     59.8      0.00      0.00      86.3     0.32      1014.0     2        58         3        72        8.46     273      110.9
   08/13/2017 08:30      66.2      65.6       81     59.8      0.00      0.00      86.6     0.32      1014.0     2        34         4         8        8.46     273       82.3
   08/13/2017 08:20      65.7      65.4       82     59.9      0.00      0.00      86.7     0.32      1014.0     3        25         4        23        8.46     273       64.3
   08/13/2017 08:10      65.3      64.8       83     59.8      0.00      0.00      86.7     0.32      1014.0     2        81         5        91        8.46     273       58.9
   08/13/2017 08:00      65.3      64.8       83     59.8      0.00      0.00      86.5     0.32      1014.0     3        68         5        69        8.46     273       48.7
   08/13/2017 07:50      65.3      65.0       82     59.7      0.00      0.00      86.7     0.32      1014.0     3        65         5        81        8.47     273       44.2
   08/13/2017 07:40      65.1      64.3       84     59.6      0.00      0.00      86.7     0.32      1014.0     2        81         3        74        8.47     273       42.9
   08/13/2017 07:30      64.3      63.3       86     59.5      0.00      0.00      86.8     0.32      1014.0     1       111         2       107        8.47     273       41.0
   08/13/2017 07:20      63.4      62.3       88     59.4      0.00      0.00      86.8     0.32      1014.0     1        96         2       104        8.47     273       35.7
   08/13/2017 07:10      62.3      61.7       89     58.8      0.00      0.00      86.8     0.32      1014.0     0       121         0        96        8.47     273       23.3
   08/13/2017 07:00      61.8      61.2       90     58.6      0.00      0.00      86.4     0.32      1014.0     0       160         0       115        8.47     273        3.1
   08/13/2017 06:50      61.3      61.1       90     58.3      0.00      0.00      86.7     0.32      1014.0     1       180         1       153        8.47     273      -10.6
   08/13/2017 06:40      61.2      60.9       90     58.1      0.00      0.00      86.6     0.32      1013.0     1       169         2       152        8.47     272      -21.1
   08/13/2017 06:30      61.0      60.7       90     57.8      0.00      0.00      87.0     0.32      1013.0     2       152         2       139        8.47     272      -30.8
   08/13/2017 06:20      61.3      61.0       89     58.0      0.00      0.00      86.8     0.32      1013.0     1       147         1       142        8.47     272      -36.9
   08/13/2017 06:10      61.6      61.2       89     58.3      0.00      0.00      86.9     0.32      1013.0     1       156         1       164        8.47     272      -41.0
   08/13/2017 06:00      61.7      61.5       89     58.4      0.00      0.00      87.1     0.32      1013.0     2       168         2       160        8.47     272      -44.6
   08/13/2017 05:50      61.9      61.7       89     58.4      0.00      0.00      87.2     0.32      1013.0     2       154         3       157        8.47     272      -48.6
   08/13/2017 05:40      61.9      61.6       88     58.2      0.00      0.00      86.9     0.32      1013.0     1       131         2       128        8.47     272      -53.6
   08/13/2017 05:30      62.4      61.9       88     58.5      0.00      0.00      86.9     0.32      1013.0     1       120         2       144        8.47     272      -55.6
   08/13/2017 05:20      62.7      62.4       88     58.8      0.00      0.00      86.8     0.32      1013.0     2       151         3       159        8.48     272      -57.0
   08/13/2017 05:10      63.0      62.8       88     59.2      0.00      0.00      87.1     0.32      1013.0     2       169         2       164        8.48     272      -58.8
   08/13/2017 05:00      63.1      62.8       87     59.3      0.00      0.00      87.4     0.32      1013.0     2       162         2       164        8.48     272      -63.1
   08/13/2017 04:50      63.3      63.1       87     59.3      0.00      0.00      87.0     0.32      1013.0     2       168         2       169        8.48     272      -66.5
   08/13/2017 04:40      63.9      63.3       86     59.2      0.00      0.00      87.3     0.32      1012.0     2       164         2       159        8.48     272      -70.1
   08/13/2017 04:30      64.1      63.7       85     59.2      0.00      0.00      87.0     0.32      1012.0     1       169         2       184        8.48     272      -71.8
   08/13/2017 04:20      64.5      64.2       85     59.6      0.00      0.00      87.1     0.32      1012.0     1       176         2       200        8.48     272      -62.6
   08/13/2017 04:10      64.7      64.4       84     59.7      0.00      0.00      87.4     0.32      1013.0     1       143         1       191        8.48     272      -50.4
   08/13/2017 04:00      64.6      64.4       85     59.7      0.00      0.00      87.3     0.32      1013.0     1       326         3       296        8.48     272      -50.3
   08/13/2017 03:50      64.6      64.4       84     59.7      0.00      0.00      87.5     0.32      1013.0     1       282         2       268        8.48     272      -39.3
   08/13/2017 03:40      64.7      64.3       85     59.8      0.00      0.00      87.5     0.32      1013.0     2       237         3       253        8.48     272      -24.6
   08/13/2017 03:30      64.6      64.3       85     59.8      0.00      0.00      87.9     0.32      1013.0     2       249         3       247        8.48     272      -23.5
   08/13/2017 03:20      64.5      64.3       85     59.9      0.00      0.00      87.6     0.32      1013.0     1       212         2       211        8.48     272      -20.1
   08/13/2017 03:10      64.5      64.2       85     59.8      0.00      0.00      87.8     0.32      1013.0     1       151         2       157        8.49     272      -16.9
   08/13/2017 03:00      64.7      64.5       85     59.9      0.00      0.00      87.7     0.32      1013.0     2        90         3        67        8.49     272      -16.3
   08/13/2017 02:50      64.5      64.3       85     59.9      0.00      0.00      87.6     0.32      1013.0     2        62         4       125        8.49     272      -15.9
   08/13/2017 02:40      64.6      64.2       85     59.9      0.00      0.00      87.5     0.32      1013.0     1        40         2       112        8.49     272      -16.0
   08/13/2017 02:30      64.5      64.2       86     59.9      0.00      0.00      87.5     0.32      1013.0     2        77         4        76        8.49     272      -15.9
   08/13/2017 02:20      64.2      64.0       86     60.0      0.00      0.00      87.7     0.32      1013.0     2        63         4        23        8.49     272      -15.8
   08/13/2017 02:10      64.1      63.7       87     60.0      0.00      0.00      87.9     0.32      1013.0     2        59         3        60        8.50     272      -15.2
   08/13/2017 02:00      63.9      63.7       88     60.0      0.00      0.00      88.0     0.32      1013.0     3        79         4        80        8.50     272      -14.8
   08/13/2017 01:50      63.9      63.6       88     60.0      0.00      0.00      88.1     0.32      1014.0     2        99         6        87        8.50     272      -14.4
   08/13/2017 01:40      63.9      63.7       87     59.9      0.00      0.00      87.7     0.33      1014.0     3        74         4        78        8.50     271      -14.8
   08/13/2017 01:30      64.0      63.7       87     59.8      0.00      0.00      87.6     0.32      1014.0     3        58         5        64        8.50     271      -16.6
   08/13/2017 01:20      63.9      63.6       87     59.7      0.00      0.00      88.0     0.32      1014.0     4        59         9        75        8.50     271      -19.6
   08/13/2017 01:10      64.2      63.8       86     59.7      0.00      0.00      87.8     0.33      1014.0     3        54         4        80        8.50     271      -50.2
   08/13/2017 01:00      64.7      64.2       85     59.8      0.00      0.00      87.6     0.32      1013.0     4        62         6        83        8.50     271      -71.5
   08/13/2017 00:50      65.1      64.7       84     59.9      0.00      0.00      87.8     0.33      1013.0     3        58         7        71        8.50     271      -73.5
   08/13/2017 00:40      65.7      65.1       83     59.9      0.00      0.00      87.8     0.33      1013.0     3        43         4        61        8.50     271      -74.6
   08/13/2017 00:30      66.0      65.7       81     59.9      0.00      0.00      88.3     0.33      1013.0     2        58         4        58        8.51     271      -75.0
   08/13/2017 00:20      66.5      66.2       79     59.8      0.00      0.00      88.1     0.33      1013.0     2        55         3        60        8.51     271      -75.5
   08/13/2017 00:10      67.4      66.7       77     59.7      0.00      0.00      88.1     0.33      1013.0     3        61         4        56        8.51     271      -76.7
   08/13/2017 00:00      68.1      67.5       75     59.5      0.00      0.00      88.3     0.32      1013.0     3        42         4        23        8.51     271      -77.5
   08/12/2017 23:50      68.1      67.6       72     58.6      0.00      0.00      88.2     0.33      1013.0     2        36         4        61        8.51     270      -77.7
   08/12/2017 23:40      68.0      67.6       71     58.0      0.00      0.00      88.1     0.33      1013.0     1        70         2        82        8.51     270      -78.2
   08/12/2017 23:30      68.6      68.0       70     58.0      0.00      0.00      88.2     0.33      1013.0     1        46         1        24        8.51     270      -78.6
   08/12/2017 23:20      68.8      68.6       69     58.0      0.00      0.00      88.2     0.33      1013.0     1        50         2        55        8.51     270      -79.9
   08/12/2017 23:10      69.3      69.0       68     58.1      0.00      0.00      88.4     0.32      1013.0     2        74         3        60        8.52     270      -80.1
   08/12/2017 23:00      69.3      69.2       68     58.1      0.00      0.00      88.3     0.33      1013.0     1        78         2       113        8.52     270      -79.5
   08/12/2017 22:50      69.4      69.1       68     58.3      0.00      0.00      88.1     0.33      1013.0     2       104         2        92        8.52     270      -80.3
   08/12/2017 22:40      69.8      69.6       67     58.4      0.00      0.00      88.2     0.33      1012.0     2       118         3       137        8.52     270      -80.9
   08/12/2017 22:30      70.2      69.8       67     58.7      0.00      0.00      88.2     0.33      1012.0     1        79         1        75        8.52     270      -81.6
   08/12/2017 22:20      70.6      70.2       68     59.1      0.00      0.00      88.3     0.32      1012.0     1        68         2        62        8.52     269      -82.2
   08/12/2017 22:10      70.9      70.6       67     59.3      0.00      0.00      88.3     0.33      1012.0     1        68         2        55        8.52     269      -83.5
   08/12/2017 22:00      71.5      70.9       66     59.4      0.00      0.00      88.3     0.32      1012.0     2        76         4        76        8.52     269      -84.7
   08/12/2017 21:50      72.3      71.7       65     59.4      0.00      0.00      88.3     0.32      1012.0     2        92         3        82        8.52     269      -85.8
   08/12/2017 21:40      73.4      72.6       62     59.3      0.00      0.00      88.0     0.33      1012.0     3        72         4        76        8.53     269      -87.1
   08/12/2017 21:30      74.8      73.7       59     59.0      0.00      0.00      88.3     0.32      1012.0     2        81         3        98        8.53     269      -87.9
   08/12/2017 21:20      75.9      74.9       55     58.3      0.00      0.00      88.3     0.32      1012.0     2        87         3        73        8.53     269      -87.5
   08/12/2017 21:10      76.6      75.8       52     57.3      0.00      0.00      88.4     0.33      1012.0     1        88         2       104        8.53     268      -87.8
   08/12/2017 21:00      77.4      76.7       48     55.9      0.00      0.00      88.2     0.32      1012.0     1        97         2        80        8.53     268      -87.7
   08/12/2017 20:50      78.4      77.6       46     55.6      0.00      0.00      88.2     0.32      1011.0     1       133         2       116        8.53     268      -88.4
   08/12/2017 20:40      79.5      78.5       45     55.8      0.00      0.00      88.0     0.32      1011.0     1        89         2        80        8.53     268      -90.0
   08/12/2017 20:30      80.3      79.6       44     56.2      0.00      0.00      88.1     0.32      1011.0     2        87         3        69        8.54     268      -91.2
   08/12/2017 20:20      81.3      80.4       45     57.4      0.00      0.00      88.1     0.32      1011.0     2        87         3        78        8.54     268      -91.2
   08/12/2017 20:10      81.9      81.3       44     57.8      0.00      0.00      88.2     0.32      1011.0     2       202         3       230        8.54     268      -92.0
   08/12/2017 20:00      82.9      82.1       43     57.7      0.00      0.00      88.1     0.32      1011.0     2       239         5       230        8.55     268      -92.6
   08/12/2017 19:50      84.2      83.2       41     57.8      0.00      0.00      88.0     0.32      1010.0     3       248         5       239        8.59     268      -91.9
   08/12/2017 19:40      84.6      84.3       39     56.5      0.00      0.00      88.0     0.32      1010.0     3       300         4       261        8.61     268      -91.1
   08/12/2017 19:30      85.6      84.8       39     57.1      0.00      0.00      87.9     0.32      1010.0     4       300         6       291        8.63     268      -88.1
   08/12/2017 19:20      86.1      85.6       38     57.3      0.00      0.00      87.9     0.32      1010.0     3       298         6       293        8.63     267      -78.3
   08/12/2017 19:10      86.9      86.2       37     57.3      0.00      0.00      87.8     0.32      1010.0     4       304         7       300        8.63     267      -63.4
   08/12/2017 19:00      88.0      86.9       36     56.9      0.00      0.00      87.9     0.32      1010.0     4       327         7       310        8.64     267      -44.6
   08/12/2017 18:50      89.0      88.0       35     57.1      0.00      0.00      87.8     0.32      1010.0     4       321         5       307        8.64     267      -23.4
   08/12/2017 18:40      89.8      89.1       34     57.2      0.00      0.00      87.8     0.32      1010.0     4       316         7       321        8.64     267       -0.2
   08/12/2017 18:30      90.3      90.1       33     57.5      0.00      0.00      87.7     0.32      1010.0     4       322         5       306        8.64     267       23.6
   08/12/2017 18:20      91.6      90.6       32     57.3      0.00      0.00      87.7     0.32      1010.0     5       320         7       329        8.64     267       47.8
   08/12/2017 18:10      92.3      91.6       31     57.0      0.00      0.00      87.7     0.32      1010.0     5       313         7       330        8.64     267       72.0
   08/12/2017 18:00      93.2      92.0       30     56.8      0.00      0.00      87.6     0.32      1010.0     6       329         8       331        8.64     267       95.5
   08/12/2017 17:50      93.6      93.2       30     57.1      0.00      0.00      87.6     0.32      1010.0     4       299         8       325        8.64     267      120.3
   08/12/2017 17:40      93.2      92.8       30     56.7      0.00      0.00      87.6     0.32      1010.0     5       289         8       309        8.65     267      144.0
   08/12/2017 17:30      93.8      92.7       30     57.0      0.00      0.00      87.6     0.32      1010.0     4       205         9       201        8.65     267      168.8
   08/12/2017 17:20      94.1      93.4       29     56.7      0.00      0.00      87.4     0.32      1010.0     4       268         8       268        8.65     267      190.0
   08/12/2017 17:10      93.3      92.5       29     55.6      0.00      0.00      87.2     0.32      1010.0     5       198         9       176        8.65     267      216.5
   08/12/2017 17:00      93.0      92.7       26     52.8      0.00      0.00      87.3     0.32      1010.0     5       157         7       170        8.65     267      238.0
   08/12/2017 16:50      93.1      92.4       25     51.8      0.00      0.00      87.2     0.32      1010.0     6       164         9       161        8.65     267      260.5
   08/12/2017 16:40      93.9      93.3       22     49.2      0.00      0.00      87.3     0.32      1010.0     7       161        10       159        8.65     267      283.4
   08/12/2017 16:30      93.9      93.5       21     48.0      0.00      0.00      87.1     0.32      1010.0     6       155         8       154        8.65     267      304.1
   08/12/2017 16:20      93.9      93.3       23     49.9      0.00      0.00      87.2     0.32      1010.0     8       162        13       162        8.66     267      330.6
   08/12/2017 16:10      94.8      93.6       22     50.0      0.00      0.00      87.1     0.32      1010.0     6       148         9       149        8.67     267      350.2
   08/12/2017 16:00      95.0      94.5       23     50.7      0.00      0.00      87.0     0.32      1010.0     6       157         9       165        8.68     268      362.7
   08/12/2017 15:50      95.6      94.7       25     53.9      0.00      0.00      86.9     0.32      1010.0     5       168         8       134        8.68     268      378.9
   08/12/2017 15:40      96.1      95.4       25     54.1      0.00      0.00      86.8     0.32      1010.0     4       128         6        72        8.68     268      393.4
   08/12/2017 15:30      95.8      94.6       27     55.8      0.00      0.00      86.8     0.32      1010.0     3        76         5       191        8.69     268      408.4
   08/12/2017 15:20      94.8      94.4       30     58.1      0.00      0.00      86.7     0.32      1010.0     3        53         5        68        8.69     268      422.9
   08/12/2017 15:10      96.2      94.9       30     58.9      0.00      0.00      86.5     0.32      1010.0     4        43         7        25        8.69     268      435.8
   08/12/2017 15:00      96.5      95.3       30     59.6      0.00      0.00      86.5     0.32      1010.0     3        46         6        67        8.69     269      453.5
   08/12/2017 14:50      96.0      94.1       31     59.8      0.00      0.00      86.7     0.32      1010.0     4        39         7        74        8.70     269      467.8
   08/12/2017 14:40      95.4      94.4       32     60.3      0.00      0.00      86.4     0.31      1010.0     4        54         6        87        8.70     269      478.5
   08/12/2017 14:30      95.2      93.8       31     59.3      0.00      0.00      86.4     0.31      1010.0     3        29         5        97        8.70     269      493.3
   08/12/2017 14:20      94.3      93.7       32     59.4      0.00      0.00      86.3     0.31      1011.0     4        31         6        17        8.70     269      504.2
   08/12/2017 14:10      94.4      92.9       32     59.6      0.00      0.00      86.1     0.31      1011.0     3        29         5       129        8.70     270      515.8
   08/12/2017 14:00      94.5      93.0       32     59.5      0.00      0.00      86.1     0.31      1011.0     3        22         5        24        8.70     270      528.6
   08/12/2017 13:50      93.8      92.2       32     59.1      0.00      0.00      86.0     0.31      1011.0     3        10         5        86        8.70     269      534.0
   08/12/2017 13:40      92.2      91.5       33     58.8      0.00      0.00      86.2     0.31      1011.0     3        66         5        60        8.70     269      539.1
   08/12/2017 13:30      91.9      90.6       34     58.9      0.00      0.00      86.0     0.31      1011.0     3        27         6        81        8.70     269      542.9
   08/12/2017 13:20      90.9      89.5       36     59.1      0.00      0.00      86.0     0.31      1011.0     3        41         4        78        8.70     269      550.5
   08/12/2017 13:10      89.6      89.2       36     59.4      0.00      0.00      86.1     0.31      1011.0     4        42         8        69        8.71     269      550.0
   08/12/2017 13:00      89.3      88.9       37     59.5      0.00      0.00      85.9     0.31      1011.0     4        22         6        30        8.71     270      552.3
   08/12/2017 12:50      89.7      88.6       36     59.0      0.00      0.00      85.8     0.31      1012.0     3        36         5        15        8.71     270      558.1
   08/12/2017 12:40      89.2      87.7       36     58.4      0.00      0.00      85.9     0.31      1012.0     4        46         7        75        8.71     270      560.6
   08/12/2017 12:30      88.1      87.7       37     58.1      0.00      0.00      86.0     0.31      1012.0     3        36         5        25        8.71     270      552.1
   08/12/2017 12:20      87.8      87.0       38     58.7      0.00      0.00      85.8     0.31      1012.0     4        44         6        84        8.71     269      549.8
   08/12/2017 12:10      87.3      86.5       38     58.4      0.00      0.00      85.9     0.31      1012.0     3        44         6        28        8.71     270      545.4
   08/12/2017 12:00      87.3      86.8       38     58.5      0.00      0.00      85.7     0.31      1012.0     3        37         5        56        8.71     270      541.0
   08/12/2017 11:50      87.2      86.0       40     59.1      0.00      0.00      86.0     0.31      1012.0     4        51         7        82        8.71     271      533.0
   08/12/2017 11:40      86.7      84.7       42     60.3      0.00      0.00      85.8     0.31      1012.0     3        17         5        20        8.71     271      523.9
   08/12/2017 11:30      84.9      84.4       44     60.6      0.00      0.00      85.8     0.31      1012.0     4        26         6         1        8.71     271      516.2
   08/12/2017 11:20      85.0      84.1       44     60.2      0.00      0.00      85.8     0.31      1012.0     4        25         8        15        8.71     271      508.4
   08/12/2017 11:10      85.0      84.2       43     59.8      0.00      0.00      86.1     0.31      1012.0     3        46         6        14        8.71     271      499.3
   08/12/2017 11:00      84.0      82.6       45     59.7      0.00      0.00      85.8     0.32      1012.0     3        41         6        84        8.71     271      487.9
   08/12/2017 10:50      82.6      81.7       47     59.7      0.00      0.00      85.8     0.32      1012.0     2        32         4        44        8.71     271      474.5
   08/12/2017 10:40      81.7      80.6       47     59.1      0.00      0.00      85.8     0.32      1012.0     3        42         5        30        8.81     272      459.7
   08/12/2017 10:30      81.1      79.8       48     59.0      0.00      0.00      86.0     0.32      1012.0     3        18         4       345        8.81     272      445.4
   08/12/2017 10:20      80.0      78.5       50     59.0      0.00      0.00      85.8     0.32      1012.0     3        57         4        83        8.82     272      430.8
   08/12/2017 10:10      78.6      77.0       53     59.4      0.00      0.00      85.8     0.32      1013.0     2        30         3       335        8.82     273      413.8
   08/12/2017 10:00      77.6      77.2       55     59.9      0.00      0.00      86.0     0.32      1013.0     3         6         4        25        8.82     274      394.3
   08/12/2017 09:50      77.4      75.3       57     60.1      0.00      0.00      86.1     0.32      1013.0     3        26         4        38        8.83     273      376.6
   08/12/2017 09:40      75.9      75.3       59     60.1      0.00      0.00      86.0     0.32      1013.0     4       359         6       350        8.83     273      358.5
   08/12/2017 09:30      75.4      73.8       61     60.0      0.00      0.00      86.1     0.32      1013.0     3        34         4        76        8.83     273      338.9
   08/12/2017 09:20      74.0      73.7       61     59.8      0.00      0.00      86.4     0.32      1013.0     2        28         3        19        8.83     273      321.6
   08/12/2017 09:10      74.1      72.6       62     59.9      0.00      0.00      85.9     0.32      1013.0     3        48         3        37        8.84     273      302.6
   08/12/2017 09:00      72.7      72.0       65     59.9      0.00      0.00      86.4     0.32      1013.0     2        19         3        12        8.84     273      286.6
   08/12/2017 08:50      71.8      70.4       68     59.8      0.00      0.00      86.3     0.32      1013.0     2        31         4        13        8.84     273      277.1
   08/12/2017 08:40      70.5      70.3       69     59.6      0.00      0.00      86.3     0.32      1013.0     3        15         4        36        8.84     273      108.6
   08/12/2017 08:30      70.3      69.6       70     59.8      0.00      0.00      86.1     0.32      1013.0     2        53         5        68        8.85     273      -32.3
   08/12/2017 08:20      69.6      69.2       72     59.8      0.00      0.00      86.5     0.32      1013.0     2        36         3        63        8.85     273      -40.6
   08/12/2017 08:10      69.3      68.6       73     60.0      0.00      0.00      86.1     0.32      1013.0     2        37         3         8        8.85     273      -24.1
   08/12/2017 08:00      68.8      67.5       75     60.0      0.00      0.00      86.4     0.32      1012.0     2        26         3        58        8.85     273        7.4
   08/12/2017 07:50      67.4      66.7       77     59.6      0.00      0.00      86.4     0.32      1012.0     2        90         3        90        8.85     273       34.5
   08/12/2017 07:40      66.7      65.7       78     59.4      0.00      0.00      86.5     0.32      1012.0     2        80         3        75        8.85     273       10.4
   08/12/2017 07:30      66.0      64.9       81     59.4      0.00      0.00      86.4     0.32      1012.0     1        36         2        15        8.85     273        0.8
   08/12/2017 07:20      64.9      63.4       85     59.3      0.00      0.00      86.7     0.32      1012.0     1       112         3        88        8.85     273       -1.0
   08/12/2017 07:10      63.4      62.7       87     59.0      0.00      0.00      86.6     0.32      1012.0     0        92         1       124        8.86     272        1.0
   08/12/2017 07:00      62.8      62.1       88     58.8      0.00      0.00      86.5     0.32      1012.0     0       156         1       166        8.85     272       -7.6
   08/12/2017 06:50      62.1      61.6       88     58.3      0.00      0.00      86.7     0.32      1012.0     1       145         1       157        8.86     272      -13.3
   08/12/2017 06:40      61.7      61.5       88     58.0      0.00      0.00      86.7     0.32      1012.0     1       135         2       130        8.86     272      -19.5
   08/12/2017 06:30      61.8      61.5       87     57.9      0.00      0.00      86.9     0.32      1012.0     1       146         2       131        8.86     272      -27.0
   08/12/2017 06:20      62.1      61.8       87     58.1      0.00      0.00      86.8     0.32      1012.0     1       153         2       163        8.86     272      -31.6
   08/12/2017 06:10      62.0      61.7       88     58.1      0.00      0.00      87.0     0.32      1012.0     0       158         1       133        8.86     272      -35.8
   08/12/2017 06:00      62.1      61.8       87     58.2      0.00      0.00      87.1     0.32      1012.0     0       106         1       139        8.86     272      -38.5
   08/12/2017 05:50      62.2      62.0       87     58.2      0.00      0.00      86.9     0.32      1012.0     0        88         1       131        8.86     272      -42.3
   08/12/2017 05:40      62.3      62.0       86     58.0      0.00      0.00      87.0     0.32      1012.0     1       147         1       145        8.86     272      -45.4
   08/12/2017 05:30      62.2      62.1       85     57.8      0.00      0.00      87.3     0.32      1012.0     1       131         2       127        8.86     272      -50.1
   08/12/2017 05:20      62.6      62.2       86     58.0      0.00      0.00      87.4     0.32      1012.0     1       152         2       137        8.86     272      -51.5
   08/12/2017 05:10      62.7      62.3       84     57.7      0.00      0.00      87.2     0.33      1012.0     1       126         2       146        8.86     272      -54.8
   08/12/2017 05:00      63.0      62.7       84     57.9      0.00      0.00      87.1     0.32      1012.0     1       113         1       110        8.86     272      -58.0
   08/12/2017 04:50      63.0      62.7       84     58.0      0.00      0.00      87.2     0.32      1012.0     2       142         2       139        8.86     272      -60.2
   08/12/2017 04:40      62.9      62.7       84     57.9      0.00      0.00      87.3     0.33      1011.0     2       152         3       150        8.86     272      -61.4
   08/12/2017 04:30      63.0      62.8       84     58.1      0.00      0.00      87.3     0.33      1011.0     2       140         2       142        8.86     272      -61.4
   08/12/2017 04:20      63.3      63.0       84     58.3      0.00      0.00      87.3     0.32      1011.0     1       141         2       143        8.86     272      -61.2
   08/12/2017 04:10      63.4      63.2       84     58.3      0.00      0.00      87.2     0.32      1011.0     1       149         2       147        8.86     271      -62.5
   08/12/2017 04:00      63.9      63.3       82     58.0      0.00      0.00      87.4     0.32      1011.0     1       136         2       137        8.86     271      -66.0
   08/12/2017 03:50      64.0      63.6       83     58.6      0.00      0.00      87.6     0.33      1011.0     1       168         2       181        8.86     271      -64.7
   08/12/2017 03:40      63.8      63.5       82     58.1      0.00      0.00      87.3     0.33      1011.0     1       158         2       152        8.87     271      -65.9
   08/12/2017 03:30      64.4      64.0       81     58.3      0.00      0.00      87.6     0.33      1011.0     2       160         2       156        8.87     271      -66.1
   08/12/2017 03:20      65.1      64.3       80     58.2      0.00      0.00      87.8     0.33      1011.0     1       120         2       128        8.87     271      -66.8
   08/12/2017 03:10      65.4      65.2       79     58.8      0.00      0.00      87.5     0.33      1011.0     0       107         1       130        8.87     271      -66.5
   08/12/2017 03:00      65.5      65.2       79     58.8      0.00      0.00      87.4     0.33      1011.0     0       107         1        49        8.87     271      -66.6
   08/12/2017 02:50      65.7      65.3       78     58.7      0.00      0.00      87.8     0.33      1011.0     0        26         1        38        8.87     271      -67.1
   08/12/2017 02:40      66.2      65.8       77     58.6      0.00      0.00      87.6     0.33      1011.0     1       103         2        73        8.87     271      -68.8
   08/12/2017 02:30      66.9      66.4       75     58.5      0.00      0.00      88.0     0.33      1011.0     1        60         2        64        8.87     271      -70.9
   08/12/2017 02:20      67.5      67.2       74     58.7      0.00      0.00      87.9     0.33      1011.0     1        57         1        34        8.87     271      -72.0
   08/12/2017 02:10      67.6      67.3       74     59.0      0.00      0.00      87.7     0.33      1011.0     2        41         2        28        8.87     271      -72.4
   08/12/2017 02:00      67.5      67.2       75     59.1      0.00      0.00      87.6     0.33      1011.0     1        46         3        33        8.87     271      -72.6
   08/12/2017 01:50      67.5      67.3       75     59.1      0.00      0.00      87.9     0.33      1011.0     1        72         2        69        8.87     271      -72.9
   08/12/2017 01:40      67.5      67.2       75     59.1      0.00      0.00      87.8     0.33      1011.0     2        76         3        76        8.87     271      -72.4
   08/12/2017 01:30      67.3      66.6       75     58.9      0.00      0.00      88.1     0.33      1011.0     2        97         3        73        8.87     271      -71.7
   08/12/2017 01:20      66.8      66.6       75     58.7      0.00      0.00      87.8     0.33      1011.0     1        95         2        79        8.87     271      -70.9
   08/12/2017 01:10      67.3      66.7       74     58.6      0.00      0.00      87.9     0.33      1011.0     1        86         2        68        8.87     271      -70.9
   08/12/2017 01:00      67.4      67.2       75     59.0      0.00      0.00      87.9     0.33      1011.0     1       132         1       167        8.87     271      -70.8
   08/12/2017 00:50      67.6      67.5       74     59.2      0.00      0.00      88.0     0.33      1011.0     1       123         1       117        8.87     271      -71.3
   08/12/2017 00:40      68.0      67.6       74     59.1      0.00      0.00      88.0     0.33      1011.0     1       107         1        75        8.88     270      -72.8
   08/12/2017 00:30      68.5      67.9       72     59.0      0.00      0.00      88.0     0.33      1011.0     1        84         2        68        8.88     270      -74.7
   08/12/2017 00:20      69.1      68.6       71     59.3      0.00      0.00      88.0     0.33      1011.0     1        76         2        88        8.88     270      -76.2
   08/12/2017 00:10      69.8      69.1       70     59.3      0.00      0.00      88.0     0.33      1011.0     1        80         2        73        8.88     270      -78.2
   08/12/2017 00:00      69.9      69.7       69     59.3      0.00      0.00      88.2     0.33      1011.0     1        52         1        38        8.88     270      -78.6
   08/11/2017 23:50      70.4      70.0       69     59.5      0.00      0.00      88.0     0.33      1011.0     1        47         3        70        8.88     270      -79.3
   08/11/2017 23:40      70.8      70.5       68     59.6      0.00      0.00      88.0     0.33      1010.0     1        46         2        39        8.88     270      -79.8
   08/11/2017 23:30      71.3      70.9       68     59.8      0.00      0.00      88.2     0.33      1010.0     2        69         3        73        8.88     270      -80.4
   08/11/2017 23:20      71.6      71.2       67     59.7      0.00      0.00      88.3     0.33      1010.0     2        63         5        60        8.88     270      -80.6
   08/11/2017 23:10      71.9      71.6       66     59.8      0.00      0.00      88.2     0.33      1010.0     2        80         4       115        8.88     269      -80.4
   08/11/2017 23:00      72.0      71.6       65     59.5      0.00      0.00      88.1     0.33      1010.0     2        48         3        36        8.88     269      -80.1
   08/11/2017 22:50      71.9      71.5       65     59.4      0.00      0.00      88.2     0.33      1010.0     1        59         2        66        8.88     269      -80.0
   08/11/2017 22:40      72.2      71.6       64     59.0      0.00      0.00      88.3     0.33      1010.0     1        80         2        56        8.88     269      -79.0
   08/11/2017 22:30      72.8      72.3       63     59.4      0.00      0.00      88.1     0.33      1010.0     1        99         1        78        8.88     269      -78.5
   08/11/2017 22:20      73.3      73.1       63     59.8      0.00      0.00      88.1     0.33      1010.0     0       119         1        84        8.88     269      -80.0
   08/11/2017 22:10      73.5      73.2       62     59.6      0.00      0.00      88.1     0.33      1010.0     1        85         2        96        8.88     269      -82.0
   08/11/2017 22:00      74.2      73.3       60     59.1      0.00      0.00      88.2     0.33      1010.0     1        99         2        94        8.89     269      -81.7
   08/11/2017 21:50      75.1      74.3       59     59.4      0.00      0.00      88.1     0.33      1010.0     1        83         1        94        8.89     269      -82.9
   08/11/2017 21:40      75.7      75.2       58     59.6      0.00      0.00      88.2     0.32      1010.0     1        84         1        70        8.89     268      -86.2
   08/11/2017 21:30      76.6      75.8       56     59.6      0.00      0.00      88.2     0.32      1010.0     1        67         2        71        8.89     268      -86.7
   08/11/2017 21:20      77.5      76.8       55     59.6      0.00      0.00      88.2     0.32      1010.0     1        94         2        23        8.89     268      -88.0
   08/11/2017 21:10      78.4      77.5       54     59.8      0.00      0.00      88.2     0.32      1010.0     1        30         2        41        8.89     268      -89.9
   08/11/2017 21:00      79.7      78.4       49     58.6      0.00      0.00      88.2     0.32      1010.0     1        77         2        62        8.89     268      -90.6
   08/11/2017 20:50      80.8      80.0       40     54.0      0.00      0.00      88.3     0.32      1010.0     1        41         2        36        8.89     268      -91.2
   08/11/2017 20:40      81.4      80.9       37     52.3      0.00      0.00      88.1     0.32      1009.0     1       175         2       244        8.89     268      -91.7
   08/11/2017 20:30      82.4      81.6       36     52.2      0.00      0.00      88.0     0.32      1009.0     2       220         4       213        8.89     268      -93.6
   08/11/2017 20:20      83.0      82.4       35     52.6      0.00      0.00      88.0     0.32      1009.0     2       244         5       238        8.89     268      -95.2
   08/11/2017 20:10      83.7      83.0       35     53.0      0.00      0.00      87.9     0.32      1009.0     3       229         6       224        8.89     268      -96.2
   08/11/2017 20:00      84.7      83.8       34     52.9      0.00      0.00      88.3     0.32      1009.0     4       219         6       240        8.89     267      -97.0
   08/11/2017 19:50      85.9      84.8       33     52.7      0.00      0.00      88.2     0.32      1009.0     3       231         5       235        8.89     267      -96.6
   08/11/2017 19:40      86.8      86.0       31     52.3      0.00      0.00      88.0     0.32      1009.0     4       230         5       211        8.90     267      -94.3
   08/11/2017 19:30      87.5      87.0       29     51.1      0.00      0.00      88.1     0.32      1009.0     3       240         4       232        8.89     267      -91.1
   08/11/2017 19:20      89.0      87.7       27     49.8      0.00      0.00      88.0     0.32      1009.0     4       222         5       232        8.90     267      -80.9
   08/11/2017 19:10      90.3      89.2       28     51.9      0.00      0.00      87.9     0.32      1009.0     3       245         5       227        8.90     267      -64.5
   08/11/2017 19:00      90.3      89.7       27     51.3      0.00      0.00      88.0     0.32      1009.0     3       281         5       309        8.90     267      -44.6
   08/11/2017 18:50      91.1      90.4       26     51.2      0.00      0.00      87.9     0.32      1008.0     4       283         6       308        8.90     267      -22.4
   08/11/2017 18:40      92.0      90.9       25     50.9      0.00      0.00      87.8     0.32      1009.0     4       305         7       293        8.90     267        1.5
   08/11/2017 18:30      92.1      91.8       23     48.3      0.00      0.00      87.8     0.32      1008.0     5       257         8       245        8.90     267       26.2
   08/11/2017 18:20      92.9      92.2       22     47.6      0.00      0.00      87.8     0.32      1008.0     5       211         8       232        9.02     267       50.6
   08/11/2017 18:10      93.9      92.7       22     48.8      0.00      0.00      87.5     0.32      1008.0     5       246         7       223        9.02     267       75.3
   08/11/2017 18:00      94.0      93.2       23     49.9      0.00      0.00      87.7     0.32      1008.0     5       285         9       271        9.03     267       96.9
   08/11/2017 17:50      93.4      93.0       23     50.1      0.00      0.00      87.7     0.32      1008.0     6       304         9       296        9.03     267      120.4
   08/11/2017 17:40      94.1      93.5       23     50.6      0.00      0.00      87.4     0.32      1008.0     6       308         7       305        9.03     267      142.4
   08/11/2017 17:30      94.0      93.5       23     50.3      0.00      0.00      87.5     0.32      1008.0     6       307         9       303        9.03     267      167.5
   08/11/2017 17:20      94.0      93.7       23     50.1      0.00      0.00      87.4     0.32      1008.0     7       297        10       297        9.03     267      191.6
   08/11/2017 17:10      94.5      93.9       22     49.5      0.00      0.00      87.4     0.32      1009.0     7       314        11       311        9.04     267      214.7
   08/11/2017 17:00      96.1      94.5       21     49.3      0.00      0.00      87.3     0.32      1009.0     7       319        11       336        9.04     267      237.1
   08/11/2017 16:50      96.0      95.3       21     49.9      0.00      0.00      87.4     0.32      1009.0     6       312        12       318        9.04     267      258.3
   08/11/2017 16:40      96.1      95.6       21     49.5      0.00      0.00      87.2     0.32      1009.0     7       312        10       314        9.04     267      279.6
   08/11/2017 16:30      97.3      96.4       20     49.3      0.00      0.00      87.1     0.32      1009.0     6       296         9       306        9.04     267      298.8
   08/11/2017 16:20      97.6      96.5       20     49.3      0.00      0.00      87.0     0.32      1009.0     7       321         8       308        9.04     267      318.5
   08/11/2017 16:10      98.0      97.3       20     50.2      0.00      0.00      87.0     0.32      1009.0     7       322         8       328        9.04     267      338.5
   08/11/2017 16:00      97.7      96.9       21     50.4      0.00      0.00      86.9     0.32      1009.0     5       322         8       334        9.04     268      359.3
   08/11/2017 15:50      98.8      97.3       20     50.6      0.00      0.00      86.9     0.32      1009.0     7       312        10       325        9.05     267      376.9
   08/11/2017 15:40      98.7      97.8       21     51.5      0.00      0.00      86.8     0.32      1009.0     6       322         9       320        9.04     268      390.1
   08/11/2017 15:30      99.6      98.3       21     52.8      0.00      0.00      86.7     0.32      1009.0     5       306         7       302        9.05     268      400.2
   08/11/2017 15:20      99.4      98.3       22     53.7      0.00      0.00      86.5     0.32      1009.0     6       305        10       304        9.05     268      415.0
   08/11/2017 15:10      99.7      99.3       25     57.4      0.00      0.00      86.6     0.32      1009.0     4       344         7       341        9.05     268      429.8
   08/11/2017 15:00     100.4      99.3       25     58.0      0.00      0.00      86.4     0.32      1009.0     3        68         6        57        9.05     269      441.0
   08/11/2017 14:50     100.4      99.5       25     57.9      0.00      0.00      86.2     0.31      1009.0     4        43         7        76        9.05     269      455.7
   08/11/2017 14:40     100.6      99.4       24     57.2      0.00      0.00      86.5     0.31      1009.0     3        26         5        48        9.05     269      463.7
   08/11/2017 14:30     101.6      99.9       25     58.5      0.00      0.00      86.3     0.31      1009.0     3        43         5        94        9.05     269      475.3
   08/11/2017 14:20     101.8      99.6       22     55.0      0.00      0.00      86.3     0.31      1009.0     3        61         4        72        9.05     269      490.2
   08/11/2017 14:10      99.6      98.7       23     54.5      0.00      0.00      86.1     0.31      1010.0     3        26         5       315        9.05     269      502.5
   08/11/2017 14:00     100.0      98.7       24     56.4      0.00      0.00      86.2     0.31      1010.0     3        51         7        67        9.06     269      505.2
   08/11/2017 13:50      99.4      97.8       22     53.6      0.00      0.00      86.1     0.31      1010.0     3        14         5        41        9.06     269      515.5
   08/11/2017 13:40      98.9      97.2       20     50.6      0.00      0.00      86.0     0.31      1010.0     4       122         5       140        9.06     269      526.2
   08/11/2017 13:30      99.8      99.0       19     50.5      0.00      0.00      86.1     0.31      1010.0     3        68         4       174        9.06     269      525.2
   08/11/2017 13:20      99.8      99.2       20     51.0      0.00      0.00      86.0     0.31      1010.0     3       349         6       326        9.06     269      528.3
   08/11/2017 13:10      98.7      96.7       21     51.5      0.00      0.00      85.8     0.31      1010.0     2       278         4       245        9.06     270      535.9
   08/11/2017 13:00      98.7      96.5       23     53.1      0.00      0.00      85.9     0.31      1010.0     2       287         5       305        9.06     270      540.0
   08/11/2017 12:50      97.0      94.4       23     51.8      0.00      0.00      85.8     0.31      1010.0     2       354         5       335        9.06     271      547.3
   08/11/2017 12:40      94.3      93.9       24     51.5      0.00      0.00      85.8     0.31      1011.0     4        70         6        78        9.06     270      551.0
   08/11/2017 12:30      95.0      93.9       26     54.5      0.00      0.00      85.8     0.31      1011.0     3         2         4       339        9.06     270      539.3
   08/11/2017 12:20      94.0      93.3       28     55.6      0.00      0.00      85.9     0.31      1011.0     3        18         4        21        9.06     271      533.1
   08/11/2017 12:10      93.5      92.8       28     55.8      0.00      0.00      85.9     0.31      1011.0     3       332         4       350        9.06     271      531.5
   08/11/2017 12:00      92.5      90.3       30     55.5      0.00      0.00      85.8     0.31      1011.0     2        20         4       357        9.06     271      527.0
   08/11/2017 11:50      91.3      90.3       30     55.2      0.00      0.00      85.8     0.31      1011.0     3        47         4       326        9.06     271      523.5
   08/11/2017 11:40      90.8      89.1       31     55.4      0.00      0.00      85.8     0.31      1011.0     2        14         4        61        9.06     271      515.6
   08/11/2017 11:30      89.2      88.2       33     55.5      0.00      0.00      85.8     0.31      1012.0     2         3         4         5        9.06     272      505.9
   08/11/2017 11:20      88.9      87.9       35     56.7      0.00      0.00      85.6     0.31      1012.0     3       352         4       334        9.06     272      498.0
   08/11/2017 11:10      88.5      86.9       37     57.9      0.00      0.00      85.8     0.31      1012.0     2        15         4       352        9.06     273      491.5
   08/11/2017 11:00      87.1      84.6       39     58.0      0.00      0.00      85.7     0.31      1012.0     2        30         4        22        9.06     273      483.6
   08/11/2017 10:50      85.5      83.9       40     58.1      0.00      0.00      85.9     0.31      1012.0     3        54         5        82        9.06     273      468.4
   08/11/2017 10:40      84.3      83.5       42     58.7      0.00      0.00      85.7     0.32      1012.0     3        35         5        81        9.06     273      459.1
   08/11/2017 10:30      84.1      81.8       43     58.4      0.00      0.00      85.9     0.32      1012.0     2        30         4       350        9.07     274      448.4
   08/11/2017 10:20      82.2      80.8       46     58.4      0.00      0.00      85.8     0.32      1012.0     3         3         5       355        9.07     274      426.1
   08/11/2017 10:10      81.6      80.5       48     59.2      0.00      0.00      85.8     0.32      1012.0     3       355         5       354        9.07     275      409.4
   08/11/2017 10:00      81.1      80.4       47     59.1      0.00      0.00      85.9     0.32      1012.0     2       324         4       326        9.07     275      394.5
   08/11/2017 09:50      80.5      78.4       50     59.0      0.00      0.00      85.6     0.32      1012.0     2        47         3        58        9.07     275      377.5
   08/11/2017 09:40      79.1      77.6       51     58.7      0.00      0.00      86.3     0.32      1012.0     2         4         4         0        9.07     275      361.2
   08/11/2017 09:30      77.8      76.5       55     59.4      0.00      0.00      86.4     0.32      1012.0     2        27         3        60        9.07     275      341.6
   08/11/2017 09:20      76.3      75.1       57     59.7      0.00      0.00      86.3     0.32      1012.0     2       353         3        36        9.07     275      321.9
   08/11/2017 09:10      75.1      74.4       59     59.7      0.00      0.00      86.4     0.32      1013.0     2       358         3        11        9.07     275      304.9
   08/11/2017 09:00      74.4      72.9       61     59.5      0.00      0.00      86.4     0.32      1013.0     1       323         2       335        9.07     275      290.6
   08/11/2017 08:50      72.7      71.0       65     59.5      0.00      0.00      85.9     0.32      1013.0     2       350         3       336        9.07     275      282.9
   08/11/2017 08:40      71.1      70.4       68     59.7      0.00      0.00      86.3     0.32      1013.0     1       340         3       326        9.07     275       99.9
   08/11/2017 08:30      70.6      70.1       69     59.7      0.00      0.00      86.3     0.32      1013.0     2       342         3       304        9.07     275      -24.1
   08/11/2017 08:20      70.1      69.9       70     59.6      0.00      0.00      86.5     0.32      1013.0     2       111         3       129        9.07     275      -31.6
   08/11/2017 08:10      70.1      69.4       70     59.5      0.00      0.00      86.8     0.32      1013.0     2        22         2       352        9.07     275      -16.9
   08/11/2017 08:00      69.6      68.4       71     59.3      0.00      0.00      86.2     0.32      1013.0     2        64         3        92        9.07     275       11.3
   08/11/2017 07:50      68.3      67.7       73     59.2      0.00      0.00      86.4     0.32      1013.0     1       122         2        91        9.07     275        3.6
   08/11/2017 07:40      67.8      67.0       75     59.2      0.00      0.00      86.3     0.32      1013.0     1       165         2       135        9.07     275      -23.6
   08/11/2017 07:30      66.9      66.1       77     59.0      0.00      0.00      86.3     0.32      1013.0     1        36         2       343        9.07     275      -26.8
   08/11/2017 07:20      66.4      65.2       80     59.2      0.00      0.00      86.2     0.32      1013.0     1       103         1        76        9.07     275      -19.3
   08/11/2017 07:10      65.2      64.3       82     59.2      0.00      0.00      86.3     0.32      1013.0     1       147         1       122        9.07     275      -14.4
   08/11/2017 07:00      64.4      63.5       84     59.0      0.00      0.00      86.6     0.32      1013.0     0       161         1       166        9.07     275      -19.8
   08/11/2017 06:50      63.7      63.2       84     58.7      0.00      0.00      86.9     0.32      1013.0     0       140         1       159        9.08     275      -23.5
   08/11/2017 06:40      63.4      62.7       85     58.5      0.00      0.00      86.5     0.32      1013.0     2       142         2       151        9.08     275      -29.3
   08/11/2017 06:30      63.3      62.6       85     58.4      0.00      0.00      86.9     0.32      1013.0     1       163         1       173        9.08     275      -33.7
   08/11/2017 06:20      62.7      62.4       85     58.1      0.00      0.00      87.0     0.32      1013.0     1       213         1       162        9.08     275      -38.7
   08/11/2017 06:10      63.0      62.7       85     58.3      0.00      0.00      86.9     0.32      1013.0     1       161         2       141        9.08     275      -41.6
   08/11/2017 06:00      62.8      62.6       86     58.4      0.00      0.00      87.1     0.32      1012.0     1       201         1       157        9.08     275      -42.8
   08/11/2017 05:50      62.7      62.4       86     58.2      0.00      0.00      86.9     0.32      1012.0     1       128         1       100        9.08     275      -46.9
   08/11/2017 05:40      62.8      62.4       85     58.2      0.00      0.00      86.9     0.32      1012.0     1       133         2       131        9.08     275      -49.3
   08/11/2017 05:30      63.0      62.8       85     58.4      0.00      0.00      86.9     0.32      1012.0     1       149         1       158        9.08     275      -50.3
   08/11/2017 05:20      63.1      62.8       85     58.3      0.00      0.00      87.2     0.32      1012.0     1       136         2       136        9.08     275      -52.4
   08/11/2017 05:10      63.6      63.0       84     58.3      0.00      0.00      86.9     0.32      1012.0     2       152         2       138        9.08     275      -53.1
   08/11/2017 05:00      63.7      63.3       85     58.7      0.00      0.00      87.1     0.32      1012.0     1       143         2       143        9.08     275      -53.6
   08/11/2017 04:50      63.6      63.3       84     58.6      0.00      0.00      87.0     0.32      1012.0     1       162         2       169        9.08     274      -55.1
   08/11/2017 04:40      63.5      63.4       84     58.5      0.00      0.00      87.1     0.32      1012.0     1       153         2       158        9.08     274      -57.7
   08/11/2017 04:30      63.5      63.3       84     58.3      0.00      0.00      87.1     0.32      1012.0     1       172         2       147        9.08     274      -59.1
   08/11/2017 04:20      64.0      63.5       83     58.6      0.00      0.00      87.5     0.32      1012.0     1       137         2       139        9.08     274      -59.6
   08/11/2017 04:10      64.1      63.8       83     58.6      0.00      0.00      87.2     0.32      1012.0     1       140         2       133        9.08     274      -59.9
   08/11/2017 04:00      64.2      63.8       83     58.6      0.00      0.00      87.3     0.32      1012.0     1       185         1       189        9.08     274      -60.6
   08/11/2017 03:50      63.9      63.6       82     58.3      0.00      0.00      87.4     0.32      1012.0     2       172         2       143        9.08     274      -61.5
   08/11/2017 03:40      64.1      63.8       82     58.3      0.00      0.00      87.2     0.33      1012.0     2       153         2       140        9.08     274      -62.5
   08/11/2017 03:30      64.4      64.0       81     58.2      0.00      0.00      87.6     0.32      1012.0     2       137         2       141        9.08     274      -64.2
   08/11/2017 03:20      64.8      64.5       81     58.8      0.00      0.00      87.4     0.33      1012.0     2       148         3       135        9.08     274      -64.7
   08/11/2017 03:10      65.0      64.7       80     58.5      0.00      0.00      87.6     0.32      1012.0     1       169         3       167        9.08     274      -65.1
   08/11/2017 03:00      65.8      65.2       78     58.3      0.00      0.00      87.5     0.32      1012.0     2       175         2       185        9.08     274      -65.3
   08/11/2017 02:50      65.8      65.7       78     58.8      0.00      0.00      87.7     0.32      1012.0     2       159         2       164        9.08     274      -65.0
   08/11/2017 02:40      66.5      65.9       77     58.8      0.00      0.00      87.6     0.33      1012.0     1       119         2       125        9.08     274      -66.6
   08/11/2017 02:30      66.6      66.2       77     58.9      0.00      0.00      87.9     0.33      1012.0     1        79         2        41        9.09     274      -67.1
   08/11/2017 02:20      66.7      66.3       76     58.8      0.00      0.00      87.7     0.33      1013.0     1        78         2        68        9.09     274      -65.7
   08/11/2017 02:10      66.8      66.6       76     58.8      0.00      0.00      87.9     0.33      1012.0     0       109         1        93        9.09     274      -65.7
   08/11/2017 02:00      67.0      66.8       75     58.7      0.00      0.00      87.6     0.33      1012.0     1        62         2        46        9.08     274      -66.4
   08/11/2017 01:50      67.3      67.0       74     58.6      0.00      0.00      87.8     0.33      1012.0     1        76         3        72        9.09     274      -66.5
   08/11/2017 01:40      67.3      67.1       74     58.7      0.00      0.00      88.2     0.33      1012.0     2        97         2        78        9.09     274      -65.9
   08/11/2017 01:30      67.5      67.3       73     58.6      0.00      0.00      87.8     0.33      1012.0     2       102         2       115        9.09     274      -67.4
   08/11/2017 01:20      67.6      67.3       73     58.4      0.00      0.00      87.9     0.33      1012.0     2        93         2        92        9.09     273      -68.2
   08/11/2017 01:10      67.6      67.3       73     58.4      0.00      0.00      88.2     0.33      1012.0     2       103         3        81        9.09     273      -68.5
   08/11/2017 01:00      68.2      67.4       72     58.2      0.00      0.00      87.9     0.33      1012.0     2       112         2       133        9.09     273      -68.8
   08/11/2017 00:50      68.7      68.2       70     58.5      0.00      0.00      88.1     0.33      1012.0     1       110         2        75        9.09     273      -69.3
   08/11/2017 00:40      69.1      68.6       70     58.8      0.00      0.00      88.2     0.33      1013.0     1        52         2        72        9.09     273      -71.2
   08/11/2017 00:30      69.1      69.0       70     59.1      0.00      0.00      88.0     0.33      1013.0     2        92         2        71        9.09     273      -72.2
   08/11/2017 00:20      69.4      69.2       71     59.4      0.00      0.00      88.1     0.33      1013.0     1        98         2       107        9.09     273      -72.8
   08/11/2017 00:10      69.9      69.4       69     59.2      0.00      0.00      88.2     0.33      1013.0     2        81         3        82        9.09     273      -73.6
   08/11/2017 00:00      70.0      69.9       68     59.1      0.00      0.00      88.1     0.33      1013.0     2        68         4       109        9.10     273      -73.3
   08/10/2017 23:50      70.4      69.9       67     58.7      0.00      0.00      88.5     0.33      1013.0     2        84         3        56        9.10     273      -73.8
   08/10/2017 23:40      70.8      70.5       66     58.7      0.00      0.00      88.3     0.33      1013.0     1        64         2        85        9.10     273      -74.9
   08/10/2017 23:30      71.3      70.9       65     58.9      0.00      0.00      88.1     0.33      1013.0     1        64         3        78        9.10     273      -75.4
   08/10/2017 23:20      71.3      71.2       65     59.0      0.00      0.00      88.2     0.33      1013.0     2        91         3       108        9.10     273      -76.2
   08/10/2017 23:10      71.3      71.1       66     59.4      0.00      0.00      88.0     0.33      1013.0     2       101         3        82        9.10     273      -76.6
   08/10/2017 23:00      71.8      71.3       66     59.6      0.00      0.00      88.4     0.33      1013.0     2        97         2       119        9.10     273      -75.8
   08/10/2017 22:50      72.2      71.7       65     59.5      0.00      0.00      88.0     0.33      1012.0     1        76         1        54        9.10     272      -75.9
   08/10/2017 22:40      72.7      72.2       63     59.0      0.00      0.00      88.3     0.33      1012.0     1        61         2        80        9.10     272      -77.3
   08/10/2017 22:30      72.8      72.7       61     58.7      0.00      0.00      88.2     0.33      1012.0     1        82         2        79        9.10     272      -78.7
   08/10/2017 22:20      73.3      72.8       60     58.1      0.00      0.00      88.3     0.33      1012.0     2       109         3       104        9.11     272      -78.4
   08/10/2017 22:10      73.8      73.5       59     58.2      0.00      0.00      88.3     0.33      1012.0     1       105         2        98        9.11     272      -79.9
   08/10/2017 22:00      74.3      73.9       58     58.5      0.00      0.00      88.1     0.33      1012.0     2        93         3        95        9.11     272      -81.2
   08/10/2017 21:50      74.9      74.3       57     58.3      0.00      0.00      88.4     0.33      1012.0     2        86         3        86        9.11     272      -82.8
   08/10/2017 21:40      75.5      75.2       56     58.6      0.00      0.00      88.3     0.33      1012.0     2        60         3        49        9.11     272      -84.2
   08/10/2017 21:30      76.1      75.5       56     58.8      0.00      0.00      88.3     0.33      1012.0     2        50         3        65        9.11     272      -84.2
   08/10/2017 21:20      76.5      76.1       55     59.0      0.00      0.00      88.2     0.33      1012.0     2        83         3        78        9.11     272      -84.9
   08/10/2017 21:10      76.8      76.5       54     58.9      0.00      0.00      88.2     0.33      1012.0     2        89         4        95        9.11     272      -85.5
   08/10/2017 21:00      76.8      76.6       54     58.8      0.00      0.00      88.2     0.32      1011.0     2       101         2       102        9.11     271      -85.4
   08/10/2017 20:50      77.0      76.7       53     58.7      0.00      0.00      88.2     0.32      1011.0     1       107         2        76        9.11     271      -85.9
   08/10/2017 20:40      78.0      77.1       52     58.6      0.00      0.00      88.3     0.32      1011.0     1        94         1        82        9.11     271      -86.3
   08/10/2017 20:30      79.2      78.2       51     59.1      0.00      0.00      88.1     0.32      1011.0     1        94         1        52        9.11     271      -88.0
   08/10/2017 20:20      79.7      79.2       50     59.1      0.00      0.00      88.1     0.32      1011.0     1        63         2        82        9.12     271      -91.0
   08/10/2017 20:10      80.7      79.8       49     59.0      0.00      0.00      87.9     0.32      1011.0     2        75         3        96        9.12     271      -92.0
   08/10/2017 20:00      81.9      80.9       46     58.6      0.00      0.00      88.1     0.32      1011.0     1        94         3        76        9.12     271      -93.4
   08/10/2017 19:50      83.1      82.1       43     58.0      0.00      0.00      88.2     0.32      1011.0     2        59         4        67        9.12     271      -93.0
   08/10/2017 19:40      85.3      83.3       41     58.0      0.00      0.00      88.1     0.32      1011.0     2        74         4       117        9.12     270      -90.3
   08/10/2017 19:30      88.1      85.6       38     57.8      0.00      0.00      88.0     0.32      1010.0     2        43         3        33        9.12     270      -87.6
   08/10/2017 19:20      88.6      88.1       34     56.2      0.00      0.00      88.2     0.32      1010.0     3       333         6       297        9.12     270      -76.7
   08/10/2017 19:10      89.4      88.6       33     56.1      0.00      0.00      88.1     0.32      1010.0     3       306         5       313        9.12     270      -60.0
   08/10/2017 19:00      89.7      89.4       32     56.0      0.00      0.00      87.9     0.32      1010.0     3       291         5       304        9.12     270      -40.1
   08/10/2017 18:50      90.3      89.8       32     55.9      0.00      0.00      88.0     0.32      1010.0     4       285         6       309        9.12     270      -16.1
   08/10/2017 18:40      91.7      90.6       31     56.0      0.00      0.00      88.0     0.32      1010.0     5       292        10       293        9.12     270        9.7
   08/10/2017 18:30      92.4      91.9       29     55.5      0.00      0.00      87.9     0.32      1010.0     4       270         6       294        9.12     270       34.7
   08/10/2017 18:20      92.3      91.9       28     54.5      0.00      0.00      87.8     0.32      1010.0     5       242         6       231        9.12     270       59.1
   08/10/2017 18:10      92.4      92.1       28     54.7      0.00      0.00      87.8     0.32      1010.0     4       222         7       258        9.12     270       83.5
   08/10/2017 18:00      93.0      92.1       28     54.4      0.00      0.00      87.9     0.32      1010.0     5       225         8       234        9.12     270      107.7
   08/10/2017 17:50      93.3      92.9       27     54.6      0.00      0.00      87.7     0.32      1010.0     4       233         6       235        9.12     271      130.1
   08/10/2017 17:40      93.5      92.8       27     54.5      0.00      0.00      87.7     0.32      1010.0     5       237         6       235        9.12     271      154.2
   08/10/2017 17:30      93.5      92.9       28     55.3      0.00      0.00      87.7     0.32      1010.0     5       220         8       209        9.12     271      178.3
   08/10/2017 17:20      94.1      93.7       28     55.5      0.00      0.00      87.6     0.32      1010.0     6       233         8       271        9.12     271      201.3
   08/10/2017 17:10      94.0      93.6       28     56.1      0.00      0.00      87.6     0.32      1010.0     5       249         8       232        9.12     271      225.7
   08/10/2017 17:00      94.3      93.8       29     57.3      0.00      0.00      87.4     0.32      1010.0     6       247         9       221        9.12     272      249.2
   08/10/2017 16:50      94.2      93.6       29     57.0      0.00      0.00      87.3     0.32      1011.0     5       241         8       255        9.12     273      270.7
   08/10/2017 16:40      94.2      93.4       31     58.8      0.00      0.00      87.3     0.32      1011.0     6       241        10       251        9.12     273      292.8
   08/10/2017 16:30      95.6      94.4       25     53.8      0.00      0.00      87.3     0.32      1011.0     5       235         8       221        9.12     274      309.9
   08/10/2017 16:20      96.5      95.6       22     51.4      0.00      0.00      87.3     0.32      1011.0     4       226         6       206        9.12     275      330.1
   08/10/2017 16:10      95.3      94.9       23     51.7      0.00      0.00      87.2     0.32      1011.0     4       178         6       165        9.12     276      354.1
   08/10/2017 16:00      95.1      94.4       23     51.6      0.00      0.00      87.1     0.32      1011.0     6       155         8       132        9.12     277      373.8
   08/10/2017 15:50      95.1      94.5       22     50.3      0.00      0.00      87.1     0.32      1011.0     6       174         8       154        9.12     278      391.3
   08/10/2017 15:40      95.4      94.3       22     49.5      0.00      0.00      86.9     0.32      1011.0     6       164         8       194        9.12     280      409.0
   08/10/2017 15:30      96.1      94.9       21     48.9      0.00      0.00      87.0     0.32      1011.0     6       181        10       191        9.12     281      423.6
   08/10/2017 15:20      95.0      94.8       21     49.0      0.00      0.00      86.8     0.32      1011.0     5       209         7       209        9.12     283      438.1
   08/10/2017 15:10      95.0      94.4       22     50.5      0.00      0.00      86.7     0.32      1011.0     6       224         9       196        9.12     285      453.4
   08/10/2017 15:00      94.9      94.2       23     50.9      0.00      0.00      86.6     0.32      1011.0     5       191         8       191        9.12     288      465.5
   08/10/2017 14:50      95.1      93.9       24     51.9      0.00      0.00      86.6     0.32      1011.0     6       165         8       163        9.12     293      478.9
   08/10/2017 14:40      96.1      94.9       28     57.0      0.00      0.00      86.5     0.32      1011.0     5        93         9        94        9.12     299      485.7
   08/10/2017 14:30      96.4      95.5       29     58.9      0.00      0.00      86.4     0.32      1012.0     5        20         8         0        9.12     318      492.4
   08/10/2017 14:20      95.5      94.9       30     58.6      0.00      0.00      86.4     0.31      1012.0     4        31         6        32        9.12     332      504.5
   08/10/2017 14:10      95.1      94.4       30     58.1      0.00      0.00      86.2     0.32      1012.0     4        15         8       355        9.12     357      517.5
   08/10/2017 14:00      94.8      94.2       30     58.1      0.00      0.00      86.3     0.32      1012.0     4        29         8        32        9.12     393      530.0
   08/10/2017 13:50      94.1      93.1       30     58.0      0.00      0.00      86.2     0.32      1012.0     3        35         6        73        9.12     432      547.0
   08/10/2017 13:40      94.4      93.4       31     58.7      0.00      0.00      86.1     0.32      1012.0     5        25         7       337        9.12     467      559.6
   08/10/2017 13:30      94.0      93.2       32     59.2      0.00      0.00      86.0     0.32      1012.0     4        36         5        70        9.12     496      573.5
   08/10/2017 13:20      93.4      92.7       32     59.1      0.00      0.00      86.0     0.31      1012.0     5        31         6        10        9.04     822      543.9
   08/10/2017 13:10      92.7      92.0       34     59.5      0.00      0.00      86.1     0.31      1012.0     5        34         8        37        7.96     269      542.4
   08/10/2017 13:00      93.1      92.0       33     59.1      0.00      0.00      85.9     0.31      1012.0     4        23         5        26        7.96     270      544.4
   08/10/2017 12:50      94.3      93.0       32     59.9      0.00      0.00      86.0     0.31      1012.0     4        32         6        61        7.96     270      545.0
   08/10/2017 12:40      92.9      91.3       34     60.0      0.00      0.00      85.8     0.31      1012.0     4        45         6        73        7.96     270      549.6
   08/10/2017 12:30      92.2      90.7       35     59.6      0.00      0.00      86.0     0.31      1012.0     3        34         5        36        7.96     270      543.1
   08/10/2017 12:20      91.9      91.0       35     59.9      0.00      0.00      85.9     0.31      1012.0     5        12         7       352        7.96     270      537.3
   08/10/2017 12:10      92.2      91.7       34     59.3      0.00      0.00      85.8     0.31      1013.0     3        47         4        90        7.96     269      535.4
   08/10/2017 12:00      91.7      90.2       34     58.9      0.00      0.00      86.1     0.31      1013.0     2        70         5       359        7.97     270      531.0
   08/10/2017 11:50      90.6      89.9       35     58.7      0.00      0.00      85.9     0.31      1013.0     3        39         5       355        7.97     270      522.9
   08/10/2017 11:40      90.1      89.2       37     59.9      0.00      0.00      85.9     0.31      1013.0     4        21         5        13        7.97     270      515.5
   08/10/2017 11:30      89.3      88.5       38     60.1      0.00      0.00      85.9     0.31      1013.0     3        39         6        30        7.97     271      509.0
   08/10/2017 11:20      88.7      87.8       38     59.7      0.00      0.00      86.0     0.31      1013.0     3        40         5        90        7.97     271      498.9
   08/10/2017 11:10      87.8      87.1       38     59.1      0.00      0.00      85.9     0.31      1013.0     2         6         4        36        7.97     271      489.2
   08/10/2017 11:00      87.0      86.6       38     58.2      0.00      0.00      86.0     0.31      1013.0     3        44         6        76        7.97     271      479.4
   08/10/2017 10:50      87.0      85.3       38     57.8      0.00      0.00      86.1     0.32      1013.0     2        48         3       346        7.97     271      468.2
   08/10/2017 10:40      85.2      84.5       40     57.6      0.00      0.00      86.0     0.32      1013.0     2        31         4        85        7.97     271      454.9
   08/10/2017 10:30      84.8      83.5       40     57.5      0.00      0.00      86.1     0.32      1013.0     2        42         4        30        7.97     271      441.0
   08/10/2017 10:20      83.1      81.2       42     57.0      0.00      0.00      86.2     0.32      1013.0     2        17         3        60        7.97     272      426.2
   08/10/2017 10:10      81.4      80.8       43     56.7      0.00      0.00      86.3     0.32      1013.0     3        47         3        12        7.97     272      411.4
   08/10/2017 10:00      81.4      80.5       44     57.1      0.00      0.00      86.2     0.32      1013.0     2         4         2        28        7.98     273      394.4
   08/10/2017 09:50      80.9      79.5       46     57.6      0.00      0.00      86.0     0.32      1013.0     2        47         4       106        7.98     273      378.1
   08/10/2017 09:40      79.6      78.6       48     57.8      0.00      0.00      86.1     0.32      1013.0     2       343         4       344        7.98     273      360.3
   08/10/2017 09:30      78.6      77.9       50     58.3      0.00      0.00      86.1     0.32      1013.0     2       352         3       334        7.98     273      340.9
   08/10/2017 09:20      78.8      77.3       52     59.1      0.00      0.00      86.4     0.32      1013.0     2        55         3        75        7.98     273      322.5
   08/10/2017 09:10      77.2      75.2       56     59.1      0.00      0.00      86.3     0.32      1013.0     1       273         2       355        7.98     273      305.7
   08/10/2017 09:00      75.4      73.6       58     59.1      0.00      0.00      86.3     0.32      1013.0     1        20         2        85        7.98     273      290.0
   08/10/2017 08:50      73.5      72.1       61     58.6      0.00      0.00      86.5     0.32      1013.0     2         2         3       348        7.98     273      283.9
   08/10/2017 08:40      72.0      71.5       65     59.3      0.00      0.00      86.3     0.32      1013.0     2       354         2       333        7.98     273      100.5
   08/10/2017 08:30      71.8      70.9       67     59.9      0.00      0.00      86.3     0.32      1013.0     2        30         3        33        7.99     273      -20.4
   08/10/2017 08:20      70.9      70.2       68     59.5      0.00      0.00      86.5     0.32      1014.0     2        32         3        88        7.99     273      -28.6
   08/10/2017 08:10      70.5      70.2       68     59.2      0.00      0.00      86.7     0.32      1013.0     2        37         3        62        7.99     273      -14.1
   08/10/2017 08:00      70.3      68.9       70     59.1      0.00      0.00      86.5     0.32      1013.0     1        56         3        74        7.99     273        9.2
   08/10/2017 07:50      68.8      68.2       72     59.0      0.00      0.00      86.1     0.32      1014.0     2         8         3       357        7.99     273        9.1
   08/10/2017 07:40      68.3      67.5       73     58.9      0.00      0.00      86.7     0.32      1014.0     2        34         2         6        7.99     273      -24.4
   08/10/2017 07:30      67.4      66.8       75     58.8      0.00      0.00      86.5     0.32      1014.0     1        37         2        34        7.99     273      -29.1
   08/10/2017 07:20      66.8      65.7       77     58.8      0.00      0.00      86.6     0.32      1014.0     1        59         2        83        7.99     273      -30.0
   08/10/2017 07:10      65.7      64.9       79     58.6      0.00      0.00      86.5     0.32      1014.0     1        68         2        84        7.99     272      -32.4
   08/10/2017 07:00      64.9      64.0       81     58.4      0.00      0.00      86.6     0.32      1013.0     1       112         1       130        7.99     273      -37.0
   08/10/2017 06:50      64.1      63.3       83     58.2      0.00      0.00      86.6     0.32      1013.0     1       148         2       141        7.99     272      -41.2
   08/10/2017 06:40      63.5      63.0       84     58.2      0.00      0.00      86.9     0.32      1013.0     1       144         2       140        7.99     272      -44.3
   08/10/2017 06:30      63.2      62.7       84     58.1      0.00      0.00      86.6     0.32      1013.0     1       110         1       150        7.99     272      -49.2
   08/10/2017 06:20      62.9      62.7       83     57.7      0.00      0.00      86.7     0.32      1013.0     1       168         2       163        7.99     272      -55.1
   08/10/2017 06:10      63.3      62.9       83     57.8      0.00      0.00      86.8     0.32      1013.0     2       169         2       184        7.99     272      -58.0
   08/10/2017 06:00      63.5      63.3       82     58.0      0.00      0.00      86.6     0.32      1013.0     2       163         2       161        7.99     272      -58.9
   08/10/2017 05:50      63.8      63.5       83     58.3      0.00      0.00      86.9     0.32      1013.0     2       144         3       134        7.99     272      -59.3
   08/10/2017 05:40      63.9      63.5       82     58.1      0.00      0.00      87.1     0.32      1013.0     1       158         1       148        7.99     272      -58.8
   08/10/2017 05:30      64.0      63.6       81     58.0      0.00      0.00      87.2     0.32      1013.0     1       162         2       171        7.99     272      -59.5
   08/10/2017 05:20      64.2      63.8       82     58.3      0.00      0.00      87.1     0.32      1013.0     1       151         2       140        8.00     271      -59.7
   08/10/2017 05:10      64.2      63.7       81     57.9      0.00      0.00      87.1     0.32      1013.0     2       140         2       137        8.00     272      -59.9
   08/10/2017 05:00      64.3      64.1       80     57.9      0.00      0.00      87.3     0.33      1013.0     2       142         2       147        8.00     271      -60.6
   08/10/2017 04:50      64.9      64.5       79     58.2      0.00      0.00      87.1     0.32      1013.0     1       155         2       139        8.00     271      -60.1
   08/10/2017 04:40      65.2      64.8       79     58.3      0.00      0.00      87.1     0.33      1013.0     1       164         1       152        8.00     271      -60.5
   08/10/2017 04:30      65.2      65.0       78     58.1      0.00      0.00      87.3     0.33      1013.0     1       147         1       125        8.00     271      -61.0
   08/10/2017 04:20      65.5      65.2       77     58.0      0.00      0.00      87.5     0.33      1013.0     1       120         2       138        8.00     271      -62.6
   08/10/2017 04:10      65.7      65.5       77     58.2      0.00      0.00      87.2     0.33      1013.0     1       102         2       117        8.00     271      -62.6
   08/10/2017 04:00      65.7      65.5       77     58.3      0.00      0.00      87.3     0.33      1013.0     1        84         2       109        8.00     271      -61.9
   08/10/2017 03:50      65.6      65.5       77     58.2      0.00      0.00      87.3     0.33      1013.0     1        97         1        88        8.00     271      -62.4
   08/10/2017 03:40      65.8      65.7       77     58.4      0.00      0.00      87.4     0.33      1013.0     1        57         1        28        8.00     271      -60.9
   08/10/2017 03:30      66.0      65.7       78     58.7      0.00      0.00      87.4     0.33      1012.0     1        53         1        68        8.00     271      -60.1
   08/10/2017 03:20      65.9      65.7       77     58.5      0.00      0.00      87.3     0.33      1012.0     1        90         1       109        8.00     271      -60.4
   08/10/2017 03:10      66.5      65.9       76     58.3      0.00      0.00      87.5     0.33      1012.0     1        94         2        84        8.00     271      -60.7
   08/10/2017 03:00      66.9      66.5       76     59.0      0.00      0.00      87.5     0.33      1012.0     1        91         1        87        8.00     271      -61.1
   08/10/2017 02:50      67.1      66.8       76     59.0      0.00      0.00      87.6     0.33      1012.0     1        93         2        92        8.00     271      -61.8
   08/10/2017 02:40      67.5      67.1       75     59.1      0.00      0.00      87.6     0.33      1012.0     1       107         2       114        8.00     271      -62.1
   08/10/2017 02:30      67.7      67.5       74     59.2      0.00      0.00      87.3     0.33      1012.0     2        89         2        74        8.00     271      -62.8
   08/10/2017 02:20      67.8      67.6       73     58.9      0.00      0.00      87.7     0.33      1012.0     1        85         2        76        8.00     271      -62.0
   08/10/2017 02:10      68.2      67.6       72     58.6      0.00      0.00      87.8     0.33      1012.0     2        90         2        89        8.00     271      -63.4
   08/10/2017 02:00      68.6      68.2       71     58.7      0.00      0.00      87.8     0.33      1012.0     1       108         2       111        8.00     271      -62.9
   08/10/2017 01:50      69.0      68.6       71     58.9      0.00      0.00      87.9     0.33      1012.0     1        86         2        59        8.01     271      -62.7
   08/10/2017 01:40      69.2      69.0       70     59.0      0.00      0.00      87.7     0.33      1012.0     1        98         2        68        8.01     271      -63.3
   08/10/2017 01:30      69.7      69.3       69     58.9      0.00      0.00      87.7     0.33      1012.0     1        97         2        72        8.01     271      -64.0
   08/10/2017 01:20      69.8      69.6       68     58.8      0.00      0.00      87.8     0.33      1012.0     1        79         2        59        8.01     271      -64.5
   08/10/2017 01:10      69.8      69.3       67     57.9      0.00      0.00      87.9     0.33      1012.0     1        91         2        78        8.01     270      -64.2
   08/10/2017 01:00      69.6      69.3       63     56.5      0.00      0.00      87.9     0.33      1012.0     1        77         2        76        8.01     270      -63.4
   08/10/2017 00:50      70.0      69.8       63     56.5      0.00      0.00      88.0     0.33      1012.0     1       152         1       134        8.01     270      -62.5
   08/10/2017 00:40      70.5      70.0       62     56.5      0.00      0.00      88.0     0.33      1012.0     1       131         1       142        8.02     270      -63.2
   08/10/2017 00:30      70.3      70.3       61     56.3      0.00      0.00      88.0     0.33      1012.0     1       167         2       138        8.02     270      -63.2
   08/10/2017 00:20      70.9      70.4       60     56.1      0.00      0.00      88.0     0.33      1012.0     1       140         2       135        8.02     270      -63.8
   08/10/2017 00:10      71.0      70.6       60     56.2      0.00      0.00      88.2     0.33      1012.0     1       153         1       143        8.03     270      -63.5
   08/10/2017 00:00      71.3      70.8       59     56.1      0.00      0.00      88.3     0.33      1012.0     1       129         2       138        8.03     270      -64.6
   08/09/2017 23:50      71.7      71.4       58     56.1      0.00      0.00      88.1     0.33      1012.0     1       156         1       134        8.03     270      -64.6
   08/09/2017 23:40      72.0      71.8       57     56.0      0.00      0.00      88.0     0.33      1012.0     1       142         2       142        8.03     269      -65.2
   08/09/2017 23:30      72.3      71.8       56     55.4      0.00      0.00      87.9     0.33      1012.0     1       168         1       127        8.03     270      -65.2
   08/09/2017 23:20      72.3      71.8       55     55.1      0.00      0.00      88.0     0.33      1012.0     1       124         1       179        8.04     269      -66.2
   08/09/2017 23:10      73.0      72.2       54     54.8      0.00      0.00      88.2     0.33      1012.0     2       139         2       134        8.04     269      -66.8
   08/09/2017 23:00      73.7      73.0       51     54.4      0.00      0.00      88.3     0.33      1012.0     1       194         2       137        8.04     269      -66.9
   08/09/2017 22:50      74.3      73.4       51     54.5      0.00      0.00      88.3     0.33      1012.0     1       148         1       179        8.04     269      -67.7
   08/09/2017 22:40      74.8      74.2       49     54.3      0.00      0.00      88.2     0.33      1012.0     1       207         2       233        8.04     269      -69.4
   08/09/2017 22:30      75.4      74.8       49     54.5      0.00      0.00      88.1     0.33      1012.0     1       224         1       228        8.04     269      -71.0
   08/09/2017 22:20      75.6      75.2       48     54.4      0.00      0.00      88.2     0.33      1012.0     1       169         2       166        8.04     269      -72.2
   08/09/2017 22:10      76.2      75.4       48     54.5      0.00      0.00      88.1     0.33      1012.0     1       169         1       224        8.04     269      -73.0
   08/09/2017 22:00      76.4      76.2       47     54.4      0.00      0.00      88.3     0.33      1012.0     1       195         1       216        8.05     269      -73.9
   08/09/2017 21:50      76.8      76.3       47     54.9      0.00      0.00      88.2     0.33      1012.0     1       210         3       263        8.05     269      -74.3
   08/09/2017 21:40      77.2      76.8       47     55.4      0.00      0.00      88.3     0.32      1012.0     2       210         3       246        8.05     269      -75.6
   08/09/2017 21:30      77.4      77.2       48     56.0      0.00      0.00      88.0     0.33      1012.0     2       209         4       199        8.05     269      -76.4
   08/09/2017 21:20      77.8      77.6       48     56.3      0.00      0.00      88.1     0.33      1012.0     3       207         5       200        8.06     269      -77.3
   08/09/2017 21:10      78.4      77.9       47     56.5      0.00      0.00      88.1     0.32      1012.0     2       198         4       214        8.06     269      -78.3
   08/09/2017 21:00      78.9      78.4       46     56.2      0.00      0.00      88.1     0.32      1012.0     2       202         3       215        8.06     269      -79.0
   08/09/2017 20:50      79.6      79.0       45     56.3      0.00      0.00      88.1     0.32      1012.0     3       232         4       247        8.06     269      -79.9
   08/09/2017 20:40      80.3      79.7       44     56.3      0.00      0.00      88.1     0.32      1012.0     4       254         6       235        8.06     269      -80.5
   08/09/2017 20:30      80.7      80.3       44     56.2      0.00      0.00      88.1     0.32      1012.0     4       239         6       264        8.06     268      -81.2
   08/09/2017 20:20      81.4      80.7       44     56.8      0.00      0.00      88.1     0.32      1011.0     3       227         5       249        8.07     268      -81.4
   08/09/2017 20:10      82.3      81.4       43     57.0      0.00      0.00      88.1     0.32      1011.0     3       209         4       206        8.07     268      -82.2
   08/09/2017 20:00      83.4      82.5       42     57.6      0.00      0.00      87.9     0.32      1011.0     3       225         3       234        8.07     268      -82.4
   08/09/2017 19:50      83.9      83.4       42     58.4      0.00      0.00      87.9     0.32      1011.0     2       253         4       272        8.07     268      -81.0
   08/09/2017 19:40      84.7      83.9       42     58.6      0.00      0.00      88.0     0.32      1011.0     3       291         6       286        8.08     268      -78.1
   08/09/2017 19:30      85.7      84.9       40     58.6      0.00      0.00      87.9     0.32      1011.0     3       295         5       273        8.08     268      -73.8
   08/09/2017 19:20      86.7      85.9       39     58.6      0.00      0.00      88.0     0.32      1011.0     4       263         6       313        8.08     268      -64.3
   08/09/2017 19:10      87.2      86.9       38     58.5      0.00      0.00      88.0     0.32      1011.0     5       261         6       254        8.09     267      -47.0
   08/09/2017 19:00      87.3      87.1       37     57.9      0.00      0.00      88.0     0.32      1011.0     4       232         5       246        8.09     267      -28.4
   08/09/2017 18:50      87.8      87.4       32     53.8      0.00      0.00      87.8     0.32      1011.0     4       174         6       189        8.09     267       -9.6
   08/09/2017 18:40      87.8      87.5       31     53.4      0.00      0.00      87.9     0.32      1011.0     4       162         6       136        8.09     267       13.7
   08/09/2017 18:30      88.5      87.9       30     53.0      0.00      0.00      87.7     0.32      1011.0     5       167         8       175        8.11     267       36.0
   08/09/2017 18:20      88.3      87.9       30     52.5      0.00      0.00      87.7     0.32      1011.0     5       169         8       164        8.11     267       60.8
   08/09/2017 18:10      88.8      88.1       29     52.1      0.00      0.00      87.6     0.32      1011.0     5       180         8       164        8.12     267       84.6
   08/09/2017 18:00      89.4      88.9       28     51.9      0.00      0.00      87.6     0.32      1011.0     5       162         7       152        8.15     267      107.2
   08/09/2017 17:50      89.5      89.0       27     51.3      0.00      0.00      87.4     0.32      1011.0     6       160         8       179        8.16     267      131.2
   08/09/2017 17:40      89.9      89.4       27     50.8      0.00      0.00      87.5     0.32      1011.0     7       159         9       158        8.16     267      153.0
   08/09/2017 17:30      90.3      90.0       26     50.4      0.00      0.00      87.4     0.32      1011.0     7       152         8       149        8.17     267      175.9
   08/09/2017 17:20      91.0      90.5       25     50.3      0.00      0.00      87.2     0.32      1011.0     7       156         9       143        8.18     267      196.7
   08/09/2017 17:10      91.3      90.6       26     51.0      0.00      0.00      87.3     0.32      1011.0     6       155         8       130        8.18     267      222.8
   08/09/2017 17:00      91.6      91.0       26     51.9      0.00      0.00      87.3     0.32      1011.0     6       149         8       150        8.18     267      245.7
   08/09/2017 16:50      91.9      91.0       27     53.1      0.00      0.00      87.1     0.32      1011.0     6       167         7       183        8.19     267      268.0
   08/09/2017 16:40      92.2      91.9       26     52.2      0.00      0.00      87.3     0.32      1011.0     6       157         8       143        8.19     267      288.9
   08/09/2017 16:30      92.2      91.8       26     52.7      0.00      0.00      87.2     0.32      1011.0     5       154         7       133        8.23     267      309.3
   08/09/2017 16:20      92.7      92.4       27     53.8      0.00      0.00      86.7     0.32      1011.0     5       179         8       175        8.23     267      328.4
   08/09/2017 16:10      92.8      92.0       27     53.5      0.00      0.00      87.1     0.32      1011.0     5       172         7       147        8.24     268      346.9
   08/09/2017 16:00      93.3      92.8       28     54.6      0.00      0.00      86.8     0.32      1011.0     5       170         8       179        8.24     268      365.8
   08/09/2017 15:50      93.3      92.8       28     55.1      0.00      0.00      86.6     0.32      1011.0     5       159         6       139        8.24     268      383.3
   08/09/2017 15:40      93.0      92.1       28     54.5      0.00      0.00      86.6     0.32      1011.0     4       187         9       176        8.25     268      404.4
   08/09/2017 15:30      92.3      92.0       28     54.2      0.00      0.00      86.6     0.32      1011.0     6       156         8       149        8.25     268      421.4
   08/09/2017 15:20      93.4      92.3       27     54.4      0.00      0.00      86.6     0.32      1011.0     6       172         8       174        8.25     268      434.1
   08/09/2017 15:10      94.6      93.0       28     55.6      0.00      0.00      86.8     0.32      1011.0     4       173         9       170        8.25     268      445.9
   08/09/2017 15:00      95.1      94.1       27     55.6      0.00      0.00      86.6     0.32      1011.0     4       160         7       169        8.25     269      458.6
   08/09/2017 14:50      94.8      92.9       28     55.7      0.00      0.00      86.4     0.32      1011.0     3        63         5        99        8.25     269      472.4
   08/09/2017 14:40      94.5      93.0       28     55.6      0.00      0.00      86.1     0.32      1012.0     5       106         7        69        8.28     269      484.5
   08/09/2017 14:30      94.3      93.1       28     55.8      0.00      0.00      86.4     0.31      1012.0     3        95         7       111        8.28     269      497.1
   08/09/2017 14:20      94.4      93.0       28     55.2      0.00      0.00      86.2     0.31      1011.0     7       156        12       327        8.28     269      505.7
   08/09/2017 14:10      93.7      93.1       27     54.9      0.00      0.00      86.2     0.31      1012.0     3        45         5        61        8.28     269      508.6
   08/09/2017 14:00      93.9      93.3       27     55.0      0.00      0.00      86.1     0.31      1012.0     3        37         6        62        8.29     269      516.3
   08/09/2017 13:50      93.0      92.4       27     54.0      0.00      0.00      85.9     0.31      1012.0     4        55         6        73        8.29     269      526.6
   08/09/2017 13:40      93.0      92.1       27     54.2      0.00      0.00      86.0     0.31      1012.0     3        43         5        62        8.29     269      528.9
   08/09/2017 13:30      92.6      91.3       30     55.9      0.00      0.00      85.9     0.31      1012.0     4        56         6        11        8.29     269      537.2
   08/09/2017 13:20      91.6      90.9       31     56.5      0.00      0.00      85.9     0.31      1012.0     4        75         6        80        8.29     269      544.9
   08/09/2017 13:10      91.0      90.5       31     56.4      0.00      0.00      85.8     0.31      1012.0     3       115         5        73        8.29     269      544.6
   08/09/2017 13:00      91.3      90.1       31     56.5      0.00      0.00      85.7     0.31      1012.0     3        24         5        20        8.29     270      545.6
   08/09/2017 12:50      90.9      90.2       31     55.5      0.00      0.00      85.9     0.31      1012.0     4         6         7         3        8.29     270      548.4
   08/09/2017 12:40      90.6      89.7       30     54.6      0.00      0.00      85.8     0.31      1012.0     4        23         7        76        8.29     270      547.7
   08/09/2017 12:30      89.7      89.3       31     54.9      0.00      0.00      85.8     0.31      1012.0     4         6         8       348        8.38     270      541.9
   08/09/2017 12:20      89.8      89.1       32     56.0      0.00      0.00      85.7     0.31      1013.0     3        19         6         7        8.38     270      539.5
   08/09/2017 12:10      89.0      87.7       34     56.7      0.00      0.00      85.9     0.31      1013.0     3        33         4        41        8.38     270      536.2
   08/09/2017 12:00      88.1      87.0       36     57.2      0.00      0.00      85.6     0.31      1013.0     4        14         6       354        8.38     270      531.8
   08/09/2017 11:50      87.9      86.9       37     57.7      0.00      0.00      85.7     0.31      1013.0     4        22         7        19        8.38     271      525.6
   08/09/2017 11:40      86.8      86.1       38     57.7      0.00      0.00      85.8     0.31      1013.0     3        25         4        51        8.39     271      518.0
   08/09/2017 11:30      86.3      85.3       39     57.8      0.00      0.00      85.6     0.31      1013.0     3        27         6       119        8.39     271      513.8
   08/09/2017 11:20      85.9      84.1       41     58.6      0.00      0.00      85.5     0.32      1013.0     4        67         7        95        8.39     271      503.3
   08/09/2017 11:10      84.7      83.6       43     59.2      0.00      0.00      86.0     0.32      1013.0     4        30         6        34        8.39     271      491.0
   08/09/2017 11:00      83.9      83.3       43     59.0      0.00      0.00      85.8     0.32      1013.0     3        35         5        19        8.39     271      479.6
   08/09/2017 10:50      83.6      82.8       44     58.8      0.00      0.00      85.8     0.32      1013.0     4        54         6        70        8.39     271      468.5
   08/09/2017 10:40      83.7      82.6       44     58.7      0.00      0.00      85.9     0.32      1013.0     3        40         5        84        8.39     271      453.9
   08/09/2017 10:30      82.8      80.8       45     58.4      0.00      0.00      86.0     0.32      1013.0     3        46         5        18        8.40     272      439.7
   08/09/2017 10:20      81.2      80.3       45     57.8      0.00      0.00      85.9     0.32      1013.0     2        13         4        18        8.40     272      424.2
   08/09/2017 10:10      80.5      79.8       46     57.8      0.00      0.00      85.9     0.32      1013.0     3        36         4        12        8.40     273      410.0
   08/09/2017 10:00      80.2      78.6       47     57.5      0.00      0.00      85.8     0.32      1013.0     2        27         4        72        8.40     274      393.7
   08/09/2017 09:50      79.6      79.2       47     57.5      0.00      0.00      86.1     0.32      1013.0     2        39         4        26        8.40     273      377.2
   08/09/2017 09:40      79.3      78.0       48     57.5      0.00      0.00      86.3     0.32      1013.0     2        53         3        89        8.40     273      360.7
   08/09/2017 09:30      78.0      76.7       50     57.6      0.00      0.00      86.1     0.32      1013.0     2        78         3       124        8.41     273      340.8
   08/09/2017 09:20      76.8      75.9       52     57.5      0.00      0.00      86.4     0.32      1013.0     2       357         3       356        8.41     274      322.0
   08/09/2017 09:10      75.7      74.2       56     58.0      0.00      0.00      86.3     0.32      1013.0     2         8         3        22        8.41     273      305.6
   08/09/2017 09:00      74.2      73.3       60     59.0      0.00      0.00      86.4     0.32      1013.0     2         8         3        26        8.42     274      291.5
   08/09/2017 08:50      73.5      72.3       62     59.0      0.00      0.00      86.2     0.32      1013.0     2        23         3         9        8.42     274      286.9
   08/09/2017 08:40      72.3      70.8       65     59.2      0.00      0.00      86.1     0.32      1013.0     2        65         3        71        8.42     273      103.3
   08/09/2017 08:30      70.8      69.9       68     59.3      0.00      0.00      86.3     0.32      1013.0     2       344         3       339        8.42     274      -12.0
   08/09/2017 08:20      70.1      69.6       69     59.2      0.00      0.00      86.3     0.32      1013.0     1        40         2        93        8.42     273      -27.1
   08/09/2017 08:10      69.7      68.9       70     59.0      0.00      0.00      86.4     0.32      1013.0     1       105         2       142        8.43     273       -9.4
   08/09/2017 08:00      69.1      68.1       72     59.0      0.00      0.00      86.6     0.32      1013.0     2        11         3        65        8.43     273       22.3
   08/09/2017 07:50      68.2      67.5       73     59.0      0.00      0.00      86.4     0.32      1013.0     1        68         2       102        8.43     273        9.6
   08/09/2017 07:40      67.7      67.0       75     59.2      0.00      0.00      86.3     0.32      1013.0     1       127         2        40        8.43     273      -30.4
   08/09/2017 07:30      67.2      66.5       77     59.5      0.00      0.00      86.5     0.32      1013.0     1       101         2        37        8.44     273      -33.9
   08/09/2017 07:20      66.5      65.7       79     59.4      0.00      0.00      86.5     0.32      1013.0     1       112         2       111        8.44     273      -32.3
   08/09/2017 07:10      65.8      64.7       80     59.1      0.00      0.00      86.5     0.32      1013.0     1       172         2       143        8.44     273      -33.0
   08/09/2017 07:00      65.0      64.0       82     58.8      0.00      0.00      86.3     0.32      1013.0     1       157         2       168        8.44     273      -31.3
   08/09/2017 06:50      64.0      63.0       84     58.6      0.00      0.00      86.7     0.33      1013.0     1       149         2       144        8.45     273      -33.8
   08/09/2017 06:40      63.0      62.1       85     58.0      0.00      0.00      86.6     0.32      1013.0     2       158         3       155        8.45     273      -37.8
   08/09/2017 06:30      62.5      62.2       86     57.9      0.00      0.00      86.8     0.33      1013.0     1       158         2       165        8.45     272      -41.2
   08/09/2017 06:20      62.5      62.2       85     57.6      0.00      0.00      86.6     0.33      1013.0     2       152         2       164        8.45     272      -47.7
   08/09/2017 06:10      62.6      62.4       84     57.7      0.00      0.00      86.9     0.33      1013.0     1       149         2       141        8.45     272      -51.5
   08/09/2017 06:00      62.6      62.3       84     57.6      0.00      0.00      87.0     0.33      1012.0     1       147         1       127        8.45     272      -54.8
   08/09/2017 05:50      62.9      62.5       84     57.6      0.00      0.00      87.0     0.33      1012.0     1       148         2       139        8.45     272      -57.0
   08/09/2017 05:40      63.0      62.8       83     57.7      0.00      0.00      87.0     0.33      1012.0     2       148         2       136        8.45     272      -56.9
   08/09/2017 05:30      63.0      62.9       83     57.7      0.00      0.00      87.2     0.33      1012.0     2       152         2       145        8.45     272      -59.0
   08/09/2017 05:20      63.2      62.8       82     57.4      0.00      0.00      86.9     0.33      1012.0     2       153         2       162        8.45     272      -60.0
   08/09/2017 05:10      63.3      63.1       82     57.5      0.00      0.00      87.1     0.33      1012.0     1       167         2       139        8.45     272      -60.3
   08/09/2017 05:00      63.5      63.3       81     57.6      0.00      0.00      87.0     0.33      1012.0     1       159         2       140        8.45     272      -61.1
   08/09/2017 04:50      63.6      63.4       81     57.5      0.00      0.00      87.0     0.33      1012.0     1       141         1       166        8.45     272      -61.6
   08/09/2017 04:40      63.5      63.3       81     57.4      0.00      0.00      87.1     0.33      1012.0     1       173         2       154        8.45     272      -62.4
   08/09/2017 04:30      63.5      63.3       80     57.1      0.00      0.00      87.5     0.33      1012.0     1       130         2       159        8.46     272      -62.6
   08/09/2017 04:20      64.0      63.6       79     57.1      0.00      0.00      87.2     0.33      1012.0     1       128         2       126        8.46     272      -63.1
   08/09/2017 04:10      64.7      64.1       78     57.4      0.00      0.00      87.2     0.33      1012.0     2       143         2       143        8.46     272      -62.8
   08/09/2017 04:00      64.9      64.7       78     58.0      0.00      0.00      87.6     0.33      1012.0     1       147         1       130        8.46     271      -62.1
   08/09/2017 03:50      65.1      64.9       78     58.0      0.00      0.00      87.4     0.33      1012.0     1       128         1       160        8.46     272      -62.7
   08/09/2017 03:40      65.2      64.8       78     57.9      0.00      0.00      87.4     0.33      1012.0     1       124         2       109        8.46     271      -63.2
   08/09/2017 03:30      65.2      65.1       78     58.1      0.00      0.00      87.6     0.33      1012.0     1        69         2       126        8.46     271      -63.0
   08/09/2017 03:20      65.4      65.2       78     58.2      0.00      0.00      87.7     0.33      1012.0     1        99         2        83        8.46     271      -63.6
   08/09/2017 03:10      65.7      65.2       76     57.7      0.00      0.00      87.4     0.33      1012.0     1       118         2       125        8.46     271      -64.3
   08/09/2017 03:00      66.3      65.7       75     57.9      0.00      0.00      87.7     0.33      1012.0     1        98         2        84        8.46     271      -64.2
   08/09/2017 02:50      66.7      66.3       74     58.1      0.00      0.00      87.5     0.33      1012.0     2        98         2       102        8.46     271      -64.6
   08/09/2017 02:40      66.8      66.5       74     58.0      0.00      0.00      87.8     0.33      1012.0     2       108         2       118        8.46     271      -64.9
   08/09/2017 02:30      67.1      66.8       73     58.0      0.00      0.00      87.7     0.33      1012.0     1       102         2       101        8.46     271      -65.4
   08/09/2017 02:20      67.4      67.2       72     58.1      0.00      0.00      87.7     0.33      1012.0     1        65         2        69        8.46     271      -64.8
   08/09/2017 02:10      67.6      67.4       71     57.9      0.00      0.00      87.7     0.33      1012.0     2        98         2        99        8.47     271      -65.7
   08/09/2017 02:00      67.8      67.6       71     57.8      0.00      0.00      87.8     0.33      1012.0     2        94         2        80        8.47     271      -65.5
   08/09/2017 01:50      67.8      67.6       69     57.3      0.00      0.00      88.0     0.33      1012.0     2       106         3        95        8.47     271      -65.8
   08/09/2017 01:40      68.2      67.6       67     56.6      0.00      0.00      87.9     0.33      1012.0     2       107         2       107        8.47     271      -65.4
   08/09/2017 01:30      68.4      68.1       67     56.7      0.00      0.00      88.1     0.33      1012.0     0        90         1       145        8.47     271      -65.6
   08/09/2017 01:20      68.2      68.0       66     56.2      0.00      0.00      87.9     0.33      1012.0     1       133         1       143        8.47     271      -65.3
   08/09/2017 01:10      68.7      68.4       65     56.2      0.00      0.00      88.1     0.33      1012.0     1       103         1       121        8.47     271      -66.4
   08/09/2017 01:00      69.0      68.5       65     56.4      0.00      0.00      88.0     0.33      1012.0     1       142         2       120        8.47     271      -66.6
   08/09/2017 00:50      69.3      68.5       63     56.0      0.00      0.00      88.0     0.33      1012.0     2       117         2       108        8.47     271      -67.0
   08/09/2017 00:40      69.6      69.1       63     56.3      0.00      0.00      88.1     0.33      1012.0     0       177         1        80        8.47     271      -65.8
   08/09/2017 00:30      69.8      69.0       62     56.0      0.00      0.00      87.9     0.33      1012.0     1       130         2       134        8.47     270      -67.7
   08/09/2017 00:20      70.2      69.8       61     55.9      0.00      0.00      88.1     0.33      1012.0     1       138         1       142        8.47     270      -68.6
   08/09/2017 00:10      70.4      70.2       60     55.7      0.00      0.00      88.2     0.33      1012.0     1       156         1       146        8.47     270      -68.7
   08/09/2017 00:00      70.9      70.5       58     55.4      0.00      0.00      87.9     0.33      1012.0     0       227         0       199        8.47     270      -69.6
   08/08/2017 23:50      71.0      70.7       59     55.9      0.00      0.00      88.3     0.33      1012.0     0       112         0       192        8.48     270      -69.3
   08/08/2017 23:40      71.4      71.1       58     55.9      0.00      0.00      88.3     0.33      1012.0     0        56         0       111        8.48     270      -70.1
   08/08/2017 23:30      71.8      71.5       57     55.8      0.00      0.00      88.3     0.33      1012.0     1       160         1       131        8.48     270      -70.3
   08/08/2017 23:20      71.9      71.7       59     56.6      0.00      0.00      88.4     0.33      1012.0     1       141         2       141        8.48     270      -70.8
   08/08/2017 23:10      72.7      71.9       57     56.3      0.00      0.00      88.2     0.33      1012.0     1       133         2       130        8.48     270      -71.6
   08/08/2017 23:00      73.3      72.6       56     56.3      0.00      0.00      88.4     0.33      1012.0     1       148         2       142        8.48     270      -71.7
   08/08/2017 22:50      73.6      73.2       55     56.4      0.00      0.00      88.2     0.33      1012.0     0        87         1        85        8.48     270      -71.5
   08/08/2017 22:40      73.8      73.1       55     56.2      0.00      0.00      88.3     0.33      1012.0     1        93         1       131        8.48     270      -73.1
   08/08/2017 22:30      74.0      73.7       54     56.3      0.00      0.00      88.4     0.33      1012.0     1       214         1       247        8.48     270      -72.6
   08/08/2017 22:20      74.4      74.0       53     56.1      0.00      0.00      88.3     0.33      1012.0     0       338         1        13        8.48     269      -73.4
   08/08/2017 22:10      75.5      74.5       51     55.9      0.00      0.00      88.3     0.33      1012.0     1        56         1       153        8.48     269      -75.1
   08/08/2017 22:00      76.3      75.8       50     56.0      0.00      0.00      88.3     0.33      1012.0     1       238         2       221        8.48     270      -76.8
   08/08/2017 21:50      76.5      76.3       49     56.1      0.00      0.00      88.2     0.33      1012.0     1       215         2       225        8.48     269      -77.2
   08/08/2017 21:40      76.6      76.2       48     55.2      0.00      0.00      88.3     0.33      1011.0     1       215         2       223        8.48     269      -77.0
   08/08/2017 21:30      77.4      76.9       46     54.7      0.00      0.00      88.1     0.33      1011.0     1       205         2       227        8.48     269      -78.1
   08/08/2017 21:20      77.8      76.9       45     54.2      0.00      0.00      88.2     0.33      1011.0     1       213         2       241        8.48     269      -79.1
   08/08/2017 21:10      78.6      77.9       43     54.0      0.00      0.00      88.2     0.33      1011.0     2       176         3       212        8.48     269      -82.8
   08/08/2017 21:00      78.9      78.5       43     54.0      0.00      0.00      88.1     0.33      1011.0     2       204         4       197        8.49     269      -84.7
   08/08/2017 20:50      79.4      78.8       42     54.0      0.00      0.00      88.1     0.33      1011.0     3       188         5       204        8.49     269      -85.5
   08/08/2017 20:40      80.0      79.3       41     53.9      0.00      0.00      88.2     0.33      1011.0     2       221         3       255        8.49     269      -87.0
   08/08/2017 20:30      80.3      80.1       40     54.0      0.00      0.00      88.1     0.33      1011.0     3       238         4       223        8.49     269      -88.1
   08/08/2017 20:20      80.8      80.3       40     54.2      0.00      0.00      88.3     0.33      1011.0     3       222         4       201        8.49     269      -88.9
   08/08/2017 20:10      81.4      80.9       40     54.7      0.00      0.00      88.0     0.33      1011.0     3       219         5       227        8.49     268      -89.3
   08/08/2017 20:00      82.5      81.6       40     55.3      0.00      0.00      87.9     0.32      1011.0     4       217         6       247        8.49     268      -89.2
   08/08/2017 19:50      83.1      82.5       40     55.8      0.00      0.00      88.0     0.32      1011.0     4       220         7       258        8.49     269      -87.7
   08/08/2017 19:40      84.0      83.3       40     56.4      0.00      0.00      88.2     0.32      1011.0     4       199         6       190        8.49     268      -85.0
   08/08/2017 19:30      85.4      84.1       38     56.7      0.00      0.00      88.1     0.32      1011.0     3       216         5       229        8.49     268      -82.0
   08/08/2017 19:20      86.8      85.5       37     57.1      0.00      0.00      87.9     0.32      1010.0     4       224         6       203        8.64     268      -71.2
   08/08/2017 19:10      87.7      86.9       36     57.0      0.00      0.00      88.1     0.32      1010.0     4       242         6       225        8.64     268      -53.6
   08/08/2017 19:00      88.7      87.7       35     57.0      0.00      0.00      88.0     0.32      1010.0     4       265         6       261        8.64     268      -34.3
   08/08/2017 18:50      89.6      88.7       34     57.3      0.00      0.00      87.7     0.32      1010.0     4       288         6       322        8.65     268      -10.2
   08/08/2017 18:40      90.3      90.0       33     57.5      0.00      0.00      87.8     0.32      1010.0     4       279         7       309        8.65     268       14.2
   08/08/2017 18:30      90.3      90.1       33     57.6      0.00      0.00      87.8     0.32      1010.0     5       246         8       233        8.65     268       40.0
   08/08/2017 18:20      90.8      90.4       33     57.8      0.00      0.00      87.6     0.32      1010.0     4       231         6       259        8.65     268       65.1
   08/08/2017 18:10      91.3      90.6       33     58.1      0.00      0.00      87.8     0.32      1010.0     4       231         6       238        8.66     268       88.8
   08/08/2017 18:00      91.7      91.0       33     58.2      0.00      0.00      87.5     0.32      1010.0     5       235         8       245        8.67     268      111.4
   08/08/2017 17:50      92.0      91.3       33     58.5      0.00      0.00      87.6     0.32      1010.0     5       240         6       238        8.67     268      134.4
   08/08/2017 17:40      92.4      91.3       33     58.6      0.00      0.00      87.6     0.32      1010.0     4       239         7       240        8.67     268      157.8
   08/08/2017 17:30      92.5      91.8       33     58.9      0.00      0.00      87.4     0.32      1010.0     5       257         8       278        8.67     268      179.7
   08/08/2017 17:20      92.7      91.9       33     59.1      0.00      0.00      87.4     0.32      1010.0     4       253         6       262        8.67     268      202.1
   08/08/2017 17:10      93.1      92.4       31     58.1      0.00      0.00      87.5     0.32      1010.0     5       217         9       201        8.68     268      226.1
   08/08/2017 17:00      92.9      91.6       31     57.2      0.00      0.00      87.3     0.32      1010.0     5       185         8       226        8.68     268      251.9
   08/08/2017 16:50      92.8      91.8       31     57.3      0.00      0.00      87.3     0.32      1010.0     6       181         7       197        8.68     268      272.4
   08/08/2017 16:40      93.3      92.5       30     56.5      0.00      0.00      87.3     0.32      1010.0     5       167         7       166        8.68     268      294.0
   08/08/2017 16:30      93.2      92.3       27     53.7      0.00      0.00      87.1     0.32      1010.0     6       168         8       176        8.68     268      314.5
   08/08/2017 16:20      94.4      93.3       25     52.3      0.00      0.00      87.1     0.32      1010.0     7       163        10       179        8.69     268      333.8
   08/08/2017 16:10      94.2      93.6       24     51.4      0.00      0.00      86.9     0.32      1010.0     6       159         9       134        8.69     268      350.8
   08/08/2017 16:00      95.8      94.1       26     54.8      0.00      0.00      87.0     0.32      1010.0     6       184         8       172        8.69     269      371.7
   08/08/2017 15:50      97.6      96.6       23     53.6      0.00      0.00      86.8     0.32      1010.0     5       111        12       210        8.69     269      379.1
   08/08/2017 15:40      98.3      97.3       23     53.6      0.00      0.00      86.7     0.32      1010.0     4        38         7        21        8.69     268      387.4
   08/08/2017 15:30      97.6      96.6       23     53.2      0.00      0.00      86.7     0.32      1010.0     4        39         7        74        8.69     269      411.2
   08/08/2017 15:20      97.6      96.8       22     52.6      0.00      0.00      86.6     0.32      1010.0     3        58         6        31        8.69     269      424.3
   08/08/2017 15:10      98.5      97.0       23     53.9      0.00      0.00      86.6     0.32      1011.0     3        25         6        77        8.69     269      440.4
   08/08/2017 15:00      98.2      96.2       25     55.4      0.00      0.00      86.3     0.32      1011.0     3        25         4        31        8.69     269      455.6
   08/08/2017 14:50      96.9      96.0       25     55.3      0.00      0.00      86.4     0.32      1011.0     4        35         6        76        8.70     270      472.6
   08/08/2017 14:40      97.6      96.2       26     55.9      0.00      0.00      86.4     0.32      1011.0     4        42         6        43        8.70     269      480.8
   08/08/2017 14:30      96.9      96.1       27     56.5      0.00      0.00      86.1     0.32      1011.0     5        60         7        70        8.70     269      494.7
   08/08/2017 14:20      96.2      95.6       28     57.4      0.00      0.00      86.1     0.32      1011.0     3         7         6       359        8.70     270      501.0
   08/08/2017 14:10      96.3      95.1       28     57.6      0.00      0.00      86.1     0.31      1011.0     3        14         4        37        8.70     271      510.7
   08/08/2017 14:00      95.5      95.0       29     57.7      0.00      0.00      86.0     0.31      1011.0     4        39         6         7        8.82     270      519.4
   08/08/2017 13:50      94.8      93.6       30     57.9      0.00      0.00      86.1     0.31      1011.0     3        35         5        76        8.84     271      526.1
   08/08/2017 13:40      94.1      93.3       30     57.9      0.00      0.00      86.0     0.31      1012.0     4        32         7        73        8.85     271      536.1
   08/08/2017 13:30      93.5      92.5       30     57.5      0.00      0.00      86.0     0.31      1012.0     4        53         6       355        8.86     270      541.5
   08/08/2017 13:20      93.2      91.7       31     57.1      0.00      0.00      85.8     0.31      1012.0     3        43         6        94        8.86     271      547.5
   08/08/2017 13:10      92.1      91.0       31     56.9      0.00      0.00      86.0     0.31      1012.0     3        16         6        37        8.87     271      548.9
   08/08/2017 13:00      91.9      91.3       32     57.4      0.00      0.00      85.8     0.31      1012.0     3         1         6       341        8.87     271      549.6
   08/08/2017 12:50      91.5      90.8       33     57.8      0.00      0.00      85.7     0.31      1012.0     4        26         6        77        8.87     271      551.1
   08/08/2017 12:40      90.9      89.8       34     57.9      0.00      0.00      85.8     0.31      1012.0     4        18         5        32        8.87     271      550.9
   08/08/2017 12:30      90.9      90.2       34     58.3      0.00      0.00      85.7     0.31      1012.0     4         7         5        22        8.88     271      547.2
   08/08/2017 12:20      90.7      89.9       35     58.6      0.00      0.00      85.6     0.31      1012.0     4         1         5       357        8.88     272      546.4
   08/08/2017 12:10      90.2      89.8       35     59.0      0.00      0.00      85.6     0.31      1013.0     3       305         7         4        8.88     272      541.4
   08/08/2017 12:00      89.9      88.4       38     59.6      0.00      0.00      85.7     0.31      1013.0     2         8         4        43        8.88     272      536.3
   08/08/2017 11:50      88.5      87.5       39     59.5      0.00      0.00      85.6     0.32      1013.0     3       353         6       344        8.92     272      530.8
   08/08/2017 11:40      87.8      86.9       39     59.6      0.00      0.00      85.6     0.32      1013.0     4       348         7       339        8.94     273      523.3
   08/08/2017 11:30      86.8      86.1       41     59.6      0.00      0.00      85.7     0.32      1013.0     3       355         6       352        8.94     273      516.6
   08/08/2017 11:20      85.8      84.2       42     59.3      0.00      0.00      85.7     0.32      1013.0     1       343         3        52        8.94     273      510.1
   08/08/2017 11:10      84.4      83.5       43     59.1      0.00      0.00      85.6     0.32      1013.0     2        57         5        72        8.94     273      499.9
   08/08/2017 11:00      83.8      83.3       44     59.0      0.00      0.00      85.9     0.32      1013.0     4        19         6        78        8.94     273      487.4
   08/08/2017 10:50      83.9      82.8       44     59.0      0.00      0.00      85.8     0.32      1013.0     2        12         4        20        8.94     273      474.6
   08/08/2017 10:40      82.6      82.0       45     58.9      0.00      0.00      85.6     0.32      1013.0     3         5         5         4        8.94     273      461.7
   08/08/2017 10:30      82.6      81.4       45     58.9      0.00      0.00      85.8     0.32      1013.0     3        26         5        70        8.95     274      448.5
   08/08/2017 10:20      81.4      80.4       47     58.6      0.00      0.00      86.0     0.32      1014.0     3        35         5         4        8.95     275      434.1
   08/08/2017 10:10      80.6      79.4       48     58.7      0.00      0.00      85.6     0.32      1014.0     2        30         5         8        8.95     276      418.0
   08/08/2017 10:00      79.7      79.4       49     58.9      0.00      0.00      86.2     0.32      1014.0     3        23         5         5        8.95     276      400.1
   08/08/2017 09:50      79.5      78.4       51     59.1      0.00      0.00      86.1     0.32      1014.0     2        19         4        29        8.95     276      383.9
   08/08/2017 09:40      79.0      77.5       52     59.4      0.00      0.00      86.3     0.32      1014.0     3        57         7        75        8.95     276      365.5
   08/08/2017 09:30      77.4      76.6       55     59.6      0.00      0.00      86.5     0.32      1014.0     3        42         4        88        8.95     276      347.8
   08/08/2017 09:20      76.6      76.0       56     59.7      0.00      0.00      86.0     0.32      1014.0     2        35         5        66        8.96     276      328.1
   08/08/2017 09:10      76.0      74.8       58     59.4      0.00      0.00      86.1     0.32      1014.0     2        52         3        99        8.96     276      310.9
   08/08/2017 09:00      74.8      74.2       59     59.3      0.00      0.00      86.3     0.32      1014.0     2        35         5        78        8.96     276      298.2
   08/08/2017 08:50      74.1      72.6       61     59.0      0.00      0.00      86.2     0.32      1014.0     2        54         3        84        8.96     276      295.1
   08/08/2017 08:40      72.6      71.6       63     58.8      0.00      0.00      86.2     0.32      1014.0     2        33         4        37        8.96     276      108.5
   08/08/2017 08:30      71.8      71.0       65     58.8      0.00      0.00      86.7     0.32      1014.0     2        34         3        90        8.97     276       -5.4
   08/08/2017 08:20      71.3      70.3       67     59.1      0.00      0.00      86.3     0.32      1014.0     2        85         3        67        8.97     276      -28.3
   08/08/2017 08:10      70.4      69.9       68     59.3      0.00      0.00      86.4     0.32      1014.0     2       117         4        66        8.97     276       -6.4
   08/08/2017 08:00      70.0      69.1       70     59.3      0.00      0.00      86.8     0.32      1014.0     2        44         4        31        8.97     276       44.8
   08/08/2017 07:50      69.3      68.4       72     59.4      0.00      0.00      86.2     0.32      1014.0     2        52         3        64        8.97     276       13.7
   08/08/2017 07:40      68.5      68.0       74     59.5      0.00      0.00      86.6     0.32      1014.0     1       356         2        19        8.97     276      -27.5
   08/08/2017 07:30      68.1      67.2       76     59.7      0.00      0.00      86.8     0.32      1014.0     2        47         3        87        8.97     276      -31.3
   08/08/2017 07:20      67.5      66.6       78     59.9      0.00      0.00      86.9     0.32      1014.0     2        73         3        76        8.97     276      -30.1
   08/08/2017 07:10      66.7      65.7       80     59.9      0.00      0.00      86.7     0.32      1014.0     1        89         2        21        8.97     276      -33.9
   08/08/2017 07:00      65.8      64.7       82     59.5      0.00      0.00      86.9     0.33      1014.0     1       106         2       119        8.98     276      -35.2
   08/08/2017 06:50      64.9      64.2       82     59.0      0.00      0.00      86.4     0.33      1014.0     1       149         1       145        8.98     276      -39.4
   08/08/2017 06:40      64.3      63.9       83     58.6      0.00      0.00      86.6     0.33      1014.0     2       152         2       140        8.97     275      -40.0
   08/08/2017 06:30      64.3      63.8       83     58.9      0.00      0.00      86.6     0.33      1013.0     1       179         1       145        8.98     276      -41.4
   08/08/2017 06:20      64.0      63.5       85     59.1      0.00      0.00      86.7     0.33      1013.0     0       277         1       232        8.98     276      -43.2
   08/08/2017 06:10      63.8      63.6       85     59.2      0.00      0.00      86.8     0.33      1013.0     0        14         0        19        8.98     276      -47.4
   08/08/2017 06:00      63.8      63.5       85     59.2      0.00      0.00      87.0     0.33      1013.0     1       142         1       141        8.98     275      -49.5
   08/08/2017 05:50      63.7      63.4       85     58.9      0.00      0.00      86.7     0.33      1013.0     1       133         1       132        8.98     275      -53.3
   08/08/2017 05:40      64.0      63.6       84     59.0      0.00      0.00      86.8     0.33      1013.0     2       147         2       154        8.98     275      -54.5
   08/08/2017 05:30      64.3      63.9       84     59.1      0.00      0.00      86.9     0.33      1013.0     2       152         2       161        8.98     275      -54.9
   08/08/2017 05:20      64.4      64.1       83     59.1      0.00      0.00      86.9     0.33      1013.0     1       145         1       143        8.98     275      -54.8
   08/08/2017 05:10      64.6      64.3       83     59.1      0.00      0.00      87.2     0.33      1013.0     1       136         1       140        8.98     275      -55.4
   08/08/2017 05:00      64.9      64.5       83     59.3      0.00      0.00      86.9     0.33      1013.0     0       227         1       139        8.98     275      -55.1
   08/08/2017 04:50      64.9      64.7       82     59.3      0.00      0.00      87.1     0.33      1013.0     1       157         1       144        8.98     275      -55.7
   08/08/2017 04:40      64.9      64.7       82     59.1      0.00      0.00      86.8     0.33      1013.0     1       157         2       151        8.98     275      -56.4
   08/08/2017 04:30      65.0      64.7       81     58.8      0.00      0.00      87.4     0.33      1013.0     2       143         2       143        8.98     275      -57.6
   08/08/2017 04:20      65.2      64.8       80     58.9      0.00      0.00      87.3     0.33      1013.0     1       165         2       133        8.98     275      -57.6
   08/08/2017 04:10      65.2      65.0       81     59.2      0.00      0.00      87.4     0.33      1013.0     1       159         2       165        8.98     275      -57.9
   08/08/2017 04:00      65.1      64.8       81     59.1      0.00      0.00      87.3     0.33      1013.0     2       148         2       144        8.98     275      -59.3
   08/08/2017 03:50      65.3      64.8       81     59.0      0.00      0.00      87.5     0.33      1013.0     2       137         2       139        8.98     275      -59.0
   08/08/2017 03:40      65.7      65.3       81     59.5      0.00      0.00      87.5     0.33      1013.0     1       147         2       161        8.98     274      -58.4
   08/08/2017 03:30      65.9      65.5       80     59.3      0.00      0.00      87.6     0.33      1013.0     1       159         2       142        8.98     274      -58.8
   08/08/2017 03:20      66.3      65.8       79     59.5      0.00      0.00      87.8     0.33      1013.0     1       139         2       143        8.98     274      -59.0
   08/08/2017 03:10      66.3      66.1       79     59.6      0.00      0.00      87.5     0.33      1013.0     1       140         2       138        8.98     274      -59.6
   08/08/2017 03:00      66.4      66.2       78     59.4      0.00      0.00      87.5     0.33      1013.0     1       131         2       129        8.98     274      -59.3
   08/08/2017 02:50      66.7      66.3       78     59.4      0.00      0.00      87.7     0.33      1012.0     1       137         2       128        8.99     274      -59.2
   08/08/2017 02:40      66.8      66.4       77     59.1      0.00      0.00      87.8     0.33      1012.0     1       110         1       126        8.98     274      -60.1
   08/08/2017 02:30      66.9      66.8       77     59.5      0.00      0.00      87.9     0.33      1012.0     0       167         1       122        8.99     274      -59.5
   08/08/2017 02:20      67.0      66.7       76     59.3      0.00      0.00      87.8     0.33      1012.0     1       103         1       108        8.99     274      -60.2
   08/08/2017 02:10      66.9      66.6       75     58.7      0.00      0.00      88.1     0.33      1012.0     1        99         1        73        8.99     273      -60.8
   08/08/2017 02:00      67.3      66.8       74     58.5      0.00      0.00      87.8     0.33      1012.0     1       146         2       138        8.99     273      -61.6
   08/08/2017 01:50      67.4      67.2       74     58.7      0.00      0.00      87.9     0.33      1012.0     0       105         1        87        8.99     273      -61.6
   08/08/2017 01:40      67.5      67.3       73     58.6      0.00      0.00      87.9     0.33      1012.0     0       106         0        51        8.99     273      -61.6
   08/08/2017 01:30      67.9      67.4       71     58.0      0.00      0.00      87.9     0.33      1012.0     1       136         1       128        8.99     273      -62.4
   08/08/2017 01:20      68.2      67.9       70     57.9      0.00      0.00      87.8     0.33      1012.0     1       119         1       135        8.99     273      -62.3
   08/08/2017 01:10      68.1      67.6       69     57.3      0.00      0.00      88.2     0.33      1012.0     1       131         1       130        8.99     273      -63.5
   08/08/2017 01:00      68.4      68.1       68     57.1      0.00      0.00      87.8     0.33      1012.0     0        37         0       183        8.99     273      -63.9
   08/08/2017 00:50      68.4      68.1       67     56.9      0.00      0.00      87.8     0.33      1012.0     1       143         2       172        8.99     273      -64.6
   08/08/2017 00:40      68.8      68.4       65     56.5      0.00      0.00      88.0     0.33      1013.0     1       105         1       109        8.99     273      -65.2
   08/08/2017 00:30      69.0      68.7       64     56.3      0.00      0.00      88.4     0.33      1013.0     0       131         1       119        8.99     273      -65.2
   08/08/2017 00:20      69.9      69.1       63     56.3      0.00      0.00      88.1     0.33      1013.0     1       116         2       133        8.99     273      -67.4
   08/08/2017 00:10      70.2      69.9       62     56.5      0.00      0.00      88.1     0.33      1012.0     1       147         1       142        8.99     273      -67.2
   08/08/2017 00:00      70.3      69.9       62     56.3      0.00      0.00      88.3     0.33      1012.0     1       141         1       144        8.99     273      -68.5
   08/07/2017 23:50      70.8      70.2       61     56.1      0.00      0.00      88.0     0.33      1012.0     1       129         1       140        8.99     273      -69.3
   08/07/2017 23:40      71.9      70.9       59     56.1      0.00      0.00      87.8     0.33      1012.0     1       101         1        69        8.99     273      -70.0
   08/07/2017 23:30      72.9      72.1       57     56.4      0.00      0.00      88.3     0.33      1012.0     1        62         1       192        8.99     273      -71.8
   08/07/2017 23:20      73.2      73.0       56     56.8      0.00      0.00      88.1     0.33      1012.0     1       246         2       265        9.00     273      -73.0
   08/07/2017 23:10      73.2      72.4       58     57.1      0.00      0.00      88.3     0.33      1012.0     2       351         3       150        9.00     272      -73.9
   08/07/2017 23:00      73.1      72.5       58     57.2      0.00      0.00      88.3     0.33      1012.0     3       178         4       185        9.00     272      -74.2
   08/07/2017 22:50      73.3      72.9       58     57.5      0.00      0.00      88.4     0.33      1013.0     1       216         2       236        9.00     272      -73.7
   08/07/2017 22:40      73.9      73.6       57     57.5      0.00      0.00      88.4     0.33      1012.0     1       223         3       228        9.00     272      -75.0
   08/07/2017 22:30      74.4      73.9       56     57.4      0.00      0.00      88.5     0.33      1012.0     2       243         3       253        9.00     272      -77.0
   08/07/2017 22:20      74.7      74.4       55     57.4      0.00      0.00      88.4     0.33      1012.0     2       271         4       267        9.00     272      -78.0
   08/07/2017 22:10      74.8      74.5       55     57.3      0.00      0.00      88.4     0.33      1012.0     2       261         5       209        9.00     272      -78.4
   08/07/2017 22:00      74.8      74.5       54     57.1      0.00      0.00      88.4     0.33      1012.0     4       196         5       196        9.00     272      -79.2
   08/07/2017 21:50      75.1      74.6       54     57.0      0.00      0.00      88.5     0.33      1012.0     4       188         8       186        9.00     272      -79.9
   08/07/2017 21:40      75.7      75.2       53     57.0      0.00      0.00      88.4     0.33      1012.0     3       197         5       206        9.00     272      -81.2
   08/07/2017 21:30      76.2      75.8       52     57.3      0.00      0.00      88.7     0.33      1012.0     2       193         5       231        9.00     272      -82.5
   08/07/2017 21:20      76.8      76.3       52     57.4      0.00      0.00      88.6     0.33      1012.0     3       223         5       256        9.00     272      -82.8
   08/07/2017 21:10      77.3      76.9       51     57.5      0.00      0.00      88.4     0.33      1012.0     3       235         5       238        9.00     272      -83.3
   08/07/2017 21:00      77.6      77.2       50     57.4      0.00      0.00      88.2     0.33      1012.0     3       231         4       231        9.00     272      -84.6
   08/07/2017 20:50      77.8      77.5       49     57.2      0.00      0.00      88.6     0.33      1012.0     3       235         4       232        9.00     271      -85.5
   08/07/2017 20:40      78.6      77.8       48     57.1      0.00      0.00      88.3     0.33      1012.0     3       237         4       245        9.00     271      -86.6
   08/07/2017 20:30      79.3      78.7       47     57.3      0.00      0.00      88.1     0.33      1012.0     3       266         4       280        9.01     271      -87.5
   08/07/2017 20:20      79.5      79.2       47     57.4      0.00      0.00      88.3     0.33      1012.0     4       262         6       246        9.01     271      -88.7
   08/07/2017 20:10      80.1      79.4       47     57.6      0.00      0.00      88.0     0.33      1011.0     4       273         8       266        9.01     271      -89.8
   08/07/2017 20:00      80.9      80.2       46     57.6      0.00      0.00      88.0     0.32      1011.0     5       265         8       272        9.01     271      -89.9
   08/07/2017 19:50      81.4      80.9       45     57.8      0.00      0.00      88.2     0.32      1011.0     4       267         6       247        9.01     271      -88.5
   08/07/2017 19:40      81.9      81.3       44     57.9      0.00      0.00      88.3     0.32      1011.0     3       279         4       281        9.01     271      -86.2
   08/07/2017 19:30      82.6      82.0       44     58.0      0.00      0.00      88.2     0.32      1011.0     4       286         6       271        9.01     271      -84.2
   08/07/2017 19:20      83.9      82.8       42     58.2      0.00      0.00      88.4     0.32      1011.0     4       280         7       311        9.02     270      -68.2
   08/07/2017 19:10      84.6      83.9       42     58.3      0.00      0.00      88.3     0.32      1011.0     4       272         5       320        9.02     270      -49.8
   08/07/2017 19:00      85.9      84.7       40     58.3      0.00      0.00      88.0     0.32      1011.0     5       288        10       312        9.02     270      -28.9
   08/07/2017 18:50      87.7      86.1       38     58.4      0.00      0.00      88.1     0.32      1011.0     5       321         9       332        9.03     270       -6.6
   08/07/2017 18:40      88.5      87.7       36     58.1      0.00      0.00      88.1     0.32      1011.0     4       314         7       322        9.03     270       17.2
   08/07/2017 18:30      88.9      88.0       36     58.0      0.00      0.00      88.0     0.32      1011.0     5       334         7       307        9.03     270       42.1
   08/07/2017 18:20      90.6      88.9       33     57.1      0.00      0.00      87.9     0.32      1011.0     4       298         6       309        9.04     270       66.7
   08/07/2017 18:10      91.7      90.4       27     52.1      0.00      0.00      88.0     0.32      1011.0     5       259         9       218        9.04     270       91.5
   08/07/2017 18:00      91.4      90.7       30     55.2      0.00      0.00      87.9     0.32      1011.0     4       278         7       265        9.05     270      116.7
   08/07/2017 17:50      92.1      91.7       26     51.9      0.00      0.00      87.9     0.32      1011.0     6       266         7       264        9.06     270      139.6
   08/07/2017 17:40      92.2      91.6       23     48.5      0.00      0.00      87.8     0.32      1011.0     6       239         8       253        9.06     270      161.3
   08/07/2017 17:30      93.0      92.2       22     47.7      0.00      0.00      87.7     0.32      1011.0     7       235        12       234        9.06     270      184.4
   08/07/2017 17:20      93.4      92.8       22     48.1      0.00      0.00      87.7     0.32      1011.0     6       232        10       229        9.06     270      209.7
   08/07/2017 17:10      94.4      93.6       22     50.0      0.00      0.00      87.7     0.32      1011.0     6       240         7       216        9.06     271      231.3
   08/07/2017 17:00      95.1      94.4       27     55.0      0.00      0.00      87.6     0.32      1011.0     4       282         6       302        9.07     271      254.4
   08/07/2017 16:50      95.8      95.0       30     59.0      0.00      0.00      87.8     0.32      1011.0     2       308         4       315        9.06     271      275.5
   08/07/2017 16:40      95.0      94.0       33     60.6      0.00      0.00      87.6     0.32      1011.0     3        22         5        17        9.07     272      290.9
   08/07/2017 16:30      94.0      93.1       34     60.7      0.00      0.00      87.6     0.32      1011.0     4        23         6        13        9.06     272      314.0
   08/07/2017 16:20      95.0      93.7       33     61.1      0.00      0.00      87.2     0.32      1011.0     5         3         7        12        9.06     272      333.0
   08/07/2017 16:10      95.3      93.2       34     61.2      0.00      0.00      87.4     0.32      1011.0     3        18         5        10        9.06     273      350.8
   08/07/2017 16:00      93.7      92.7       34     60.7      0.00      0.00      87.6     0.32      1011.0     3        62         5        70        9.06     273      370.0
   08/07/2017 15:50      93.9      93.0       34     60.8      0.00      0.00      87.2     0.32      1011.0     3        51         7       126        9.07     274      390.8
   08/07/2017 15:40      94.0      93.6       34     61.0      0.00      0.00      87.3     0.32      1011.0     4        49         5        51        9.06     274      406.7
   08/07/2017 15:30      93.9      92.7       34     61.0      0.00      0.00      87.1     0.32      1011.0     4        21         7       353        9.06     275      420.7
   08/07/2017 15:20      93.6      92.5       35     61.5      0.00      0.00      87.1     0.32      1011.0     5        27         8         1        9.07     275      435.5
   08/07/2017 15:10      93.9      93.2       35     61.5      0.00      0.00      87.1     0.32      1011.0     4        24         5         9        9.07     275      451.8
   08/07/2017 15:00      93.8      91.7       36     61.9      0.00      0.00      86.9     0.32      1011.0     3        52         7        71        9.07     277      473.5
   08/07/2017 14:50      92.3      91.4       37     62.1      0.00      0.00      86.8     0.32      1012.0     4        68         7        79        9.07     278      483.9
   08/07/2017 14:40      92.8      92.2       38     63.0      0.00      0.00      86.9     0.32      1012.0     3        64         6       112        9.07     279      494.7
   08/07/2017 14:30      92.2      91.4       38     62.8      0.00      0.00      86.7     0.32      1012.0     4        50         8        77        9.07     280      506.7
   08/07/2017 14:20      92.4      91.5       38     62.7      0.00      0.00      86.7     0.32      1012.0     4        40         5        43        9.07     282      517.1
   08/07/2017 14:10      91.5      90.4       39     62.4      0.00      0.00      86.7     0.32      1012.0     5        84         7        96        9.07     284      530.4
   08/07/2017 14:00      91.6      90.9       38     62.4      0.00      0.00      86.5     0.32      1012.0     3        43         6        74        9.07     286      534.1
   08/07/2017 13:50      91.8      90.5       39     62.5      0.00      0.00      86.6     0.32      1012.0     3        43         5       356        9.07     287      542.7
   08/07/2017 13:40      92.0      90.4       39     62.6      0.00      0.00      86.3     0.32      1012.0     4        58         8        93        9.07     288      543.6
   08/07/2017 13:30      91.5      90.2       39     62.4      0.00      0.00      86.5     0.32      1012.0     5        18         7        57        9.07     289      550.2
   08/07/2017 13:20      90.6      89.5       39     61.4      0.00      0.00      86.2     0.32      1013.0     3       342         5        78        9.07     290      557.9
   08/07/2017 13:10      89.4      87.9       40     61.5      0.00      0.00      86.4     0.32      1013.0     4        87         6       121        9.07     291      565.2
   08/07/2017 13:00      89.0      87.4       42     62.4      0.00      0.00      86.3     0.32      1013.0     3        65         6        84        9.07     292      565.4
   08/07/2017 12:50      88.1      87.2       42     62.2      0.00      0.00      86.4     0.32      1013.0     3        86         5       134        9.07     294      566.2
   08/07/2017 12:40      87.4      86.2       44     62.4      0.00      0.00      86.2     0.32      1013.0     3        77         6        25        9.07     296      566.6
   08/07/2017 12:30      87.4      86.2       44     62.4      0.00      0.00      86.2     0.32      1013.0     2       350         4       309        9.07     299      559.8
   08/07/2017 12:20      87.3      85.4       45     62.2      0.00      0.00      86.3     0.32      1013.0     3       360         5        11        9.07     303      556.3
   08/07/2017 12:10      85.8      85.0       45     62.0      0.00      0.00      86.3     0.32      1013.0     3        38         5       348        9.07     306      553.8
   08/07/2017 12:00      85.8      85.0       46     62.0      0.00      0.00      86.4     0.32      1013.0     4        14         7         2        9.07     310      547.9
   08/07/2017 11:50      85.3      83.9       47     61.9      0.00      0.00      86.3     0.32      1013.0     3         6         6       341        9.07     314      541.4
   08/07/2017 11:40      85.0      83.6       47     61.7      0.00      0.00      86.5     0.32      1013.0     3        29         6        19        9.07     320      533.4
   08/07/2017 11:30      84.1      83.5       47     61.6      0.00      0.00      86.3     0.32      1013.0     3        42         4        74        9.07     329      525.9
   08/07/2017 11:20      83.8      82.1       49     61.5      0.00      0.00      86.3     0.32      1013.0     2        33         4        24        9.07     338      517.2
   08/07/2017 11:10      82.1      81.3       50     61.3      0.00      0.00      86.3     0.32      1013.0     3        81         6        85        9.07     350      509.9
   08/07/2017 11:00      81.3      80.9       51     61.1      0.00      0.00      86.3     0.32      1013.0     4       345         5       357        9.07     366      496.8
   08/07/2017 10:50      81.3      81.0       50     60.9      0.00      0.00      86.7     0.32      1014.0     3        29         5       333        9.07     389      484.9
   08/07/2017 10:40      80.9      79.9       51     60.7      0.00      0.00      86.7     0.32      1014.0     3        35         6        73        9.07     417      472.0
   08/07/2017 10:30      80.4      79.7       51     60.5      0.00      0.00      86.5     0.32      1014.0     3        35         6       358        9.07     448      459.0
   08/07/2017 10:20      79.8      78.3       52     60.1      0.00      0.00      86.7     0.32      1014.0     3        37         4        11        9.07     471      444.3
   08/07/2017 10:10      78.5      78.2       54     60.0      0.00      0.00      86.6     0.32      1014.0     2        21         4         0        9.07     494      429.5
   08/07/2017 10:00      78.4      77.5       54     60.1      0.00      0.00      86.7     0.32      1014.0     3        33         5         5        9.07     509      412.4
   08/07/2017 09:50      77.9      76.2       57     60.2      0.00      0.00      86.7     0.32      1014.0     2        14         4       355        9.07     523      394.9
   08/07/2017 09:40      76.2      75.7       58     60.2      0.00      0.00      86.9     0.32      1014.0     2        28         4        19        9.07     540      378.5
   08/07/2017 09:30      75.8      74.5       60     60.4      0.00      0.00      86.7     0.32      1014.0     2       357         6         7        9.07     557      359.4
   08/07/2017 09:20      74.4      73.6       63     60.4      0.00      0.00      87.2     0.32      1014.0     3       356         4        19        9.07     569      341.2
   08/07/2017 09:10      73.8      73.3       63     60.3      0.00      0.00      87.0     0.32      1014.0     3        10         5       356        9.07     576      324.1
   08/07/2017 09:00      73.8      72.4       64     60.2      0.00      0.00      86.9     0.32      1014.0     2        27         3        15        9.07     594      309.0
   08/07/2017 08:50      72.5      71.2       66     59.9      0.00      0.00      86.8     0.32      1014.0     2        25         3         8        9.07     597      302.2
   08/07/2017 08:40      71.2      70.4       68     59.8      0.00      0.00      87.0     0.32      1014.0     3        39         4        16        9.07     576      103.8
   08/07/2017 08:30      70.5      70.0       69     59.6      0.00      0.00      87.1     0.32      1014.0     2        31         3        30        8.98     273       -1.9
   08/07/2017 08:20      70.1      69.2       71     59.7      0.00      0.00      87.1     0.32      1014.0     2        29         3        70        7.77     273      -24.6
   08/07/2017 08:10      69.3      68.8       71     59.4      0.00      0.00      87.2     0.32      1014.0     2        62         4       356        7.77     273       -9.3
   08/07/2017 08:00      68.9      68.1       73     59.3      0.00      0.00      87.2     0.32      1014.0     2        50         4        89        7.77     273       40.7
   08/07/2017 07:50      68.4      67.3       75     59.8      0.00      0.00      87.1     0.32      1014.0     2        53         3        44        7.77     273        6.4
   08/07/2017 07:40      67.4      66.8       77     59.8      0.00      0.00      87.4     0.32      1014.0     1       150         1       124        7.77     273      -31.1
   08/07/2017 07:30      67.0      66.4       78     59.7      0.00      0.00      87.0     0.33      1013.0     1       102         2       141        7.77     273      -31.8
   08/07/2017 07:20      66.5      65.8       80     59.8      0.00      0.00      87.4     0.33      1013.0     2        99         2        76        7.77     273      -32.1
   08/07/2017 07:10      66.0      65.2       81     59.8      0.00      0.00      87.5     0.33      1013.0     1       113         1       118        7.77     273      -32.2
   08/07/2017 07:00      65.3      64.7       83     59.6      0.00      0.00      87.5     0.33      1013.0     1        80         2        65        7.77     273      -30.1
   08/07/2017 06:50      64.6      63.6       83     58.8      0.00      0.00      87.4     0.33      1013.0     1        98         2        81        7.77     272      -34.6
   08/07/2017 06:40      63.7      63.1       84     58.4      0.00      0.00      87.3     0.33      1013.0     1       128         1       142        7.77     272      -33.0
   08/07/2017 06:30      63.3      63.0       84     58.3      0.00      0.00      87.4     0.33      1013.0     1       144         2       145        7.77     272      -37.9
   08/07/2017 06:20      63.3      63.1       84     58.4      0.00      0.00      87.7     0.33      1013.0     1       139         1       141        7.77     272      -43.7
   08/07/2017 06:10      63.3      62.9       85     58.4      0.00      0.00      87.6     0.33      1013.0     1       134         1       134        7.77     272      -47.4
   08/07/2017 06:00      63.0      62.8       85     58.3      0.00      0.00      87.6     0.33      1013.0     2       141         2       140        7.77     272      -50.3
   08/07/2017 05:50      63.2      62.8       85     58.4      0.00      0.00      87.9     0.33      1013.0     1       145         2       143        7.77     272      -51.2
   08/07/2017 05:40      63.2      62.7       84     58.0      0.00      0.00      87.9     0.33      1012.0     1       136         1       140        7.77     272      -53.2
   08/07/2017 05:30      63.3      63.0       84     58.4      0.00      0.00      87.6     0.33      1012.0     1       142         1       144        7.77     272      -52.9
   08/07/2017 05:20      63.3      62.7       84     58.0      0.00      0.00      87.8     0.33      1012.0     1       134         1       131        7.77     272      -56.1
   08/07/2017 05:10      63.3      62.9       84     58.3      0.00      0.00      88.1     0.33      1012.0     1       139         2       150        7.77     272      -56.8
   08/07/2017 05:00      63.1      62.8       83     57.8      0.00      0.00      88.4     0.33      1012.0     2       142         2       140        7.77     272      -58.2
   08/07/2017 04:50      63.4      63.2       83     58.0      0.00      0.00      88.3     0.33      1012.0     1       132         1       132        7.77     272      -58.6
   08/07/2017 04:40      63.5      63.2       83     58.0      0.00      0.00      88.2     0.33      1012.0     2       136         2       142        7.77     272      -59.0
   08/07/2017 04:30      63.8      63.4       82     58.1      0.00      0.00      88.1     0.33      1012.0     2       142         2       141        7.77     272      -59.7
   08/07/2017 04:20      64.3      64.0       82     58.7      0.00      0.00      87.9     0.33      1012.0     1       123         2       139        7.77     272      -58.3
   08/07/2017 04:10      64.6      64.1       82     58.7      0.00      0.00      87.6     0.33      1012.0     1       134         2       130        7.77     272      -59.6
   08/07/2017 04:00      64.5      64.3       82     58.8      0.00      0.00      88.1     0.33      1012.0     1       141         2       132        7.77     272      -59.4
   08/07/2017 03:50      64.6      64.2       82     58.8      0.00      0.00      88.3     0.33      1012.0     1       148         1       141        7.77     272      -59.6
   08/07/2017 03:40      64.7      64.4       81     58.5      0.00      0.00      88.4     0.33      1012.0     1       163         1       144        7.77     272      -60.3
   08/07/2017 03:30      65.0      64.8       80     58.5      0.00      0.00      88.4     0.33      1012.0     1       179         2       182        7.77     272      -60.4
   08/07/2017 03:20      65.3      65.1       80     58.8      0.00      0.00      88.2     0.33      1012.0     1       191         1       215        7.78     271      -60.1
   08/07/2017 03:10      65.6      65.3       79     58.9      0.00      0.00      88.4     0.33      1012.0     1       166         1       152        7.78     271      -60.1
   08/07/2017 03:00      65.6      65.3       79     58.8      0.00      0.00      88.4     0.33      1012.0     1       169         1       167        7.78     271      -60.0
   08/07/2017 02:50      65.7      65.3       78     58.4      0.00      0.00      88.4     0.33      1012.0     1       138         2       158        7.78     271      -60.0
   08/07/2017 02:40      65.9      65.7       77     58.4      0.00      0.00      88.8     0.33      1012.0     1       141         1       156        7.77     271      -59.9
   08/07/2017 02:30      66.0      65.8       77     58.7      0.00      0.00      88.5     0.33      1012.0     1       136         1       135        7.77     271      -60.0
   08/07/2017 02:20      66.2      65.9       77     58.6      0.00      0.00      88.5     0.33      1012.0     0       143         1       168        7.78     271      -59.0
   08/07/2017 02:10      66.5      66.1       76     58.5      0.00      0.00      88.3     0.33      1012.0     1        89         1       113        7.78     271      -60.3
   08/07/2017 02:00      66.8      66.5       75     58.7      0.00      0.00      88.6     0.33      1012.0     1        90         1        86        7.77     271      -60.3
   08/07/2017 01:50      66.8      66.7       75     58.6      0.00      0.00      88.6     0.33      1012.0     1       118         1       123        7.77     271      -61.2
   08/07/2017 01:40      67.2      67.0       75     58.8      0.00      0.00      88.6     0.33      1013.0     2       108         2       107        7.77     271      -62.4
   08/07/2017 01:30      67.2      67.0       75     58.7      0.00      0.00      88.9     0.33      1013.0     1        97         2       102        7.77     271      -62.5
   08/07/2017 01:20      67.3      67.1       74     58.6      0.00      0.00      88.6     0.33      1013.0     2       109         2       108        7.77     271      -62.6
   08/07/2017 01:10      68.0      67.4       73     58.6      0.00      0.00      88.7     0.33      1013.0     1       104         2        93        7.77     271      -62.8
   08/07/2017 01:00      68.0      67.8       73     58.9      0.00      0.00      88.9     0.33      1013.0     1       109         2       108        7.77     271      -63.9
   08/07/2017 00:50      68.4      68.0       72     58.9      0.00      0.00      88.7     0.33      1013.0     1       112         2       103        7.78     271      -63.9
   08/07/2017 00:40      68.6      68.3       72     59.1      0.00      0.00      88.7     0.33      1013.0     1       104         2        96        7.78     271      -64.9
   08/07/2017 00:30      68.9      68.6       72     59.3      0.00      0.00      89.0     0.33      1013.0     2        93         2       101        7.78     271      -64.4
   08/07/2017 00:20      69.0      68.7       72     59.4      0.00      0.00      88.8     0.33      1013.0     2        88         3        77        7.78     271      -64.2
   08/07/2017 00:10      69.1      69.0       71     59.5      0.00      0.00      88.7     0.33      1013.0     2        97         2        86        7.78     271      -63.9
   08/07/2017 00:00      69.3      69.1       71     59.2      0.00      0.00      89.1     0.33      1013.0     1        97         2        88        7.78     270      -65.1
   08/06/2017 23:50      69.7      69.3       70     59.3      0.00      0.00      89.1     0.33      1013.0     1        82         2        94        7.78     270      -65.2
   08/06/2017 23:40      69.9      69.7       69     59.2      0.00      0.00      89.1     0.33      1013.0     1        67         2        90        7.78     270      -65.4
   08/06/2017 23:30      70.2      69.9       68     59.2      0.00      0.00      88.7     0.33      1013.0     1        72         2        69        7.78     270      -65.8
   08/06/2017 23:20      70.3      70.2       68     59.1      0.00      0.00      89.0     0.33      1013.0     1        67         2        74        7.78     270      -65.8
   08/06/2017 23:10      70.7      70.3       67     58.9      0.00      0.00      89.0     0.33      1013.0     2        92         3        68        7.78     270      -65.4
   08/06/2017 23:00      71.0      70.7       65     58.6      0.00      0.00      89.3     0.33      1013.0     2        93         2       114        7.78     270      -65.3
   08/06/2017 22:50      71.3      71.0       64     58.4      0.00      0.00      88.9     0.33      1013.0     2        93         3        93        7.78     270      -65.4
   08/06/2017 22:40      71.5      71.2       63     58.1      0.00      0.00      88.8     0.33      1013.0     2        89         3        58        7.78     270      -65.1
   08/06/2017 22:30      72.0      71.5       62     57.9      0.00      0.00      89.2     0.33      1013.0     2        98         3        73        7.78     270      -65.3
   08/06/2017 22:20      72.3      72.0       60     57.7      0.00      0.00      89.1     0.33      1013.0     2        87         2        76        7.78     270      -65.7
   08/06/2017 22:10      72.6      72.3       59     57.6      0.00      0.00      89.1     0.33      1012.0     2        96         2        84        7.78     270      -65.8
   08/06/2017 22:00      73.3      72.9       58     57.4      0.00      0.00      89.1     0.33      1012.0     1       106         2        95        7.78     270      -66.4
   08/06/2017 21:50      73.8      73.3       57     57.3      0.00      0.00      89.0     0.33      1012.0     1        80         2        80        7.78     270      -66.6
   08/06/2017 21:40      74.3      73.8       56     57.3      0.00      0.00      89.0     0.33      1012.0     1        76         2        75        7.78     270      -67.0
   08/06/2017 21:30      74.9      74.4       55     57.6      0.00      0.00      89.1     0.33      1012.0     1        65         2        67        7.78     270      -67.4
   08/06/2017 21:20      75.2      75.0       55     58.0      0.00      0.00      89.1     0.33      1012.0     1       230         3       228        7.78     270      -67.7
   08/06/2017 21:10      75.4      75.1       55     58.0      0.00      0.00      89.2     0.33      1012.0     1       200         3       230        7.78     270      -68.5
   08/06/2017 21:00      75.8      75.5       55     58.2      0.00      0.00      89.2     0.33      1012.0     2       202         4       206        7.78     270      -68.6
   08/06/2017 20:50      76.4      75.9       54     58.4      0.00      0.00      89.0     0.33      1012.0     2       192         3       194        7.78     269      -69.2
   08/06/2017 20:40      76.8      76.4       54     58.7      0.00      0.00      89.0     0.33      1012.0     2       207         4       196        7.78     269      -69.6
   08/06/2017 20:30      77.3      76.8       54     59.0      0.00      0.00      89.0     0.33      1011.0     2       181         3       189        7.78     269      -70.2
   08/06/2017 20:20      77.9      77.3       53     59.2      0.00      0.00      88.8     0.33      1011.0     3       184         4       183        7.78     269      -70.2
   08/06/2017 20:10      78.5      77.8       53     59.4      0.00      0.00      88.9     0.33      1011.0     2       179         4       188        7.78     269      -71.1
   08/06/2017 20:00      79.4      78.6       52     59.7      0.00      0.00      88.8     0.33      1011.0     2       172         4       178        7.78     269      -70.8
   08/06/2017 19:50      79.9      79.3       51     59.8      0.00      0.00      88.8     0.33      1011.0     2       174         3       176        7.78     269      -68.2
   08/06/2017 19:40      80.8      80.2       50     60.0      0.00      0.00      88.9     0.33      1011.0     3       196         4       248        7.78     269      -64.6
   08/06/2017 19:30      82.3      81.1       48     60.1      0.00      0.00      89.1     0.33      1011.0     3       211         4       218        7.78     269      -60.5
   08/06/2017 19:20      82.8      82.3       47     60.1      0.00      0.00      88.8     0.33      1011.0     4       252         7       260        7.78     269      -46.2
   08/06/2017 19:10      83.3      82.5       46     60.0      0.00      0.00      88.9     0.33      1011.0     4       259         7       263        7.78     269      -31.6
   08/06/2017 19:00      83.8      83.4       45     59.9      0.00      0.00      88.9     0.33      1011.0     4       262         6       260        7.78     269      -15.2
   08/06/2017 18:50      84.5      83.7       44     59.6      0.00      0.00      88.7     0.33      1011.0     4       283         6       295        7.78     269        4.0
   08/06/2017 18:40      84.6      84.1       43     59.7      0.00      0.00      88.8     0.32      1010.0     3       303         6       321        7.78     269       25.0
   08/06/2017 18:30      84.7      84.0       43     59.7      0.00      0.00      88.8     0.32      1010.0     5       318         8       316        7.78     269       47.9
   08/06/2017 18:20      85.1      84.9       43     59.9      0.00      0.00      88.7     0.32      1010.0     5       312         6       318        7.78     269       72.3
   08/06/2017 18:10      85.9      85.0       43     60.1      0.00      0.00      88.6     0.32      1010.0     6       304         8       306        7.78     268       93.5
   08/06/2017 18:00      86.7      86.1       42     60.4      0.00      0.00      88.8     0.32      1010.0     5       310         8       297        7.78     269      117.3
   08/06/2017 17:50      86.9      86.4       42     60.7      0.00      0.00      88.5     0.32      1010.0     5       305         7       314        7.78     269      139.2
   08/06/2017 17:40      87.5      86.8       41     60.9      0.00      0.00      88.6     0.32      1010.0     6       320         9       321        7.78     268      163.5
   08/06/2017 17:30      88.3      87.5       40     60.8      0.00      0.00      88.6     0.32      1010.0     5       331         7       348        7.79     269      186.0
   08/06/2017 17:20      88.3      87.3       39     59.9      0.00      0.00      88.4     0.32      1011.0     5       349         8       351        7.79     269      210.7
   08/06/2017 17:10      87.8      87.0       41     60.7      0.00      0.00      88.4     0.32      1010.0     7       281        10       285        7.79     269      237.0
   08/06/2017 17:00      87.5      86.5       43     61.6      0.00      0.00      88.4     0.32      1011.0     5       194         7       250        7.79     269      259.7
   08/06/2017 16:50      87.5      86.9       42     61.6      0.00      0.00      88.3     0.32      1011.0     5       168         7       225        7.79     269      280.6
   08/06/2017 16:40      87.4      86.9       43     61.9      0.00      0.00      88.4     0.32      1011.0     4       159         7       139        7.79     269      301.7
   08/06/2017 16:30      87.5      87.2       43     62.1      0.00      0.00      88.1     0.32      1011.0     5       152         8       134        7.79     269      321.8
   08/06/2017 16:20      88.1      87.0       43     62.0      0.00      0.00      88.0     0.32      1011.0     5       179         9       168        7.79     269      344.4
   08/06/2017 16:10      88.4      87.4       42     62.1      0.00      0.00      88.1     0.32      1011.0     4       170         5       209        7.79     269      362.8
   08/06/2017 16:00      88.6      87.4       42     62.0      0.00      0.00      88.0     0.32      1011.0     4       186         7       150        7.79     269      381.6
   08/06/2017 15:50      87.5      86.6       43     61.7      0.00      0.00      87.9     0.32      1011.0     4       169         7       179        7.79     269      399.5
   08/06/2017 15:40      87.1      86.7       42     61.3      0.00      0.00      87.9     0.32      1011.0     6       144         9       129        7.79     269      416.5
   08/06/2017 15:30      87.2      86.8       42     61.4      0.00      0.00      87.7     0.32      1011.0     4       159         5       134        7.79     269      428.0
   08/06/2017 15:20      88.0      86.7       42     61.1      0.00      0.00      87.8     0.32      1011.0     4       202         7       199        7.79     269      444.4
   08/06/2017 15:10      87.7      87.0       40     60.3      0.00      0.00      87.7     0.32      1011.0     5       124        10       155        7.79     269      458.4
   08/06/2017 15:00      87.7      86.7       40     59.8      0.00      0.00      87.6     0.32      1012.0     7       120         8       166        7.79     269      472.2
   08/06/2017 14:50      87.5      86.6       40     59.8      0.00      0.00      87.6     0.32      1012.0     6       117         8       126        7.79     269      487.9
   08/06/2017 14:40      88.9      86.9       39     59.9      0.00      0.00      87.7     0.32      1012.0     6       134         8       133        7.79     269      496.5
   08/06/2017 14:30      89.6      88.2       38     60.2      0.00      0.00      87.6     0.32      1012.0     5        90         7        65        7.79     269      505.1
   08/06/2017 14:20      89.3      88.1       39     60.3      0.00      0.00      87.5     0.32      1012.0     4        67         7        72        7.79     270      513.2
   08/06/2017 14:10      89.6      88.2       38     60.3      0.00      0.00      87.5     0.32      1012.0     5        74         6        75        7.79     270      520.7
   08/06/2017 14:00      89.0      87.4       39     60.3      0.00      0.00      87.4     0.32      1012.0     4       104         7       138        7.79     270      528.5
   08/06/2017 13:50      88.6      87.4       39     60.3      0.00      0.00      87.5     0.32      1012.0     4       108         7        88        7.79     270      534.7
   08/06/2017 13:40      88.3      87.0       41     60.9      0.00      0.00      87.3     0.32      1012.0     3        70         6       124        7.79     270      538.8
   08/06/2017 13:30      88.1      87.7       41     61.1      0.00      0.00      87.3     0.32      1012.0     4        54         6        82        7.79     270      544.8
   08/06/2017 13:20      88.2      87.3       40     60.6      0.00      0.00      87.4     0.32      1012.0     4        29         6       348        7.79     270      548.5
   08/06/2017 13:10      88.3      87.1       40     60.4      0.00      0.00      87.2     0.32      1012.0     4        44         7        86        7.79     270      552.3
   08/06/2017 13:00      87.7      86.4       40     60.1      0.00      0.00      87.2     0.32      1012.0     4         3         8       358        7.80     270      553.0
   08/06/2017 12:50      86.6      86.2       41     59.9      0.00      0.00      87.1     0.32      1012.0     3        21         5        70        7.80     270      554.3
   08/06/2017 12:40      86.3      85.3       42     59.8      0.00      0.00      87.0     0.32      1012.0     5        47         6        34        7.80     270      554.8
   08/06/2017 12:30      86.0      85.2       41     59.4      0.00      0.00      86.9     0.32      1012.0     3        23         4       109        7.80     270      550.2
   08/06/2017 12:20      85.7      85.0       41     59.2      0.00      0.00      87.1     0.32      1013.0     4        27         6       323        7.80     270      548.0
   08/06/2017 12:10      85.5      84.7       41     58.9      0.00      0.00      87.4     0.32      1013.0     3         6         5        32        7.80     271      542.7
   08/06/2017 12:00      84.9      83.5       42     58.7      0.00      0.00      87.1     0.32      1013.0     3         9         5        64        7.80     271      538.2
   08/06/2017 11:50      83.5      82.2       44     58.4      0.00      0.00      87.1     0.32      1013.0     5        39         6       113        7.80     271      532.6
   08/06/2017 11:40      83.2      82.3       44     58.7      0.00      0.00      86.9     0.32      1013.0     4       356         7       358        7.80     271      522.3
   08/06/2017 11:30      83.4      82.4       44     58.8      0.00      0.00      87.2     0.32      1013.0     3        27         6        84        7.80     271      513.2
   08/06/2017 11:20      82.7      81.9       43     58.0      0.00      0.00      87.1     0.32      1013.0     3        19         5        66        7.80     271      505.8
   08/06/2017 11:10      83.0      81.6       44     58.2      0.00      0.00      87.4     0.32      1013.0     3         5         6       353        7.80     272      494.9
   08/06/2017 11:00      81.6      80.5       47     59.1      0.00      0.00      87.2     0.32      1013.0     3        23         5       336        7.80     272      484.0
   08/06/2017 10:50      80.9      80.1       50     60.3      0.00      0.00      87.0     0.32      1013.0     3        14         6       359        7.80     272      471.1
   08/06/2017 10:40      80.4      78.5       51     60.2      0.00      0.00      87.2     0.32      1013.0     2       358         4        69        7.80     272      455.3
   08/06/2017 10:30      79.2      78.0       53     60.3      0.00      0.00      87.0     0.32      1013.0     4       354         6         9        7.80     273      443.1
   08/06/2017 10:20      78.1      77.5       56     61.0      0.00      0.00      86.9     0.32      1013.0     3        52         5         8        7.80     273      425.8
   08/06/2017 10:10      77.2      76.4       59     61.5      0.00      0.00      87.4     0.32      1013.0     2        16         4         8        7.80     274      411.3
   08/06/2017 10:00      76.5      75.6       61     61.6      0.00      0.00      87.3     0.32      1013.0     3       353         6         4        7.80     274      399.4
   08/06/2017 09:50      75.5      74.7       64     61.9      0.00      0.00      87.1     0.32      1013.0     3        10         4        21        7.81     274      376.1
   08/06/2017 09:40      74.9      74.5       65     62.3      0.00      0.00      87.4     0.32      1013.0     3         8         6       347        7.81     273      356.8
   08/06/2017 09:30      75.3      73.8       66     62.5      0.00      0.00      87.2     0.32      1013.0     3        25         5        72        7.81     274      336.9
   08/06/2017 09:20      73.8      73.2       68     62.5      0.00      0.00      87.4     0.32      1013.0     3        32         4        33        7.81     274      311.1
   08/06/2017 09:10      73.4      72.7       69     62.4      0.00      0.00      87.7     0.32      1013.0     2        73         3        82        7.81     274      290.6
   08/06/2017 09:00      72.5      71.0       72     62.5      0.00      0.00      87.5     0.32      1013.0     2        70         3        55        7.81     274      275.2
   08/06/2017 08:50      71.3      70.3       75     62.4      0.00      0.00      87.1     0.32      1013.0     2        75         4        79        7.81     274      226.3
   08/06/2017 08:40      70.2      69.3       77     62.3      0.00      0.00      87.5     0.32      1013.0     3       134         4       132        7.81     274      142.8
   08/06/2017 08:30      69.3      68.9       79     62.3      0.00      0.00      87.6     0.32      1013.0     2       126         4       108        7.81     274       61.6
   08/06/2017 08:20      69.2      68.7       80     62.3      0.00      0.00      87.4     0.33      1013.0     2        91         3        79        7.81     274       53.2
   08/06/2017 08:10      69.0      68.0       81     62.4      0.00      0.00      87.8     0.32      1013.0     2       110         4       143        7.81     274       74.4
   08/06/2017 08:00      68.2      67.8       82     62.3      0.00      0.00      87.3     0.33      1013.0     3       144         4       160        7.81     274       59.1
   08/06/2017 07:50      68.2      68.0       82     62.4      0.00      0.00      87.7     0.33      1013.0     3       152         4       141        7.81     274       50.5
   08/06/2017 07:40      68.0      67.7       83     62.3      0.00      0.00      87.7     0.33      1013.0     2       148         3       136        7.81     274       37.1
   08/06/2017 07:30      67.8      67.4       83     62.3      0.00      0.00      88.0     0.33      1013.0     2       158         3       162        7.81     274       34.7
   08/06/2017 07:20      67.6      67.3       84     62.3      0.00      0.00      87.8     0.33      1013.0     1       186         2       134        7.81     274       23.3
   08/06/2017 07:10      67.4      67.1       84     62.4      0.00      0.00      88.1     0.33      1013.0     1       281         3       357        7.81     274       15.4
   08/06/2017 07:00      67.4      66.7       85     62.4      0.00      0.00      87.9     0.33      1013.0     1       312         2       291        7.81     274        8.9
   08/06/2017 06:50      66.9      66.5       85     62.2      0.00      0.00      88.0     0.33      1013.0     2       217         4       134        7.81     274        0.4
   08/06/2017 06:40      66.8      66.6       85     62.2      0.00      0.00      87.6     0.33      1013.0     2       147         3       133        7.81     274       -4.4
   08/06/2017 06:30      66.8      66.6       85     62.2      0.00      0.00      87.9     0.33      1013.0     2       149         3       126        7.81     273       -8.8
   08/06/2017 06:20      66.9      66.7       85     62.2      0.00      0.00      88.0     0.33      1013.0     2       236         2       220        7.81     273      -11.1
   08/06/2017 06:10      66.9      66.6       85     62.2      0.00      0.00      88.1     0.33      1013.0     1       245         2       249        7.81     273      -12.3
   08/06/2017 06:00      66.8      66.7       85     62.1      0.00      0.00      88.1     0.33      1012.0     1       109         3        21        7.82     273      -13.1
   08/06/2017 05:50      66.9      66.8       84     62.0      0.00      0.00      88.2     0.33      1012.0     2       121         4       134        7.82     273      -13.4
   08/06/2017 05:40      67.3      67.1       83     62.0      0.00      0.00      87.8     0.33      1012.0     2        93         3        71        7.82     273      -17.1
   08/06/2017 05:30      67.3      67.0       83     61.9      0.00      0.00      88.1     0.33      1012.0     2        65         2        78        7.82     273      -17.1
   08/06/2017 05:20      67.2      66.9       84     62.0      0.00      0.00      88.2     0.33      1012.0     1        85         3        79        7.82     273      -21.1
   08/06/2017 05:10      67.3      67.0       84     62.0      0.00      0.00      88.0     0.33      1012.0     2        99         3        99        7.82     273      -21.4
   08/06/2017 05:00      67.3      67.0       83     61.9      0.00      0.00      87.8     0.33      1012.0     2        81         4        76        7.82     273      -20.7
   08/06/2017 04:50      67.2      67.0       84     62.0      0.00      0.00      88.3     0.33      1012.0     2        59         4        77        7.82     273      -23.1
   08/06/2017 04:40      67.2      66.9       84     62.0      0.00      0.00      88.2     0.33      1012.0     2        40         3        23        7.82     273      -28.0
   08/06/2017 04:30      67.1      66.9       84     62.0      0.00      0.00      88.4     0.33      1012.0     2        39         2       356        7.82     273      -33.3
   08/06/2017 04:20      67.1      66.7       84     61.9      0.00      0.00      88.4     0.33      1012.0     1        58         2        66        7.82     273      -34.0
   08/06/2017 04:10      67.0      66.7       84     61.8      0.00      0.00      88.1     0.33      1012.0     2        54         2        50        7.82     273      -43.3
   08/06/2017 04:00      67.1      66.8       84     61.8      0.00      0.00      88.4     0.33      1012.0     2        60         3        87        7.82     273      -52.2
   08/06/2017 03:50      67.2      66.9       83     61.8      0.00      0.00      88.4     0.33      1012.0     1        53         2        29        7.82     273      -54.0
   08/06/2017 03:40      67.2      67.1       83     61.9      0.00      0.00      88.3     0.33      1012.0     1        30         2        20        7.82     273      -54.5
   08/06/2017 03:30      67.3      67.1       83     61.9      0.00      0.00      88.5     0.33      1012.0     2        45         2        46        7.82     273      -54.4
   08/06/2017 03:20      67.3      67.1       83     61.9      0.00      0.00      88.8     0.33      1012.0     2        42         2        16        7.82     273      -54.6
   08/06/2017 03:10      67.4      67.1       83     61.8      0.00      0.00      88.6     0.33      1012.0     2        59         3        73        7.82     273      -54.9
   08/06/2017 03:00      67.5      67.3       82     61.9      0.00      0.00      88.8     0.33      1013.0     1        40         2        37        7.82     273      -55.3
   08/06/2017 02:50      67.7      67.5       82     61.8      0.00      0.00      88.9     0.33      1013.0     1        55         2       352        7.82     273      -55.6
   08/06/2017 02:40      67.8      67.6       82     61.9      0.00      0.00      88.7     0.33      1013.0     2        52         3        40        7.82     272      -56.0
   08/06/2017 02:30      67.8      67.6       81     61.9      0.00      0.00      88.6     0.33      1013.0     2        40         3        65        7.82     272      -56.1
   08/06/2017 02:20      68.0      67.8       81     61.9      0.00      0.00      88.7     0.33      1013.0     1        59         3        73        7.82     272      -56.1
   08/06/2017 02:10      68.1      67.9       81     61.8      0.00      0.00      88.7     0.33      1013.0     2        71         2        68        7.82     272      -56.4
   08/06/2017 02:00      68.1      68.0       80     61.8      0.00      0.00      88.8     0.33      1013.0     2        54         4        69        7.82     272      -56.5
   08/06/2017 01:50      68.5      68.1       79     61.7      0.00      0.00      88.7     0.33      1013.0     2        82         5        79        7.82     272      -56.8
   08/06/2017 01:40      68.7      68.5       79     61.7      0.00      0.00      88.7     0.33      1013.0     2        70         4        76        7.82     272      -57.3
   08/06/2017 01:30      68.8      68.5       78     61.6      0.00      0.00      88.7     0.33      1013.0     2        72         3        89        7.82     272      -57.1
   08/06/2017 01:20      69.0      68.8       78     61.6      0.00      0.00      88.8     0.33      1013.0     1        52         2        77        7.82     272      -57.9
   08/06/2017 01:10      69.3      69.1       77     61.7      0.00      0.00      88.9     0.33      1013.0     2        68         2        68        7.82     272      -58.0
   08/06/2017 01:00      69.6      69.3       76     61.7      0.00      0.00      88.8     0.33      1013.0     2        67         3        79        7.82     272      -59.0
   08/06/2017 00:50      69.9      69.6       75     61.6      0.00      0.00      88.9     0.33      1013.0     2        51         3        26        7.82     272      -59.7
   08/06/2017 00:40      70.0      69.7       75     61.6      0.00      0.00      88.8     0.33      1013.0     2        65         3        71        7.82     271      -60.3
   08/06/2017 00:30      70.3      70.1       74     61.6      0.00      0.00      89.0     0.33      1013.0     2        64         4        75        7.82     271      -60.4
   08/06/2017 00:20      70.8      70.2       73     61.6      0.00      0.00      89.1     0.33      1013.0     3        61         4        78        7.82     271      -60.6
   08/06/2017 00:10      71.1      70.8       72     61.5      0.00      0.00      89.1     0.33      1013.0     2        53         2        66        7.82     271      -60.7
   08/06/2017 00:00      71.3      71.1       71     61.2      0.00      0.00      89.2     0.33      1013.0     2        58         2        36        7.82     271      -61.2
   08/05/2017 23:50      71.4      71.1       68     60.2      0.00      0.00      89.1     0.33      1013.0     1        53         2        41        7.82     271      -60.7
   08/05/2017 23:40      71.6      71.3       68     60.5      0.00      0.00      89.5     0.33      1013.0     1        84         2        99        7.82     271      -60.7
   08/05/2017 23:30      71.6      71.4       68     60.6      0.00      0.00      89.1     0.33      1013.0     1        90         2        79        7.82     271      -60.6
   08/05/2017 23:20      71.8      71.5       67     60.2      0.00      0.00      89.3     0.33      1013.0     1        78         2        75        7.82     270      -60.4
   08/05/2017 23:10      72.0      71.8       67     60.1      0.00      0.00      89.3     0.33      1013.0     1        87         2        84        7.82     270      -60.8
   08/05/2017 23:00      72.3      71.9       66     60.3      0.00      0.00      89.1     0.33      1013.0     1        87         2        39        7.82     270      -61.7
   08/05/2017 22:50      72.5      72.2       66     60.2      0.00      0.00      89.3     0.33      1013.0     1       107         2        92        7.82     270      -63.2
   08/05/2017 22:40      73.0      72.5       65     60.3      0.00      0.00      89.2     0.33      1013.0     1        84         1        88        7.82     270      -64.1
   08/05/2017 22:30      73.3      73.1       64     60.5      0.00      0.00      89.2     0.33      1013.0     1        69         2        82        7.82     270      -64.7
   08/05/2017 22:20      73.8      73.3       64     60.5      0.00      0.00      89.3     0.33      1013.0     1        36         3        36        7.82     270      -64.7
   08/05/2017 22:10      74.4      73.8       61     59.8      0.00      0.00      89.3     0.33      1013.0     2        54         2        35        7.82     270      -64.6
   08/05/2017 22:00      74.4      74.2       55     57.1      0.00      0.00      89.1     0.33      1013.0     2        76         2        77        7.82     270      -63.4
   08/05/2017 21:50      74.6      74.4       55     57.4      0.00      0.00      89.2     0.33      1013.0     2       103         2       150        7.82     270      -62.6
   08/05/2017 21:40      74.9      74.6       55     57.8      0.00      0.00      89.1     0.33      1013.0     2       163         4       179        7.82     270      -63.1
   08/05/2017 21:30      75.1      74.8       56     58.2      0.00      0.00      89.2     0.33      1012.0     3       172         4       156        7.82     270      -63.4
   08/05/2017 21:20      75.3      75.0       56     58.6      0.00      0.00      89.2     0.33      1012.0     3       182         5       190        7.82     270      -63.5
   08/05/2017 21:10      75.6      75.3       57     59.3      0.00      0.00      89.3     0.33      1012.0     4       178         6       172        7.82     270      -63.8
   08/05/2017 21:00      75.9      75.7       58     59.9      0.00      0.00      89.3     0.33      1012.0     3       182         4       205        7.82     270      -64.0
   08/05/2017 20:50      76.2      75.8       58     60.2      0.00      0.00      89.0     0.33      1012.0     2       185         3       159        7.82     270      -64.5
   08/05/2017 20:40      76.4      76.1       58     60.4      0.00      0.00      89.2     0.33      1012.0     4       197         5       220        7.83     270      -64.8
   08/05/2017 20:30      76.5      76.2       58     60.5      0.00      0.00      89.1     0.33      1012.0     4       181         6       177        7.83     270      -65.4
   08/05/2017 20:20      77.2      76.7       58     61.0      0.00      0.00      89.0     0.33      1012.0     4       186         5       187        7.83     270      -66.4
   08/05/2017 20:10      77.5      77.2       58     61.4      0.00      0.00      89.0     0.33      1012.0     4       183         6       183        7.83     270      -66.9
   08/05/2017 20:00      78.4      77.6       57     61.5      0.00      0.00      88.9     0.33      1011.0     3       175         4       187        7.83     270      -67.1
   08/05/2017 19:50      79.0      78.4       56     61.4      0.00      0.00      89.0     0.33      1011.0     4       179         8       185        7.83     269      -64.7
   08/05/2017 19:40      79.7      79.2       54     61.3      0.00      0.00      89.0     0.33      1011.0     3       199         4       215        7.83     269      -60.9
   08/05/2017 19:30      80.4      79.8       52     60.8      0.00      0.00      89.1     0.33      1011.0     4       181         6       200        7.83     269      -55.8
   08/05/2017 19:20      81.5      80.6       49     60.3      0.00      0.00      89.0     0.33      1011.0     5       166         7       179        7.83     269      -42.7
   08/05/2017 19:10      82.3      81.7       47     59.7      0.00      0.00      89.2     0.33      1011.0     4       169         7       168        7.83     269      -29.6
   08/05/2017 19:00      84.0      82.5       45     59.8      0.00      0.00      89.0     0.33      1011.0     4       178         5       180        7.83     269      -12.7
   08/05/2017 18:50      84.2      83.8       44     59.6      0.00      0.00      88.9     0.33      1011.0     4       192         6       225        7.83     269        7.4
   08/05/2017 18:40      84.6      84.1       42     59.0      0.00      0.00      89.0     0.33      1011.0     4       169         6       167        7.84     269       29.2
   08/05/2017 18:30      85.2      84.8       41     59.0      0.00      0.00      88.8     0.33      1011.0     4       169         6       156        7.84     268       51.1
   08/05/2017 18:20      85.5      85.0       42     59.4      0.00      0.00      89.0     0.32      1010.0     5       176         8       161        7.84     268       73.9
   08/05/2017 18:10      85.5      85.1       42     59.6      0.00      0.00      88.8     0.32      1010.0     4       167         5       165        7.84     268       97.6
   08/05/2017 18:00      86.1      85.6       42     59.9      0.00      0.00      88.8     0.32      1010.0     5       169         7       167        7.84     268      119.7
   08/05/2017 17:50      86.2      85.6       42     60.2      0.00      0.00      88.7     0.32      1010.0     5       180         6       198        7.84     268      143.1
   08/05/2017 17:40      86.2      85.9       42     60.3      0.00      0.00      88.8     0.32      1010.0     5       189         6       159        7.85     268      166.9
   08/05/2017 17:30      86.6      86.1       41     60.3      0.00      0.00      88.6     0.32      1011.0     5       176         7       201        7.85     268      189.8
   08/05/2017 17:20      87.3      86.6       41     60.4      0.00      0.00      88.6     0.32      1011.0     5       173         6       161        7.85     269      211.7
   08/05/2017 17:10      87.0      86.3       41     60.0      0.00      0.00      88.6     0.32      1011.0     6       167         9       188        7.85     268      236.0
   08/05/2017 17:00      86.8      86.4       41     60.3      0.00      0.00      88.6     0.32      1011.0     7       155        11       155        7.86     269      258.3
   08/05/2017 16:50      88.1      86.7       40     60.3      0.00      0.00      88.4     0.32      1011.0     6       162         8       183        7.86     268      279.3
   08/05/2017 16:40      88.1      87.2       41     61.3      0.00      0.00      88.5     0.32      1011.0     5       162         6       134        7.86     269      299.9
   08/05/2017 16:30      88.3      87.6       41     61.3      0.00      0.00      88.2     0.32      1011.0     6       180        10       162        7.86     269      320.8
   08/05/2017 16:20      89.1      87.8       40     61.2      0.00      0.00      88.2     0.32      1011.0     5       173         7       195        7.87     269      339.7
   08/05/2017 16:10      89.2      88.6       40     61.5      0.00      0.00      88.1     0.32      1011.0     5       164         8       169        7.87     269      357.0
   08/05/2017 16:00      89.3      88.8       40     61.7      0.00      0.00      88.2     0.32      1011.0     5       171         7       135        7.88     269      376.9
   08/05/2017 15:50      90.1      89.1       40     61.9      0.00      0.00      88.0     0.32      1011.0     4       173         6       203        7.88     269      395.6
   08/05/2017 15:40      90.2      89.3       39     61.7      0.00      0.00      88.1     0.32      1011.0     4       107         6        87        7.89     269      409.3
   08/05/2017 15:30      89.6      87.6       40     61.5      0.00      0.00      87.9     0.32      1011.0     5       123         8       137        7.89     269      425.6
   08/05/2017 15:20      89.6      87.6       41     61.5      0.00      0.00      87.9     0.32      1011.0     4       138         8       135        7.89     269      441.8
   08/05/2017 15:10      88.5      87.9       41     61.5      0.00      0.00      87.9     0.32      1011.0     6       147        11       159        7.89     269      455.9
   08/05/2017 15:00      88.2      87.6       42     61.7      0.00      0.00      87.9     0.32      1011.0     4       126         8       129        7.90     269      469.9
   08/05/2017 14:50      89.3      87.9       41     61.7      0.00      0.00      87.8     0.32      1011.0     5        96         8        71        7.90     269      480.5
   08/05/2017 14:40      91.0      89.4       38     61.4      0.00      0.00      87.8     0.32      1011.0     5        89         8       113        7.90     269      490.4
   08/05/2017 14:30      91.3      90.5       38     61.8      0.00      0.00      87.7     0.32      1012.0     5        79         7        74        7.90     269      497.2
   08/05/2017 14:20      90.7      89.9       39     62.3      0.00      0.00      87.6     0.32      1012.0     3        74         7        88        7.90     270      509.1
   08/05/2017 14:10      90.9      90.4       39     62.1      0.00      0.00      87.5     0.32      1012.0     6        72        10        75        7.90     270      518.0
   08/05/2017 14:00      91.7      89.7       38     61.9      0.00      0.00      87.4     0.32      1012.0     5        14         7       349        7.90     270      520.9
   08/05/2017 13:50      91.8      90.4       37     61.0      0.00      0.00      87.4     0.32      1012.0     2        14         4         1        7.90     270      526.4
   08/05/2017 13:40      90.3      89.2       38     60.8      0.00      0.00      87.3     0.32      1012.0     4        36         6        76        7.90     270      534.2
   08/05/2017 13:30      89.8      88.4       39     60.8      0.00      0.00      87.5     0.32      1012.0     3        14         4        65        7.91     270      539.8
   08/05/2017 13:20      89.7      88.4       39     60.7      0.00      0.00      87.4     0.32      1012.0     3        17         4        71        7.91     270      543.7
   08/05/2017 13:10      88.7      87.8       40     60.8      0.00      0.00      87.2     0.32      1012.0     3        48         4        60        7.91     271      545.1
   08/05/2017 13:00      87.9      87.3       41     60.9      0.00      0.00      87.2     0.32      1013.0     3         9         5        34        7.91     270      550.8
   08/05/2017 12:50      87.7      86.7       42     60.9      0.00      0.00      87.5     0.32      1013.0     2       110         3        34        7.91     270      551.4
   08/05/2017 12:40      86.7      84.7       44     61.0      0.00      0.00      87.4     0.32      1013.0     3        36         5         7        7.91     271      552.9
   08/05/2017 12:30      85.5      84.5       44     60.9      0.00      0.00      87.1     0.32      1013.0     4         1         6       353        7.91     271      549.6
   08/05/2017 12:20      85.0      84.3       45     61.2      0.00      0.00      87.0     0.32      1013.0     3         6         5       347        7.93     271      544.8
   08/05/2017 12:10      85.0      83.9       46     61.4      0.00      0.00      87.4     0.32      1013.0     3        26         5        23        7.93     271      541.6
   08/05/2017 12:00      85.0      83.5       47     61.7      0.00      0.00      87.4     0.32      1013.0     3        56         4        66        7.93     271      535.3
   08/05/2017 11:50      83.5      83.0       48     61.8      0.00      0.00      87.2     0.32      1013.0     3         6         6        73        7.93     271      527.1
   08/05/2017 11:40      83.9      83.1       48     62.0      0.00      0.00      87.1     0.32      1013.0     4        30         6       352        7.93     271      519.1
   08/05/2017 11:30      83.5      83.0       49     61.9      0.00      0.00      87.3     0.32      1013.0     4        29         7        23        7.93     271      511.1
   08/05/2017 11:20      82.7      81.3       51     61.8      0.00      0.00      87.4     0.32      1013.0     3        50         6        76        7.93     271      504.5
   08/05/2017 11:10      81.8      80.7       51     61.7      0.00      0.00      87.3     0.32      1013.0     3        31         6        60        7.93     272      493.8
   08/05/2017 11:00      81.7      80.5       52     61.7      0.00      0.00      87.5     0.32      1013.0     4        35         6         5        7.93     272      481.5
   08/05/2017 10:50      81.4      79.3       53     61.6      0.00      0.00      87.5     0.32      1014.0     3        44         5        65        7.94     272      468.1
   08/05/2017 10:40      79.5      79.1       54     61.1      0.00      0.00      87.4     0.32      1014.0     3        36         5        30        7.94     272      452.2
   08/05/2017 10:30      79.4      78.0       54     60.9      0.00      0.00      87.5     0.32      1014.0     3        61         8        81        7.94     273      440.1
   08/05/2017 10:20      78.2      77.4       56     60.9      0.00      0.00      87.3     0.32      1014.0     4        19         6         6        7.94     273      422.4
   08/05/2017 10:10      77.6      77.1       56     60.6      0.00      0.00      87.5     0.32      1014.0     2        36         4        33        7.94     274      405.5
   08/05/2017 10:00      77.5      76.6       56     60.2      0.00      0.00      87.9     0.32      1014.0     3        26         4        10        7.94     274      389.2
   08/05/2017 09:50      76.5      75.6       58     60.5      0.00      0.00      87.4     0.32      1014.0     2        69         4        79        7.94     273      373.9
   08/05/2017 09:40      75.8      75.2       61     61.0      0.00      0.00      87.7     0.32      1014.0     2        52         4        81        7.94     273      350.6
   08/05/2017 09:30      75.6      74.8       61     61.0      0.00      0.00      87.5     0.32      1014.0     2        25         5        88        7.94     273      333.2
   08/05/2017 09:20      74.6      72.2       65     61.1      0.00      0.00      87.3     0.32      1014.0     2        99         3        77        7.94     273      314.1
   08/05/2017 09:10      72.3      71.5       69     61.3      0.00      0.00      87.6     0.32      1014.0     2        10         4        33        7.94     273      290.4
   08/05/2017 09:00      71.4      70.4       71     61.2      0.00      0.00      87.8     0.32      1014.0     2        37         3        45        7.94     273      281.2
   08/05/2017 08:50      70.5      70.1       73     61.2      0.00      0.00      87.5     0.33      1014.0     3        18         4        21        7.94     273      274.4
   08/05/2017 08:40      70.0      69.6       74     61.1      0.00      0.00      87.9     0.33      1014.0     2        27         3        19        7.94     273      137.6
   08/05/2017 08:30      69.7      69.1       75     61.2      0.00      0.00      88.0     0.33      1014.0     3        22         5         6        7.95     273       86.5
   08/05/2017 08:20      69.3      68.8       76     61.2      0.00      0.00      87.8     0.33      1014.0     2        32         4        29        7.95     273       92.2
   08/05/2017 08:10      69.0      68.3       77     61.0      0.00      0.00      87.9     0.33      1014.0     3        69         4        74        7.95     273       78.1
   08/05/2017 08:00      68.5      68.0       77     60.9      0.00      0.00      87.9     0.33      1014.0     2        78         3        77        7.95     273       54.0
   08/05/2017 07:50      68.0      67.3       79     61.0      0.00      0.00      87.9     0.33      1014.0     2        60         3        91        7.95     273       46.8
   08/05/2017 07:40      67.5      67.1       80     61.0      0.00      0.00      88.1     0.33      1014.0     2       110         3        97        7.95     273       16.9
   08/05/2017 07:30      67.3      67.1       80     60.8      0.00      0.00      87.9     0.33      1014.0     1       124         2       119        7.95     273        3.1
   08/05/2017 07:20      67.2      66.7       80     60.5      0.00      0.00      88.2     0.33      1014.0     1       107         2       115        7.95     273       -7.7
   08/05/2017 07:10      66.8      66.5       80     60.2      0.00      0.00      87.9     0.33      1014.0     1       146         1       139        7.95     273      -21.5
   08/05/2017 07:00      66.6      66.3       81     60.4      0.00      0.00      87.8     0.33      1014.0     1       113         2       133        7.96     273      -26.2
   08/05/2017 06:50      66.5      66.2       82     60.5      0.00      0.00      88.7     0.33      1014.0     1       109         2       134        7.96     273      -33.0
   08/05/2017 06:40      66.2      65.9       83     60.6      0.00      0.00      88.1     0.33      1014.0     2        84         2        58        7.96     273      -38.3
   08/05/2017 06:30      66.1      65.7       84     60.8      0.00      0.00      88.5     0.33      1014.0     2       100         3       134        7.96     273      -43.7
   08/05/2017 06:20      65.9      65.6       83     60.5      0.00      0.00      88.3     0.33      1014.0     2       101         3       140        7.96     273      -48.1
   08/05/2017 06:10      65.8      65.6       83     60.3      0.00      0.00      88.3     0.33      1014.0     1        92         2        75        7.96     273      -49.5
   08/05/2017 06:00      66.1      65.8       82     60.1      0.00      0.00      88.4     0.33      1014.0     1        95         1       101        7.96     273      -50.5
   08/05/2017 05:50      66.4      66.2       82     60.5      0.00      0.00      88.8     0.33      1014.0     1       106         2       112        7.96     273      -51.3
   08/05/2017 05:40      66.2      65.9       82     60.3      0.00      0.00      88.5     0.33      1013.0     2       101         2        87        7.96     273      -52.3
   08/05/2017 05:30      65.9      65.7       81     59.8      0.00      0.00      88.6     0.33      1013.0     2       101         3       101        7.96     273      -53.8
   08/05/2017 05:20      66.4      66.2       80     60.0      0.00      0.00      88.5     0.33      1013.0     1        82         2        77        7.96     272      -55.2
   08/05/2017 05:10      66.7      66.4       80     60.1      0.00      0.00      88.4     0.33      1013.0     1       104         2       103        7.96     272      -57.0
   08/05/2017 05:00      66.8      66.7       79     60.2      0.00      0.00      88.8     0.33      1013.0     1        78         1        69        7.96     272      -57.6
   08/05/2017 04:50      66.8      66.4       79     60.1      0.00      0.00      88.5     0.33      1013.0     1        93         2       109        7.97     273      -58.4
   08/05/2017 04:40      66.7      66.4       79     59.7      0.00      0.00      88.6     0.33      1013.0     1        79         2        92        7.97     272      -58.7
   08/05/2017 04:30      67.1      66.6       78     59.6      0.00      0.00      88.8     0.33      1013.0     1        55         1        76        7.97     272      -59.2
   08/05/2017 04:20      67.3      67.1       78     60.0      0.00      0.00      88.8     0.33      1013.0     1        70         2        73        7.97     272      -59.6
   08/05/2017 04:10      67.3      66.8       79     60.1      0.00      0.00      88.9     0.33      1013.0     2        94         3       126        7.97     272      -59.1
   08/05/2017 04:00      67.3      67.0       79     60.3      0.00      0.00      88.7     0.33      1013.0     1       129         3       139        7.99     272      -57.9
   08/05/2017 03:50      67.4      67.2       78     60.4      0.00      0.00      88.9     0.33      1013.0     1       149         2       146        7.99     272      -57.7
   08/05/2017 03:40      67.7      67.5       78     60.5      0.00      0.00      88.8     0.33      1013.0     2       140         2       122        7.99     272      -57.9
   08/05/2017 03:30      67.8      67.4       78     60.6      0.00      0.00      88.7     0.33      1013.0     1       118         2       114        7.99     272      -57.5
   08/05/2017 03:20      67.5      67.2       78     60.4      0.00      0.00      89.2     0.33      1013.0     1       102         2        96        7.99     272      -56.1
   08/05/2017 03:10      67.7      67.3       78     60.4      0.00      0.00      88.9     0.33      1013.0     1       103         1        89        7.99     272      -57.7
   08/05/2017 03:00      68.0      67.6       77     60.2      0.00      0.00      89.0     0.33      1013.0     1        94         2       107        7.99     272      -58.8
   08/05/2017 02:50      68.3      68.1       77     60.6      0.00      0.00      89.1     0.33      1013.0     1        62         2        66        7.99     272      -59.5
   08/05/2017 02:40      68.4      68.1       76     60.6      0.00      0.00      89.3     0.33      1013.0     2        96         2       111        7.99     272      -60.4
   08/05/2017 02:30      68.5      68.3       76     60.6      0.00      0.00      89.3     0.33      1013.0     2       121         2       123        7.99     272      -61.2
   08/05/2017 02:20      68.5      68.3       76     60.6      0.00      0.00      89.0     0.33      1013.0     2       110         2       102        7.99     272      -61.5
   08/05/2017 02:10      68.7      68.5       76     60.6      0.00      0.00      89.3     0.33      1013.0     1       110         2       109        7.99     272      -61.5
   08/05/2017 02:00      69.0      68.6       75     60.5      0.00      0.00      89.3     0.33      1013.0     1        98         2        78        8.00     272      -61.8
   08/05/2017 01:50      69.1      69.0       74     60.6      0.00      0.00      89.5     0.33      1014.0     1        89         2        46        8.00     271      -61.8
   08/05/2017 01:40      69.1      69.0       74     60.6      0.00      0.00      89.2     0.33      1014.0     2        59         3        67        8.00     271      -61.6
   08/05/2017 01:30      69.2      69.1       74     60.6      0.00      0.00      89.1     0.33      1014.0     2        70         3        71        8.00     271      -61.3
   08/05/2017 01:20      69.3      69.1       74     60.7      0.00      0.00      89.1     0.33      1014.0     2        75         3        58        8.00     271      -61.4
   08/05/2017 01:10      69.4      69.1       74     60.8      0.00      0.00      89.2     0.33      1014.0     2        70         3        75        8.00     271      -61.6
   08/05/2017 01:00      69.4      69.3       74     60.6      0.00      0.00      89.3     0.33      1014.0     1        72         2        70        8.00     271      -62.8
   08/05/2017 00:50      69.8      69.6       73     60.6      0.00      0.00      89.5     0.33      1014.0     1        72         2       103        8.00     271      -63.2
   08/05/2017 00:40      70.2      69.8       72     60.5      0.00      0.00      89.3     0.33      1014.0     1        83         3        87        8.00     271      -63.4
   08/05/2017 00:30      70.3      70.0       72     60.8      0.00      0.00      89.5     0.33      1014.0     1        69         3        76        8.00     270      -64.1
   08/05/2017 00:20      70.5      70.3       72     61.0      0.00      0.00      89.4     0.33      1014.0     2        62         3        82        8.01     270      -64.4
   08/05/2017 00:10      71.0      70.5       71     61.1      0.00      0.00      89.5     0.33      1014.0     2        68         3        73        8.01     270      -64.3
   08/05/2017 00:00      71.4      71.0       71     61.4      0.00      0.00      89.4     0.33      1014.0     2        71         3        66        8.01     270      -64.8
   08/04/2017 23:50      71.7      71.4       70     61.3      0.00      0.00      89.3     0.33      1014.0     2        65         3        74        8.01     270      -65.1
   08/04/2017 23:40      71.9      71.7       69     61.2      0.00      0.00      89.7     0.33      1014.0     2        42         2        25        8.01     270      -65.4
   08/04/2017 23:30      72.3      72.0       69     61.5      0.00      0.00      89.7     0.33      1014.0     2        55         4        71        8.01     270      -65.5
   08/04/2017 23:20      72.4      72.2       69     61.5      0.00      0.00      89.5     0.33      1014.0     2        37         2        37        8.02     270      -65.9
   08/04/2017 23:10      72.7      72.2       69     61.6      0.00      0.00      89.7     0.33      1014.0     2        58         2        60        8.02     270      -66.4
   08/04/2017 23:00      73.5      72.6       67     61.6      0.00      0.00      89.7     0.33      1014.0     2        65         4        64        8.02     270      -67.0
   08/04/2017 22:50      74.2      73.7       65     61.5      0.00      0.00      89.5     0.33      1014.0     2        64         3        88        8.03     270      -67.6
   08/04/2017 22:40      74.5      74.2       63     61.2      0.00      0.00      89.8     0.33      1013.0     2        52         3        74        8.03     270      -67.9
   08/04/2017 22:30      75.5      74.8       62     61.1      0.00      0.00      89.7     0.33      1013.0     3        49         4        71        8.04     270      -68.4
   08/04/2017 22:20      76.2      75.5       59     60.8      0.00      0.00      89.9     0.33      1013.0     2        51         3        75        8.04     269      -68.4
   08/04/2017 22:10      76.9      76.3       56     60.0      0.00      0.00      89.7     0.33      1013.0     2        59         3        64        8.04     269      -69.0
   08/04/2017 22:00      77.4      77.1       52     58.4      0.00      0.00      89.7     0.33      1013.0     1        94         2        98        8.04     269      -68.6
   08/04/2017 21:50      77.5      77.2       50     57.0      0.00      0.00      89.9     0.33      1013.0     1       197         2       192        8.05     268      -68.8
   08/04/2017 21:40      78.3      77.6       48     56.7      0.00      0.00      89.7     0.33      1013.0     1        96         1        86        8.05     269      -71.0
   08/04/2017 21:30      78.4      78.3       47     56.8      0.00      0.00      89.8     0.33      1013.0     2       200         4       244        8.05     268      -72.3
   08/04/2017 21:20      78.9      78.5       46     56.3      0.00      0.00      89.6     0.33      1013.0     4       230         5       241        8.05     268      -72.4
   08/04/2017 21:10      79.3      79.0       44     55.6      0.00      0.00      89.8     0.33      1013.0     4       240         5       215        8.06     268      -73.4
   08/04/2017 21:00      80.0      79.5       42     54.9      0.00      0.00      89.7     0.33      1012.0     4       235         6       233        8.06     268      -74.4
   08/04/2017 20:50      80.4      80.0       41     54.7      0.00      0.00      89.7     0.33      1012.0     4       228         6       249        8.06     268      -75.5
   08/04/2017 20:40      81.3      80.6       41     54.8      0.00      0.00      89.7     0.33      1012.0     3       225         5       238        8.07     268      -76.5
   08/04/2017 20:30      82.1      81.5       39     54.6      0.00      0.00      89.6     0.33      1012.0     3       227         4       226        8.07     268      -77.1
   08/04/2017 20:20      82.7      82.2       36     53.1      0.00      0.00      89.7     0.33      1012.0     3       238         5       233        8.07     268      -77.8
   08/04/2017 20:10      83.1      82.8       34     51.4      0.00      0.00      89.7     0.33      1012.0     2       247         3       312        8.07     268      -78.8
   08/04/2017 20:00      83.7      83.3       33     51.3      0.00      0.00      89.7     0.33      1012.0     4       315         6       329        8.08     267      -78.5
   08/04/2017 19:50      84.6      83.8       33     52.0      0.00      0.00      89.4     0.33      1012.0     4       302         6       316        8.09     267      -76.0
   08/04/2017 19:40      85.2      84.6       33     52.7      0.00      0.00      89.7     0.33      1012.0     3       288         4       308        8.10     267      -71.5
   08/04/2017 19:30      85.9      85.4       33     53.0      0.00      0.00      89.5     0.33      1012.0     3       284         5       304        8.10     267      -66.9
   08/04/2017 19:20      86.9      85.9       32     53.1      0.00      0.00      89.6     0.33      1011.0     4       298         7       320        8.10     267      -53.8
   08/04/2017 19:10      88.1      87.0       30     52.3      0.00      0.00      89.4     0.33      1011.0     4       288         8       267        8.11     267      -38.5
   08/04/2017 19:00      88.6      88.4       28     51.6      0.00      0.00      89.5     0.33      1011.0     4       309         5       316        8.13     267      -21.1
   08/04/2017 18:50      89.7      88.7       27     51.0      0.00      0.00      89.5     0.33      1011.0     5       296         7       308        8.14     267       -0.3
   08/04/2017 18:40      91.4      90.3       26     51.1      0.00      0.00      89.4     0.33      1011.0     4       304         6       288        8.15     267       21.2
   08/04/2017 18:30      91.9      91.1       26     51.5      0.00      0.00      89.3     0.32      1011.0     4       312         7       315        8.15     267       44.8
   08/04/2017 18:20      93.0      92.2       28     54.4      0.00      0.00      89.3     0.32      1011.0     3       281         5       308        8.15     267       66.5
   08/04/2017 18:10      93.5      92.6       28     55.3      0.00      0.00      89.3     0.32      1011.0     4       256         5       241        8.15     268       90.7
   08/04/2017 18:00      93.5      92.7       29     56.3      0.00      0.00      89.3     0.32      1011.0     4       262         7       233        8.17     268      114.8
   08/04/2017 17:50      93.7      92.7       30     56.8      0.00      0.00      89.3     0.32      1011.0     4       220         7       191        8.17     268      139.3
   08/04/2017 17:40      94.9      93.3       30     57.5      0.00      0.00      89.1     0.32      1011.0     5       240         8       264        8.18     268      163.0
   08/04/2017 17:30      95.0      94.1       29     57.8      0.00      0.00      89.1     0.32      1011.0     3       230         6       248        8.18     268      184.4
   08/04/2017 17:20      94.6      93.9       30     58.2      0.00      0.00      88.9     0.32      1011.0     5       191         8       188        8.18     268      209.2
   08/04/2017 17:10      94.8      93.9       31     58.8      0.00      0.00      88.9     0.32      1011.0     3       240         7       250        8.18     268      229.1
   08/04/2017 17:00      94.4      93.8       31     59.3      0.00      0.00      89.0     0.32      1011.0     4       208         8       256        8.19     268      251.8
   08/04/2017 16:50      95.6      93.9       31     59.2      0.00      0.00      88.9     0.32      1011.0     4       220         7       233        8.19     268      273.3
   08/04/2017 16:40      95.0      94.0       31     59.4      0.00      0.00      88.8     0.32      1011.0     4       219         7       198        8.19     268      295.9
   08/04/2017 16:30      94.9      94.4       31     59.4      0.00      0.00      88.7     0.32      1011.0     5       207         7       188        8.19     268      317.4
   08/04/2017 16:20      95.8      94.4       30     59.0      0.00      0.00      88.8     0.32      1011.0     5       210        10       206        8.27     268      338.5
   08/04/2017 16:10      94.4      94.1       31     59.2      0.00      0.00      88.8     0.32      1011.0     5       225         8       265        8.28     269      359.8
   08/04/2017 16:00      94.4      94.2       32     59.8      0.00      0.00      88.6     0.32      1011.0     6       213         9       196        8.29     269      377.3
   08/04/2017 15:50      94.7      93.8       33     60.4      0.00      0.00      88.5     0.32      1012.0     6       227        10       201        8.29     269      396.9
   08/04/2017 15:40      94.1      93.3       34     61.1      0.00      0.00      88.5     0.32      1012.0     5       184         8       160        8.30     269      416.3
   08/04/2017 15:30      93.8      93.4       34     61.3      0.00      0.00      88.4     0.32      1012.0     7       165        10       164        8.31     269      431.0
   08/04/2017 15:20      94.2      92.9       35     61.5      0.00      0.00      88.2     0.32      1012.0     6       174         8       169        8.32     269      448.6
   08/04/2017 15:10      93.7      93.0       35     61.6      0.00      0.00      88.1     0.32      1012.0     5       158         8       130        8.33     269      464.4
   08/04/2017 15:00      93.5      91.8       36     61.7      0.00      0.00      88.0     0.32      1012.0     7       146        12       166        8.33     269      480.8
   08/04/2017 14:50      93.0      92.0       36     61.4      0.00      0.00      88.0     0.32      1012.0     7       182        10       160        8.33     269      493.9
   08/04/2017 14:40      93.2      92.0       35     61.1      0.00      0.00      88.0     0.32      1012.0     6       140        12       139        8.34     269      505.1
   08/04/2017 14:30      92.8      92.0       35     60.9      0.00      0.00      87.8     0.32      1013.0     7       133        10       144        8.34     269      513.9
   08/04/2017 14:20      93.5      92.0       34     60.8      0.00      0.00      87.7     0.32      1013.0     7       136        12       166        8.34     269      523.1
   08/04/2017 14:10      92.6      92.2       35     60.6      0.00      0.00      87.9     0.32      1013.0     6       150         8       149        8.34     269      532.2
   08/04/2017 14:00      93.3      91.9       35     60.8      0.00      0.00      87.8     0.32      1013.0     9       149        14       153        8.35     269      538.2
   08/04/2017 13:50      93.3      91.9       37     61.9      0.00      0.00      87.9     0.32      1013.0     6       173         9       130        8.35     269      544.9
   08/04/2017 13:40      94.1      92.0       36     62.1      0.00      0.00      87.6     0.32      1013.0     6       196         9       219        8.35     269      547.1
   08/04/2017 13:30      94.4      93.7       35     62.4      0.00      0.00      87.6     0.32      1013.0     5       183         9       164        8.35     269      548.9
   08/04/2017 13:20      94.2      92.2       36     62.4      0.00      0.00      87.7     0.32      1013.0     4       160         9       130        8.36     270      551.9
   08/04/2017 13:10      93.0      91.7       37     62.3      0.00      0.00      87.6     0.32      1013.0     4       158         8       164        8.36     270      558.0
   08/04/2017 13:00      94.5      93.2       36     62.6      0.00      0.00      87.5     0.32      1013.0     5       148         8       118        8.36     270      556.8
   08/04/2017 12:50      93.9      92.9       36     62.7      0.00      0.00      87.6     0.32      1014.0     6       130        10       162        8.36     270      551.0
   08/04/2017 12:40      94.4      93.0       34     61.3      0.00      0.00      87.5     0.32      1014.0     3        68         5        23        8.36     270      543.5
   08/04/2017 12:30      93.8      92.2       35     61.1      0.00      0.00      87.5     0.32      1014.0     3         4         6        89        8.37     270      544.6
   08/04/2017 12:20      94.5      93.7       34     61.2      0.00      0.00      87.5     0.32      1014.0     3        41         4        64        8.37     270      534.8
   08/04/2017 12:10      93.4      91.4       33     59.2      0.00      0.00      87.5     0.32      1014.0     2       255         4        71        8.37     270      531.7
   08/04/2017 12:00      92.2      90.9       34     59.2      0.00      0.00      87.3     0.32      1014.0     4        66         5        62        8.37     270      527.8
   08/04/2017 11:50      91.7      91.0       34     59.1      0.00      0.00      87.4     0.32      1014.0     4         6         5        16        8.37     270      521.7
   08/04/2017 11:40      91.1      89.7       34     58.4      0.00      0.00      87.5     0.32      1014.0     3        13         5        23        8.37     271      515.4
   08/04/2017 11:30      89.6      88.9       35     58.0      0.00      0.00      87.4     0.32      1015.0     3       235         5       130        8.37     271      515.1
   08/04/2017 11:20      90.0      88.7       35     58.4      0.00      0.00      87.4     0.32      1015.0     2       184         4       164        8.37     271      510.3
   08/04/2017 11:10      89.1      88.5       37     59.4      0.00      0.00      87.4     0.32      1015.0     2        15         5        68        8.37     271      495.9
   08/04/2017 11:00      88.7      87.7       40     60.5      0.00      0.00      87.5     0.32      1015.0     3        64         4       107        8.37     271      482.9
   08/04/2017 10:50      88.1      86.6       42     61.3      0.00      0.00      87.4     0.32      1015.0     3        61         4        85        8.38     271      468.0
   08/04/2017 10:40      86.6      86.1       44     61.6      0.00      0.00      87.5     0.32      1015.0     3       347         5       359        8.38     271      456.2
   08/04/2017 10:30      86.6      85.7       44     61.8      0.00      0.00      87.5     0.32      1015.0     3        20         4        12        8.38     272      438.8
   08/04/2017 10:20      85.8      84.5       45     61.8      0.00      0.00      87.6     0.32      1015.0     2       328         3       354        8.38     273      424.9
   08/04/2017 10:10      84.7      84.3       47     61.8      0.00      0.00      87.5     0.32      1015.0     2       138         3       123        8.38     273      406.9
   08/04/2017 10:00      85.3      84.4       47     62.1      0.00      0.00      87.7     0.32      1015.0     3        79         5        76        8.38     273      389.4
   08/04/2017 09:50      84.3      82.8       48     62.1      0.00      0.00      87.6     0.32      1015.0     2        32         4         3        8.38     273      373.3
   08/04/2017 09:40      83.3      82.8       49     62.0      0.00      0.00      87.5     0.32      1015.0     2         6         4         5        8.38     273      354.0
   08/04/2017 09:30      83.2      81.9       50     62.0      0.00      0.00      87.5     0.32      1015.0     2        82         4        89        8.38     273      336.3
   08/04/2017 09:20      81.9      80.7       51     61.9      0.00      0.00      87.7     0.32      1015.0     2       344         3       346        8.38     273      318.7
   08/04/2017 09:10      80.9      80.0       53     61.8      0.00      0.00      87.8     0.32      1015.0     2        21         4         2        8.38     273      300.6
   08/04/2017 09:00      80.2      78.4       54     61.6      0.00      0.00      87.5     0.32      1015.0     2         6         2       335        8.38     273      287.7
   08/04/2017 08:50      78.4      77.9       56     61.4      0.00      0.00      87.9     0.33      1015.0     2        44         3       332        8.38     273      286.4
   08/04/2017 08:40      78.1      77.3       57     61.4      0.00      0.00      88.0     0.33      1015.0     1        90         3        80        8.38     273      210.1
   08/04/2017 08:30      77.4      76.7       58     61.3      0.00      0.00      87.9     0.33      1015.0     2        35         3        37        8.38     273       36.7
   08/04/2017 08:20      76.8      76.2       59     61.1      0.00      0.00      88.1     0.33      1015.0     2       315         2       345        8.38     273       -1.5
   08/04/2017 08:10      76.2      75.6       60     60.9      0.00      0.00      87.9     0.33      1015.0     1       328         1       265        8.38     273       -8.2
   08/04/2017 08:00      75.6      75.0       61     60.7      0.00      0.00      87.9     0.33      1015.0     1       337         3         9        8.38     273       15.2
   08/04/2017 07:50      75.1      74.5       62     60.8      0.00      0.00      88.1     0.33      1015.0     1       283         2       292        8.38     273       -5.8
   08/04/2017 07:40      74.6      74.4       63     61.0      0.00      0.00      88.0     0.33      1015.0     1         1         2         0        8.38     273      -13.2
   08/04/2017 07:30      74.4      73.8       64     61.0      0.00      0.00      88.2     0.33      1015.0     1        34         2        32        8.38     273      -16.4
   08/04/2017 07:20      73.9      73.0       65     61.1      0.00      0.00      88.0     0.33      1015.0     1        84         2       129        8.38     273      -18.3
   08/04/2017 07:10      73.1      72.1       67     61.2      0.00      0.00      88.0     0.33      1014.0     1       126         1       181        8.40     273      -19.6
   08/04/2017 07:00      72.2      71.3       69     61.3      0.00      0.00      88.1     0.33      1014.0     1       158         1       153        8.40     273      -25.7
   08/04/2017 06:50      71.3      70.5       71     61.1      0.00      0.00      88.1     0.33      1014.0     1       149         2       147        8.40     273      -30.1
   08/04/2017 06:40      70.4      70.0       72     60.9      0.00      0.00      88.1     0.33      1014.0     1       152         2       160        8.40     273      -32.8
   08/04/2017 06:30      70.2      69.8       73     61.1      0.00      0.00      88.1     0.33      1014.0     2       169         3       173        8.40     273      -38.8
   08/04/2017 06:20      70.0      69.8       73     60.8      0.00      0.00      88.1     0.33      1014.0     2       166         2       164        8.40     273      -43.8
   08/04/2017 06:10      70.2      69.9       73     60.8      0.00      0.00      88.3     0.33      1014.0     1       194         1       200        8.41     273      -47.1
   08/04/2017 06:00      70.4      70.0       72     60.7      0.00      0.00      88.3     0.33      1014.0     1       130         2       162        8.41     272      -49.8
   08/04/2017 05:50      70.8      70.3       71     60.9      0.00      0.00      88.5     0.33      1014.0     2       156         2       139        8.42     272      -51.0
   08/04/2017 05:40      71.2      70.8       70     60.5      0.00      0.00      88.5     0.33      1014.0     2       169         3       174        8.43     272      -50.6
   08/04/2017 05:30      71.2      70.5       70     60.4      0.00      0.00      88.6     0.33      1014.0     2       181         2       193        8.43     272      -49.7
   08/04/2017 05:20      71.2      70.8       69     60.4      0.00      0.00      88.5     0.33      1014.0     1       102         1       126        8.44     272      -46.9
   08/04/2017 05:10      71.6      71.2       68     60.4      0.00      0.00      88.7     0.33      1014.0     1       107         1       122        8.44     272      -42.4
   08/04/2017 05:00      71.8      71.6       68     60.5      0.00      0.00      88.4     0.33      1014.0     1       299         1       204        8.44     272      -41.2
   08/04/2017 04:50      71.8      71.5       68     60.6      0.00      0.00      88.5     0.33      1014.0     2       203         2       185        8.45     272      -40.6
   08/04/2017 04:40      71.6      71.4       69     60.6      0.00      0.00      88.5     0.33      1014.0     2       188         2       176        8.45     272      -41.8
   08/04/2017 04:30      71.6      71.4       68     60.5      0.00      0.00      88.8     0.33      1014.0     2       163         3       157        8.45     272      -41.8
   08/04/2017 04:20      71.9      71.6       68     60.5      0.00      0.00      88.4     0.33      1014.0     1       146         2       157        8.45     272      -45.3
   08/04/2017 04:10      72.2      71.9       67     60.5      0.00      0.00      88.7     0.33      1015.0     1       120         1       111        8.45     272      -48.1
   08/04/2017 04:00      72.4      72.2       66     60.5      0.00      0.00      88.9     0.33      1015.0     1        83         2        95        8.45     272      -46.3
   08/04/2017 03:50      72.5      72.3       66     60.6      0.00      0.00      88.6     0.33      1015.0     1        93         3        69        8.46     272      -43.5
   08/04/2017 03:40      72.7      72.7       66     60.5      0.00      0.00      88.5     0.33      1015.0     2        72         3        88        8.46     272      -42.6
   08/04/2017 03:30      72.9      72.7       66     60.7      0.00      0.00      88.7     0.33      1015.0     2        67         3        25        8.46     272      -44.0
   08/04/2017 03:20      73.1      72.8       65     60.7      0.00      0.00      88.8     0.33      1015.0     1        83         2       102        8.46     272      -41.1
   08/04/2017 03:10      73.2      73.0       66     60.9      0.00      0.00      88.8     0.33      1015.0     2        54         3        25        8.46     272      -36.8
   08/04/2017 03:00      73.3      73.1       66     61.0      0.00      0.00      88.9     0.33      1015.0     2        16         3        34        8.46     272      -36.9
   08/04/2017 02:50      73.4      73.2       65     60.9      0.00      0.00      88.9     0.33      1015.0     2        42         3        53        8.46     272      -42.3
   08/04/2017 02:40      73.7      73.3       65     60.9      0.00      0.00      89.2     0.33      1015.0     2        41         4        23        8.46     272      -46.9
   08/04/2017 02:30      73.9      73.7       64     61.0      0.00      0.00      88.9     0.33      1015.0     2        32         3        13        8.46     272      -46.3
   08/04/2017 02:20      74.0      73.7       64     60.9      0.00      0.00      89.0     0.33      1015.0     2        54         4        63        8.46     272      -41.0
   08/04/2017 02:10      74.2      74.0       64     61.1      0.00      0.00      89.1     0.33      1015.0     2        41         4        57        8.47     271      -41.1
   08/04/2017 02:00      74.3      74.0       64     61.2      0.00      0.00      89.1     0.33      1015.0     1        52         2        34        8.47     272      -43.9
   08/04/2017 01:50      74.3      74.1       64     61.1      0.00      0.00      89.0     0.33      1015.0     2        46         3        54        8.47     272      -40.9
   08/04/2017 01:40      74.4      74.2       64     61.2      0.00      0.00      89.0     0.33      1015.0     2        32         3        36        8.47     272      -41.6
   08/04/2017 01:30      74.5      74.3       64     61.3      0.00      0.00      89.0     0.33      1015.0     2        42         2        23        8.47     271      -46.0
   08/04/2017 01:20      74.5      74.2       64     61.4      0.00      0.00      89.0     0.33      1015.0     2        53         4        70        8.47     271      -49.5
   08/04/2017 01:10      74.4      74.2       65     61.6      0.00      0.00      89.3     0.33      1015.0     1        45         2        49        8.47     271      -53.3
   08/04/2017 01:00      74.6      74.4       64     61.6      0.00      0.00      89.2     0.33      1015.0     1        79         2       106        8.47     271      -54.1
   08/04/2017 00:50      74.9      74.7       64     61.7      0.00      0.00      89.3     0.33      1015.0     2        46         2        36        8.47     271      -54.5
   08/04/2017 00:40      75.2      74.9       64     61.9      0.00      0.00      89.3     0.33      1015.0     2        42         3        40        8.47     271      -54.8
   08/04/2017 00:30      75.4      75.1       64     62.0      0.00      0.00      89.2     0.33      1015.0     1        45         2        39        8.47     271      -55.4
   08/04/2017 00:20      75.5      75.2       63     62.0      0.00      0.00      89.3     0.33      1015.0     2        49         3        39        8.47     271      -55.1
   08/04/2017 00:10      75.7      75.5       63     62.1      0.00      0.00      89.2     0.33      1015.0     2        42         4        77        8.48     271      -55.1
   08/04/2017 00:00      75.7      75.6       63     62.0      0.00      0.00      89.4     0.33      1015.0     2        44         2        36        8.48     271      -55.4
   08/03/2017 23:50      76.2      75.7       62     61.9      0.00      0.00      89.3     0.33      1015.0     3        69         5        79        8.48     271      -55.8
   08/03/2017 23:40      76.6      76.2       61     61.9      0.00      0.00      89.1     0.33      1015.0     2        59         3        80        8.48     271      -56.6
   08/03/2017 23:30      77.4      76.6       60     62.1      0.00      0.00      89.4     0.33      1015.0     3        50         4        75        8.48     270      -57.2
   08/03/2017 23:20      77.9      77.3       59     62.1      0.00      0.00      89.3     0.33      1015.0     2        49         3        69        8.48     270      -57.2
   08/03/2017 23:10      78.3      78.0       58     62.0      0.00      0.00      89.1     0.33      1015.0     1        41         2        50        8.48     270      -57.1
   08/03/2017 23:00      78.5      78.2       57     61.8      0.00      0.00      89.3     0.33      1015.0     1        49         1        48        8.48     270      -56.5
   08/03/2017 22:50      78.9      78.5       56     61.7      0.00      0.00      89.4     0.33      1015.0     1        94         3        84        8.48     270      -57.4
   08/03/2017 22:40      79.4      78.9       55     61.5      0.00      0.00      89.5     0.33      1015.0     1        73         2        69        8.48     270      -58.3
   08/03/2017 22:30      79.7      79.2       52     60.4      0.00      0.00      89.6     0.33      1015.0     2        74         3        65        8.48     270      -58.4
   08/03/2017 22:20      79.8      79.7       51     60.0      0.00      0.00      89.2     0.33      1015.0     1       160         2       159        8.48     270      -58.9
   08/03/2017 22:10      80.1      79.9       50     60.0      0.00      0.00      89.3     0.33      1014.0     1       178         3       219        8.49     270      -59.8
   08/03/2017 22:00      80.3      80.0       50     60.0      0.00      0.00      89.2     0.33      1014.0     2       220         4       247        8.49     270      -60.3
   08/03/2017 21:50      80.4      80.3       50     60.0      0.00      0.00      89.3     0.33      1014.0     3       214         5       206        8.49     270      -61.0
   08/03/2017 21:40      80.7      80.4       50     60.2      0.00      0.00      89.4     0.33      1014.0     3       196         5       195        8.49     270      -61.4
   08/03/2017 21:30      81.0      80.7       50     60.3      0.00      0.00      89.3     0.33      1014.0     2       201         4       184        8.49     270      -61.5
   08/03/2017 21:20      81.5      81.2       49     60.3      0.00      0.00      89.4     0.33      1014.0     2       215         4       223        8.50     270      -60.7
   08/03/2017 21:10      81.9      81.5       48     60.3      0.00      0.00      89.2     0.33      1014.0     3       231         4       228        8.50     270      -60.6
   08/03/2017 21:00      82.1      81.9       48     60.4      0.00      0.00      89.2     0.33      1014.0     3       227         3       272        8.50     269      -59.6
   08/03/2017 20:50      82.7      82.3       48     60.6      0.00      0.00      89.3     0.33      1014.0     4       208         6       184        8.50     269      -59.0
   08/03/2017 20:40      83.2      82.7       47     60.4      0.00      0.00      89.3     0.33      1013.0     4       200         7       197        8.50     269      -59.7
   08/03/2017 20:30      83.7      83.3       46     60.4      0.00      0.00      89.2     0.33      1013.0     4       220         6       245        8.51     269      -61.3
   08/03/2017 20:20      84.2      83.7       45     60.3      0.00      0.00      89.2     0.33      1013.0     4       217         7       226        8.51     269      -64.3
   08/03/2017 20:10      85.0      84.3       44     60.3      0.00      0.00      89.4     0.33      1013.0     4       213         6       199        8.51     269      -65.4
   08/03/2017 20:00      86.0      85.2       43     60.5      0.00      0.00      89.0     0.33      1013.0     2       239         3       303        8.51     269      -65.9
   08/03/2017 19:50      86.6      86.1       42     60.7      0.00      0.00      89.3     0.33      1013.0     4       296         8       253        8.54     269      -63.7
   08/03/2017 19:40      87.2      86.7       41     60.7      0.00      0.00      89.0     0.33      1013.0     5       270         5       302        8.55     269      -60.5
   08/03/2017 19:30      88.2      87.4       40     60.8      0.00      0.00      89.1     0.33      1013.0     5       277         9       249        8.56     268      -54.9
   08/03/2017 19:20      88.7      88.1       40     60.7      0.00      0.00      89.1     0.33      1013.0     4       244         7       214        8.56     268      -39.0
   08/03/2017 19:10      89.3      88.9       39     60.7      0.00      0.00      89.2     0.32      1012.0     4       250         5       259        8.56     268      -23.2
   08/03/2017 19:00      89.5      89.1       39     61.0      0.00      0.00      89.1     0.32      1012.0     5       283         9       272        8.56     269       -4.6
   08/03/2017 18:50      91.4      89.7       37     60.8      0.00      0.00      88.8     0.32      1012.0     6       265         8       249        8.57     268       12.6
   08/03/2017 18:40      92.1      91.8       36     61.0      0.00      0.00      89.0     0.32      1012.0     3       284         5       248        8.57     269       35.4
   08/03/2017 18:30      92.8      91.8       36     61.4      0.00      0.00      89.2     0.32      1012.0     6       322         9       338        8.63     268       60.4
   08/03/2017 18:20      93.2      92.6       35     61.5      0.00      0.00      88.9     0.32      1012.0     5       277         8       287        8.64     268       84.8
   08/03/2017 18:10      93.2      92.2       35     60.9      0.00      0.00      89.0     0.32      1012.0     7       288        11       305        8.65     268      105.7
   08/03/2017 18:00      93.3      92.8       35     61.0      0.00      0.00      88.9     0.32      1012.0     7       315         9       321        8.65     269      129.4
   08/03/2017 17:50      94.9      93.0       34     60.8      0.00      0.00      88.9     0.32      1012.0     5       307        10       317        8.65     268      151.1
   08/03/2017 17:40      95.4      94.8       32     60.9      0.00      0.00      88.7     0.32      1012.0     6       305         8       334        8.66     269      172.8
   08/03/2017 17:30      96.1      95.1       32     60.9      0.00      0.00      88.6     0.32      1012.0     7       308        10       333        8.66     268      196.1
   08/03/2017 17:20      95.8      94.2       33     61.1      0.00      0.00      88.5     0.32      1012.0     5       305         8       298        8.66     268      218.8
   08/03/2017 17:10      95.2      94.2       33     61.2      0.00      0.00      88.6     0.32      1012.0     5       303         8       297        8.67     268      240.9
   08/03/2017 17:00      94.7      94.2       33     61.1      0.00      0.00      88.5     0.32      1012.0     6       304        10       314        8.67     268      264.7
   08/03/2017 16:50      96.1      94.7       33     61.4      0.00      0.00      88.6     0.32      1012.0     8       317        15       334        8.67     268      286.3
   08/03/2017 16:40      97.3      95.6       32     62.1      0.00      0.00      88.4     0.32      1012.0     6       313        12       322        8.68     268      305.6
   08/03/2017 16:30      97.7      96.7       32     62.6      0.00      0.00      88.2     0.32      1012.0     6       283         6       331        8.68     269      326.8
   08/03/2017 16:20      96.8      96.1       33     62.6      0.00      0.00      88.3     0.32      1012.0     7       296         9       311        8.70     269      349.7
   08/03/2017 16:10      97.6      95.7       33     62.5      0.00      0.00      88.0     0.32      1012.0     8       307        13       327        8.71     269      371.6
   08/03/2017 16:00      97.5      96.2       33     62.4      0.00      0.00      88.2     0.32      1012.0     7       313        11       302        8.71     269      392.4
   08/03/2017 15:50      98.1      97.0       32     62.9      0.00      0.00      87.9     0.32      1012.0     6       316         9       320        8.72     269      403.3
   08/03/2017 15:40      98.6      97.3       32     63.5      0.00      0.00      88.0     0.32      1013.0     6       286         9       238        8.72     269      418.3
   08/03/2017 15:30      98.3      97.6       33     64.2      0.00      0.00      88.0     0.32      1013.0     6       284         8       322        8.72     269      434.8
   08/03/2017 15:20      99.3      98.0       33     64.5      0.00      0.00      87.9     0.32      1013.0     6       308        10       324        8.72     269      447.6
   08/03/2017 15:10      98.2      96.9       35     64.9      0.00      0.00      87.8     0.32      1013.0     5       194         9       212        8.73     269      463.1
   08/03/2017 15:00      98.1      96.8       35     65.0      0.00      0.00      87.6     0.32      1013.0     5       174         8       209        8.73     270      479.6
   08/03/2017 14:50      98.2      96.2       35     64.9      0.00      0.00      87.5     0.32      1013.0     7       168        12       156        8.74     270      488.4
   08/03/2017 14:40      99.3      98.0       34     65.5      0.00      0.00      87.5     0.32      1013.0     6       163         9       140        8.74     270      497.3
   08/03/2017 14:30      98.3      97.2       35     65.5      0.00      0.00      87.6     0.32      1013.0     6       159         8       139        8.74     270      511.6
   08/03/2017 14:20      98.4      97.2       35     65.3      0.00      0.00      87.5     0.32      1013.0     5       155         9       165        8.74     270      519.4
   08/03/2017 14:10      99.4      98.2       34     65.3      0.00      0.00      87.6     0.32      1013.0     6       107         9       127        8.74     270      537.3
   08/03/2017 14:00     100.0      98.8       33     65.4      0.00      0.00      87.5     0.32      1013.0     6       109         8       118        8.74     270      556.3
   08/03/2017 13:50      99.2      98.4       34     65.6      0.00      0.00      87.4     0.32      1013.0     3        75         5        70        8.74     271      581.1
   08/03/2017 13:40      99.3      98.2       34     65.7      0.00      0.00      87.4     0.32      1014.0     4        29         5        39        8.74     271      520.0
   08/03/2017 13:30      99.1      98.0       35     65.9      0.00      0.00      87.3     0.32      1014.0     4        35         8        72        8.74     271      551.6
   08/03/2017 13:20      99.2      97.5       35     65.9      0.00      0.00      87.0     0.32      1014.0     4        33         7       339        8.85     271      554.8
   08/03/2017 13:10      99.0      97.8       35     65.9      0.00      0.00      87.4     0.32      1014.0     4        27         7         6        8.86     271      570.7
   08/03/2017 13:00      98.5      96.8       36     65.7      0.00      0.00      87.2     0.32      1014.0     3        63         4       101        8.87     271      593.0
   08/03/2017 12:50      98.8      97.0       35     65.8      0.00      0.00      87.2     0.32      1014.0     4        95         6        82        8.87     271      581.6
   08/03/2017 12:40      96.8      95.4       36     65.4      0.00      0.00      87.2     0.32      1014.0     3        63         5        50        8.87     271      613.2
   08/03/2017 12:30      97.1      95.6       36     65.4      0.00      0.00      87.2     0.32      1014.0     4        34         7       356        8.87     271      618.8
   08/03/2017 12:20      96.6      95.0       37     65.3      0.00      0.00      87.2     0.32      1014.0     3        24         6       356        8.88     272      545.4
   08/03/2017 12:10      95.8      95.0       38     65.5      0.00      0.00      87.0     0.32      1014.0     3        28         5        30        8.88     272      502.6
   08/03/2017 12:00      95.1      93.5       39     65.6      0.00      0.00      87.2     0.32      1014.0     3        30         5         3        8.88     272      552.5
   08/03/2017 11:50      93.9      93.4       40     65.6      0.00      0.00      87.0     0.32      1015.0     3        35         5       343        8.88     272      347.6
   08/03/2017 11:40      94.7      94.1       39     65.5      0.00      0.00      87.2     0.32      1015.0     3        31         5       353        8.88     272      412.4
   08/03/2017 11:30      95.1      93.0       39     65.3      0.00      0.00      87.4     0.32      1015.0     4        62         8        65        8.88     273      650.5
   08/03/2017 11:20      92.7      91.3       42     65.2      0.00      0.00      87.1     0.32      1015.0     4        40         6        69        8.89     273      489.9
   08/03/2017 11:10      91.9      91.6       42     65.5      0.00      0.00      87.3     0.32      1015.0     4        46         6        72        8.89     273      277.1
   08/03/2017 11:00      93.7      92.1       41     66.1      0.00      0.00      87.3     0.32      1015.0     3        27         5        25        8.89     273      209.2
   08/03/2017 10:50      93.7      92.9       41     66.2      0.00      0.00      87.0     0.32      1015.0     2        48         4        75        8.89     273      502.2
   08/03/2017 10:40      93.0      92.4       42     66.0      0.00      0.00      87.2     0.32      1015.0     2        99         4       145        8.89     273      416.1
   08/03/2017 10:30      92.6      90.7       42     65.3      0.00      0.00      87.0     0.32      1015.0     2        68         4        91        8.90     274      364.3
   08/03/2017 10:20      90.6      89.4       44     65.2      0.00      0.00      87.2     0.32      1015.0     2        17         4        35        8.90     274      321.6
   08/03/2017 10:10      89.8      88.6       45     65.1      0.00      0.00      87.1     0.32      1015.0     2        32         4        79        8.90     275      435.5
   08/03/2017 10:00      88.8      88.6       46     65.3      0.00      0.00      87.1     0.32      1015.0     2        22         3         4        8.90     274      137.9
   08/03/2017 09:50      89.3      88.6       46     65.3      0.00      0.00      87.4     0.32      1015.0     2        65         3       359        8.90     274      177.5
   08/03/2017 09:40      88.9      88.5       46     65.2      0.00      0.00      87.2     0.32      1015.0     2        88         3        93        8.90     274      258.8
   08/03/2017 09:30      88.4      86.8       47     65.0      0.00      0.00      87.3     0.32      1015.0     1       144         3        81        8.90     275      244.5
   08/03/2017 09:20      87.0      86.4       48     64.9      0.00      0.00      87.4     0.32      1015.0     2       113         4       124        8.90     275      206.4
   08/03/2017 09:10      86.2      85.0       51     65.1      0.00      0.00      87.4     0.32      1015.0     2       146         4       158        8.91     275      245.0
   08/03/2017 09:00      85.2      84.3       52     65.0      0.00      0.00      87.3     0.32      1015.0     2       146         3       137        8.91     275      207.9
   08/03/2017 08:50      84.3      83.8       53     64.9      0.00      0.00      87.3     0.32      1015.0     3       114         4       116        8.91     275      174.6
   08/03/2017 08:40      83.6      83.2       53     64.7      0.00      0.00      87.3     0.32      1015.0     1        85         3        47        8.91     275      166.3
   08/03/2017 08:30      83.1      82.2       54     64.6      0.00      0.00      87.5     0.32      1015.0     2       177         3       149        8.91     275       60.9
   08/03/2017 08:20      82.1      81.2       56     64.2      0.00      0.00      87.4     0.32      1015.0     1       237         2       220        8.92     275       38.4
   08/03/2017 08:10      81.2      80.7       57     64.2      0.00      0.00      87.8     0.32      1015.0     2       209         3       205        8.92     275       45.3
   08/03/2017 08:00      80.8      79.8       58     64.2      0.00      0.00      87.6     0.32      1015.0     1       203         2       221        8.92     275       52.0
   08/03/2017 07:50      79.7      79.1       60     64.2      0.00      0.00      87.7     0.32      1015.0     2       199         3       219        8.93     275       45.3
   08/03/2017 07:40      79.3      78.5       61     64.3      0.00      0.00      87.5     0.32      1015.0     1       142         2       145        8.93     275       33.4
   08/03/2017 07:30      78.5      78.0       62     64.2      0.00      0.00      87.4     0.32      1015.0     1       112         2        94        8.93     275       21.3
   08/03/2017 07:20      78.1      77.4       63     64.0      0.00      0.00      87.9     0.32      1014.0     1       168         3       208        8.93     275       16.0
   08/03/2017 07:10      77.5      77.0       64     64.1      0.00      0.00      87.5     0.32      1014.0     2       163         3       172        8.93     275       10.5
   08/03/2017 07:00      77.1      76.0       65     64.0      0.00      0.00      87.4     0.32      1014.0     2       193         3       198        8.93     275        2.5
   08/03/2017 06:50      76.1      75.3       68     64.0      0.00      0.00      88.0     0.33      1014.0     3       175         3       182        8.93     275       -6.5
   08/03/2017 06:40      75.1      74.4       69     63.8      0.00      0.00      87.8     0.33      1014.0     2       185         2       196        8.93     275      -15.0
   08/03/2017 06:30      74.6      74.3       69     63.5      0.00      0.00      87.6     0.33      1014.0     2       179         2       162        8.93     275      -22.4
   08/03/2017 06:20      74.7      74.4       69     63.7      0.00      0.00      87.7     0.33      1014.0     1       133         1       179        8.93     274      -29.9
   08/03/2017 06:10      74.7      74.2       68     63.2      0.00      0.00      87.8     0.33      1014.0     2       178         3       213        8.93     275      -34.8
   08/03/2017 06:00      74.8      74.3       68     63.1      0.00      0.00      87.9     0.33      1014.0     2       176         3       159        8.93     274      -37.1
   08/03/2017 05:50      74.5      74.3       69     63.6      0.00      0.00      88.5     0.33      1014.0     1       207         2       174        8.93     274      -38.7
   08/03/2017 05:40      74.5      74.2       69     63.6      0.00      0.00      87.9     0.33      1014.0     1       113         2       167        8.93     275      -40.3
   08/03/2017 05:30      74.7      74.5       68     63.4      0.00      0.00      88.0     0.33      1014.0     1       171         2       164        8.93     274      -40.8
   08/03/2017 05:20      75.4      74.7       67     63.5      0.00      0.00      88.1     0.33      1014.0     1       165         2       173        8.94     274      -42.0
   08/03/2017 05:10      75.6      75.3       66     63.5      0.00      0.00      88.0     0.33      1014.0     1       163         1       135        8.94     274      -42.6
   08/03/2017 05:00      75.5      75.3       66     63.4      0.00      0.00      88.1     0.33      1014.0     2       170         3       173        8.94     274      -42.0
   08/03/2017 04:50      75.8      75.6       66     63.4      0.00      0.00      88.5     0.33      1014.0     1       121         1       135        8.94     274      -41.9
   08/03/2017 04:40      76.2      75.8       65     63.3      0.00      0.00      87.8     0.33      1014.0     1       147         2       161        8.94     274      -41.9
   08/03/2017 04:30      76.8      76.3       64     63.3      0.00      0.00      88.3     0.33      1014.0     1        96         1       143        8.94     274      -42.5
   08/03/2017 04:20      76.9      76.3       64     63.6      0.00      0.00      88.0     0.33      1014.0     1       357         2       342        8.94     274      -42.7
   08/03/2017 04:10      76.8      76.3       64     63.3      0.00      0.00      88.3     0.33      1014.0     1        92         2       123        8.94     274      -41.7
   08/03/2017 04:00      77.3      76.9       62     63.2      0.00      0.00      88.4     0.33      1014.0     1       173         1       114        8.94     274      -40.0
   08/03/2017 03:50      77.4      77.3       62     63.5      0.00      0.00      88.1     0.33      1014.0     1        20         2        16        8.95     274      -36.9
   08/03/2017 03:40      77.6      77.3       62     63.3      0.00      0.00      88.8     0.33      1014.0     1       149         2       161        8.95     274      -32.5
   08/03/2017 03:30      78.0      77.7       61     63.4      0.00      0.00      88.4     0.33      1014.0     1       113         2       163        8.95     274      -30.0
   08/03/2017 03:20      78.1      77.8       61     63.6      0.00      0.00      88.3     0.33      1014.0     1        29         2       355        8.95     274      -30.8
   08/03/2017 03:10      77.8      77.3       62     63.5      0.00      0.00      88.3     0.33      1014.0     3       129         5       156        8.96     274      -26.3
   08/03/2017 03:00      77.6      77.3       62     63.4      0.00      0.00      88.5     0.33      1014.0     3       153         4       152        8.96     274      -33.1
   08/03/2017 02:50      78.0      77.6       61     63.3      0.00      0.00      88.2     0.33      1014.0     1       119         2       134        8.96     274      -33.5
   08/03/2017 02:40      78.1      77.2       62     63.6      0.00      0.00      88.6     0.33      1014.0     2        13         3         2        8.96     274      -28.6
   08/03/2017 02:30      77.3      76.8       63     63.5      0.00      0.00      88.5     0.33      1014.0     1        47         2         0        8.96     274      -24.9
   08/03/2017 02:20      77.0      76.6       64     63.4      0.00      0.00      88.7     0.33      1014.0     1       137         2       151        8.96     274      -25.9
   08/03/2017 02:10      77.1      76.6       61     62.5      0.00      0.00      88.6     0.33      1014.0     2       171         2       189        8.97     274      -27.9
   08/03/2017 02:00      77.4      77.2       61     62.7      0.00      0.00      88.6     0.33      1014.0     1       187         2       193        8.97     274      -35.8
   08/03/2017 01:50      77.4      77.0       61     62.8      0.00      0.00      88.5     0.33      1014.0     1       183         1       175        8.97     274      -38.9
   08/03/2017 01:40      77.3      76.9       61     62.6      0.00      0.00      88.8     0.33      1014.0     1       193         1       210        8.97     274      -39.0
   08/03/2017 01:30      77.4      76.8       61     62.7      0.00      0.00      88.5     0.33      1014.0     1       130         1       150        8.97     274      -40.2
   08/03/2017 01:20      77.6      77.3       60     62.7      0.00      0.00      88.7     0.33      1014.0     1        79         1       136        8.97     274      -40.9
   08/03/2017 01:10      78.0      77.8       59     62.4      0.00      0.00      88.6     0.33      1014.0     1       166         1       187        8.97     274      -40.9
   08/03/2017 01:00      78.0      77.6       59     62.5      0.00      0.00      88.2     0.33      1014.0     1       207         1       182        8.97     274      -41.0
   08/03/2017 00:50      78.0      77.8       59     62.6      0.00      0.00      88.6     0.33      1014.0     1       112         1       104        8.97     274      -42.7
   08/03/2017 00:40      78.4      78.2       59     62.6      0.00      0.00      88.9     0.33      1014.0     1        63         1        85        8.98     274      -44.2
   08/03/2017 00:30      78.8      78.3       58     62.6      0.00      0.00      88.9     0.33      1014.0     1       119         2       137        8.98     274      -45.3
   08/03/2017 00:20      79.2      78.9       57     62.7      0.00      0.00      88.8     0.33      1014.0     0        77         1        72        8.98     273      -45.9
   08/03/2017 00:10      79.2      79.1       57     62.7      0.00      0.00      88.7     0.33      1014.0     1       110         2       104        8.98     273      -46.8
   08/03/2017 00:00      79.3      78.9       57     62.7      0.00      0.00      89.0     0.33      1014.0     2       123         3       127        8.98     273      -46.6
   08/02/2017 23:50      79.5      79.0       57     62.6      0.00      0.00      88.7     0.33      1014.0     1        69         2        82        8.98     273      -46.7
   08/02/2017 23:40      79.6      79.2       57     62.6      0.00      0.00      88.9     0.33      1014.0     1        38         1       327        8.98     273      -46.1
   08/02/2017 23:30      79.5      79.1       57     62.6      0.00      0.00      88.7     0.33      1014.0     1       112         1       133        8.98     273      -45.5
   08/02/2017 23:20      79.7      79.4       56     62.4      0.00      0.00      88.9     0.33      1014.0     1        93         1        80        8.99     273      -45.6
   08/02/2017 23:10      79.8      79.7       56     62.6      0.00      0.00      89.0     0.33      1014.0     0       112         1         3        8.99     273      -44.9
   08/02/2017 23:00      79.8      79.7       56     62.6      0.00      0.00      88.8     0.33      1014.0     1        52         2       116        8.99     273      -43.8
   08/02/2017 22:50      80.3      79.9       55     62.5      0.00      0.00      88.9     0.33      1014.0     1       104         2       111        8.99     273      -42.9
   08/02/2017 22:40      80.3      80.1       55     62.5      0.00      0.00      88.9     0.33      1014.0     1        97         1       107        8.99     273      -42.5
   08/02/2017 22:30      80.4      80.3       55     62.6      0.00      0.00      88.8     0.33      1014.0     1        90         1        70        8.99     273      -43.2
   08/02/2017 22:20      80.6      80.4       54     62.6      0.00      0.00      88.8     0.33      1014.0     1        96         1        89        8.99     273      -44.0
   08/02/2017 22:10      80.9      80.6       54     62.6      0.00      0.00      88.8     0.33      1014.0     1       113         2       133        8.99     273      -42.9
   08/02/2017 22:00      81.2      81.0       53     62.5      0.00      0.00      89.0     0.33      1014.0     2        85         3        89        8.99     273      -42.1
   08/02/2017 21:50      81.4      81.2       53     62.5      0.00      0.00      88.9     0.33      1014.0     1        70         3        73        8.99     273      -42.8
   08/02/2017 21:40      81.8      81.3       52     62.5      0.00      0.00      88.8     0.33      1013.0     1       100         2        77        9.00     273      -46.1
   08/02/2017 21:30      82.3      81.8       52     62.4      0.00      0.00      88.8     0.33      1013.0     1       111         1        68        9.00     273      -49.2
   08/02/2017 21:20      82.6      82.3       51     62.5      0.00      0.00      88.9     0.33      1013.0     1        36         3       359        9.00     273      -49.6
   08/02/2017 21:10      82.7      82.5       51     62.5      0.00      0.00      88.8     0.33      1013.0     2        32         3       359        9.00     272      -48.4
   08/02/2017 21:00      82.6      82.4       51     62.4      0.00      0.00      88.9     0.33      1013.0     2        63         3        75        9.00     272      -49.4
   08/02/2017 20:50      82.6      82.4       51     62.4      0.00      0.00      88.8     0.33      1013.0     2        92         3        72        9.00     272      -50.7
   08/02/2017 20:40      83.3      82.8       50     62.4      0.00      0.00      88.6     0.33      1013.0     3       103         6        87        9.00     272      -51.1
   08/02/2017 20:30      84.3      83.6       49     62.4      0.00      0.00      88.8     0.33      1013.0     3        89         5        93        9.00     272      -51.0
   08/02/2017 20:20      85.0      84.5       47     62.4      0.00      0.00      88.9     0.33      1012.0     2        78         4        71        9.01     272      -51.0
   08/02/2017 20:10      86.0      85.1       46     62.5      0.00      0.00      88.8     0.33      1012.0     2        47         4        72        9.01     272      -50.0
   08/02/2017 20:00      86.5      86.1       45     62.7      0.00      0.00      88.8     0.32      1012.0     2        25         3        16        9.01     272      -46.6
   08/02/2017 19:50      87.1      86.5       45     62.8      0.00      0.00      88.7     0.32      1012.0     2        39         3         3        9.01     272      -44.8
   08/02/2017 19:40      88.4      87.3       44     63.0      0.00      0.00      88.7     0.32      1012.0     2        17         4        22        9.01     272      -38.6
   08/02/2017 19:30      89.5      88.5       42     63.2      0.00      0.00      88.6     0.32      1012.0     2        23         4         2        9.01     272      -30.1
   08/02/2017 19:20      89.8      89.5       41     63.0      0.00      0.00      88.6     0.32      1012.0     2       135         3       138        9.02     271      -22.2
   08/02/2017 19:10      90.4      90.1       41     63.1      0.00      0.00      88.7     0.32      1011.0     3       135         4       162        9.02     271      -20.1
   08/02/2017 19:00      90.8      90.6       40     62.9      0.00      0.00      88.4     0.32      1011.0     3       159         5       166        9.02     271      -15.6
   08/02/2017 18:50      90.9      90.7       40     63.0      0.00      0.00      88.5     0.32      1011.0     4       164         7       154        9.03     271       -7.4
   08/02/2017 18:40      91.9      91.1       39     63.0      0.00      0.00      88.4     0.32      1011.0     4       167         6       175        9.03     271        2.0
   08/02/2017 18:30      92.5      92.0       38     63.1      0.00      0.00      88.4     0.32      1011.0     4       157         6       147        9.04     271       10.1
   08/02/2017 18:20      93.4      92.6       38     63.3      0.00      0.00      88.4     0.32      1011.0     6       157         7       168        9.04     271       19.7
   08/02/2017 18:10      94.0      93.3       37     63.5      0.00      0.00      88.2     0.32      1011.0     6       162         8       159        9.04     271       32.0
   08/02/2017 18:00      94.7      94.0       36     63.5      0.00      0.00      88.3     0.32      1011.0     5       151         6       156        9.05     271       34.9
   08/02/2017 17:50      95.3      94.8       36     63.6      0.00      0.00      88.2     0.32      1011.0     4       149         6       170        9.05     271       40.5
   08/02/2017 17:40      95.5      95.4       35     63.5      0.00      0.00      88.1     0.32      1011.0     4       147         5       154        9.05     271       50.8
   08/02/2017 17:30      95.5      95.0       35     63.4      0.00      0.00      88.3     0.32      1011.0     4       154         5       178        9.05     272       60.2
   08/02/2017 17:20      95.3      95.0       35     63.4      0.00      0.00      87.9     0.32      1011.0     5       157         7       166        9.06     271       63.8
   08/02/2017 17:10      95.4      95.0       35     63.4      0.00      0.00      88.0     0.32      1011.0     7       137         9       122        9.06     271       64.8
   08/02/2017 17:00      96.4      95.4       35     63.5      0.00      0.00      88.0     0.32      1011.0     7       132         8       122        9.05     271       71.7
   08/02/2017 16:50      97.0      96.7       34     63.6      0.00      0.00      88.0     0.32      1011.0     5       137         7       132        9.06     272       83.7
   08/02/2017 16:40      97.5      97.1       33     63.8      0.00      0.00      88.1     0.32      1011.0     5       168         7       179        9.06     272      107.0
   08/02/2017 16:30      99.4      97.7       33     64.0      0.00      0.00      87.9     0.32      1011.0     6       167         9        73        9.06     272      124.8
   08/02/2017 16:20     100.1      99.3       32     64.5      0.00      0.00      87.8     0.32      1011.0     4        82         6        57        9.06     272      141.0
   08/02/2017 16:10     100.7     100.3       31     64.8      0.00      0.00      87.7     0.32      1011.0     3        50         4        69        9.06     272      152.6
   08/02/2017 16:00     100.4      99.7       33     65.4      0.00      0.00      87.7     0.32      1011.0     2        47         4        37        9.05     273      179.3
   08/02/2017 15:50     100.7      99.6       32     65.4      0.00      0.00      87.6     0.32      1011.0     4       355         6         7        9.05     273      185.2
   08/02/2017 15:40     101.2     100.3       32     65.5      0.00      0.00      87.7     0.32      1011.0     3       360         4        97        9.05     273      288.1
   08/02/2017 15:30     100.8     100.1       32     65.5      0.00      0.00      87.6     0.32      1011.0     4        23         6       353        9.05     273      370.8
   08/02/2017 15:20     100.4     100.0       33     65.5      0.00      0.00      87.5     0.32      1011.0     4        51         6        65        9.06     273      281.9
   08/02/2017 15:10     100.2      98.3       33     65.5      0.00      0.00      87.7     0.32      1011.0     3        27         5        18        9.06     274      560.1
   08/02/2017 15:00      99.2      98.9       34     65.5      0.00      0.00      87.4     0.32      1011.0     3        65         5        91        9.06     275      284.6
   08/02/2017 14:50      99.5      98.7       34     65.5      0.00      0.00      87.5     0.32      1011.0     3        27         5       351        9.05     275      320.4
   08/02/2017 14:40      99.6      98.7       34     65.5      0.00      0.00      87.4     0.32      1012.0     3        27         5        31        9.06     276      343.1
   08/02/2017 14:30      99.5      98.9       33     65.4      0.00      0.00      87.3     0.32      1012.0     3        30         5        90        9.06     276      286.2
   08/02/2017 14:20      99.6      98.9       33     65.3      0.00      0.00      87.3     0.32      1012.0     3        20         5       341        9.06     277      349.2
   08/02/2017 14:10     100.1      99.3       32     65.0      0.00      0.00      87.4     0.32      1012.0     3        34         7        70        9.06     277      325.8
   08/02/2017 14:00     100.4      98.9       32     65.0      0.00      0.00      87.3     0.32      1012.0     4        14         7         6        9.06     279      673.2
   08/02/2017 13:50      98.6      98.1       34     64.9      0.00      0.00      87.2     0.32      1012.0     4        66         5        71        9.06     281      468.7
   08/02/2017 13:40      99.0      96.6       35     65.1      0.00      0.00      87.1     0.32      1012.0     3        57         6        63        9.06     282      581.9
   08/02/2017 13:30      96.7      94.6       36     64.3      0.00      0.00      87.2     0.32      1013.0     3        37         4        24        9.06     284      688.0
   08/02/2017 13:20      94.7      94.1       37     63.9      0.00      0.00      87.2     0.32      1013.0     3        39         5        70        9.06     284      369.1
   08/02/2017 13:10      94.4      93.9       37     63.6      0.00      0.00      87.0     0.32      1013.0     3        38         5        78        9.06     285      284.1
   08/02/2017 13:00      94.2      93.4       38     64.2      0.00      0.00      87.0     0.32      1013.0     3        60         6        81        9.06     286      219.4
   08/02/2017 12:50      94.4      94.0       38     64.8      0.00      0.00      86.9     0.32      1013.0     3        71         6        38        9.06     287      293.6
   08/02/2017 12:40      94.6      93.6       38     64.7      0.00      0.00      86.9     0.32      1013.0     3        27         4        10        9.06     288      305.7
   08/02/2017 12:30      94.2      94.0       39     65.1      0.00      0.00      86.8     0.32      1013.0     3        28         5        19        9.06     289      267.1
   08/02/2017 12:20      94.1      93.5       39     65.2      0.00      0.00      86.9     0.32      1013.0     3        51         6        91        9.06     290      317.2
   08/02/2017 12:10      93.6      92.8       40     65.2      0.00      0.00      86.6     0.32      1013.0     3        44         4        23        9.06     291      342.3
   08/02/2017 12:00      93.8      93.2       40     65.4      0.00      0.00      86.9     0.32      1013.0     3        45         7        78        9.06     293      246.9
   08/02/2017 11:50      94.1      93.3       38     64.3      0.00      0.00      86.9     0.32      1013.0     3        22         6         5        9.06     295      264.0
   08/02/2017 11:40      94.5      94.0       37     63.6      0.00      0.00      87.1     0.32      1013.0     3        33         4        26        9.06     297      214.2
   08/02/2017 11:30      94.6      94.2       36     63.4      0.00      0.00      86.9     0.32      1013.0     3        25         5        89        9.06     301      227.8
   08/02/2017 11:20      94.7      93.8       36     63.4      0.00      0.00      87.0     0.32      1013.0     3        26         5       348        9.06     305      374.1
   08/02/2017 11:10      94.1      93.7       37     63.4      0.00      0.00      87.1     0.32      1013.0     4         2         6         4        9.06     311      564.8
   08/02/2017 11:00      93.6      92.5       38     63.6      0.00      0.00      86.8     0.32      1013.0     3         6         6         3        9.06     316      520.9
   08/02/2017 10:50      92.3      91.7       39     63.9      0.00      0.00      86.8     0.32      1013.0     3        53         5         6        9.06     323      483.4
   08/02/2017 10:40      92.5      92.0       40     64.3      0.00      0.00      86.8     0.32      1013.0     4        18         6        20        9.06     336      473.7
   08/02/2017 10:30      92.5      90.8       40     64.1      0.00      0.00      86.7     0.32      1013.0     2        33         3        71        9.06     359      468.4
   08/02/2017 10:20      91.5      91.0       41     64.1      0.00      0.00      87.0     0.32      1013.0     2       106         4        69        9.06     389      465.0
   08/02/2017 10:10      91.2      89.9       42     64.1      0.00      0.00      86.9     0.32      1013.0     2        45         3        54        9.06     410      441.3
   08/02/2017 10:00      90.0      89.0       43     63.9      0.00      0.00      86.9     0.32      1013.0     2        30         4        84        9.06     423      433.9
   08/02/2017 09:50      88.9      87.4       44     63.7      0.00      0.00      86.9     0.32      1013.0     2        47         5        60        9.06     439      425.0
   08/02/2017 09:40      87.4      86.7       46     63.7      0.00      0.00      86.9     0.32      1013.0     2        21         3        76        9.06     453      351.4
   08/02/2017 09:30      86.9      85.5       47     63.7      0.00      0.00      87.1     0.32      1013.0     2        81         4        73        9.06     469      276.7
   08/02/2017 09:20      85.9      85.4       48     63.7      0.00      0.00      86.9     0.32      1013.0     3        90         5        69        9.06     488      226.7
   08/02/2017 09:10      86.1      85.0       48     63.7      0.00      0.00      87.2     0.32      1013.0     2        41         4        16        9.06     508      333.6
   08/02/2017 09:00      85.2      83.8       49     63.4      0.00      0.00      87.3     0.32      1013.0     2       103         4        98        9.06     544      358.2
   08/02/2017 08:50      83.8      82.7       51     63.4      0.00      0.00      87.1     0.32      1013.0     3        56         5        82        9.06     539      400.4
   08/02/2017 08:40      83.0      82.1       52     63.3      0.00      0.00      87.2     0.32      1013.0     2        44         3        79        9.06     551      155.0
   08/02/2017 08:30      82.2      81.2       54     63.4      0.00      0.00      87.5     0.32      1013.0     2        33         3        32        9.06     748      126.2
   08/02/2017 08:20      81.4      81.0       55     63.4      0.00      0.00      87.3     0.32      1013.0     1        17         3       354        9.06     273       86.8
   08/02/2017 08:10      80.9      80.1       56     63.1      0.00      0.00      87.2     0.32      1013.0     1        59         2        24        8.69     274       75.3
   08/02/2017 08:00      80.2      79.5       56     63.0      0.00      0.00      87.4     0.32      1013.0     1        24         2        24        8.39     273       68.3
   08/02/2017 07:50      79.5      78.3       58     63.0      0.00      0.00      87.2     0.32      1013.0     1        14         2        27        8.39     274       48.9
   08/02/2017 07:40      78.5      78.0       59     62.9      0.00      0.00      87.1     0.32      1013.0     1       112         3       126        8.39     273        9.6
   08/02/2017 07:30      78.4      78.2       59     62.8      0.00      0.00      87.0     0.32      1012.0     1        80         2        77        8.39     273       -1.5
   08/02/2017 07:20      78.2      77.5       60     63.0      0.00      0.00      87.4     0.32      1012.0     2        62         3        73        8.39     273       18.3
   08/02/2017 07:10      77.5      76.8       61     62.8      0.00      0.00      87.5     0.32      1012.0     1        29         2         1        8.39     273       16.1
   08/02/2017 07:00      76.8      76.1       62     62.4      0.00      0.00      87.7     0.32      1012.0     1        43         2        76        8.39     273       -0.9
   08/02/2017 06:50      76.3      75.8       62     62.2      0.00      0.00      87.7     0.32      1012.0     2       108         2        87        8.39     273      -15.1
   08/02/2017 06:40      76.1      75.7       62     62.1      0.00      0.00      87.5     0.32      1012.0     1        72         1        52        8.39     273      -21.2
   08/02/2017 06:30      75.8      75.2       63     62.0      0.00      0.00      87.8     0.32      1012.0     1        57         2        69        8.45     273      -20.5
   08/02/2017 06:20      75.4      74.9       63     61.6      0.00      0.00      87.7     0.32      1011.0     1       167         1       270        8.45     273      -26.3
   08/02/2017 06:10      75.3      74.9       63     61.6      0.00      0.00      87.9     0.32      1012.0     1       137         1       161        8.45     273      -35.4
   08/02/2017 06:00      75.5      75.1       63     61.7      0.00      0.00      87.8     0.32      1012.0     1       211         1       292        8.45     273      -38.5
   08/02/2017 05:50      75.6      75.2       63     61.8      0.00      0.00      87.8     0.32      1012.0     1       352         1       327        8.45     273      -34.8
   08/02/2017 05:40      75.7      75.4       62     61.5      0.00      0.00      87.7     0.32      1012.0     1       177         1       195        8.46     273      -26.6
   08/02/2017 05:30      75.7      75.5       61     61.5      0.00      0.00      87.7     0.32      1012.0     1       131         1       178        8.46     273      -27.6
   08/02/2017 05:20      75.8      75.2       62     61.7      0.00      0.00      87.6     0.32      1012.0     1       107         1       147        8.46     273      -27.9
   08/02/2017 05:10      75.3      75.1       63     61.9      0.00      0.00      87.6     0.32      1012.0     2       149         3       159        8.46     273      -26.8
   08/02/2017 05:00      75.3      75.2       62     61.3      0.00      0.00      87.7     0.32      1012.0     2       175         3       146        8.46     273      -34.3
   08/02/2017 04:50      75.4      74.8       62     61.0      0.00      0.00      87.9     0.32      1012.0     1       213         2       218        8.46     273      -37.9
   08/02/2017 04:40      75.8      75.1       61     61.1      0.00      0.00      88.1     0.32      1012.0     1       150         2       128        8.46     273      -39.5
   08/02/2017 04:30      76.0      75.4       60     60.8      0.00      0.00      87.9     0.32      1012.0     1       218         2       223        8.46     273      -38.0
   08/02/2017 04:20      75.9      75.6       60     61.2      0.00      0.00      87.8     0.32      1012.0     1       321         1         7        8.47     272      -44.0
   08/02/2017 04:10      76.2      75.8       60     61.2      0.00      0.00      87.8     0.32      1012.0     1       164         3       182        8.47     273      -45.0
   08/02/2017 04:00      76.6      76.0       60     61.3      0.00      0.00      87.8     0.32      1012.0     2       145         3       159        8.47     273      -37.4
   08/02/2017 03:50      76.8      76.2       58     60.9      0.00      0.00      88.3     0.32      1012.0     1       237         2       301        8.47     273      -28.8
   08/02/2017 03:40      76.3      76.1       59     61.0      0.00      0.00      88.0     0.32      1012.0     1       211         2       187        8.47     273      -28.5
   08/02/2017 03:30      76.3      76.1       60     61.2      0.00      0.00      87.8     0.32      1012.0     0       146         1       179        8.47     273      -31.6
   08/02/2017 03:20      76.3      76.0       60     61.4      0.00      0.00      87.8     0.32      1012.0     2       166         3       157        8.47     273      -31.4
   08/02/2017 03:10      76.5      76.2       59     60.8      0.00      0.00      88.2     0.32      1012.0     2       167         3       159        8.47     272      -27.4
   08/02/2017 03:00      76.5      76.2       58     60.7      0.00      0.00      87.9     0.32      1012.0     1       169         3       201        8.47     273      -26.4
   08/02/2017 02:50      76.5      76.3       59     60.8      0.00      0.00      87.9     0.32      1012.0     1        67         1        40        8.48     273      -27.9
   08/02/2017 02:40      76.5      76.2       59     60.8      0.00      0.00      88.1     0.32      1012.0     1        41         1        51        8.48     272      -30.9
   08/02/2017 02:30      76.5      76.3       58     60.6      0.00      0.00      87.9     0.32      1012.0     1       138         2       143        8.48     272      -31.5
   08/02/2017 02:20      76.6      76.1       58     60.5      0.00      0.00      88.2     0.32      1012.0     2       191         3       165        8.48     273      -30.3
   08/02/2017 02:10      76.3      75.9       59     60.5      0.00      0.00      88.1     0.32      1012.0     3       178         4       172        8.49     272      -33.8
   08/02/2017 02:00      76.5      76.0       58     60.4      0.00      0.00      88.2     0.32      1013.0     2       148         3       157        8.49     273      -35.8
   08/02/2017 01:50      77.0      76.6       56     60.2      0.00      0.00      88.2     0.32      1013.0     1       122         1       122        8.49     272      -38.5
   08/02/2017 01:40      77.3      77.1       56     60.1      0.00      0.00      88.1     0.32      1013.0     1        63         2         5        8.49     273      -36.4
   08/02/2017 01:30      77.2      76.9       56     60.0      0.00      0.00      88.4     0.32      1013.0     1        55         2        23        8.50     272      -43.4
   08/02/2017 01:20      77.4      77.2       55     59.9      0.00      0.00      88.2     0.32      1013.0     1       111         3       101        8.50     272      -47.7
   08/02/2017 01:10      77.9      77.5       54     59.9      0.00      0.00      88.3     0.32      1013.0     1        43         1        35        8.50     272      -47.3
   08/02/2017 01:00      78.0      77.8       54     59.8      0.00      0.00      88.2     0.32      1013.0     1        96         2        74        8.50     272      -36.6
   08/02/2017 00:50      78.2      78.0       53     59.7      0.00      0.00      88.3     0.32      1013.0     1        69         2        31        8.50     273      -30.3
   08/02/2017 00:40      78.3      78.1       53     59.8      0.00      0.00      88.3     0.32      1013.0     1        83         2       100        8.50     273      -30.0
   08/02/2017 00:30      78.6      78.3       53     59.9      0.00      0.00      88.3     0.32      1013.0     2        74         3        82        8.50     273      -30.5
   08/02/2017 00:20      78.8      78.5       53     60.2      0.00      0.00      88.2     0.32      1013.0     2        55         2        72        8.50     273      -30.5
   08/02/2017 00:10      78.8      78.5       54     60.6      0.00      0.00      88.1     0.32      1013.0     2        41         3        59        8.51     273      -32.3
   08/02/2017 00:00      78.6      78.5       55     60.9      0.00      0.00      88.6     0.32      1013.0     1        77         2        84        8.51     273      -36.5
   08/01/2017 23:50      79.3      78.8       54     60.9      0.00      0.00      88.2     0.32      1013.0     2       117         3       128        8.51     273      -46.0
   08/01/2017 23:40      79.7      79.5       53     60.9      0.00      0.00      88.3     0.32      1013.0     1        50         2        37        8.51     273      -44.3
   08/01/2017 23:30      79.8      79.5       53     60.8      0.00      0.00      88.4     0.32      1013.0     1        43         2        40        8.51     273      -37.2
   08/01/2017 23:20      80.0      79.7       53     60.9      0.00      0.00      88.3     0.32      1012.0     2        81         3        70        8.52     273      -40.6
   08/01/2017 23:10      80.3      80.1       53     61.3      0.00      0.00      88.0     0.32      1012.0     2        87         3        83        8.52     273      -42.8
   08/01/2017 23:00      81.0      80.3       53     61.8      0.00      0.00      88.4     0.32      1012.0     2       107         2       119        8.52     273      -47.5
   08/01/2017 22:50      81.4      81.2       52     62.2      0.00      0.00      88.4     0.32      1012.0     2        50         2        38        8.53     273      -49.4
   08/01/2017 22:40      81.9      81.5       52     62.5      0.00      0.00      88.3     0.32      1012.0     2        78         3        56        8.53     273      -50.6
   08/01/2017 22:30      82.4      82.0       52     62.8      0.00      0.00      88.1     0.32      1012.0     2        38         3        62        8.54     273      -51.4
   08/01/2017 22:20      83.1      82.4       51     63.0      0.00      0.00      88.1     0.32      1012.0     2        37         3        40        8.54     273      -50.0
   08/01/2017 22:10      84.1      83.4       52     64.1      0.00      0.00      88.1     0.32      1012.0     3        34         4        37        8.54     273      -48.3
   08/01/2017 22:00      84.5      84.3       52     64.8      0.00      0.00      88.3     0.32      1012.0     2        27         3        30        8.55     273      -47.0
   08/01/2017 21:50      84.9      84.4       51     64.3      0.00      0.00      88.0     0.32      1012.0     2        52         3        29        8.55     274      -46.9
   08/01/2017 21:40      84.6      84.3       50     63.8      0.00      0.00      88.3     0.32      1011.0     2        66         3        33        8.55     274      -47.4
   08/01/2017 21:30      84.6      84.3       51     64.4      0.00      0.00      88.2     0.32      1011.0     2       143         3       152        8.56     274      -48.7
   08/01/2017 21:20      84.6      83.7       53     65.0      0.00      0.00      88.0     0.32      1011.0     3       136         5       127        8.56     274      -49.9
   08/01/2017 21:10      84.1      83.6       55     65.9      0.00      0.00      88.3     0.32      1011.0     4       150         5       159        8.56     274      -51.7
   08/01/2017 21:00      84.1      83.5       55     66.2      0.00      0.00      88.2     0.32      1011.0     3       147         5       157        8.56     274      -48.5
   08/01/2017 20:50      83.6      82.9       57     66.3      0.00      0.00      88.2     0.32      1011.0     3       175         5       159        8.56     275      -40.8
   08/01/2017 20:40      83.2      82.7       60     67.8      0.00      0.00      88.1     0.32      1011.0     3       172         4       170        8.56     275      -37.0
   08/01/2017 20:30      84.3      83.5       56     66.6      0.00      0.00      88.1     0.32      1011.0     3       187         5       156        8.56     275      -38.3
   08/01/2017 20:20      84.5      83.5       57     67.2      0.00      0.00      87.9     0.32      1011.0     2       177         4       212        8.57     275      -36.7
   08/01/2017 20:10      84.6      84.5       55     66.8      0.00      0.00      88.3     0.32      1011.0     2       233         4       200        8.57     276      -30.6
   08/01/2017 20:00      84.7      84.0       56     67.1      0.00      0.00      87.7     0.32      1011.0     2       311         3       307        8.57     276      -28.4
   08/01/2017 19:50      84.2      84.0       57     67.2      0.00      0.00      88.1     0.32      1011.0     3       291         4       307        8.57     276      -27.3
   08/01/2017 19:40      84.1      83.5       57     67.2      0.00      0.00      88.1     0.32      1011.0     3       322         4       322        8.57     277      -23.6
   08/01/2017 19:30      83.8      83.5       58     67.5      0.00      0.00      87.8     0.32      1011.0     3       330         5       324        8.57     278      -16.8
   08/01/2017 19:20      83.6      83.3       59     67.7      0.00      0.00      87.5     0.32      1011.0     2       304         4       323        8.57     278       -8.8
   08/01/2017 19:10      84.3      83.7       59     68.3      0.00      0.00      87.8     0.32      1011.0     4       318         6       290        8.57     278       -1.0
   08/01/2017 19:00      85.5      84.5       59     68.8      0.00      0.00      87.7     0.32      1011.0     2        42         4       326        8.57     285        9.5
   08/01/2017 18:50      87.8      85.6       53     67.4      0.00      0.00      87.3     0.32      1011.0     2        36         3        14        8.57     308       -7.2
   08/01/2017 18:40      88.7      88.0       42     62.6      0.00      0.00      87.5     0.32      1011.0     3        79         5        80        8.58     317       28.6
   08/01/2017 18:30      88.1      87.4       42     61.9      0.00      0.00      87.5     0.32      1011.0     6       119         8       156        8.57     268       64.1
   08/01/2017 18:20      87.6      86.8       42     61.3      0.00      0.00      87.3     0.32      1011.0     7       110        11       117        8.58     268      103.3
   08/01/2017 18:10      88.1      86.4       42     60.9      0.00      0.00      87.4     0.32      1011.0     8       133        10       155        8.64     268      132.5
   08/01/2017 18:00      92.5      88.1       37     59.9      0.00      0.00      87.3     0.32      1011.0    10       119        14       109        8.64     267      221.5
   08/01/2017 17:50      97.3      93.2       30     58.4      0.00      0.00      87.4     0.32      1010.0    10       144        13       157        8.65     267      193.7
   08/01/2017 17:40     101.7      98.0       25     57.2      0.00      0.00      87.3     0.32      1010.0    10       141        16       146        8.68     268      211.7
   08/01/2017 17:30     101.5     101.1       24     57.5      0.00      0.00      87.4     0.32      1009.0     5       116         7       125        8.69     268      150.3
   08/01/2017 17:20     102.0     101.2       23     57.4      0.00      0.00      87.3     0.32      1009.0     5        96         6        76        8.69     267       45.4
   08/01/2017 17:10     103.6     102.0       23     57.5      0.00      0.00      87.3     0.32      1009.0     6       138         9       127        8.70     267      134.4
   08/01/2017 17:00     104.5     103.6       22     58.0      0.00      0.00      87.3     0.32      1009.0     5        79         7        75        8.70     268      280.1
   08/01/2017 16:50     104.8     104.6       22     58.2      0.00      0.00      87.1     0.32      1009.0     5        90         7        80        8.71     268      322.0
   08/01/2017 16:40     105.2     104.8       22     58.5      0.00      0.00      86.9     0.32      1009.0     5        76         7        90        8.71     268      301.0
   08/01/2017 16:30     105.1     103.4       23     58.8      0.00      0.00      86.9     0.32      1009.0     3        21         6       130        8.71     268      384.0
   08/01/2017 16:20     104.0     103.0       24     59.6      0.00      0.00      86.9     0.32      1009.0     2       259         4        85        8.72     269      329.4
   08/01/2017 16:10     104.5     101.9       25     60.3      0.00      0.00      86.8     0.32      1009.0     3        49         7        74        8.72     269      343.2
   08/01/2017 16:00     103.4     102.2       25     60.3      0.00      0.00      86.8     0.32      1009.0     3       113         4        99        8.72     269      361.7
   08/01/2017 15:50     104.4     103.2       25     60.9      0.00      0.00      86.8     0.32      1009.0     3        35         5       102        8.72     269      383.1
   08/01/2017 15:40     103.6     102.6       25     61.0      0.00      0.00      86.7     0.32      1009.0     3        69         4        48        8.76     269      422.2
   08/01/2017 15:30     103.2     101.1       27     61.7      0.00      0.00      86.6     0.32      1009.0     3         7         5       335        8.76     269      447.8
   08/01/2017 15:20     102.9     101.2       27     62.0      0.00      0.00      86.6     0.32      1010.0     2         8         5         8        8.76     269      474.4
   08/01/2017 15:10     101.2      99.7       29     62.0      0.00      0.00      86.3     0.32      1010.0     3       307         4       304        8.76     269      483.3
   08/01/2017 15:00     100.5      99.2       30     62.3      0.00      0.00      86.6     0.32      1010.0     3        36         5         8        8.76     269      448.1
   08/01/2017 14:50      99.9      99.4       30     62.2      0.00      0.00      86.5     0.31      1010.0     3        36         4        31        8.76     269      439.8
   08/01/2017 14:40      99.5      98.3       31     62.6      0.00      0.00      86.3     0.31      1010.0     3        39         4        10        8.76     269      555.2
   08/01/2017 14:30      98.9      98.1       31     62.8      0.00      0.00      86.3     0.31      1010.0     3        16         4       347        8.76     269      404.9
   08/01/2017 14:20      98.5      97.5       32     63.0      0.00      0.00      86.2     0.31      1010.0     3         9         6       356        8.76     269      399.2
   08/01/2017 14:10      98.8      96.0       33     63.4      0.00      0.00      86.1     0.31      1011.0     4         9         7       355        8.76     270      486.8
   08/01/2017 14:00      96.2      95.4       34     62.8      0.00      0.00      86.1     0.31      1011.0     3        33         6       347        8.87     270      459.7
   08/01/2017 13:50      96.2      95.0       33     62.1      0.00      0.00      86.1     0.31      1011.0     2        51         5       358        8.87     269      384.0
   08/01/2017 13:40      96.1      94.8       33     61.5      0.00      0.00      86.2     0.31      1011.0     3        43         5        75        8.87     270      509.4
   08/01/2017 13:30      94.9      94.1       34     61.6      0.00      0.00      86.1     0.31      1011.0     3        58         6        68        8.88     270      540.6
   08/01/2017 13:20      94.1      93.3       35     62.0      0.00      0.00      86.1     0.31      1011.0     4        36         5        52        8.88     270      548.6
   08/01/2017 13:10      94.0      93.0       35     62.1      0.00      0.00      86.0     0.31      1011.0     4         9         5        13        8.88     270      544.9
   08/01/2017 13:00      93.0      91.8       37     62.1      0.00      0.00      85.9     0.31      1011.0     3        16         5        19        8.88     270      546.5
   08/01/2017 12:50      91.9      91.4       37     61.9      0.00      0.00      86.1     0.31      1011.0     3        40         5        21        8.88     270      549.9
   08/01/2017 12:40      91.4      90.1       38     61.8      0.00      0.00      86.1     0.31      1011.0     2        30         4        20        8.88     270      556.0
   08/01/2017 12:30      89.9      89.2       39     61.7      0.00      0.00      86.0     0.31      1011.0     2        49         3        20        8.88     270      563.7
   08/01/2017 12:20      89.4      87.8       40     61.4      0.00      0.00      86.1     0.31      1011.0     3        36         6       355        8.89     270      550.2
   08/01/2017 12:10      88.2      87.5       42     62.2      0.00      0.00      85.9     0.31      1011.0     3        25         5       341        8.89     271      551.2
   08/01/2017 12:00      88.1      87.8       43     62.4      0.00      0.00      85.9     0.31      1012.0     3        47         5        71        8.89     270      547.2
   08/01/2017 11:50      87.7      86.9       43     62.1      0.00      0.00      85.8     0.31      1012.0     3        57         7        78        8.89     271      543.6
   08/01/2017 11:40      87.3      86.3       44     62.0      0.00      0.00      86.1     0.31      1012.0     4        20         8       352        8.89     271      548.2
   08/01/2017 11:30      86.5      85.6       45     61.9      0.00      0.00      86.1     0.32      1012.0     4        39         8         4        8.89     271      536.0
   08/01/2017 11:20      86.3      84.7       46     62.2      0.00      0.00      85.9     0.32      1012.0     5        28         7         1        8.89     271      528.7
   08/01/2017 11:10      85.2      84.3       46     62.0      0.00      0.00      86.4     0.32      1012.0     4        29         6        39        8.90     271      509.3
   08/01/2017 11:00      84.7      84.1       47     61.9      0.00      0.00      86.1     0.32      1012.0     5        44         7        78        8.90     271      494.4
   08/01/2017 10:50      84.5      84.0       46     61.6      0.00      0.00      86.3     0.32      1012.0     4        62         5        80        8.90     272      515.5
   08/01/2017 10:40      84.1      83.6       47     61.6      0.00      0.00      86.2     0.32      1012.0     4        59         6        53        8.90     272      431.9
   08/01/2017 10:30      83.9      83.4       49     62.3      0.00      0.00      86.3     0.32      1011.0     5        50         6        27        8.90     272      550.7
   08/01/2017 10:20      83.4      82.3       51     62.7      0.00      0.00      86.1     0.32      1011.0     6        49        12        78        8.90     273      452.9
   08/01/2017 10:10      82.3      79.8       52     62.1      0.00      0.00      86.4     0.32      1011.0     5        50         5        36        8.90     273      414.2
   08/01/2017 10:00      79.7      77.9       55     61.3      0.00      0.00      86.2     0.32      1010.0     5       162         8       162        8.91     272      213.5
   08/01/2017 09:50      77.6      76.2       59     61.4      0.00      0.00      86.1     0.32      1010.0     4       182         7       162        8.91     273      160.6
   08/01/2017 09:40      76.0      74.6       61     61.0      0.00      0.00      86.3     0.32      1011.0     4       194         6       210        8.91     273      181.8
   08/01/2017 09:30      74.6      73.3       63     60.7      0.00      0.00      86.5     0.32      1011.0     5       178         9       126        8.91     273      135.2
   08/01/2017 09:20      73.4      73.2       65     60.7      0.00      0.00      86.1     0.32      1011.0     5       283         8       258        8.91     273       43.0
   08/01/2017 09:10      73.4      73.2       65     60.7      0.00      0.00      86.3     0.32      1012.0     2       306         4       245        8.91     272       17.4
   08/01/2017 09:00      73.2      72.8       65     60.4      0.00      0.00      86.3     0.32      1012.0     2         6         3         1        8.91     272       16.1
   08/01/2017 08:50      73.1      72.6       65     60.5      0.00      0.00      86.6     0.32      1012.0     2       353         4       342        8.91     272       26.3
   08/01/2017 08:40      72.8      72.3       66     60.4      0.00      0.00      86.3     0.32      1012.0     2         4         2       339        8.91     272       39.6
   08/01/2017 08:30      72.5      72.2       66     60.3      0.00      0.00      86.6     0.32      1012.0     1        47         3        86        8.91     272       25.1
   08/01/2017 08:20      72.3      72.0       66     60.1      0.00      0.00      86.5     0.32      1012.0     1       128         3        75        8.91     272        8.0
   08/01/2017 08:10      72.6      72.2       65     60.0      0.00      0.00      86.6     0.32      1012.0     2        79         4        69        8.91     272        9.3
   08/01/2017 08:00      72.7      72.2       65     60.0      0.00      0.00      86.4     0.32      1012.0     2        48         3        37        8.91     272       16.5
   08/01/2017 07:50      72.4      71.8       66     59.8      0.00      0.00      86.6     0.32      1012.0     1        31         2        60        8.92     272       33.9
   08/01/2017 07:40      71.9      71.6       66     60.0      0.00      0.00      86.7     0.32      1012.0     2        75         3        82        8.92     272       24.1
   08/01/2017 07:30      71.6      71.1       67     60.0      0.00      0.00      86.5     0.32      1011.0     2        29         3        36        8.92     273       17.8
   08/01/2017 07:20      71.0      70.7       68     59.8      0.00      0.00      87.0     0.32      1011.0     1       342         1       322        8.92     272       12.9
   08/01/2017 07:10      70.8      70.3       68     59.5      0.00      0.00      86.6     0.32      1011.0     2        63         3        70        8.92     272       -0.6
   08/01/2017 07:00      70.3      70.0       68     59.2      0.00      0.00      86.7     0.32      1011.0     2       140         3       160        8.92     272      -12.2
   08/01/2017 06:50      70.3      69.6       68     59.1      0.00      0.00      86.8     0.32      1011.0     2       307         3       263        8.92     272      -16.7
   08/01/2017 06:40      69.7      69.6       69     59.1      0.00      0.00      86.9     0.32      1011.0     1       227         3       265        8.92     272      -20.5
   08/01/2017 06:30      69.7      69.1       70     59.2      0.00      0.00      86.8     0.32      1012.0     2         3         3       323        8.92     272      -24.9
   08/01/2017 06:20      69.4      69.0       70     59.1      0.00      0.00      87.1     0.32      1012.0     3       329         5       331        8.92     272      -27.7
   08/01/2017 06:10      69.1      68.5       71     58.9      0.00      0.00      86.9     0.32      1012.0     2       204         3       218        8.92     272      -29.0
   08/01/2017 06:00      68.7      68.5       71     58.8      0.00      0.00      86.9     0.32      1012.0     2        90         4       134        8.92     272      -29.3
   08/01/2017 05:50      68.5      68.1       71     58.7      0.00      0.00      87.2     0.32      1011.0     3       184         5       201        8.92     272      -29.2
   08/01/2017 05:40      68.2      67.6       72     58.5      0.00      0.00      86.9     0.32      1012.0     2       179         4       181        8.92     272      -31.3
   08/01/2017 05:30      67.8      67.5       73     58.5      0.00      0.00      87.1     0.32      1012.0     3       182         4       206        8.92     272      -37.0
   08/01/2017 05:20      67.6      67.3       72     58.3      0.00      0.00      87.0     0.32      1012.0     3       175         4       147        8.92     272      -38.4
   08/01/2017 05:10      68.1      67.8       71     58.3      0.00      0.00      86.9     0.32      1012.0     2       212         3       181        8.92     272      -43.3
   08/01/2017 05:00      68.2      68.0       71     58.5      0.00      0.00      86.8     0.32      1012.0     1       280         2       287        8.92     272      -41.4
   08/01/2017 04:50      68.1      67.7       72     58.4      0.00      0.00      87.2     0.32      1012.0     2       317         3       306        8.93     272      -36.7
   08/01/2017 04:40      67.9      67.6       72     58.4      0.00      0.00      87.1     0.32      1013.0     2         7         3       352        8.93     272      -32.4
   08/01/2017 04:30      67.9      67.6       72     58.3      0.00      0.00      87.4     0.32      1013.0     2        11         3         3        8.93     272      -39.2
   08/01/2017 04:20      67.9      67.7       71     58.3      0.00      0.00      87.2     0.32      1013.0     2        28         3        24        8.93     272      -51.7
   08/01/2017 04:10      68.2      67.9       70     58.0      0.00      0.00      87.1     0.32      1013.0     2        32         4        34        8.93     272      -51.9
   08/01/2017 04:00      68.3      68.1       69     57.7      0.00      0.00      87.3     0.32      1013.0     2        54         5        76        8.93     272      -52.7
   08/01/2017 03:50      68.7      68.3       68     57.7      0.00      0.00      87.0     0.32      1013.0     2        36         4        59        8.93     272      -55.5
   08/01/2017 03:40      68.8      68.6       68     57.9      0.00      0.00      87.2     0.32      1013.0     4        68         8        90        8.93     271      -54.8
   08/01/2017 03:30      69.3      68.8       68     58.0      0.00      0.00      87.5     0.32      1012.0     3        88         5        80        8.93     271      -57.6
   08/01/2017 03:20      69.3      69.1       68     58.2      0.00      0.00      87.4     0.32      1012.0     4        62         6        80        8.93     271      -57.0
   08/01/2017 03:10      69.3      68.8       69     58.4      0.00      0.00      87.5     0.32      1012.0     2        50         4        74        8.93     271      -55.7
   08/01/2017 03:00      69.0      68.6       70     58.3      0.00      0.00      87.4     0.32      1011.0     2        68         4        57        8.93     271      -57.2
   08/01/2017 02:50      69.1      68.8       68     58.1      0.00      0.00      87.3     0.32      1011.0     1        58         2        75        8.93     271      -57.3
   08/01/2017 02:40      69.7      69.1       68     58.3      0.00      0.00      87.6     0.32      1011.0     1        71         1        78        8.93     271      -56.6
   08/01/2017 02:30      70.0      69.6       67     58.4      0.00      0.00      87.7     0.32      1011.0     1        78         2        85        8.93     271      -53.9
   08/01/2017 02:20      70.2      70.0       67     58.5      0.00      0.00      87.4     0.32      1011.0     1       202         1       123        8.93     271      -51.3
   08/01/2017 02:10      70.2      70.0       66     58.4      0.00      0.00      87.3     0.32      1011.0     2        97         3        87        8.94     271      -53.0
   08/01/2017 02:00      70.3      70.1       66     58.3      0.00      0.00      87.5     0.32      1011.0     2        92         3        70        8.94     271      -57.9
   08/01/2017 01:50      70.7      70.3       64     58.0      0.00      0.00      87.6     0.32      1011.0     2       108         3       107        8.94     271      -57.4
   08/01/2017 01:40      70.9      70.6       64     58.1      0.00      0.00      87.6     0.32      1011.0     1       189         2       212        8.94     271      -45.8
   08/01/2017 01:30      70.9      70.8       64     58.1      0.00      0.00      87.5     0.32      1011.0     1       122         1       126        8.94     271      -39.4
   08/01/2017 01:20      71.0      70.8       64     58.1      0.00      0.00      87.4     0.32      1011.0     1       202         2       235        8.94     271      -36.8
   08/01/2017 01:10      71.2      71.0       64     58.2      0.00      0.00      87.8     0.32      1012.0     1       194         2       193        8.94     271      -35.9
   08/01/2017 01:00      71.3      71.1       64     58.3      0.00      0.00      87.8     0.32      1012.0     1        44         3        32        8.94     271      -39.9
   08/01/2017 00:50      71.5      71.3       64     58.5      0.00      0.00      87.6     0.32      1012.0     2        40         4        60        8.94     271      -44.8
   08/01/2017 00:40      71.3      71.1       64     58.5      0.00      0.00      87.8     0.32      1012.0     2        47         3        29        8.94     271      -44.5
   08/01/2017 00:30      71.3      71.1       65     58.7      0.00      0.00      87.5     0.32      1012.0     3        70         4        71        8.94     271      -45.0
   08/01/2017 00:20      71.3      71.1       65     58.9      0.00      0.00      87.9     0.32      1012.0     2        69         3        92        8.94     270      -45.8
   08/01/2017 00:10      71.3      71.0       65     58.8      0.00      0.00      87.9     0.32      1012.0     1        95         2        65        8.94     270      -47.6
   08/01/2017 00:00      71.3      71.1       65     58.8      0.00      0.00      88.0     0.32      1012.0     1        83         2        70        8.94     270      -52.0


Back to data home page